<?xml version="1.0" encoding="UTF-8" standalone="no" ?>
<gpx xmlns="http://www.topografix.com/GPX/1/1" xmlns:xsi="http://www.w3.org/2001/XMLSchema-instance" xsi:schemaLocation="http://www.topografix.com/GPX/1/1 http://www.topografix.com/GPX/1/1/gpx.xsd" version="1.1" creator="VisuGPX - https://www.visugpx.com">
  <metadata>
    <name>Descente de la loire 5/6</name>
    <desc><![CDATA[azertyuiop]]></desc>
  </metadata>
  <trk>
    <name><![CDATA[Etape 4]]></name>
    <trkseg>
      <trkpt lat="47.85609" lon="1.92504">
        <ele>81.849365234375</ele>
        <time>2013-06-28T04:31:33Z</time>
      </trkpt>
      <trkpt lat="47.85609" lon="1.92505">
        <ele>79.926635742188</ele>
        <time>2013-06-28T04:31:58Z</time>
      </trkpt>
      <trkpt lat="47.85609" lon="1.92505">
        <ele>85.213989257812</ele>
        <time>2013-06-28T04:32:43Z</time>
      </trkpt>
      <trkpt lat="47.85609" lon="1.92504">
        <ele>80.407470703125</ele>
        <time>2013-06-28T04:33:31Z</time>
      </trkpt>
      <trkpt lat="47.85613" lon="1.92503">
        <ele>90.98193359375</ele>
        <time>2013-06-28T04:34:18Z</time>
      </trkpt>
      <trkpt lat="47.85612" lon="1.92505">
        <ele>91.462524414062</ele>
        <time>2013-06-28T04:35:06Z</time>
      </trkpt>
      <trkpt lat="47.85612" lon="1.92506">
        <ele>91.943237304688</ele>
        <time>2013-06-28T04:35:49Z</time>
      </trkpt>
      <trkpt lat="47.85611" lon="1.92506">
        <ele>94.346557617188</ele>
        <time>2013-06-28T04:36:35Z</time>
      </trkpt>
      <trkpt lat="47.85611" lon="1.92507">
        <ele>91.462524414062</ele>
        <time>2013-06-28T04:37:19Z</time>
      </trkpt>
      <trkpt lat="47.85611" lon="1.92508">
        <ele>92.423950195312</ele>
        <time>2013-06-28T04:37:59Z</time>
      </trkpt>
      <trkpt lat="47.85614" lon="1.92509">
        <ele>90.501342773438</ele>
        <time>2013-06-28T04:38:14Z</time>
      </trkpt>
      <trkpt lat="47.85616" lon="1.92512">
        <ele>90.501342773438</ele>
        <time>2013-06-28T04:38:17Z</time>
      </trkpt>
      <trkpt lat="47.85616" lon="1.92519">
        <ele>90.98193359375</ele>
        <time>2013-06-28T04:38:22Z</time>
      </trkpt>
      <trkpt lat="47.85614" lon="1.92525">
        <ele>90.98193359375</ele>
        <time>2013-06-28T04:38:32Z</time>
      </trkpt>
      <trkpt lat="47.85615" lon="1.92526">
        <ele>94.346557617188</ele>
        <time>2013-06-28T04:38:50Z</time>
      </trkpt>
      <trkpt lat="47.85616" lon="1.92528">
        <ele>96.269287109375</ele>
        <time>2013-06-28T04:39:33Z</time>
      </trkpt>
      <trkpt lat="47.85616" lon="1.92537">
        <ele>96.269287109375</ele>
        <time>2013-06-28T04:40:05Z</time>
      </trkpt>
      <trkpt lat="47.85616" lon="1.92536">
        <ele>95.307739257812</ele>
        <time>2013-06-28T04:40:12Z</time>
      </trkpt>
      <trkpt lat="47.85618" lon="1.92528">
        <ele>94.346557617188</ele>
        <time>2013-06-28T04:40:22Z</time>
      </trkpt>
      <trkpt lat="47.85618" lon="1.92527">
        <ele>93.865844726562</ele>
        <time>2013-06-28T04:40:33Z</time>
      </trkpt>
      <trkpt lat="47.85618" lon="1.92526">
        <ele>93.865844726562</ele>
        <time>2013-06-28T04:40:50Z</time>
      </trkpt>
      <trkpt lat="47.85617" lon="1.92524">
        <ele>92.904541015625</ele>
        <time>2013-06-28T04:41:12Z</time>
      </trkpt>
      <trkpt lat="47.85617" lon="1.92524">
        <ele>91.462524414062</ele>
        <time>2013-06-28T04:41:28Z</time>
      </trkpt>
      <trkpt lat="47.85617" lon="1.92523">
        <ele>90.501342773438</ele>
        <time>2013-06-28T04:41:44Z</time>
      </trkpt>
      <trkpt lat="47.85616" lon="1.92524">
        <ele>91.943237304688</ele>
        <time>2013-06-28T04:41:54Z</time>
      </trkpt>
      <trkpt lat="47.85613" lon="1.92525">
        <ele>92.904541015625</ele>
        <time>2013-06-28T04:42:06Z</time>
      </trkpt>
      <trkpt lat="47.85611" lon="1.92528">
        <ele>92.423950195312</ele>
        <time>2013-06-28T04:42:17Z</time>
      </trkpt>
      <trkpt lat="47.8561" lon="1.92529">
        <ele>91.943237304688</ele>
        <time>2013-06-28T04:42:28Z</time>
      </trkpt>
      <trkpt lat="47.85609" lon="1.92529">
        <ele>92.904541015625</ele>
        <time>2013-06-28T04:42:46Z</time>
      </trkpt>
      <trkpt lat="47.85609" lon="1.92529">
        <ele>93.385131835938</ele>
        <time>2013-06-28T04:43:35Z</time>
      </trkpt>
      <trkpt lat="47.8561" lon="1.92529">
        <ele>84.252685546875</ele>
        <time>2013-06-28T04:44:21Z</time>
      </trkpt>
      <trkpt lat="47.85611" lon="1.92531">
        <ele>87.136596679688</ele>
        <time>2013-06-28T04:44:49Z</time>
      </trkpt>
      <trkpt lat="47.85608" lon="1.9254">
        <ele>88.098022460938</ele>
        <time>2013-06-28T04:44:56Z</time>
      </trkpt>
      <trkpt lat="47.85607" lon="1.92542">
        <ele>88.578735351562</ele>
        <time>2013-06-28T04:44:57Z</time>
      </trkpt>
      <trkpt lat="47.85601" lon="1.92548">
        <ele>89.539916992188</ele>
        <time>2013-06-28T04:45:04Z</time>
      </trkpt>
      <trkpt lat="47.85598" lon="1.92552">
        <ele>90.98193359375</ele>
        <time>2013-06-28T04:45:11Z</time>
      </trkpt>
      <trkpt lat="47.85597" lon="1.92552">
        <ele>90.98193359375</ele>
        <time>2013-06-28T04:45:29Z</time>
      </trkpt>
      <trkpt lat="47.85597" lon="1.92551">
        <ele>90.501342773438</ele>
        <time>2013-06-28T04:45:36Z</time>
      </trkpt>
      <trkpt lat="47.85593" lon="1.9255">
        <ele>90.501342773438</ele>
        <time>2013-06-28T04:45:38Z</time>
      </trkpt>
      <trkpt lat="47.85579" lon="1.92531">
        <ele>90.020629882812</ele>
        <time>2013-06-28T04:45:45Z</time>
      </trkpt>
      <trkpt lat="47.85573" lon="1.92518">
        <ele>89.059326171875</ele>
        <time>2013-06-28T04:45:48Z</time>
      </trkpt>
      <trkpt lat="47.8558" lon="1.92489">
        <ele>88.098022460938</ele>
        <time>2013-06-28T04:45:54Z</time>
      </trkpt>
      <trkpt lat="47.85596" lon="1.92457">
        <ele>87.136596679688</ele>
        <time>2013-06-28T04:46:04Z</time>
      </trkpt>
      <trkpt lat="47.85605" lon="1.92428">
        <ele>85.694580078125</ele>
        <time>2013-06-28T04:46:11Z</time>
      </trkpt>
      <trkpt lat="47.85598" lon="1.92402">
        <ele>85.213989257812</ele>
        <time>2013-06-28T04:46:17Z</time>
      </trkpt>
      <trkpt lat="47.85581" lon="1.9236">
        <ele>86.656005859375</ele>
        <time>2013-06-28T04:46:26Z</time>
      </trkpt>
      <trkpt lat="47.85578" lon="1.92334">
        <ele>84.7333984375</ele>
        <time>2013-06-28T04:46:32Z</time>
      </trkpt>
      <trkpt lat="47.85586" lon="1.92293">
        <ele>84.252685546875</ele>
        <time>2013-06-28T04:46:42Z</time>
      </trkpt>
      <trkpt lat="47.85586" lon="1.92276">
        <ele>85.213989257812</ele>
        <time>2013-06-28T04:46:46Z</time>
      </trkpt>
      <trkpt lat="47.85569" lon="1.92249">
        <ele>90.020629882812</ele>
        <time>2013-06-28T04:46:55Z</time>
      </trkpt>
      <trkpt lat="47.85547" lon="1.92225">
        <ele>92.904541015625</ele>
        <time>2013-06-28T04:47:05Z</time>
      </trkpt>
      <trkpt lat="47.85525" lon="1.92203">
        <ele>96.269287109375</ele>
        <time>2013-06-28T04:47:14Z</time>
      </trkpt>
      <trkpt lat="47.85506" lon="1.92184">
        <ele>97.711181640625</ele>
        <time>2013-06-28T04:47:22Z</time>
      </trkpt>
      <trkpt lat="47.85485" lon="1.92162">
        <ele>99.153076171875</ele>
        <time>2013-06-28T04:47:30Z</time>
      </trkpt>
      <trkpt lat="47.85477" lon="1.9215">
        <ele>99.6337890625</ele>
        <time>2013-06-28T04:47:35Z</time>
      </trkpt>
      <trkpt lat="47.85485" lon="1.92128">
        <ele>100.59509277344</ele>
        <time>2013-06-28T04:47:41Z</time>
      </trkpt>
      <trkpt lat="47.85509" lon="1.92093">
        <ele>101.07568359375</ele>
        <time>2013-06-28T04:47:50Z</time>
      </trkpt>
      <trkpt lat="47.85536" lon="1.92048">
        <ele>102.037109375</ele>
        <time>2013-06-28T04:48:00Z</time>
      </trkpt>
      <trkpt lat="47.85567" lon="1.91998">
        <ele>100.59509277344</ele>
        <time>2013-06-28T04:48:09Z</time>
      </trkpt>
      <trkpt lat="47.85593" lon="1.91944">
        <ele>99.153076171875</ele>
        <time>2013-06-28T04:48:18Z</time>
      </trkpt>
      <trkpt lat="47.856" lon="1.91928">
        <ele>99.153076171875</ele>
        <time>2013-06-28T04:48:24Z</time>
      </trkpt>
      <trkpt lat="47.85602" lon="1.91924">
        <ele>99.153076171875</ele>
        <time>2013-06-28T04:48:31Z</time>
      </trkpt>
      <trkpt lat="47.85602" lon="1.91925">
        <ele>96.749877929688</ele>
        <time>2013-06-28T04:49:04Z</time>
      </trkpt>
      <trkpt lat="47.85602" lon="1.91925">
        <ele>97.711181640625</ele>
        <time>2013-06-28T04:49:36Z</time>
      </trkpt>
      <trkpt lat="47.85601" lon="1.91923">
        <ele>102.51770019531</ele>
        <time>2013-06-28T04:49:57Z</time>
      </trkpt>
      <trkpt lat="47.85601" lon="1.91919">
        <ele>103.47900390625</ele>
        <time>2013-06-28T04:50:08Z</time>
      </trkpt>
      <trkpt lat="47.85609" lon="1.91904">
        <ele>102.037109375</ele>
        <time>2013-06-28T04:50:16Z</time>
      </trkpt>
      <trkpt lat="47.85621" lon="1.91881">
        <ele>101.55639648438</ele>
        <time>2013-06-28T04:50:27Z</time>
      </trkpt>
      <trkpt lat="47.85624" lon="1.91874">
        <ele>101.55639648438</ele>
        <time>2013-06-28T04:50:31Z</time>
      </trkpt>
      <trkpt lat="47.85626" lon="1.91865">
        <ele>101.07568359375</ele>
        <time>2013-06-28T04:50:36Z</time>
      </trkpt>
      <trkpt lat="47.85634" lon="1.91854">
        <ele>101.55639648438</ele>
        <time>2013-06-28T04:50:45Z</time>
      </trkpt>
      <trkpt lat="47.85645" lon="1.91831">
        <ele>101.55639648438</ele>
        <time>2013-06-28T04:50:52Z</time>
      </trkpt>
      <trkpt lat="47.85656" lon="1.91804">
        <ele>102.037109375</ele>
        <time>2013-06-28T04:51:01Z</time>
      </trkpt>
      <trkpt lat="47.85667" lon="1.91777">
        <ele>102.037109375</ele>
        <time>2013-06-28T04:51:08Z</time>
      </trkpt>
      <trkpt lat="47.85687" lon="1.91727">
        <ele>102.99829101562</ele>
        <time>2013-06-28T04:51:18Z</time>
      </trkpt>
      <trkpt lat="47.85712" lon="1.91649">
        <ele>104.4404296875</ele>
        <time>2013-06-28T04:51:32Z</time>
      </trkpt>
      <trkpt lat="47.85738" lon="1.91574">
        <ele>104.4404296875</ele>
        <time>2013-06-28T04:51:45Z</time>
      </trkpt>
      <trkpt lat="47.85762" lon="1.91507">
        <ele>104.4404296875</ele>
        <time>2013-06-28T04:51:56Z</time>
      </trkpt>
      <trkpt lat="47.85784" lon="1.91461">
        <ele>103.95971679688</ele>
        <time>2013-06-28T04:52:04Z</time>
      </trkpt>
      <trkpt lat="47.85816" lon="1.91407">
        <ele>103.47900390625</ele>
        <time>2013-06-28T04:52:14Z</time>
      </trkpt>
      <trkpt lat="47.85854" lon="1.9134">
        <ele>104.92102050781</ele>
        <time>2013-06-28T04:52:27Z</time>
      </trkpt>
      <trkpt lat="47.85895" lon="1.91272">
        <ele>105.88244628906</ele>
        <time>2013-06-28T04:52:41Z</time>
      </trkpt>
      <trkpt lat="47.85935" lon="1.91203">
        <ele>104.92102050781</ele>
        <time>2013-06-28T04:52:54Z</time>
      </trkpt>
      <trkpt lat="47.85957" lon="1.91144">
        <ele>102.99829101562</ele>
        <time>2013-06-28T04:53:02Z</time>
      </trkpt>
      <trkpt lat="47.85982" lon="1.91085">
        <ele>102.51770019531</ele>
        <time>2013-06-28T04:53:11Z</time>
      </trkpt>
      <trkpt lat="47.86013" lon="1.9103">
        <ele>101.55639648438</ele>
        <time>2013-06-28T04:53:21Z</time>
      </trkpt>
      <trkpt lat="47.86032" lon="1.90992">
        <ele>100.11450195312</ele>
        <time>2013-06-28T04:53:30Z</time>
      </trkpt>
      <trkpt lat="47.86034" lon="1.90989">
        <ele>100.11450195312</ele>
        <time>2013-06-28T04:53:37Z</time>
      </trkpt>
      <trkpt lat="47.86043" lon="1.90975">
        <ele>100.59509277344</ele>
        <time>2013-06-28T04:53:42Z</time>
      </trkpt>
      <trkpt lat="47.86055" lon="1.90947">
        <ele>101.07568359375</ele>
        <time>2013-06-28T04:53:48Z</time>
      </trkpt>
      <trkpt lat="47.86079" lon="1.90903">
        <ele>100.11450195312</ele>
        <time>2013-06-28T04:53:56Z</time>
      </trkpt>
      <trkpt lat="47.86123" lon="1.90819">
        <ele>99.153076171875</ele>
        <time>2013-06-28T04:54:11Z</time>
      </trkpt>
      <trkpt lat="47.8616" lon="1.90752">
        <ele>100.11450195312</ele>
        <time>2013-06-28T04:54:23Z</time>
      </trkpt>
      <trkpt lat="47.86164" lon="1.90748">
        <ele>99.6337890625</ele>
        <time>2013-06-28T04:54:24Z</time>
      </trkpt>
      <trkpt lat="47.86172" lon="1.90717">
        <ele>100.59509277344</ele>
        <time>2013-06-28T04:54:29Z</time>
      </trkpt>
      <trkpt lat="47.86175" lon="1.90704">
        <ele>100.59509277344</ele>
        <time>2013-06-28T04:54:31Z</time>
      </trkpt>
      <trkpt lat="47.86206" lon="1.90624">
        <ele>100.59509277344</ele>
        <time>2013-06-28T04:54:44Z</time>
      </trkpt>
      <trkpt lat="47.86237" lon="1.90548">
        <ele>101.07568359375</ele>
        <time>2013-06-28T04:54:56Z</time>
      </trkpt>
      <trkpt lat="47.86266" lon="1.9048">
        <ele>100.59509277344</ele>
        <time>2013-06-28T04:55:07Z</time>
      </trkpt>
      <trkpt lat="47.86297" lon="1.90407">
        <ele>101.55639648438</ele>
        <time>2013-06-28T04:55:19Z</time>
      </trkpt>
      <trkpt lat="47.86333" lon="1.90341">
        <ele>100.59509277344</ele>
        <time>2013-06-28T04:55:31Z</time>
      </trkpt>
      <trkpt lat="47.86371" lon="1.9027">
        <ele>100.59509277344</ele>
        <time>2013-06-28T04:55:44Z</time>
      </trkpt>
      <trkpt lat="47.864" lon="1.90198">
        <ele>97.711181640625</ele>
        <time>2013-06-28T04:55:56Z</time>
      </trkpt>
      <trkpt lat="47.86412" lon="1.90161">
        <ele>96.749877929688</ele>
        <time>2013-06-28T04:56:04Z</time>
      </trkpt>
      <trkpt lat="47.86413" lon="1.9016">
        <ele>97.23046875</ele>
        <time>2013-06-28T04:56:05Z</time>
      </trkpt>
      <trkpt lat="47.86421" lon="1.90161">
        <ele>97.711181640625</ele>
        <time>2013-06-28T04:56:09Z</time>
      </trkpt>
      <trkpt lat="47.86444" lon="1.90181">
        <ele>99.153076171875</ele>
        <time>2013-06-28T04:56:16Z</time>
      </trkpt>
      <trkpt lat="47.8648" lon="1.90212">
        <ele>98.19189453125</ele>
        <time>2013-06-28T04:56:25Z</time>
      </trkpt>
      <trkpt lat="47.865" lon="1.90225">
        <ele>97.23046875</ele>
        <time>2013-06-28T04:56:31Z</time>
      </trkpt>
      <trkpt lat="47.86505" lon="1.90227">
        <ele>97.711181640625</ele>
        <time>2013-06-28T04:56:32Z</time>
      </trkpt>
      <trkpt lat="47.86532" lon="1.90249">
        <ele>98.19189453125</ele>
        <time>2013-06-28T04:56:39Z</time>
      </trkpt>
      <trkpt lat="47.86561" lon="1.90261">
        <ele>97.23046875</ele>
        <time>2013-06-28T04:56:46Z</time>
      </trkpt>
      <trkpt lat="47.86599" lon="1.90273">
        <ele>96.269287109375</ele>
        <time>2013-06-28T04:56:55Z</time>
      </trkpt>
      <trkpt lat="47.86621" lon="1.90285">
        <ele>95.788452148438</ele>
        <time>2013-06-28T04:57:01Z</time>
      </trkpt>
      <trkpt lat="47.86643" lon="1.90294">
        <ele>95.307739257812</ele>
        <time>2013-06-28T04:57:06Z</time>
      </trkpt>
      <trkpt lat="47.8666" lon="1.90283">
        <ele>95.307739257812</ele>
        <time>2013-06-28T04:57:11Z</time>
      </trkpt>
      <trkpt lat="47.8666" lon="1.90276">
        <ele>95.307739257812</ele>
        <time>2013-06-28T04:57:12Z</time>
      </trkpt>
      <trkpt lat="47.86664" lon="1.90246">
        <ele>94.346557617188</ele>
        <time>2013-06-28T04:57:18Z</time>
      </trkpt>
      <trkpt lat="47.86668" lon="1.902">
        <ele>94.346557617188</ele>
        <time>2013-06-28T04:57:25Z</time>
      </trkpt>
      <trkpt lat="47.86669" lon="1.90193">
        <ele>93.865844726562</ele>
        <time>2013-06-28T04:57:26Z</time>
      </trkpt>
      <trkpt lat="47.86658" lon="1.90167">
        <ele>93.865844726562</ele>
        <time>2013-06-28T04:57:31Z</time>
      </trkpt>
      <trkpt lat="47.86654" lon="1.90166">
        <ele>93.865844726562</ele>
        <time>2013-06-28T04:57:32Z</time>
      </trkpt>
      <trkpt lat="47.86634" lon="1.90153">
        <ele>93.865844726562</ele>
        <time>2013-06-28T04:57:38Z</time>
      </trkpt>
      <trkpt lat="47.86638" lon="1.90116">
        <ele>94.346557617188</ele>
        <time>2013-06-28T04:57:44Z</time>
      </trkpt>
      <trkpt lat="47.86648" lon="1.9007">
        <ele>95.788452148438</ele>
        <time>2013-06-28T04:57:51Z</time>
      </trkpt>
      <trkpt lat="47.86662" lon="1.90025">
        <ele>98.19189453125</ele>
        <time>2013-06-28T04:57:58Z</time>
      </trkpt>
      <trkpt lat="47.86668" lon="1.90008">
        <ele>99.153076171875</ele>
        <time>2013-06-28T04:58:01Z</time>
      </trkpt>
      <trkpt lat="47.86674" lon="1.89967">
        <ele>99.153076171875</ele>
        <time>2013-06-28T04:58:07Z</time>
      </trkpt>
      <trkpt lat="47.86678" lon="1.8988">
        <ele>98.672485351562</ele>
        <time>2013-06-28T04:58:19Z</time>
      </trkpt>
      <trkpt lat="47.8668" lon="1.89832">
        <ele>98.19189453125</ele>
        <time>2013-06-28T04:58:26Z</time>
      </trkpt>
      <trkpt lat="47.86669" lon="1.89805">
        <ele>98.672485351562</ele>
        <time>2013-06-28T04:58:31Z</time>
      </trkpt>
      <trkpt lat="47.86659" lon="1.89801">
        <ele>98.672485351562</ele>
        <time>2013-06-28T04:58:33Z</time>
      </trkpt>
      <trkpt lat="47.8661" lon="1.89769">
        <ele>98.672485351562</ele>
        <time>2013-06-28T04:58:44Z</time>
      </trkpt>
      <trkpt lat="47.86602" lon="1.89764">
        <ele>98.672485351562</ele>
        <time>2013-06-28T04:58:46Z</time>
      </trkpt>
      <trkpt lat="47.86577" lon="1.89739">
        <ele>98.672485351562</ele>
        <time>2013-06-28T04:58:54Z</time>
      </trkpt>
      <trkpt lat="47.86574" lon="1.89695">
        <ele>99.153076171875</ele>
        <time>2013-06-28T04:59:02Z</time>
      </trkpt>
      <trkpt lat="47.86582" lon="1.89657">
        <ele>99.153076171875</ele>
        <time>2013-06-28T04:59:08Z</time>
      </trkpt>
      <trkpt lat="47.86579" lon="1.89633">
        <ele>99.153076171875</ele>
        <time>2013-06-28T04:59:13Z</time>
      </trkpt>
      <trkpt lat="47.86581" lon="1.8962">
        <ele>99.153076171875</ele>
        <time>2013-06-28T04:59:15Z</time>
      </trkpt>
      <trkpt lat="47.86596" lon="1.89542">
        <ele>99.153076171875</ele>
        <time>2013-06-28T04:59:26Z</time>
      </trkpt>
      <trkpt lat="47.86617" lon="1.89437">
        <ele>99.6337890625</ele>
        <time>2013-06-28T04:59:40Z</time>
      </trkpt>
      <trkpt lat="47.86641" lon="1.89326">
        <ele>101.07568359375</ele>
        <time>2013-06-28T04:59:55Z</time>
      </trkpt>
      <trkpt lat="47.86649" lon="1.89306">
        <ele>101.55639648438</ele>
        <time>2013-06-28T05:00:00Z</time>
      </trkpt>
      <trkpt lat="47.86649" lon="1.89306">
        <ele>102.99829101562</ele>
        <time>2013-06-28T05:00:07Z</time>
      </trkpt>
      <trkpt lat="47.8665" lon="1.89305">
        <ele>100.59509277344</ele>
        <time>2013-06-28T05:00:29Z</time>
      </trkpt>
      <trkpt lat="47.86651" lon="1.89304">
        <ele>100.59509277344</ele>
        <time>2013-06-28T05:00:46Z</time>
      </trkpt>
      <trkpt lat="47.86652" lon="1.89304">
        <ele>101.55639648438</ele>
        <time>2013-06-28T05:01:10Z</time>
      </trkpt>
      <trkpt lat="47.86652" lon="1.89304">
        <ele>103.47900390625</ele>
        <time>2013-06-28T05:01:38Z</time>
      </trkpt>
      <trkpt lat="47.86652" lon="1.89304">
        <ele>101.07568359375</ele>
        <time>2013-06-28T05:02:00Z</time>
      </trkpt>
      <trkpt lat="47.86652" lon="1.89303">
        <ele>100.11450195312</ele>
        <time>2013-06-28T05:02:05Z</time>
      </trkpt>
      <trkpt lat="47.86657" lon="1.89276">
        <ele>99.6337890625</ele>
        <time>2013-06-28T05:02:14Z</time>
      </trkpt>
      <trkpt lat="47.86664" lon="1.8924">
        <ele>100.59509277344</ele>
        <time>2013-06-28T05:02:21Z</time>
      </trkpt>
      <trkpt lat="47.86674" lon="1.89165">
        <ele>101.07568359375</ele>
        <time>2013-06-28T05:02:32Z</time>
      </trkpt>
      <trkpt lat="47.86688" lon="1.89069">
        <ele>99.6337890625</ele>
        <time>2013-06-28T05:02:44Z</time>
      </trkpt>
      <trkpt lat="47.86694" lon="1.88961">
        <ele>96.749877929688</ele>
        <time>2013-06-28T05:02:55Z</time>
      </trkpt>
      <trkpt lat="47.86685" lon="1.88884">
        <ele>95.788452148438</ele>
        <time>2013-06-28T05:03:03Z</time>
      </trkpt>
      <trkpt lat="47.86671" lon="1.88794">
        <ele>97.23046875</ele>
        <time>2013-06-28T05:03:14Z</time>
      </trkpt>
      <trkpt lat="47.8667" lon="1.88734">
        <ele>97.23046875</ele>
        <time>2013-06-28T05:03:22Z</time>
      </trkpt>
      <trkpt lat="47.8667" lon="1.88693">
        <ele>96.749877929688</ele>
        <time>2013-06-28T05:03:30Z</time>
      </trkpt>
      <trkpt lat="47.8667" lon="1.88666">
        <ele>96.749877929688</ele>
        <time>2013-06-28T05:03:39Z</time>
      </trkpt>
      <trkpt lat="47.86671" lon="1.88637">
        <ele>96.749877929688</ele>
        <time>2013-06-28T05:03:45Z</time>
      </trkpt>
      <trkpt lat="47.86672" lon="1.88571">
        <ele>97.711181640625</ele>
        <time>2013-06-28T05:03:55Z</time>
      </trkpt>
      <trkpt lat="47.86675" lon="1.8847">
        <ele>97.23046875</ele>
        <time>2013-06-28T05:04:09Z</time>
      </trkpt>
      <trkpt lat="47.86686" lon="1.88367">
        <ele>97.23046875</ele>
        <time>2013-06-28T05:04:22Z</time>
      </trkpt>
      <trkpt lat="47.86701" lon="1.88251">
        <ele>96.749877929688</ele>
        <time>2013-06-28T05:04:36Z</time>
      </trkpt>
      <trkpt lat="47.86717" lon="1.88114">
        <ele>98.19189453125</ele>
        <time>2013-06-28T05:04:52Z</time>
      </trkpt>
      <trkpt lat="47.86725" lon="1.88012">
        <ele>100.11450195312</ele>
        <time>2013-06-28T05:05:04Z</time>
      </trkpt>
      <trkpt lat="47.86739" lon="1.87898">
        <ele>102.51770019531</ele>
        <time>2013-06-28T05:05:18Z</time>
      </trkpt>
      <trkpt lat="47.86756" lon="1.87773">
        <ele>103.47900390625</ele>
        <time>2013-06-28T05:05:34Z</time>
      </trkpt>
      <trkpt lat="47.86769" lon="1.87673">
        <ele>103.95971679688</ele>
        <time>2013-06-28T05:05:47Z</time>
      </trkpt>
      <trkpt lat="47.8678" lon="1.87587">
        <ele>102.99829101562</ele>
        <time>2013-06-28T05:05:58Z</time>
      </trkpt>
      <trkpt lat="47.86788" lon="1.87491">
        <ele>102.99829101562</ele>
        <time>2013-06-28T05:06:10Z</time>
      </trkpt>
      <trkpt lat="47.86796" lon="1.87385">
        <ele>102.037109375</ele>
        <time>2013-06-28T05:06:23Z</time>
      </trkpt>
      <trkpt lat="47.86804" lon="1.8728">
        <ele>101.07568359375</ele>
        <time>2013-06-28T05:06:35Z</time>
      </trkpt>
      <trkpt lat="47.86804" lon="1.87183">
        <ele>99.153076171875</ele>
        <time>2013-06-28T05:06:46Z</time>
      </trkpt>
      <trkpt lat="47.86803" lon="1.8708">
        <ele>97.711181640625</ele>
        <time>2013-06-28T05:06:58Z</time>
      </trkpt>
      <trkpt lat="47.86799" lon="1.86974">
        <ele>96.269287109375</ele>
        <time>2013-06-28T05:07:10Z</time>
      </trkpt>
      <trkpt lat="47.868" lon="1.86866">
        <ele>94.346557617188</ele>
        <time>2013-06-28T05:07:22Z</time>
      </trkpt>
      <trkpt lat="47.86802" lon="1.8676">
        <ele>94.346557617188</ele>
        <time>2013-06-28T05:07:34Z</time>
      </trkpt>
      <trkpt lat="47.86813" lon="1.86676">
        <ele>94.346557617188</ele>
        <time>2013-06-28T05:07:44Z</time>
      </trkpt>
      <trkpt lat="47.8683" lon="1.86566">
        <ele>96.269287109375</ele>
        <time>2013-06-28T05:07:57Z</time>
      </trkpt>
      <trkpt lat="47.86847" lon="1.86483">
        <ele>95.788452148438</ele>
        <time>2013-06-28T05:08:07Z</time>
      </trkpt>
      <trkpt lat="47.86849" lon="1.86404">
        <ele>95.307739257812</ele>
        <time>2013-06-28T05:08:16Z</time>
      </trkpt>
      <trkpt lat="47.86841" lon="1.86309">
        <ele>95.307739257812</ele>
        <time>2013-06-28T05:08:27Z</time>
      </trkpt>
      <trkpt lat="47.86825" lon="1.86208">
        <ele>93.865844726562</ele>
        <time>2013-06-28T05:08:39Z</time>
      </trkpt>
      <trkpt lat="47.86817" lon="1.8613">
        <ele>92.904541015625</ele>
        <time>2013-06-28T05:08:48Z</time>
      </trkpt>
      <trkpt lat="47.86824" lon="1.86051">
        <ele>92.423950195312</ele>
        <time>2013-06-28T05:08:57Z</time>
      </trkpt>
      <trkpt lat="47.86837" lon="1.85934">
        <ele>91.462524414062</ele>
        <time>2013-06-28T05:09:11Z</time>
      </trkpt>
      <trkpt lat="47.86852" lon="1.85829">
        <ele>92.904541015625</ele>
        <time>2013-06-28T05:09:24Z</time>
      </trkpt>
      <trkpt lat="47.86854" lon="1.85738">
        <ele>93.385131835938</ele>
        <time>2013-06-28T05:09:35Z</time>
      </trkpt>
      <trkpt lat="47.86853" lon="1.85629">
        <ele>95.788452148438</ele>
        <time>2013-06-28T05:09:48Z</time>
      </trkpt>
      <trkpt lat="47.86855" lon="1.85529">
        <ele>97.23046875</ele>
        <time>2013-06-28T05:10:00Z</time>
      </trkpt>
      <trkpt lat="47.86857" lon="1.8543">
        <ele>94.8271484375</ele>
        <time>2013-06-28T05:10:12Z</time>
      </trkpt>
      <trkpt lat="47.86859" lon="1.85317">
        <ele>95.307739257812</ele>
        <time>2013-06-28T05:10:25Z</time>
      </trkpt>
      <trkpt lat="47.86859" lon="1.85184">
        <ele>96.749877929688</ele>
        <time>2013-06-28T05:10:40Z</time>
      </trkpt>
      <trkpt lat="47.86859" lon="1.85023">
        <ele>98.19189453125</ele>
        <time>2013-06-28T05:10:58Z</time>
      </trkpt>
      <trkpt lat="47.86859" lon="1.84909">
        <ele>98.672485351562</ele>
        <time>2013-06-28T05:11:11Z</time>
      </trkpt>
      <trkpt lat="47.86861" lon="1.84795">
        <ele>99.153076171875</ele>
        <time>2013-06-28T05:11:24Z</time>
      </trkpt>
      <trkpt lat="47.86866" lon="1.84709">
        <ele>96.749877929688</ele>
        <time>2013-06-28T05:11:34Z</time>
      </trkpt>
      <trkpt lat="47.86866" lon="1.847">
        <ele>96.269287109375</ele>
        <time>2013-06-28T05:11:35Z</time>
      </trkpt>
      <trkpt lat="47.86852" lon="1.84614">
        <ele>92.904541015625</ele>
        <time>2013-06-28T05:11:44Z</time>
      </trkpt>
      <trkpt lat="47.86835" lon="1.84521">
        <ele>94.346557617188</ele>
        <time>2013-06-28T05:11:54Z</time>
      </trkpt>
      <trkpt lat="47.8682" lon="1.84437">
        <ele>92.904541015625</ele>
        <time>2013-06-28T05:12:04Z</time>
      </trkpt>
      <trkpt lat="47.86792" lon="1.84315">
        <ele>93.865844726562</ele>
        <time>2013-06-28T05:12:19Z</time>
      </trkpt>
      <trkpt lat="47.86763" lon="1.8421">
        <ele>95.788452148438</ele>
        <time>2013-06-28T05:12:32Z</time>
      </trkpt>
      <trkpt lat="47.86734" lon="1.84126">
        <ele>95.788452148438</ele>
        <time>2013-06-28T05:12:43Z</time>
      </trkpt>
      <trkpt lat="47.86714" lon="1.84059">
        <ele>96.269287109375</ele>
        <time>2013-06-28T05:12:52Z</time>
      </trkpt>
      <trkpt lat="47.86706" lon="1.84034">
        <ele>96.749877929688</ele>
        <time>2013-06-28T05:12:56Z</time>
      </trkpt>
      <trkpt lat="47.86698" lon="1.83981">
        <ele>97.23046875</ele>
        <time>2013-06-28T05:13:03Z</time>
      </trkpt>
      <trkpt lat="47.86675" lon="1.83879">
        <ele>98.19189453125</ele>
        <time>2013-06-28T05:13:16Z</time>
      </trkpt>
      <trkpt lat="47.86649" lon="1.83785">
        <ele>100.11450195312</ele>
        <time>2013-06-28T05:13:28Z</time>
      </trkpt>
      <trkpt lat="47.8662" lon="1.83679">
        <ele>101.07568359375</ele>
        <time>2013-06-28T05:13:41Z</time>
      </trkpt>
      <trkpt lat="47.86595" lon="1.83589">
        <ele>102.037109375</ele>
        <time>2013-06-28T05:13:53Z</time>
      </trkpt>
      <trkpt lat="47.866" lon="1.83567">
        <ele>101.07568359375</ele>
        <time>2013-06-28T05:13:57Z</time>
      </trkpt>
      <trkpt lat="47.86594" lon="1.83544">
        <ele>101.07568359375</ele>
        <time>2013-06-28T05:14:01Z</time>
      </trkpt>
      <trkpt lat="47.86591" lon="1.83538">
        <ele>101.07568359375</ele>
        <time>2013-06-28T05:14:02Z</time>
      </trkpt>
      <trkpt lat="47.86559" lon="1.83471">
        <ele>100.59509277344</ele>
        <time>2013-06-28T05:14:12Z</time>
      </trkpt>
      <trkpt lat="47.8652" lon="1.8339">
        <ele>100.11450195312</ele>
        <time>2013-06-28T05:14:24Z</time>
      </trkpt>
      <trkpt lat="47.86485" lon="1.83319">
        <ele>101.07568359375</ele>
        <time>2013-06-28T05:14:35Z</time>
      </trkpt>
      <trkpt lat="47.86457" lon="1.83251">
        <ele>101.55639648438</ele>
        <time>2013-06-28T05:14:45Z</time>
      </trkpt>
      <trkpt lat="47.86432" lon="1.83186">
        <ele>101.55639648438</ele>
        <time>2013-06-28T05:14:55Z</time>
      </trkpt>
      <trkpt lat="47.86404" lon="1.83108">
        <ele>101.55639648438</ele>
        <time>2013-06-28T05:15:06Z</time>
      </trkpt>
      <trkpt lat="47.8637" lon="1.83009">
        <ele>101.55639648438</ele>
        <time>2013-06-28T05:15:19Z</time>
      </trkpt>
      <trkpt lat="47.86333" lon="1.82907">
        <ele>101.07568359375</ele>
        <time>2013-06-28T05:15:32Z</time>
      </trkpt>
      <trkpt lat="47.86295" lon="1.82816">
        <ele>100.59509277344</ele>
        <time>2013-06-28T05:15:44Z</time>
      </trkpt>
      <trkpt lat="47.86249" lon="1.82714">
        <ele>100.11450195312</ele>
        <time>2013-06-28T05:15:58Z</time>
      </trkpt>
      <trkpt lat="47.8621" lon="1.82631">
        <ele>100.11450195312</ele>
        <time>2013-06-28T05:16:10Z</time>
      </trkpt>
      <trkpt lat="47.86182" lon="1.82576">
        <ele>100.11450195312</ele>
        <time>2013-06-28T05:16:18Z</time>
      </trkpt>
      <trkpt lat="47.86131" lon="1.82482">
        <ele>100.11450195312</ele>
        <time>2013-06-28T05:16:32Z</time>
      </trkpt>
      <trkpt lat="47.86075" lon="1.82385">
        <ele>99.6337890625</ele>
        <time>2013-06-28T05:16:47Z</time>
      </trkpt>
      <trkpt lat="47.86026" lon="1.82314">
        <ele>99.153076171875</ele>
        <time>2013-06-28T05:16:59Z</time>
      </trkpt>
      <trkpt lat="47.85975" lon="1.82231">
        <ele>99.6337890625</ele>
        <time>2013-06-28T05:17:12Z</time>
      </trkpt>
      <trkpt lat="47.85932" lon="1.82147">
        <ele>100.59509277344</ele>
        <time>2013-06-28T05:17:24Z</time>
      </trkpt>
      <trkpt lat="47.85888" lon="1.82062">
        <ele>100.59509277344</ele>
        <time>2013-06-28T05:17:36Z</time>
      </trkpt>
      <trkpt lat="47.85838" lon="1.81962">
        <ele>99.6337890625</ele>
        <time>2013-06-28T05:17:50Z</time>
      </trkpt>
      <trkpt lat="47.85789" lon="1.81866">
        <ele>99.6337890625</ele>
        <time>2013-06-28T05:18:04Z</time>
      </trkpt>
      <trkpt lat="47.85739" lon="1.81769">
        <ele>98.672485351562</ele>
        <time>2013-06-28T05:18:18Z</time>
      </trkpt>
      <trkpt lat="47.85679" lon="1.81652">
        <ele>97.711181640625</ele>
        <time>2013-06-28T05:18:35Z</time>
      </trkpt>
      <trkpt lat="47.85626" lon="1.81548">
        <ele>97.711181640625</ele>
        <time>2013-06-28T05:18:50Z</time>
      </trkpt>
      <trkpt lat="47.85569" lon="1.81439">
        <ele>96.749877929688</ele>
        <time>2013-06-28T05:19:06Z</time>
      </trkpt>
      <trkpt lat="47.85521" lon="1.81345">
        <ele>97.23046875</ele>
        <time>2013-06-28T05:19:20Z</time>
      </trkpt>
      <trkpt lat="47.85461" lon="1.81228">
        <ele>98.19189453125</ele>
        <time>2013-06-28T05:19:37Z</time>
      </trkpt>
      <trkpt lat="47.85413" lon="1.81134">
        <ele>98.19189453125</ele>
        <time>2013-06-28T05:19:51Z</time>
      </trkpt>
      <trkpt lat="47.85365" lon="1.81041">
        <ele>97.711181640625</ele>
        <time>2013-06-28T05:20:05Z</time>
      </trkpt>
      <trkpt lat="47.85302" lon="1.80919">
        <ele>98.19189453125</ele>
        <time>2013-06-28T05:20:23Z</time>
      </trkpt>
      <trkpt lat="47.85245" lon="1.80808">
        <ele>98.672485351562</ele>
        <time>2013-06-28T05:20:39Z</time>
      </trkpt>
      <trkpt lat="47.85198" lon="1.80717">
        <ele>98.19189453125</ele>
        <time>2013-06-28T05:20:52Z</time>
      </trkpt>
      <trkpt lat="47.85149" lon="1.80641">
        <ele>98.19189453125</ele>
        <time>2013-06-28T05:21:04Z</time>
      </trkpt>
      <trkpt lat="47.85137" lon="1.80626">
        <ele>98.672485351562</ele>
        <time>2013-06-28T05:21:07Z</time>
      </trkpt>
      <trkpt lat="47.85122" lon="1.80594">
        <ele>98.19189453125</ele>
        <time>2013-06-28T05:21:12Z</time>
      </trkpt>
      <trkpt lat="47.85068" lon="1.80523">
        <ele>99.153076171875</ele>
        <time>2013-06-28T05:21:26Z</time>
      </trkpt>
      <trkpt lat="47.85022" lon="1.80461">
        <ele>99.6337890625</ele>
        <time>2013-06-28T05:21:38Z</time>
      </trkpt>
      <trkpt lat="47.85011" lon="1.80447">
        <ele>99.6337890625</ele>
        <time>2013-06-28T05:21:41Z</time>
      </trkpt>
      <trkpt lat="47.84968" lon="1.80388">
        <ele>99.153076171875</ele>
        <time>2013-06-28T05:21:52Z</time>
      </trkpt>
      <trkpt lat="47.84909" lon="1.80308">
        <ele>98.672485351562</ele>
        <time>2013-06-28T05:22:07Z</time>
      </trkpt>
      <trkpt lat="47.84857" lon="1.8024">
        <ele>99.153076171875</ele>
        <time>2013-06-28T05:22:20Z</time>
      </trkpt>
      <trkpt lat="47.84814" lon="1.80182">
        <ele>99.153076171875</ele>
        <time>2013-06-28T05:22:31Z</time>
      </trkpt>
      <trkpt lat="47.84789" lon="1.8015">
        <ele>99.6337890625</ele>
        <time>2013-06-28T05:22:39Z</time>
      </trkpt>
      <trkpt lat="47.84768" lon="1.80125">
        <ele>99.6337890625</ele>
        <time>2013-06-28T05:22:47Z</time>
      </trkpt>
      <trkpt lat="47.84737" lon="1.80086">
        <ele>100.11450195312</ele>
        <time>2013-06-28T05:22:55Z</time>
      </trkpt>
      <trkpt lat="47.84701" lon="1.80039">
        <ele>100.11450195312</ele>
        <time>2013-06-28T05:23:05Z</time>
      </trkpt>
      <trkpt lat="47.84675" lon="1.80001">
        <ele>100.11450195312</ele>
        <time>2013-06-28T05:23:14Z</time>
      </trkpt>
      <trkpt lat="47.8466" lon="1.79977">
        <ele>99.6337890625</ele>
        <time>2013-06-28T05:23:21Z</time>
      </trkpt>
      <trkpt lat="47.84641" lon="1.79952">
        <ele>100.59509277344</ele>
        <time>2013-06-28T05:23:27Z</time>
      </trkpt>
      <trkpt lat="47.84589" lon="1.79881">
        <ele>100.59509277344</ele>
        <time>2013-06-28T05:23:43Z</time>
      </trkpt>
      <trkpt lat="47.84556" lon="1.7983">
        <ele>100.59509277344</ele>
        <time>2013-06-28T05:23:54Z</time>
      </trkpt>
      <trkpt lat="47.84547" lon="1.79819">
        <ele>100.59509277344</ele>
        <time>2013-06-28T05:23:57Z</time>
      </trkpt>
      <trkpt lat="47.84515" lon="1.79757">
        <ele>100.59509277344</ele>
        <time>2013-06-28T05:24:08Z</time>
      </trkpt>
      <trkpt lat="47.84492" lon="1.79716">
        <ele>100.59509277344</ele>
        <time>2013-06-28T05:24:15Z</time>
      </trkpt>
      <trkpt lat="47.8448" lon="1.79685">
        <ele>100.59509277344</ele>
        <time>2013-06-28T05:24:20Z</time>
      </trkpt>
      <trkpt lat="47.84451" lon="1.79631">
        <ele>100.11450195312</ele>
        <time>2013-06-28T05:24:29Z</time>
      </trkpt>
      <trkpt lat="47.8441" lon="1.79555">
        <ele>100.11450195312</ele>
        <time>2013-06-28T05:24:41Z</time>
      </trkpt>
      <trkpt lat="47.84397" lon="1.79531">
        <ele>98.672485351562</ele>
        <time>2013-06-28T05:24:46Z</time>
      </trkpt>
      <trkpt lat="47.84372" lon="1.79484">
        <ele>98.672485351562</ele>
        <time>2013-06-28T05:24:55Z</time>
      </trkpt>
      <trkpt lat="47.84366" lon="1.79474">
        <ele>98.672485351562</ele>
        <time>2013-06-28T05:24:57Z</time>
      </trkpt>
      <trkpt lat="47.84359" lon="1.79455">
        <ele>98.19189453125</ele>
        <time>2013-06-28T05:25:02Z</time>
      </trkpt>
      <trkpt lat="47.84352" lon="1.79453">
        <ele>98.672485351562</ele>
        <time>2013-06-28T05:25:08Z</time>
      </trkpt>
      <trkpt lat="47.84347" lon="1.7945">
        <ele>99.6337890625</ele>
        <time>2013-06-28T05:25:22Z</time>
      </trkpt>
      <trkpt lat="47.84335" lon="1.79427">
        <ele>99.6337890625</ele>
        <time>2013-06-28T05:25:28Z</time>
      </trkpt>
      <trkpt lat="47.84314" lon="1.79387">
        <ele>99.153076171875</ele>
        <time>2013-06-28T05:25:35Z</time>
      </trkpt>
      <trkpt lat="47.84272" lon="1.79309">
        <ele>98.672485351562</ele>
        <time>2013-06-28T05:25:46Z</time>
      </trkpt>
      <trkpt lat="47.84222" lon="1.79214">
        <ele>99.153076171875</ele>
        <time>2013-06-28T05:26:00Z</time>
      </trkpt>
      <trkpt lat="47.84187" lon="1.79126">
        <ele>99.6337890625</ele>
        <time>2013-06-28T05:26:12Z</time>
      </trkpt>
      <trkpt lat="47.84142" lon="1.79009">
        <ele>99.6337890625</ele>
        <time>2013-06-28T05:26:28Z</time>
      </trkpt>
      <trkpt lat="47.84093" lon="1.78883">
        <ele>99.6337890625</ele>
        <time>2013-06-28T05:26:45Z</time>
      </trkpt>
      <trkpt lat="47.84047" lon="1.78764">
        <ele>99.6337890625</ele>
        <time>2013-06-28T05:27:01Z</time>
      </trkpt>
      <trkpt lat="47.83998" lon="1.78639">
        <ele>99.6337890625</ele>
        <time>2013-06-28T05:27:18Z</time>
      </trkpt>
      <trkpt lat="47.83956" lon="1.78529">
        <ele>99.6337890625</ele>
        <time>2013-06-28T05:27:33Z</time>
      </trkpt>
      <trkpt lat="47.83905" lon="1.78399">
        <ele>99.153076171875</ele>
        <time>2013-06-28T05:27:50Z</time>
      </trkpt>
      <trkpt lat="47.83864" lon="1.78293">
        <ele>98.19189453125</ele>
        <time>2013-06-28T05:28:04Z</time>
      </trkpt>
      <trkpt lat="47.83822" lon="1.78185">
        <ele>96.749877929688</ele>
        <time>2013-06-28T05:28:18Z</time>
      </trkpt>
      <trkpt lat="47.83771" lon="1.78052">
        <ele>97.711181640625</ele>
        <time>2013-06-28T05:28:35Z</time>
      </trkpt>
      <trkpt lat="47.83715" lon="1.77908">
        <ele>97.711181640625</ele>
        <time>2013-06-28T05:28:53Z</time>
      </trkpt>
      <trkpt lat="47.83666" lon="1.77777">
        <ele>97.711181640625</ele>
        <time>2013-06-28T05:29:09Z</time>
      </trkpt>
      <trkpt lat="47.83615" lon="1.77659">
        <ele>96.749877929688</ele>
        <time>2013-06-28T05:29:24Z</time>
      </trkpt>
      <trkpt lat="47.83573" lon="1.77599">
        <ele>96.269287109375</ele>
        <time>2013-06-28T05:29:33Z</time>
      </trkpt>
      <trkpt lat="47.83492" lon="1.77494">
        <ele>94.8271484375</ele>
        <time>2013-06-28T05:29:50Z</time>
      </trkpt>
      <trkpt lat="47.83427" lon="1.77409">
        <ele>94.8271484375</ele>
        <time>2013-06-28T05:30:04Z</time>
      </trkpt>
      <trkpt lat="47.83366" lon="1.7733">
        <ele>95.307739257812</ele>
        <time>2013-06-28T05:30:17Z</time>
      </trkpt>
      <trkpt lat="47.83293" lon="1.77234">
        <ele>95.788452148438</ele>
        <time>2013-06-28T05:30:33Z</time>
      </trkpt>
      <trkpt lat="47.83228" lon="1.7715">
        <ele>97.23046875</ele>
        <time>2013-06-28T05:30:48Z</time>
      </trkpt>
      <trkpt lat="47.83165" lon="1.77066">
        <ele>97.711181640625</ele>
        <time>2013-06-28T05:31:03Z</time>
      </trkpt>
      <trkpt lat="47.83099" lon="1.76979">
        <ele>98.672485351562</ele>
        <time>2013-06-28T05:31:18Z</time>
      </trkpt>
      <trkpt lat="47.83046" lon="1.76904">
        <ele>98.19189453125</ele>
        <time>2013-06-28T05:31:30Z</time>
      </trkpt>
      <trkpt lat="47.82976" lon="1.76814">
        <ele>97.23046875</ele>
        <time>2013-06-28T05:31:45Z</time>
      </trkpt>
      <trkpt lat="47.82918" lon="1.7674">
        <ele>96.269287109375</ele>
        <time>2013-06-28T05:31:57Z</time>
      </trkpt>
      <trkpt lat="47.82858" lon="1.76658">
        <ele>94.8271484375</ele>
        <time>2013-06-28T05:32:09Z</time>
      </trkpt>
      <trkpt lat="47.828" lon="1.76585">
        <ele>93.385131835938</ele>
        <time>2013-06-28T05:32:20Z</time>
      </trkpt>
      <trkpt lat="47.82728" lon="1.76489">
        <ele>93.385131835938</ele>
        <time>2013-06-28T05:32:34Z</time>
      </trkpt>
      <trkpt lat="47.82649" lon="1.76384">
        <ele>92.904541015625</ele>
        <time>2013-06-28T05:32:50Z</time>
      </trkpt>
      <trkpt lat="47.82566" lon="1.76274">
        <ele>93.865844726562</ele>
        <time>2013-06-28T05:33:07Z</time>
      </trkpt>
      <trkpt lat="47.82497" lon="1.76183">
        <ele>94.346557617188</ele>
        <time>2013-06-28T05:33:22Z</time>
      </trkpt>
      <trkpt lat="47.82431" lon="1.76092">
        <ele>96.269287109375</ele>
        <time>2013-06-28T05:33:37Z</time>
      </trkpt>
      <trkpt lat="47.82394" lon="1.76025">
        <ele>92.904541015625</ele>
        <time>2013-06-28T05:33:46Z</time>
      </trkpt>
      <trkpt lat="47.82341" lon="1.75922">
        <ele>90.501342773438</ele>
        <time>2013-06-28T05:33:59Z</time>
      </trkpt>
      <trkpt lat="47.82294" lon="1.75853">
        <ele>90.020629882812</ele>
        <time>2013-06-28T05:34:09Z</time>
      </trkpt>
      <trkpt lat="47.8225" lon="1.75785">
        <ele>90.020629882812</ele>
        <time>2013-06-28T05:34:19Z</time>
      </trkpt>
      <trkpt lat="47.82197" lon="1.75701">
        <ele>89.539916992188</ele>
        <time>2013-06-28T05:34:31Z</time>
      </trkpt>
      <trkpt lat="47.82138" lon="1.75622">
        <ele>90.501342773438</ele>
        <time>2013-06-28T05:34:44Z</time>
      </trkpt>
      <trkpt lat="47.82111" lon="1.7559">
        <ele>90.501342773438</ele>
        <time>2013-06-28T05:34:52Z</time>
      </trkpt>
      <trkpt lat="47.82105" lon="1.75584">
        <ele>90.501342773438</ele>
        <time>2013-06-28T05:34:58Z</time>
      </trkpt>
      <trkpt lat="47.82105" lon="1.75583">
        <ele>96.749877929688</ele>
        <time>2013-06-28T05:35:08Z</time>
      </trkpt>
      <trkpt lat="47.82099" lon="1.75577">
        <ele>105.40173339844</ele>
        <time>2013-06-28T05:35:25Z</time>
      </trkpt>
      <trkpt lat="47.82082" lon="1.75556">
        <ele>102.99829101562</ele>
        <time>2013-06-28T05:35:31Z</time>
      </trkpt>
      <trkpt lat="47.82042" lon="1.75511">
        <ele>100.11450195312</ele>
        <time>2013-06-28T05:35:40Z</time>
      </trkpt>
      <trkpt lat="47.81978" lon="1.7544">
        <ele>97.711181640625</ele>
        <time>2013-06-28T05:35:53Z</time>
      </trkpt>
      <trkpt lat="47.81924" lon="1.75375">
        <ele>95.788452148438</ele>
        <time>2013-06-28T05:36:04Z</time>
      </trkpt>
      <trkpt lat="47.81878" lon="1.75321">
        <ele>95.788452148438</ele>
        <time>2013-06-28T05:36:13Z</time>
      </trkpt>
      <trkpt lat="47.81805" lon="1.75239">
        <ele>93.865844726562</ele>
        <time>2013-06-28T05:36:27Z</time>
      </trkpt>
      <trkpt lat="47.8175" lon="1.75185">
        <ele>92.904541015625</ele>
        <time>2013-06-28T05:36:37Z</time>
      </trkpt>
      <trkpt lat="47.81677" lon="1.75133">
        <ele>90.98193359375</ele>
        <time>2013-06-28T05:36:49Z</time>
      </trkpt>
      <trkpt lat="47.81627" lon="1.75083">
        <ele>90.501342773438</ele>
        <time>2013-06-28T05:36:58Z</time>
      </trkpt>
      <trkpt lat="47.81561" lon="1.74997">
        <ele>89.539916992188</ele>
        <time>2013-06-28T05:37:12Z</time>
      </trkpt>
      <trkpt lat="47.81486" lon="1.74898">
        <ele>89.059326171875</ele>
        <time>2013-06-28T05:37:28Z</time>
      </trkpt>
      <trkpt lat="47.81424" lon="1.74817">
        <ele>90.501342773438</ele>
        <time>2013-06-28T05:37:42Z</time>
      </trkpt>
      <trkpt lat="47.81351" lon="1.74719">
        <ele>91.943237304688</ele>
        <time>2013-06-28T05:37:59Z</time>
      </trkpt>
      <trkpt lat="47.81276" lon="1.7462">
        <ele>92.423950195312</ele>
        <time>2013-06-28T05:38:16Z</time>
      </trkpt>
      <trkpt lat="47.81204" lon="1.74528">
        <ele>93.385131835938</ele>
        <time>2013-06-28T05:38:32Z</time>
      </trkpt>
      <trkpt lat="47.81132" lon="1.74434">
        <ele>93.865844726562</ele>
        <time>2013-06-28T05:38:48Z</time>
      </trkpt>
      <trkpt lat="47.81074" lon="1.74358">
        <ele>94.346557617188</ele>
        <time>2013-06-28T05:39:01Z</time>
      </trkpt>
      <trkpt lat="47.80992" lon="1.74251">
        <ele>93.385131835938</ele>
        <time>2013-06-28T05:39:19Z</time>
      </trkpt>
      <trkpt lat="47.80914" lon="1.7415">
        <ele>94.346557617188</ele>
        <time>2013-06-28T05:39:36Z</time>
      </trkpt>
      <trkpt lat="47.8086" lon="1.74078">
        <ele>95.788452148438</ele>
        <time>2013-06-28T05:39:49Z</time>
      </trkpt>
      <trkpt lat="47.80802" lon="1.74003">
        <ele>96.749877929688</ele>
        <time>2013-06-28T05:40:03Z</time>
      </trkpt>
      <trkpt lat="47.8074" lon="1.7392">
        <ele>98.19189453125</ele>
        <time>2013-06-28T05:40:18Z</time>
      </trkpt>
      <trkpt lat="47.80688" lon="1.73852">
        <ele>98.672485351562</ele>
        <time>2013-06-28T05:40:30Z</time>
      </trkpt>
      <trkpt lat="47.80634" lon="1.73781">
        <ele>99.153076171875</ele>
        <time>2013-06-28T05:40:42Z</time>
      </trkpt>
      <trkpt lat="47.80572" lon="1.737">
        <ele>99.153076171875</ele>
        <time>2013-06-28T05:40:56Z</time>
      </trkpt>
      <trkpt lat="47.80505" lon="1.73612">
        <ele>98.672485351562</ele>
        <time>2013-06-28T05:41:11Z</time>
      </trkpt>
      <trkpt lat="47.80429" lon="1.73509">
        <ele>98.19189453125</ele>
        <time>2013-06-28T05:41:28Z</time>
      </trkpt>
      <trkpt lat="47.80366" lon="1.73425">
        <ele>97.711181640625</ele>
        <time>2013-06-28T05:41:42Z</time>
      </trkpt>
      <trkpt lat="47.80315" lon="1.73361">
        <ele>97.23046875</ele>
        <time>2013-06-28T05:41:53Z</time>
      </trkpt>
      <trkpt lat="47.80275" lon="1.73309">
        <ele>97.23046875</ele>
        <time>2013-06-28T05:42:02Z</time>
      </trkpt>
      <trkpt lat="47.80237" lon="1.73258">
        <ele>97.23046875</ele>
        <time>2013-06-28T05:42:11Z</time>
      </trkpt>
      <trkpt lat="47.80233" lon="1.73233">
        <ele>97.23046875</ele>
        <time>2013-06-28T05:42:16Z</time>
      </trkpt>
      <trkpt lat="47.80234" lon="1.73231">
        <ele>97.23046875</ele>
        <time>2013-06-28T05:42:17Z</time>
      </trkpt>
      <trkpt lat="47.80236" lon="1.73227">
        <ele>97.23046875</ele>
        <time>2013-06-28T05:42:23Z</time>
      </trkpt>
      <trkpt lat="47.80237" lon="1.73227">
        <ele>102.51770019531</ele>
        <time>2013-06-28T05:42:57Z</time>
      </trkpt>
      <trkpt lat="47.80236" lon="1.73226">
        <ele>103.95971679688</ele>
        <time>2013-06-28T05:43:11Z</time>
      </trkpt>
      <trkpt lat="47.80236" lon="1.73225">
        <ele>103.47900390625</ele>
        <time>2013-06-28T05:43:29Z</time>
      </trkpt>
      <trkpt lat="47.80235" lon="1.73225">
        <ele>99.153076171875</ele>
        <time>2013-06-28T05:43:48Z</time>
      </trkpt>
      <trkpt lat="47.80238" lon="1.73223">
        <ele>99.6337890625</ele>
        <time>2013-06-28T05:44:03Z</time>
      </trkpt>
      <trkpt lat="47.80234" lon="1.73224">
        <ele>99.153076171875</ele>
        <time>2013-06-28T05:44:08Z</time>
      </trkpt>
      <trkpt lat="47.80234" lon="1.73225">
        <ele>97.711181640625</ele>
        <time>2013-06-28T05:44:15Z</time>
      </trkpt>
      <trkpt lat="47.80234" lon="1.73224">
        <ele>98.19189453125</ele>
        <time>2013-06-28T05:44:41Z</time>
      </trkpt>
      <trkpt lat="47.80227" lon="1.73235">
        <ele>98.19189453125</ele>
        <time>2013-06-28T05:44:49Z</time>
      </trkpt>
      <trkpt lat="47.80216" lon="1.73228">
        <ele>97.711181640625</ele>
        <time>2013-06-28T05:44:54Z</time>
      </trkpt>
      <trkpt lat="47.80184" lon="1.73188">
        <ele>96.749877929688</ele>
        <time>2013-06-28T05:45:04Z</time>
      </trkpt>
      <trkpt lat="47.80145" lon="1.73137">
        <ele>95.307739257812</ele>
        <time>2013-06-28T05:45:13Z</time>
      </trkpt>
      <trkpt lat="47.80081" lon="1.73052">
        <ele>93.865844726562</ele>
        <time>2013-06-28T05:45:26Z</time>
      </trkpt>
      <trkpt lat="47.80019" lon="1.7297">
        <ele>94.346557617188</ele>
        <time>2013-06-28T05:45:39Z</time>
      </trkpt>
      <trkpt lat="47.79958" lon="1.72889">
        <ele>95.307739257812</ele>
        <time>2013-06-28T05:45:53Z</time>
      </trkpt>
      <trkpt lat="47.79878" lon="1.72785">
        <ele>94.8271484375</ele>
        <time>2013-06-28T05:46:11Z</time>
      </trkpt>
      <trkpt lat="47.79808" lon="1.72692">
        <ele>95.788452148438</ele>
        <time>2013-06-28T05:46:27Z</time>
      </trkpt>
      <trkpt lat="47.79743" lon="1.72606">
        <ele>96.749877929688</ele>
        <time>2013-06-28T05:46:42Z</time>
      </trkpt>
      <trkpt lat="47.79671" lon="1.7251">
        <ele>96.749877929688</ele>
        <time>2013-06-28T05:46:58Z</time>
      </trkpt>
      <trkpt lat="47.79601" lon="1.72417">
        <ele>96.749877929688</ele>
        <time>2013-06-28T05:47:13Z</time>
      </trkpt>
      <trkpt lat="47.79532" lon="1.72326">
        <ele>96.269287109375</ele>
        <time>2013-06-28T05:47:28Z</time>
      </trkpt>
      <trkpt lat="47.79459" lon="1.7223">
        <ele>96.269287109375</ele>
        <time>2013-06-28T05:47:44Z</time>
      </trkpt>
      <trkpt lat="47.79385" lon="1.72132">
        <ele>96.269287109375</ele>
        <time>2013-06-28T05:48:00Z</time>
      </trkpt>
      <trkpt lat="47.79298" lon="1.72015">
        <ele>96.269287109375</ele>
        <time>2013-06-28T05:48:19Z</time>
      </trkpt>
      <trkpt lat="47.79211" lon="1.71901">
        <ele>95.788452148438</ele>
        <time>2013-06-28T05:48:37Z</time>
      </trkpt>
      <trkpt lat="47.79136" lon="1.718">
        <ele>95.307739257812</ele>
        <time>2013-06-28T05:48:53Z</time>
      </trkpt>
      <trkpt lat="47.79043" lon="1.71678">
        <ele>94.346557617188</ele>
        <time>2013-06-28T05:49:12Z</time>
      </trkpt>
      <trkpt lat="47.78969" lon="1.7158">
        <ele>94.8271484375</ele>
        <time>2013-06-28T05:49:28Z</time>
      </trkpt>
      <trkpt lat="47.78894" lon="1.71481">
        <ele>95.788452148438</ele>
        <time>2013-06-28T05:49:45Z</time>
      </trkpt>
      <trkpt lat="47.78805" lon="1.71363">
        <ele>95.788452148438</ele>
        <time>2013-06-28T05:50:05Z</time>
      </trkpt>
      <trkpt lat="47.78737" lon="1.71272">
        <ele>95.307739257812</ele>
        <time>2013-06-28T05:50:20Z</time>
      </trkpt>
      <trkpt lat="47.78662" lon="1.71173">
        <ele>94.8271484375</ele>
        <time>2013-06-28T05:50:36Z</time>
      </trkpt>
      <trkpt lat="47.78605" lon="1.71097">
        <ele>94.346557617188</ele>
        <time>2013-06-28T05:50:48Z</time>
      </trkpt>
      <trkpt lat="47.78523" lon="1.70989">
        <ele>94.346557617188</ele>
        <time>2013-06-28T05:51:05Z</time>
      </trkpt>
      <trkpt lat="47.78455" lon="1.70899">
        <ele>93.865844726562</ele>
        <time>2013-06-28T05:51:19Z</time>
      </trkpt>
      <trkpt lat="47.78389" lon="1.70809">
        <ele>93.865844726562</ele>
        <time>2013-06-28T05:51:33Z</time>
      </trkpt>
      <trkpt lat="47.7836" lon="1.7077">
        <ele>93.865844726562</ele>
        <time>2013-06-28T05:51:40Z</time>
      </trkpt>
      <trkpt lat="47.7832" lon="1.70719">
        <ele>94.346557617188</ele>
        <time>2013-06-28T05:51:49Z</time>
      </trkpt>
      <trkpt lat="47.78251" lon="1.70627">
        <ele>93.865844726562</ele>
        <time>2013-06-28T05:52:04Z</time>
      </trkpt>
      <trkpt lat="47.78185" lon="1.7054">
        <ele>93.865844726562</ele>
        <time>2013-06-28T05:52:18Z</time>
      </trkpt>
      <trkpt lat="47.78126" lon="1.70461">
        <ele>93.385131835938</ele>
        <time>2013-06-28T05:52:31Z</time>
      </trkpt>
      <trkpt lat="47.78049" lon="1.7036">
        <ele>92.423950195312</ele>
        <time>2013-06-28T05:52:47Z</time>
      </trkpt>
      <trkpt lat="47.77991" lon="1.70293">
        <ele>91.943237304688</ele>
        <time>2013-06-28T05:52:58Z</time>
      </trkpt>
      <trkpt lat="47.77921" lon="1.70222">
        <ele>90.501342773438</ele>
        <time>2013-06-28T05:53:10Z</time>
      </trkpt>
      <trkpt lat="47.77846" lon="1.70147">
        <ele>88.578735351562</ele>
        <time>2013-06-28T05:53:22Z</time>
      </trkpt>
      <trkpt lat="47.77769" lon="1.70071">
        <ele>89.059326171875</ele>
        <time>2013-06-28T05:53:35Z</time>
      </trkpt>
      <trkpt lat="47.77703" lon="1.70006">
        <ele>89.059326171875</ele>
        <time>2013-06-28T05:53:47Z</time>
      </trkpt>
      <trkpt lat="47.77644" lon="1.69943">
        <ele>90.501342773438</ele>
        <time>2013-06-28T05:53:59Z</time>
      </trkpt>
      <trkpt lat="47.77588" lon="1.69882">
        <ele>91.462524414062</ele>
        <time>2013-06-28T05:54:11Z</time>
      </trkpt>
      <trkpt lat="47.77529" lon="1.69818">
        <ele>91.943237304688</ele>
        <time>2013-06-28T05:54:23Z</time>
      </trkpt>
      <trkpt lat="47.77455" lon="1.69737">
        <ele>92.904541015625</ele>
        <time>2013-06-28T05:54:38Z</time>
      </trkpt>
      <trkpt lat="47.77388" lon="1.69657">
        <ele>92.904541015625</ele>
        <time>2013-06-28T05:54:52Z</time>
      </trkpt>
      <trkpt lat="47.77312" lon="1.69558">
        <ele>92.423950195312</ele>
        <time>2013-06-28T05:55:08Z</time>
      </trkpt>
      <trkpt lat="47.77252" lon="1.69482">
        <ele>92.423950195312</ele>
        <time>2013-06-28T05:55:21Z</time>
      </trkpt>
      <trkpt lat="47.77204" lon="1.69419">
        <ele>91.943237304688</ele>
        <time>2013-06-28T05:55:33Z</time>
      </trkpt>
      <trkpt lat="47.77192" lon="1.69403">
        <ele>92.904541015625</ele>
        <time>2013-06-28T05:55:38Z</time>
      </trkpt>
      <trkpt lat="47.7717" lon="1.69375">
        <ele>92.423950195312</ele>
        <time>2013-06-28T05:55:44Z</time>
      </trkpt>
      <trkpt lat="47.77118" lon="1.69317">
        <ele>91.943237304688</ele>
        <time>2013-06-28T05:55:55Z</time>
      </trkpt>
      <trkpt lat="47.77062" lon="1.6926">
        <ele>91.943237304688</ele>
        <time>2013-06-28T05:56:07Z</time>
      </trkpt>
      <trkpt lat="47.76991" lon="1.69187">
        <ele>92.423950195312</ele>
        <time>2013-06-28T05:56:22Z</time>
      </trkpt>
      <trkpt lat="47.76944" lon="1.69123">
        <ele>92.904541015625</ele>
        <time>2013-06-28T05:56:33Z</time>
      </trkpt>
      <trkpt lat="47.76879" lon="1.69026">
        <ele>91.943237304688</ele>
        <time>2013-06-28T05:56:48Z</time>
      </trkpt>
      <trkpt lat="47.7682" lon="1.68936">
        <ele>91.943237304688</ele>
        <time>2013-06-28T05:57:02Z</time>
      </trkpt>
      <trkpt lat="47.76771" lon="1.68862">
        <ele>91.462524414062</ele>
        <time>2013-06-28T05:57:13Z</time>
      </trkpt>
      <trkpt lat="47.7673" lon="1.68799">
        <ele>90.98193359375</ele>
        <time>2013-06-28T05:57:23Z</time>
      </trkpt>
      <trkpt lat="47.76707" lon="1.68764">
        <ele>90.98193359375</ele>
        <time>2013-06-28T05:57:29Z</time>
      </trkpt>
      <trkpt lat="47.76663" lon="1.68692">
        <ele>90.98193359375</ele>
        <time>2013-06-28T05:57:40Z</time>
      </trkpt>
      <trkpt lat="47.76616" lon="1.68621">
        <ele>90.020629882812</ele>
        <time>2013-06-28T05:57:51Z</time>
      </trkpt>
      <trkpt lat="47.76571" lon="1.68554">
        <ele>89.539916992188</ele>
        <time>2013-06-28T05:58:02Z</time>
      </trkpt>
      <trkpt lat="47.7653" lon="1.68493">
        <ele>90.020629882812</ele>
        <time>2013-06-28T05:58:12Z</time>
      </trkpt>
      <trkpt lat="47.76487" lon="1.68428">
        <ele>90.501342773438</ele>
        <time>2013-06-28T05:58:23Z</time>
      </trkpt>
      <trkpt lat="47.76464" lon="1.68387">
        <ele>90.020629882812</ele>
        <time>2013-06-28T05:58:31Z</time>
      </trkpt>
      <trkpt lat="47.76441" lon="1.68357">
        <ele>90.020629882812</ele>
        <time>2013-06-28T05:58:38Z</time>
      </trkpt>
      <trkpt lat="47.76405" lon="1.68302">
        <ele>89.059326171875</ele>
        <time>2013-06-28T05:58:47Z</time>
      </trkpt>
      <trkpt lat="47.76358" lon="1.68232">
        <ele>87.6171875</ele>
        <time>2013-06-28T05:58:58Z</time>
      </trkpt>
      <trkpt lat="47.76314" lon="1.68165">
        <ele>87.136596679688</ele>
        <time>2013-06-28T05:59:09Z</time>
      </trkpt>
      <trkpt lat="47.7627" lon="1.68097">
        <ele>87.136596679688</ele>
        <time>2013-06-28T05:59:20Z</time>
      </trkpt>
      <trkpt lat="47.76228" lon="1.68031">
        <ele>86.656005859375</ele>
        <time>2013-06-28T05:59:31Z</time>
      </trkpt>
      <trkpt lat="47.76205" lon="1.67997">
        <ele>86.17529296875</ele>
        <time>2013-06-28T05:59:38Z</time>
      </trkpt>
      <trkpt lat="47.76164" lon="1.67934">
        <ele>86.17529296875</ele>
        <time>2013-06-28T05:59:49Z</time>
      </trkpt>
      <trkpt lat="47.76119" lon="1.67867">
        <ele>85.213989257812</ele>
        <time>2013-06-28T06:00:00Z</time>
      </trkpt>
      <trkpt lat="47.76073" lon="1.67807">
        <ele>84.7333984375</ele>
        <time>2013-06-28T06:00:10Z</time>
      </trkpt>
      <trkpt lat="47.76035" lon="1.67759">
        <ele>85.213989257812</ele>
        <time>2013-06-28T06:00:19Z</time>
      </trkpt>
      <trkpt lat="47.75997" lon="1.67721">
        <ele>86.17529296875</ele>
        <time>2013-06-28T06:00:27Z</time>
      </trkpt>
      <trkpt lat="47.75951" lon="1.67681">
        <ele>86.17529296875</ele>
        <time>2013-06-28T06:00:37Z</time>
      </trkpt>
      <trkpt lat="47.75908" lon="1.67644">
        <ele>86.656005859375</ele>
        <time>2013-06-28T06:00:47Z</time>
      </trkpt>
      <trkpt lat="47.7587" lon="1.67615">
        <ele>87.136596679688</ele>
        <time>2013-06-28T06:00:55Z</time>
      </trkpt>
      <trkpt lat="47.75803" lon="1.67559">
        <ele>88.578735351562</ele>
        <time>2013-06-28T06:01:09Z</time>
      </trkpt>
      <trkpt lat="47.7574" lon="1.67506">
        <ele>90.020629882812</ele>
        <time>2013-06-28T06:01:23Z</time>
      </trkpt>
      <trkpt lat="47.75697" lon="1.67466">
        <ele>90.501342773438</ele>
        <time>2013-06-28T06:01:32Z</time>
      </trkpt>
      <trkpt lat="47.75668" lon="1.67439">
        <ele>90.98193359375</ele>
        <time>2013-06-28T06:01:38Z</time>
      </trkpt>
      <trkpt lat="47.75652" lon="1.67417">
        <ele>91.462524414062</ele>
        <time>2013-06-28T06:01:42Z</time>
      </trkpt>
      <trkpt lat="47.75584" lon="1.67353">
        <ele>92.423950195312</ele>
        <time>2013-06-28T06:01:57Z</time>
      </trkpt>
      <trkpt lat="47.75549" lon="1.67322">
        <ele>93.385131835938</ele>
        <time>2013-06-28T06:02:07Z</time>
      </trkpt>
      <trkpt lat="47.75516" lon="1.67288">
        <ele>93.385131835938</ele>
        <time>2013-06-28T06:02:15Z</time>
      </trkpt>
      <trkpt lat="47.75452" lon="1.67207">
        <ele>93.385131835938</ele>
        <time>2013-06-28T06:02:30Z</time>
      </trkpt>
      <trkpt lat="47.75384" lon="1.6712">
        <ele>92.904541015625</ele>
        <time>2013-06-28T06:02:45Z</time>
      </trkpt>
      <trkpt lat="47.7531" lon="1.67025">
        <ele>92.904541015625</ele>
        <time>2013-06-28T06:03:01Z</time>
      </trkpt>
      <trkpt lat="47.75234" lon="1.66931">
        <ele>93.385131835938</ele>
        <time>2013-06-28T06:03:17Z</time>
      </trkpt>
      <trkpt lat="47.75158" lon="1.66834">
        <ele>93.385131835938</ele>
        <time>2013-06-28T06:03:33Z</time>
      </trkpt>
      <trkpt lat="47.75072" lon="1.66724">
        <ele>93.385131835938</ele>
        <time>2013-06-28T06:03:51Z</time>
      </trkpt>
      <trkpt lat="47.74985" lon="1.66614">
        <ele>92.904541015625</ele>
        <time>2013-06-28T06:04:09Z</time>
      </trkpt>
      <trkpt lat="47.74918" lon="1.66529">
        <ele>92.904541015625</ele>
        <time>2013-06-28T06:04:23Z</time>
      </trkpt>
      <trkpt lat="47.74851" lon="1.66443">
        <ele>92.904541015625</ele>
        <time>2013-06-28T06:04:37Z</time>
      </trkpt>
      <trkpt lat="47.74775" lon="1.66347">
        <ele>93.385131835938</ele>
        <time>2013-06-28T06:04:53Z</time>
      </trkpt>
      <trkpt lat="47.74704" lon="1.66256">
        <ele>93.385131835938</ele>
        <time>2013-06-28T06:05:08Z</time>
      </trkpt>
      <trkpt lat="47.7463" lon="1.6616">
        <ele>93.865844726562</ele>
        <time>2013-06-28T06:05:24Z</time>
      </trkpt>
      <trkpt lat="47.74564" lon="1.66076">
        <ele>93.865844726562</ele>
        <time>2013-06-28T06:05:38Z</time>
      </trkpt>
      <trkpt lat="47.74474" lon="1.65961">
        <ele>94.8271484375</ele>
        <time>2013-06-28T06:05:57Z</time>
      </trkpt>
      <trkpt lat="47.74404" lon="1.65871">
        <ele>94.8271484375</ele>
        <time>2013-06-28T06:06:12Z</time>
      </trkpt>
      <trkpt lat="47.74313" lon="1.65754">
        <ele>94.8271484375</ele>
        <time>2013-06-28T06:06:31Z</time>
      </trkpt>
      <trkpt lat="47.74241" lon="1.65662">
        <ele>94.346557617188</ele>
        <time>2013-06-28T06:06:46Z</time>
      </trkpt>
      <trkpt lat="47.74157" lon="1.65555">
        <ele>93.865844726562</ele>
        <time>2013-06-28T06:07:03Z</time>
      </trkpt>
      <trkpt lat="47.74072" lon="1.65446">
        <ele>92.423950195312</ele>
        <time>2013-06-28T06:07:20Z</time>
      </trkpt>
      <trkpt lat="47.74002" lon="1.65358">
        <ele>91.462524414062</ele>
        <time>2013-06-28T06:07:33Z</time>
      </trkpt>
      <trkpt lat="47.73917" lon="1.65249">
        <ele>89.059326171875</ele>
        <time>2013-06-28T06:07:48Z</time>
      </trkpt>
      <trkpt lat="47.73851" lon="1.65165">
        <ele>88.098022460938</ele>
        <time>2013-06-28T06:08:00Z</time>
      </trkpt>
      <trkpt lat="47.738" lon="1.65099">
        <ele>89.539916992188</ele>
        <time>2013-06-28T06:08:11Z</time>
      </trkpt>
      <trkpt lat="47.73742" lon="1.65026">
        <ele>90.501342773438</ele>
        <time>2013-06-28T06:08:24Z</time>
      </trkpt>
      <trkpt lat="47.73681" lon="1.64948">
        <ele>91.943237304688</ele>
        <time>2013-06-28T06:08:38Z</time>
      </trkpt>
      <trkpt lat="47.73608" lon="1.64854">
        <ele>93.865844726562</ele>
        <time>2013-06-28T06:08:54Z</time>
      </trkpt>
      <trkpt lat="47.73539" lon="1.64763">
        <ele>93.385131835938</ele>
        <time>2013-06-28T06:09:09Z</time>
      </trkpt>
      <trkpt lat="47.73474" lon="1.64679">
        <ele>93.385131835938</ele>
        <time>2013-06-28T06:09:23Z</time>
      </trkpt>
      <trkpt lat="47.73407" lon="1.64597">
        <ele>94.346557617188</ele>
        <time>2013-06-28T06:09:37Z</time>
      </trkpt>
      <trkpt lat="47.73329" lon="1.64498">
        <ele>96.269287109375</ele>
        <time>2013-06-28T06:09:53Z</time>
      </trkpt>
      <trkpt lat="47.73252" lon="1.64399">
        <ele>97.711181640625</ele>
        <time>2013-06-28T06:10:09Z</time>
      </trkpt>
      <trkpt lat="47.73169" lon="1.64294">
        <ele>96.269287109375</ele>
        <time>2013-06-28T06:10:26Z</time>
      </trkpt>
      <trkpt lat="47.73088" lon="1.6419">
        <ele>94.8271484375</ele>
        <time>2013-06-28T06:10:42Z</time>
      </trkpt>
      <trkpt lat="47.73017" lon="1.64098">
        <ele>95.307739257812</ele>
        <time>2013-06-28T06:10:56Z</time>
      </trkpt>
      <trkpt lat="47.72946" lon="1.64006">
        <ele>92.904541015625</ele>
        <time>2013-06-28T06:11:10Z</time>
      </trkpt>
      <trkpt lat="47.72897" lon="1.63925">
        <ele>90.98193359375</ele>
        <time>2013-06-28T06:11:20Z</time>
      </trkpt>
      <trkpt lat="47.72845" lon="1.63813">
        <ele>88.578735351562</ele>
        <time>2013-06-28T06:11:32Z</time>
      </trkpt>
      <trkpt lat="47.72795" lon="1.63705">
        <ele>88.578735351562</ele>
        <time>2013-06-28T06:11:44Z</time>
      </trkpt>
      <trkpt lat="47.72748" lon="1.63605">
        <ele>89.539916992188</ele>
        <time>2013-06-28T06:11:56Z</time>
      </trkpt>
      <trkpt lat="47.72706" lon="1.63512">
        <ele>90.501342773438</ele>
        <time>2013-06-28T06:12:08Z</time>
      </trkpt>
      <trkpt lat="47.72657" lon="1.63408">
        <ele>90.020629882812</ele>
        <time>2013-06-28T06:12:22Z</time>
      </trkpt>
      <trkpt lat="47.72609" lon="1.63304">
        <ele>90.98193359375</ele>
        <time>2013-06-28T06:12:36Z</time>
      </trkpt>
      <trkpt lat="47.7257" lon="1.63219">
        <ele>91.462524414062</ele>
        <time>2013-06-28T06:12:47Z</time>
      </trkpt>
      <trkpt lat="47.7253" lon="1.63134">
        <ele>90.020629882812</ele>
        <time>2013-06-28T06:12:57Z</time>
      </trkpt>
      <trkpt lat="47.7248" lon="1.63028">
        <ele>88.098022460938</ele>
        <time>2013-06-28T06:13:09Z</time>
      </trkpt>
      <trkpt lat="47.72429" lon="1.62918">
        <ele>87.136596679688</ele>
        <time>2013-06-28T06:13:21Z</time>
      </trkpt>
      <trkpt lat="47.72385" lon="1.62824">
        <ele>89.059326171875</ele>
        <time>2013-06-28T06:13:32Z</time>
      </trkpt>
      <trkpt lat="47.72343" lon="1.62734">
        <ele>90.98193359375</ele>
        <time>2013-06-28T06:13:44Z</time>
      </trkpt>
      <trkpt lat="47.723" lon="1.6264">
        <ele>92.423950195312</ele>
        <time>2013-06-28T06:13:57Z</time>
      </trkpt>
      <trkpt lat="47.72244" lon="1.6252">
        <ele>92.904541015625</ele>
        <time>2013-06-28T06:14:13Z</time>
      </trkpt>
      <trkpt lat="47.72199" lon="1.62424">
        <ele>93.385131835938</ele>
        <time>2013-06-28T06:14:26Z</time>
      </trkpt>
      <trkpt lat="47.72148" lon="1.62315">
        <ele>93.865844726562</ele>
        <time>2013-06-28T06:14:40Z</time>
      </trkpt>
      <trkpt lat="47.72098" lon="1.62206">
        <ele>93.865844726562</ele>
        <time>2013-06-28T06:14:54Z</time>
      </trkpt>
      <trkpt lat="47.72044" lon="1.62088">
        <ele>93.385131835938</ele>
        <time>2013-06-28T06:15:09Z</time>
      </trkpt>
      <trkpt lat="47.72" lon="1.61989">
        <ele>91.462524414062</ele>
        <time>2013-06-28T06:15:21Z</time>
      </trkpt>
      <trkpt lat="47.71957" lon="1.61889">
        <ele>90.020629882812</ele>
        <time>2013-06-28T06:15:32Z</time>
      </trkpt>
      <trkpt lat="47.71924" lon="1.6181">
        <ele>89.059326171875</ele>
        <time>2013-06-28T06:15:41Z</time>
      </trkpt>
      <trkpt lat="47.71884" lon="1.61715">
        <ele>90.020629882812</ele>
        <time>2013-06-28T06:15:53Z</time>
      </trkpt>
      <trkpt lat="47.71844" lon="1.6163">
        <ele>90.98193359375</ele>
        <time>2013-06-28T06:16:05Z</time>
      </trkpt>
      <trkpt lat="47.718" lon="1.61527">
        <ele>92.423950195312</ele>
        <time>2013-06-28T06:16:19Z</time>
      </trkpt>
      <trkpt lat="47.71766" lon="1.61443">
        <ele>92.904541015625</ele>
        <time>2013-06-28T06:16:31Z</time>
      </trkpt>
      <trkpt lat="47.71751" lon="1.61378">
        <ele>92.423950195312</ele>
        <time>2013-06-28T06:16:39Z</time>
      </trkpt>
      <trkpt lat="47.71747" lon="1.61306">
        <ele>91.943237304688</ele>
        <time>2013-06-28T06:16:48Z</time>
      </trkpt>
      <trkpt lat="47.71739" lon="1.61238">
        <ele>92.904541015625</ele>
        <time>2013-06-28T06:16:58Z</time>
      </trkpt>
      <trkpt lat="47.71738" lon="1.61232">
        <ele>92.423950195312</ele>
        <time>2013-06-28T06:16:59Z</time>
      </trkpt>
      <trkpt lat="47.71722" lon="1.612">
        <ele>92.423950195312</ele>
        <time>2013-06-28T06:17:04Z</time>
      </trkpt>
      <trkpt lat="47.71671" lon="1.61117">
        <ele>92.423950195312</ele>
        <time>2013-06-28T06:17:17Z</time>
      </trkpt>
      <trkpt lat="47.71633" lon="1.61037">
        <ele>91.462524414062</ele>
        <time>2013-06-28T06:17:28Z</time>
      </trkpt>
      <trkpt lat="47.71572" lon="1.60924">
        <ele>91.943237304688</ele>
        <time>2013-06-28T06:17:44Z</time>
      </trkpt>
      <trkpt lat="47.71521" lon="1.60835">
        <ele>92.423950195312</ele>
        <time>2013-06-28T06:17:57Z</time>
      </trkpt>
      <trkpt lat="47.71452" lon="1.60711">
        <ele>92.904541015625</ele>
        <time>2013-06-28T06:18:15Z</time>
      </trkpt>
      <trkpt lat="47.71389" lon="1.60599">
        <ele>92.904541015625</ele>
        <time>2013-06-28T06:18:31Z</time>
      </trkpt>
      <trkpt lat="47.71328" lon="1.60489">
        <ele>93.865844726562</ele>
        <time>2013-06-28T06:18:47Z</time>
      </trkpt>
      <trkpt lat="47.71289" lon="1.60422">
        <ele>94.346557617188</ele>
        <time>2013-06-28T06:18:58Z</time>
      </trkpt>
      <trkpt lat="47.71282" lon="1.60409">
        <ele>94.346557617188</ele>
        <time>2013-06-28T06:19:02Z</time>
      </trkpt>
      <trkpt lat="47.71271" lon="1.60398">
        <ele>94.346557617188</ele>
        <time>2013-06-28T06:19:05Z</time>
      </trkpt>
      <trkpt lat="47.71257" lon="1.60376">
        <ele>94.346557617188</ele>
        <time>2013-06-28T06:19:09Z</time>
      </trkpt>
      <trkpt lat="47.71218" lon="1.60293">
        <ele>94.8271484375</ele>
        <time>2013-06-28T06:19:21Z</time>
      </trkpt>
      <trkpt lat="47.71162" lon="1.60193">
        <ele>93.865844726562</ele>
        <time>2013-06-28T06:19:35Z</time>
      </trkpt>
      <trkpt lat="47.7111" lon="1.60101">
        <ele>93.385131835938</ele>
        <time>2013-06-28T06:19:48Z</time>
      </trkpt>
      <trkpt lat="47.71049" lon="1.59993">
        <ele>92.904541015625</ele>
        <time>2013-06-28T06:20:03Z</time>
      </trkpt>
      <trkpt lat="47.7103" lon="1.59957">
        <ele>92.904541015625</ele>
        <time>2013-06-28T06:20:08Z</time>
      </trkpt>
      <trkpt lat="47.71023" lon="1.59935">
        <ele>92.904541015625</ele>
        <time>2013-06-28T06:20:11Z</time>
      </trkpt>
      <trkpt lat="47.71001" lon="1.59892">
        <ele>92.423950195312</ele>
        <time>2013-06-28T06:20:17Z</time>
      </trkpt>
      <trkpt lat="47.70961" lon="1.59819">
        <ele>90.98193359375</ele>
        <time>2013-06-28T06:20:28Z</time>
      </trkpt>
      <trkpt lat="47.70924" lon="1.59753">
        <ele>90.501342773438</ele>
        <time>2013-06-28T06:20:38Z</time>
      </trkpt>
      <trkpt lat="47.70902" lon="1.59714">
        <ele>90.98193359375</ele>
        <time>2013-06-28T06:20:46Z</time>
      </trkpt>
      <trkpt lat="47.70888" lon="1.59688">
        <ele>90.98193359375</ele>
        <time>2013-06-28T06:20:54Z</time>
      </trkpt>
      <trkpt lat="47.70888" lon="1.59689">
        <ele>90.501342773438</ele>
        <time>2013-06-28T06:21:09Z</time>
      </trkpt>
      <trkpt lat="47.7089" lon="1.59691">
        <ele>90.501342773438</ele>
        <time>2013-06-28T06:21:47Z</time>
      </trkpt>
      <trkpt lat="47.7089" lon="1.59691">
        <ele>90.501342773438</ele>
        <time>2013-06-28T06:21:51Z</time>
      </trkpt>
      <trkpt lat="47.7088" lon="1.59677">
        <ele>90.98193359375</ele>
        <time>2013-06-28T06:21:58Z</time>
      </trkpt>
      <trkpt lat="47.70857" lon="1.59636">
        <ele>90.501342773438</ele>
        <time>2013-06-28T06:22:08Z</time>
      </trkpt>
      <trkpt lat="47.70832" lon="1.59591">
        <ele>90.98193359375</ele>
        <time>2013-06-28T06:22:17Z</time>
      </trkpt>
      <trkpt lat="47.70795" lon="1.59524">
        <ele>90.98193359375</ele>
        <time>2013-06-28T06:22:29Z</time>
      </trkpt>
      <trkpt lat="47.70755" lon="1.59455">
        <ele>90.98193359375</ele>
        <time>2013-06-28T06:22:41Z</time>
      </trkpt>
      <trkpt lat="47.70719" lon="1.59392">
        <ele>91.462524414062</ele>
        <time>2013-06-28T06:22:52Z</time>
      </trkpt>
      <trkpt lat="47.70697" lon="1.59354">
        <ele>91.462524414062</ele>
        <time>2013-06-28T06:22:59Z</time>
      </trkpt>
      <trkpt lat="47.7066" lon="1.5929">
        <ele>91.462524414062</ele>
        <time>2013-06-28T06:23:09Z</time>
      </trkpt>
      <trkpt lat="47.70621" lon="1.59222">
        <ele>90.98193359375</ele>
        <time>2013-06-28T06:23:20Z</time>
      </trkpt>
      <trkpt lat="47.70615" lon="1.59209">
        <ele>90.98193359375</ele>
        <time>2013-06-28T06:23:22Z</time>
      </trkpt>
      <trkpt lat="47.70573" lon="1.59135">
        <ele>90.501342773438</ele>
        <time>2013-06-28T06:23:33Z</time>
      </trkpt>
      <trkpt lat="47.70532" lon="1.59062">
        <ele>90.501342773438</ele>
        <time>2013-06-28T06:23:44Z</time>
      </trkpt>
      <trkpt lat="47.70524" lon="1.59048">
        <ele>90.98193359375</ele>
        <time>2013-06-28T06:23:49Z</time>
      </trkpt>
      <trkpt lat="47.70522" lon="1.5905">
        <ele>90.98193359375</ele>
        <time>2013-06-28T06:23:57Z</time>
      </trkpt>
      <trkpt lat="47.7052" lon="1.5905">
        <ele>89.539916992188</ele>
        <time>2013-06-28T06:24:42Z</time>
      </trkpt>
      <trkpt lat="47.70521" lon="1.5905">
        <ele>88.098022460938</ele>
        <time>2013-06-28T06:25:20Z</time>
      </trkpt>
      <trkpt lat="47.70521" lon="1.5905">
        <ele>89.539916992188</ele>
        <time>2013-06-28T06:26:02Z</time>
      </trkpt>
      <trkpt lat="47.70521" lon="1.5905">
        <ele>90.98193359375</ele>
        <time>2013-06-28T06:26:47Z</time>
      </trkpt>
      <trkpt lat="47.70521" lon="1.59051">
        <ele>91.462524414062</ele>
        <time>2013-06-28T06:27:30Z</time>
      </trkpt>
      <trkpt lat="47.7052" lon="1.59051">
        <ele>86.656005859375</ele>
        <time>2013-06-28T06:28:15Z</time>
      </trkpt>
      <trkpt lat="47.7052" lon="1.59051">
        <ele>85.213989257812</ele>
        <time>2013-06-28T06:28:58Z</time>
      </trkpt>
      <trkpt lat="47.7052" lon="1.59051">
        <ele>88.098022460938</ele>
        <time>2013-06-28T06:29:39Z</time>
      </trkpt>
      <trkpt lat="47.7052" lon="1.59052">
        <ele>92.423950195312</ele>
        <time>2013-06-28T06:30:18Z</time>
      </trkpt>
      <trkpt lat="47.7052" lon="1.59048">
        <ele>90.501342773438</ele>
        <time>2013-06-28T06:30:29Z</time>
      </trkpt>
      <trkpt lat="47.7052" lon="1.59047">
        <ele>90.501342773438</ele>
        <time>2013-06-28T06:30:30Z</time>
      </trkpt>
      <trkpt lat="47.70516" lon="1.59039">
        <ele>90.501342773438</ele>
        <time>2013-06-28T06:30:34Z</time>
      </trkpt>
      <trkpt lat="47.70499" lon="1.59007">
        <ele>90.501342773438</ele>
        <time>2013-06-28T06:30:41Z</time>
      </trkpt>
      <trkpt lat="47.70475" lon="1.58963">
        <ele>90.98193359375</ele>
        <time>2013-06-28T06:30:49Z</time>
      </trkpt>
      <trkpt lat="47.70441" lon="1.58902">
        <ele>90.501342773438</ele>
        <time>2013-06-28T06:30:59Z</time>
      </trkpt>
      <trkpt lat="47.704" lon="1.5883">
        <ele>90.501342773438</ele>
        <time>2013-06-28T06:31:10Z</time>
      </trkpt>
      <trkpt lat="47.70353" lon="1.58759">
        <ele>91.462524414062</ele>
        <time>2013-06-28T06:31:21Z</time>
      </trkpt>
      <trkpt lat="47.70318" lon="1.58694">
        <ele>91.462524414062</ele>
        <time>2013-06-28T06:31:30Z</time>
      </trkpt>
      <trkpt lat="47.7027" lon="1.58605">
        <ele>90.98193359375</ele>
        <time>2013-06-28T06:31:42Z</time>
      </trkpt>
      <trkpt lat="47.70221" lon="1.58514">
        <ele>90.501342773438</ele>
        <time>2013-06-28T06:31:54Z</time>
      </trkpt>
      <trkpt lat="47.70177" lon="1.58428">
        <ele>88.098022460938</ele>
        <time>2013-06-28T06:32:05Z</time>
      </trkpt>
      <trkpt lat="47.70132" lon="1.58343">
        <ele>87.136596679688</ele>
        <time>2013-06-28T06:32:16Z</time>
      </trkpt>
      <trkpt lat="47.7011" lon="1.58302">
        <ele>86.656005859375</ele>
        <time>2013-06-28T06:32:23Z</time>
      </trkpt>
      <trkpt lat="47.70084" lon="1.58253">
        <ele>86.656005859375</ele>
        <time>2013-06-28T06:32:31Z</time>
      </trkpt>
      <trkpt lat="47.70045" lon="1.58185">
        <ele>87.136596679688</ele>
        <time>2013-06-28T06:32:41Z</time>
      </trkpt>
      <trkpt lat="47.7001" lon="1.5813">
        <ele>88.578735351562</ele>
        <time>2013-06-28T06:32:50Z</time>
      </trkpt>
      <trkpt lat="47.69972" lon="1.58069">
        <ele>89.539916992188</ele>
        <time>2013-06-28T06:33:00Z</time>
      </trkpt>
      <trkpt lat="47.69937" lon="1.58012">
        <ele>90.501342773438</ele>
        <time>2013-06-28T06:33:10Z</time>
      </trkpt>
      <trkpt lat="47.69901" lon="1.57956">
        <ele>90.98193359375</ele>
        <time>2013-06-28T06:33:20Z</time>
      </trkpt>
      <trkpt lat="47.69865" lon="1.57898">
        <ele>91.943237304688</ele>
        <time>2013-06-28T06:33:31Z</time>
      </trkpt>
      <trkpt lat="47.69862" lon="1.57894">
        <ele>91.943237304688</ele>
        <time>2013-06-28T06:33:32Z</time>
      </trkpt>
      <trkpt lat="47.69835" lon="1.57851">
        <ele>91.943237304688</ele>
        <time>2013-06-28T06:33:40Z</time>
      </trkpt>
      <trkpt lat="47.69794" lon="1.57786">
        <ele>91.462524414062</ele>
        <time>2013-06-28T06:33:50Z</time>
      </trkpt>
      <trkpt lat="47.69745" lon="1.57709">
        <ele>92.904541015625</ele>
        <time>2013-06-28T06:34:02Z</time>
      </trkpt>
      <trkpt lat="47.69697" lon="1.57631">
        <ele>93.385131835938</ele>
        <time>2013-06-28T06:34:15Z</time>
      </trkpt>
      <trkpt lat="47.69636" lon="1.57534">
        <ele>93.865844726562</ele>
        <time>2013-06-28T06:34:30Z</time>
      </trkpt>
      <trkpt lat="47.69576" lon="1.57445">
        <ele>95.307739257812</ele>
        <time>2013-06-28T06:34:44Z</time>
      </trkpt>
      <trkpt lat="47.6953" lon="1.5738">
        <ele>95.307739257812</ele>
        <time>2013-06-28T06:34:55Z</time>
      </trkpt>
      <trkpt lat="47.69478" lon="1.57309">
        <ele>94.8271484375</ele>
        <time>2013-06-28T06:35:07Z</time>
      </trkpt>
      <trkpt lat="47.69439" lon="1.57254">
        <ele>95.307739257812</ele>
        <time>2013-06-28T06:35:16Z</time>
      </trkpt>
      <trkpt lat="47.69391" lon="1.57188">
        <ele>95.307739257812</ele>
        <time>2013-06-28T06:35:27Z</time>
      </trkpt>
      <trkpt lat="47.69328" lon="1.57102">
        <ele>95.788452148438</ele>
        <time>2013-06-28T06:35:41Z</time>
      </trkpt>
      <trkpt lat="47.69275" lon="1.57028">
        <ele>95.788452148438</ele>
        <time>2013-06-28T06:35:53Z</time>
      </trkpt>
      <trkpt lat="47.69225" lon="1.56957">
        <ele>92.423950195312</ele>
        <time>2013-06-28T06:36:05Z</time>
      </trkpt>
      <trkpt lat="47.69172" lon="1.56882">
        <ele>89.539916992188</ele>
        <time>2013-06-28T06:36:17Z</time>
      </trkpt>
      <trkpt lat="47.69118" lon="1.56806">
        <ele>87.136596679688</ele>
        <time>2013-06-28T06:36:29Z</time>
      </trkpt>
      <trkpt lat="47.69075" lon="1.56745">
        <ele>84.252685546875</ele>
        <time>2013-06-28T06:36:39Z</time>
      </trkpt>
      <trkpt lat="47.69024" lon="1.56675">
        <ele>82.810791015625</ele>
        <time>2013-06-28T06:36:49Z</time>
      </trkpt>
      <trkpt lat="47.68978" lon="1.56612">
        <ele>80.407470703125</ele>
        <time>2013-06-28T06:36:59Z</time>
      </trkpt>
      <trkpt lat="47.68917" lon="1.56526">
        <ele>81.849365234375</ele>
        <time>2013-06-28T06:37:13Z</time>
      </trkpt>
      <trkpt lat="47.6886" lon="1.56449">
        <ele>84.252685546875</ele>
        <time>2013-06-28T06:37:26Z</time>
      </trkpt>
      <trkpt lat="47.68803" lon="1.56372">
        <ele>86.17529296875</ele>
        <time>2013-06-28T06:37:39Z</time>
      </trkpt>
      <trkpt lat="47.68743" lon="1.5629">
        <ele>89.539916992188</ele>
        <time>2013-06-28T06:37:54Z</time>
      </trkpt>
      <trkpt lat="47.6872" lon="1.56263">
        <ele>88.578735351562</ele>
        <time>2013-06-28T06:38:02Z</time>
      </trkpt>
      <trkpt lat="47.68717" lon="1.56263">
        <ele>88.098022460938</ele>
        <time>2013-06-28T06:38:03Z</time>
      </trkpt>
      <trkpt lat="47.68694" lon="1.56236">
        <ele>87.136596679688</ele>
        <time>2013-06-28T06:38:09Z</time>
      </trkpt>
      <trkpt lat="47.68628" lon="1.56149">
        <ele>88.098022460938</ele>
        <time>2013-06-28T06:38:24Z</time>
      </trkpt>
      <trkpt lat="47.68588" lon="1.56095">
        <ele>88.098022460938</ele>
        <time>2013-06-28T06:38:34Z</time>
      </trkpt>
      <trkpt lat="47.68586" lon="1.56092">
        <ele>88.578735351562</ele>
        <time>2013-06-28T06:38:39Z</time>
      </trkpt>
      <trkpt lat="47.68579" lon="1.56084">
        <ele>88.578735351562</ele>
        <time>2013-06-28T06:38:44Z</time>
      </trkpt>
      <trkpt lat="47.68558" lon="1.56057">
        <ele>88.098022460938</ele>
        <time>2013-06-28T06:38:50Z</time>
      </trkpt>
      <trkpt lat="47.68526" lon="1.56014">
        <ele>87.136596679688</ele>
        <time>2013-06-28T06:38:57Z</time>
      </trkpt>
      <trkpt lat="47.68505" lon="1.5599">
        <ele>87.136596679688</ele>
        <time>2013-06-28T06:39:01Z</time>
      </trkpt>
      <trkpt lat="47.68451" lon="1.559">
        <ele>86.656005859375</ele>
        <time>2013-06-28T06:39:14Z</time>
      </trkpt>
      <trkpt lat="47.68402" lon="1.55823">
        <ele>87.6171875</ele>
        <time>2013-06-28T06:39:26Z</time>
      </trkpt>
      <trkpt lat="47.68352" lon="1.55744">
        <ele>90.501342773438</ele>
        <time>2013-06-28T06:39:39Z</time>
      </trkpt>
      <trkpt lat="47.68293" lon="1.55652">
        <ele>89.539916992188</ele>
        <time>2013-06-28T06:39:54Z</time>
      </trkpt>
      <trkpt lat="47.6821" lon="1.55523">
        <ele>88.578735351562</ele>
        <time>2013-06-28T06:40:14Z</time>
      </trkpt>
      <trkpt lat="47.68152" lon="1.55428">
        <ele>85.213989257812</ele>
        <time>2013-06-28T06:40:28Z</time>
      </trkpt>
      <trkpt lat="47.68107" lon="1.55354">
        <ele>82.330078125</ele>
        <time>2013-06-28T06:40:39Z</time>
      </trkpt>
      <trkpt lat="47.68042" lon="1.55244">
        <ele>79.926635742188</ele>
        <time>2013-06-28T06:40:55Z</time>
      </trkpt>
      <trkpt lat="47.67987" lon="1.55151">
        <ele>79.926635742188</ele>
        <time>2013-06-28T06:41:09Z</time>
      </trkpt>
      <trkpt lat="47.67936" lon="1.55062">
        <ele>78.965454101562</ele>
        <time>2013-06-28T06:41:22Z</time>
      </trkpt>
      <trkpt lat="47.67891" lon="1.5497">
        <ele>77.5234375</ele>
        <time>2013-06-28T06:41:35Z</time>
      </trkpt>
      <trkpt lat="47.67837" lon="1.54861">
        <ele>76.562133789062</ele>
        <time>2013-06-28T06:41:50Z</time>
      </trkpt>
      <trkpt lat="47.67798" lon="1.5478">
        <ele>75.600830078125</ele>
        <time>2013-06-28T06:42:01Z</time>
      </trkpt>
      <trkpt lat="47.67748" lon="1.54679">
        <ele>75.600830078125</ele>
        <time>2013-06-28T06:42:14Z</time>
      </trkpt>
      <trkpt lat="47.67706" lon="1.54594">
        <ele>75.120239257812</ele>
        <time>2013-06-28T06:42:25Z</time>
      </trkpt>
      <trkpt lat="47.67653" lon="1.54485">
        <ele>74.639526367188</ele>
        <time>2013-06-28T06:42:39Z</time>
      </trkpt>
      <trkpt lat="47.67602" lon="1.54385">
        <ele>75.120239257812</ele>
        <time>2013-06-28T06:42:52Z</time>
      </trkpt>
      <trkpt lat="47.67553" lon="1.54284">
        <ele>73.197631835938</ele>
        <time>2013-06-28T06:43:05Z</time>
      </trkpt>
      <trkpt lat="47.67502" lon="1.54183">
        <ele>75.120239257812</ele>
        <time>2013-06-28T06:43:18Z</time>
      </trkpt>
      <trkpt lat="47.67441" lon="1.54061">
        <ele>78.965454101562</ele>
        <time>2013-06-28T06:43:33Z</time>
      </trkpt>
      <trkpt lat="47.67384" lon="1.53937">
        <ele>81.368774414062</ele>
        <time>2013-06-28T06:43:48Z</time>
      </trkpt>
      <trkpt lat="47.67336" lon="1.53826">
        <ele>82.810791015625</ele>
        <time>2013-06-28T06:44:01Z</time>
      </trkpt>
      <trkpt lat="47.67289" lon="1.53719">
        <ele>82.810791015625</ele>
        <time>2013-06-28T06:44:14Z</time>
      </trkpt>
      <trkpt lat="47.67237" lon="1.53602">
        <ele>82.810791015625</ele>
        <time>2013-06-28T06:44:28Z</time>
      </trkpt>
      <trkpt lat="47.67182" lon="1.53476">
        <ele>82.810791015625</ele>
        <time>2013-06-28T06:44:43Z</time>
      </trkpt>
      <trkpt lat="47.67138" lon="1.53375">
        <ele>82.810791015625</ele>
        <time>2013-06-28T06:44:55Z</time>
      </trkpt>
      <trkpt lat="47.67097" lon="1.53283">
        <ele>83.77197265625</ele>
        <time>2013-06-28T06:45:06Z</time>
      </trkpt>
      <trkpt lat="47.67041" lon="1.53156">
        <ele>83.291381835938</ele>
        <time>2013-06-28T06:45:21Z</time>
      </trkpt>
      <trkpt lat="47.66995" lon="1.53049">
        <ele>78.004028320312</ele>
        <time>2013-06-28T06:45:34Z</time>
      </trkpt>
      <trkpt lat="47.66933" lon="1.52917">
        <ele>75.600830078125</ele>
        <time>2013-06-28T06:45:50Z</time>
      </trkpt>
      <trkpt lat="47.66885" lon="1.52823">
        <ele>76.081420898438</ele>
        <time>2013-06-28T06:46:01Z</time>
      </trkpt>
      <trkpt lat="47.66841" lon="1.52724">
        <ele>76.562133789062</ele>
        <time>2013-06-28T06:46:11Z</time>
      </trkpt>
      <trkpt lat="47.66796" lon="1.52637">
        <ele>80.407470703125</ele>
        <time>2013-06-28T06:46:20Z</time>
      </trkpt>
      <trkpt lat="47.6677" lon="1.52572">
        <ele>79.926635742188</ele>
        <time>2013-06-28T06:46:27Z</time>
      </trkpt>
      <trkpt lat="47.66736" lon="1.52503">
        <ele>78.965454101562</ele>
        <time>2013-06-28T06:46:36Z</time>
      </trkpt>
      <trkpt lat="47.66687" lon="1.5243">
        <ele>79.446044921875</ele>
        <time>2013-06-28T06:46:48Z</time>
      </trkpt>
      <trkpt lat="47.66644" lon="1.52361">
        <ele>78.484741210938</ele>
        <time>2013-06-28T06:47:00Z</time>
      </trkpt>
      <trkpt lat="47.66599" lon="1.52281">
        <ele>74.158813476562</ele>
        <time>2013-06-28T06:47:13Z</time>
      </trkpt>
      <trkpt lat="47.66576" lon="1.52237">
        <ele>73.67822265625</ele>
        <time>2013-06-28T06:47:20Z</time>
      </trkpt>
      <trkpt lat="47.66569" lon="1.52215">
        <ele>76.081420898438</ele>
        <time>2013-06-28T06:47:23Z</time>
      </trkpt>
      <trkpt lat="47.66557" lon="1.52188">
        <ele>75.120239257812</ele>
        <time>2013-06-28T06:47:29Z</time>
      </trkpt>
      <trkpt lat="47.66554" lon="1.52184">
        <ele>75.120239257812</ele>
        <time>2013-06-28T06:47:30Z</time>
      </trkpt>
      <trkpt lat="47.66531" lon="1.52127">
        <ele>75.120239257812</ele>
        <time>2013-06-28T06:47:39Z</time>
      </trkpt>
      <trkpt lat="47.66494" lon="1.52036">
        <ele>77.5234375</ele>
        <time>2013-06-28T06:47:51Z</time>
      </trkpt>
      <trkpt lat="47.66468" lon="1.51969">
        <ele>77.042846679688</ele>
        <time>2013-06-28T06:48:00Z</time>
      </trkpt>
      <trkpt lat="47.66435" lon="1.51876">
        <ele>74.639526367188</ele>
        <time>2013-06-28T06:48:13Z</time>
      </trkpt>
      <trkpt lat="47.66401" lon="1.51785">
        <ele>74.639526367188</ele>
        <time>2013-06-28T06:48:25Z</time>
      </trkpt>
      <trkpt lat="47.66367" lon="1.51698">
        <ele>77.5234375</ele>
        <time>2013-06-28T06:48:36Z</time>
      </trkpt>
      <trkpt lat="47.66332" lon="1.51593">
        <ele>78.965454101562</ele>
        <time>2013-06-28T06:48:49Z</time>
      </trkpt>
      <trkpt lat="47.66293" lon="1.51479">
        <ele>80.407470703125</ele>
        <time>2013-06-28T06:49:03Z</time>
      </trkpt>
      <trkpt lat="47.66256" lon="1.51366">
        <ele>78.965454101562</ele>
        <time>2013-06-28T06:49:17Z</time>
      </trkpt>
      <trkpt lat="47.66243" lon="1.5133">
        <ele>82.330078125</ele>
        <time>2013-06-28T06:49:23Z</time>
      </trkpt>
      <trkpt lat="47.66233" lon="1.5132">
        <ele>81.849365234375</ele>
        <time>2013-06-28T06:49:27Z</time>
      </trkpt>
      <trkpt lat="47.66216" lon="1.51269">
        <ele>81.849365234375</ele>
        <time>2013-06-28T06:49:34Z</time>
      </trkpt>
      <trkpt lat="47.66187" lon="1.51183">
        <ele>81.368774414062</ele>
        <time>2013-06-28T06:49:44Z</time>
      </trkpt>
      <trkpt lat="47.66163" lon="1.5111">
        <ele>81.849365234375</ele>
        <time>2013-06-28T06:49:53Z</time>
      </trkpt>
      <trkpt lat="47.66133" lon="1.51018">
        <ele>81.849365234375</ele>
        <time>2013-06-28T06:50:04Z</time>
      </trkpt>
      <trkpt lat="47.66104" lon="1.50919">
        <ele>82.810791015625</ele>
        <time>2013-06-28T06:50:16Z</time>
      </trkpt>
      <trkpt lat="47.66069" lon="1.50787">
        <ele>83.77197265625</ele>
        <time>2013-06-28T06:50:31Z</time>
      </trkpt>
      <trkpt lat="47.66039" lon="1.50672">
        <ele>85.694580078125</ele>
        <time>2013-06-28T06:50:44Z</time>
      </trkpt>
      <trkpt lat="47.66003" lon="1.50538">
        <ele>86.656005859375</ele>
        <time>2013-06-28T06:50:59Z</time>
      </trkpt>
      <trkpt lat="47.65966" lon="1.50403">
        <ele>88.578735351562</ele>
        <time>2013-06-28T06:51:14Z</time>
      </trkpt>
      <trkpt lat="47.65932" lon="1.50274">
        <ele>88.098022460938</ele>
        <time>2013-06-28T06:51:28Z</time>
      </trkpt>
      <trkpt lat="47.659" lon="1.50156">
        <ele>88.098022460938</ele>
        <time>2013-06-28T06:51:41Z</time>
      </trkpt>
      <trkpt lat="47.6587" lon="1.50039">
        <ele>87.6171875</ele>
        <time>2013-06-28T06:51:54Z</time>
      </trkpt>
      <trkpt lat="47.6584" lon="1.49919">
        <ele>85.213989257812</ele>
        <time>2013-06-28T06:52:07Z</time>
      </trkpt>
      <trkpt lat="47.65828" lon="1.49876">
        <ele>85.694580078125</ele>
        <time>2013-06-28T06:52:12Z</time>
      </trkpt>
      <trkpt lat="47.65824" lon="1.49836">
        <ele>84.7333984375</ele>
        <time>2013-06-28T06:52:17Z</time>
      </trkpt>
      <trkpt lat="47.65803" lon="1.49755">
        <ele>82.810791015625</ele>
        <time>2013-06-28T06:52:27Z</time>
      </trkpt>
      <trkpt lat="47.6578" lon="1.49671">
        <ele>83.77197265625</ele>
        <time>2013-06-28T06:52:37Z</time>
      </trkpt>
      <trkpt lat="47.65763" lon="1.49605">
        <ele>84.7333984375</ele>
        <time>2013-06-28T06:52:45Z</time>
      </trkpt>
      <trkpt lat="47.65741" lon="1.49518">
        <ele>84.252685546875</ele>
        <time>2013-06-28T06:52:56Z</time>
      </trkpt>
      <trkpt lat="47.65734" lon="1.49496">
        <ele>83.291381835938</ele>
        <time>2013-06-28T06:53:00Z</time>
      </trkpt>
      <trkpt lat="47.65721" lon="1.49466">
        <ele>82.330078125</ele>
        <time>2013-06-28T06:53:05Z</time>
      </trkpt>
      <trkpt lat="47.65699" lon="1.49376">
        <ele>81.368774414062</ele>
        <time>2013-06-28T06:53:16Z</time>
      </trkpt>
      <trkpt lat="47.65672" lon="1.49274">
        <ele>80.407470703125</ele>
        <time>2013-06-28T06:53:28Z</time>
      </trkpt>
      <trkpt lat="47.65654" lon="1.49204">
        <ele>79.926635742188</ele>
        <time>2013-06-28T06:53:36Z</time>
      </trkpt>
      <trkpt lat="47.65626" lon="1.49101">
        <ele>82.330078125</ele>
        <time>2013-06-28T06:53:48Z</time>
      </trkpt>
      <trkpt lat="47.65601" lon="1.49015">
        <ele>84.7333984375</ele>
        <time>2013-06-28T06:53:58Z</time>
      </trkpt>
      <trkpt lat="47.65586" lon="1.48942">
        <ele>87.6171875</ele>
        <time>2013-06-28T06:54:07Z</time>
      </trkpt>
      <trkpt lat="47.65585" lon="1.48873">
        <ele>87.6171875</ele>
        <time>2013-06-28T06:54:17Z</time>
      </trkpt>
      <trkpt lat="47.65597" lon="1.48865">
        <ele>87.136596679688</ele>
        <time>2013-06-28T06:54:23Z</time>
      </trkpt>
      <trkpt lat="47.65605" lon="1.48861">
        <ele>87.136596679688</ele>
        <time>2013-06-28T06:54:25Z</time>
      </trkpt>
      <trkpt lat="47.65635" lon="1.48842">
        <ele>87.6171875</ele>
        <time>2013-06-28T06:54:32Z</time>
      </trkpt>
      <trkpt lat="47.65666" lon="1.48835">
        <ele>87.136596679688</ele>
        <time>2013-06-28T06:54:38Z</time>
      </trkpt>
      <trkpt lat="47.65686" lon="1.48859">
        <ele>85.213989257812</ele>
        <time>2013-06-28T06:54:44Z</time>
      </trkpt>
      <trkpt lat="47.65697" lon="1.48881">
        <ele>82.330078125</ele>
        <time>2013-06-28T06:54:49Z</time>
      </trkpt>
      <trkpt lat="47.65723" lon="1.48886">
        <ele>80.88818359375</ele>
        <time>2013-06-28T06:54:55Z</time>
      </trkpt>
      <trkpt lat="47.65731" lon="1.48884">
        <ele>79.446044921875</ele>
        <time>2013-06-28T06:54:59Z</time>
      </trkpt>
      <trkpt lat="47.65732" lon="1.48881">
        <ele>76.562133789062</ele>
        <time>2013-06-28T06:55:06Z</time>
      </trkpt>
      <trkpt lat="47.65734" lon="1.48878">
        <ele>75.120239257812</ele>
        <time>2013-06-28T06:55:14Z</time>
      </trkpt>
      <trkpt lat="47.65734" lon="1.48878">
        <ele>72.236206054688</ele>
        <time>2013-06-28T06:55:26Z</time>
      </trkpt>
      <trkpt lat="47.65734" lon="1.48877">
        <ele>65.0263671875</ele>
        <time>2013-06-28T06:56:05Z</time>
      </trkpt>
      <trkpt lat="47.65733" lon="1.48875">
        <ele>63.103637695312</ele>
        <time>2013-06-28T06:56:36Z</time>
      </trkpt>
      <trkpt lat="47.65733" lon="1.48874">
        <ele>60.2197265625</ele>
        <time>2013-06-28T06:57:06Z</time>
      </trkpt>
      <trkpt lat="47.65734" lon="1.48874">
        <ele>58.777709960938</ele>
        <time>2013-06-28T06:57:46Z</time>
      </trkpt>
      <trkpt lat="47.65735" lon="1.48871">
        <ele>62.142333984375</ele>
        <time>2013-06-28T06:58:11Z</time>
      </trkpt>
      <trkpt lat="47.65734" lon="1.48873">
        <ele>65.0263671875</ele>
        <time>2013-06-28T06:58:22Z</time>
      </trkpt>
      <trkpt lat="47.65735" lon="1.48873">
        <ele>66.46826171875</ele>
        <time>2013-06-28T06:58:38Z</time>
      </trkpt>
      <trkpt lat="47.65735" lon="1.48874">
        <ele>67.4296875</ele>
        <time>2013-06-28T06:58:58Z</time>
      </trkpt>
      <trkpt lat="47.65734" lon="1.48874">
        <ele>67.910278320312</ele>
        <time>2013-06-28T06:59:08Z</time>
      </trkpt>
      <trkpt lat="47.65734" lon="1.48875">
        <ele>65.987670898438</ele>
        <time>2013-06-28T06:59:40Z</time>
      </trkpt>
      <trkpt lat="47.65735" lon="1.48876">
        <ele>66.46826171875</ele>
        <time>2013-06-28T06:59:58Z</time>
      </trkpt>
      <trkpt lat="47.65735" lon="1.48875">
        <ele>67.4296875</ele>
        <time>2013-06-28T07:00:14Z</time>
      </trkpt>
      <trkpt lat="47.65735" lon="1.48875">
        <ele>66.948974609375</ele>
        <time>2013-06-28T07:00:17Z</time>
      </trkpt>
      <trkpt lat="47.65727" lon="1.48848">
        <ele>67.910278320312</ele>
        <time>2013-06-28T07:00:25Z</time>
      </trkpt>
      <trkpt lat="47.65708" lon="1.48793">
        <ele>67.910278320312</ele>
        <time>2013-06-28T07:00:34Z</time>
      </trkpt>
      <trkpt lat="47.65685" lon="1.48723">
        <ele>67.910278320312</ele>
        <time>2013-06-28T07:00:45Z</time>
      </trkpt>
      <trkpt lat="47.65667" lon="1.4866">
        <ele>67.910278320312</ele>
        <time>2013-06-28T07:00:55Z</time>
      </trkpt>
      <trkpt lat="47.65643" lon="1.48589">
        <ele>68.390869140625</ele>
        <time>2013-06-28T07:01:05Z</time>
      </trkpt>
      <trkpt lat="47.65617" lon="1.4851">
        <ele>68.87158203125</ele>
        <time>2013-06-28T07:01:16Z</time>
      </trkpt>
      <trkpt lat="47.65595" lon="1.48435">
        <ele>66.948974609375</ele>
        <time>2013-06-28T07:01:26Z</time>
      </trkpt>
      <trkpt lat="47.65579" lon="1.48366">
        <ele>66.948974609375</ele>
        <time>2013-06-28T07:01:35Z</time>
      </trkpt>
      <trkpt lat="47.6557" lon="1.48314">
        <ele>66.46826171875</ele>
        <time>2013-06-28T07:01:42Z</time>
      </trkpt>
      <trkpt lat="47.65553" lon="1.48302">
        <ele>67.4296875</ele>
        <time>2013-06-28T07:01:47Z</time>
      </trkpt>
      <trkpt lat="47.65519" lon="1.48314">
        <ele>71.755493164062</ele>
        <time>2013-06-28T07:01:57Z</time>
      </trkpt>
      <trkpt lat="47.65504" lon="1.48321">
        <ele>73.197631835938</ele>
        <time>2013-06-28T07:02:01Z</time>
      </trkpt>
      <trkpt lat="47.65449" lon="1.48363">
        <ele>74.639526367188</ele>
        <time>2013-06-28T07:02:15Z</time>
      </trkpt>
      <trkpt lat="47.65426" lon="1.48379">
        <ele>75.120239257812</ele>
        <time>2013-06-28T07:02:23Z</time>
      </trkpt>
      <trkpt lat="47.65424" lon="1.48379">
        <ele>75.120239257812</ele>
        <time>2013-06-28T07:02:25Z</time>
      </trkpt>
      <trkpt lat="47.65418" lon="1.48359">
        <ele>76.081420898438</ele>
        <time>2013-06-28T07:02:31Z</time>
      </trkpt>
      <trkpt lat="47.65417" lon="1.48353">
        <ele>76.562133789062</ele>
        <time>2013-06-28T07:02:32Z</time>
      </trkpt>
      <trkpt lat="47.65406" lon="1.48289">
        <ele>81.849365234375</ele>
        <time>2013-06-28T07:02:42Z</time>
      </trkpt>
      <trkpt lat="47.654" lon="1.48208">
        <ele>81.368774414062</ele>
        <time>2013-06-28T07:02:52Z</time>
      </trkpt>
      <trkpt lat="47.654" lon="1.48118">
        <ele>78.484741210938</ele>
        <time>2013-06-28T07:03:02Z</time>
      </trkpt>
      <trkpt lat="47.654" lon="1.48039">
        <ele>76.562133789062</ele>
        <time>2013-06-28T07:03:12Z</time>
      </trkpt>
      <trkpt lat="47.65401" lon="1.47959">
        <ele>75.600830078125</ele>
        <time>2013-06-28T07:03:22Z</time>
      </trkpt>
      <trkpt lat="47.65402" lon="1.47866">
        <ele>74.639526367188</ele>
        <time>2013-06-28T07:03:33Z</time>
      </trkpt>
      <trkpt lat="47.65403" lon="1.47835">
        <ele>73.67822265625</ele>
        <time>2013-06-28T07:03:37Z</time>
      </trkpt>
      <trkpt lat="47.65406" lon="1.47816">
        <ele>72.236206054688</ele>
        <time>2013-06-28T07:03:42Z</time>
      </trkpt>
      <trkpt lat="47.65406" lon="1.47816">
        <ele>71.755493164062</ele>
        <time>2013-06-28T07:03:49Z</time>
      </trkpt>
      <trkpt lat="47.65404" lon="1.47816">
        <ele>73.197631835938</ele>
        <time>2013-06-28T07:04:10Z</time>
      </trkpt>
      <trkpt lat="47.65404" lon="1.47815">
        <ele>73.67822265625</ele>
        <time>2013-06-28T07:04:13Z</time>
      </trkpt>
      <trkpt lat="47.65404" lon="1.47796">
        <ele>72.716918945312</ele>
        <time>2013-06-28T07:04:19Z</time>
      </trkpt>
      <trkpt lat="47.65406" lon="1.47758">
        <ele>71.755493164062</ele>
        <time>2013-06-28T07:04:25Z</time>
      </trkpt>
      <trkpt lat="47.65404" lon="1.47687">
        <ele>70.794189453125</ele>
        <time>2013-06-28T07:04:34Z</time>
      </trkpt>
      <trkpt lat="47.65388" lon="1.47606">
        <ele>71.27490234375</ele>
        <time>2013-06-28T07:04:44Z</time>
      </trkpt>
      <trkpt lat="47.65367" lon="1.47521">
        <ele>71.755493164062</ele>
        <time>2013-06-28T07:04:54Z</time>
      </trkpt>
      <trkpt lat="47.65338" lon="1.47401">
        <ele>71.755493164062</ele>
        <time>2013-06-28T07:05:08Z</time>
      </trkpt>
      <trkpt lat="47.65309" lon="1.47279">
        <ele>71.755493164062</ele>
        <time>2013-06-28T07:05:22Z</time>
      </trkpt>
      <trkpt lat="47.65286" lon="1.47157">
        <ele>71.27490234375</ele>
        <time>2013-06-28T07:05:36Z</time>
      </trkpt>
      <trkpt lat="47.65269" lon="1.47032">
        <ele>71.27490234375</ele>
        <time>2013-06-28T07:05:50Z</time>
      </trkpt>
      <trkpt lat="47.65257" lon="1.46904">
        <ele>70.794189453125</ele>
        <time>2013-06-28T07:06:04Z</time>
      </trkpt>
      <trkpt lat="47.65246" lon="1.46767">
        <ele>69.352294921875</ele>
        <time>2013-06-28T07:06:19Z</time>
      </trkpt>
      <trkpt lat="47.65232" lon="1.46603">
        <ele>70.3134765625</ele>
        <time>2013-06-28T07:06:37Z</time>
      </trkpt>
      <trkpt lat="47.65216" lon="1.46452">
        <ele>69.832885742188</ele>
        <time>2013-06-28T07:06:54Z</time>
      </trkpt>
      <trkpt lat="47.65204" lon="1.46326">
        <ele>69.832885742188</ele>
        <time>2013-06-28T07:07:08Z</time>
      </trkpt>
      <trkpt lat="47.65198" lon="1.46178">
        <ele>69.352294921875</ele>
        <time>2013-06-28T07:07:24Z</time>
      </trkpt>
      <trkpt lat="47.65191" lon="1.46053">
        <ele>69.352294921875</ele>
        <time>2013-06-28T07:07:38Z</time>
      </trkpt>
      <trkpt lat="47.65186" lon="1.46">
        <ele>69.832885742188</ele>
        <time>2013-06-28T07:07:46Z</time>
      </trkpt>
      <trkpt lat="47.65179" lon="1.45932">
        <ele>70.3134765625</ele>
        <time>2013-06-28T07:07:56Z</time>
      </trkpt>
      <trkpt lat="47.65168" lon="1.45832">
        <ele>70.794189453125</ele>
        <time>2013-06-28T07:08:09Z</time>
      </trkpt>
      <trkpt lat="47.65154" lon="1.4571">
        <ele>71.27490234375</ele>
        <time>2013-06-28T07:08:24Z</time>
      </trkpt>
      <trkpt lat="47.6514" lon="1.45575">
        <ele>72.236206054688</ele>
        <time>2013-06-28T07:08:39Z</time>
      </trkpt>
      <trkpt lat="47.65131" lon="1.4545">
        <ele>71.27490234375</ele>
        <time>2013-06-28T07:08:52Z</time>
      </trkpt>
      <trkpt lat="47.65127" lon="1.45323">
        <ele>70.3134765625</ele>
        <time>2013-06-28T07:09:05Z</time>
      </trkpt>
      <trkpt lat="47.65115" lon="1.45229">
        <ele>70.3134765625</ele>
        <time>2013-06-28T07:09:15Z</time>
      </trkpt>
      <trkpt lat="47.6509" lon="1.4515">
        <ele>71.27490234375</ele>
        <time>2013-06-28T07:09:24Z</time>
      </trkpt>
      <trkpt lat="47.65052" lon="1.45033">
        <ele>73.197631835938</ele>
        <time>2013-06-28T07:09:37Z</time>
      </trkpt>
      <trkpt lat="47.65041" lon="1.44953">
        <ele>73.197631835938</ele>
        <time>2013-06-28T07:09:45Z</time>
      </trkpt>
      <trkpt lat="47.65041" lon="1.44855">
        <ele>72.236206054688</ele>
        <time>2013-06-28T07:09:55Z</time>
      </trkpt>
      <trkpt lat="47.65042" lon="1.44697">
        <ele>71.755493164062</ele>
        <time>2013-06-28T07:10:11Z</time>
      </trkpt>
      <trkpt lat="47.65032" lon="1.44618">
        <ele>71.27490234375</ele>
        <time>2013-06-28T07:10:19Z</time>
      </trkpt>
      <trkpt lat="47.65008" lon="1.44537">
        <ele>71.27490234375</ele>
        <time>2013-06-28T07:10:28Z</time>
      </trkpt>
      <trkpt lat="47.64952" lon="1.44389">
        <ele>72.236206054688</ele>
        <time>2013-06-28T07:10:45Z</time>
      </trkpt>
      <trkpt lat="47.64906" lon="1.44268">
        <ele>72.716918945312</ele>
        <time>2013-06-28T07:10:59Z</time>
      </trkpt>
      <trkpt lat="47.64861" lon="1.44148">
        <ele>73.197631835938</ele>
        <time>2013-06-28T07:11:13Z</time>
      </trkpt>
      <trkpt lat="47.64812" lon="1.44017">
        <ele>72.716918945312</ele>
        <time>2013-06-28T07:11:28Z</time>
      </trkpt>
      <trkpt lat="47.64759" lon="1.43874">
        <ele>73.197631835938</ele>
        <time>2013-06-28T07:11:44Z</time>
      </trkpt>
      <trkpt lat="47.64709" lon="1.43742">
        <ele>73.197631835938</ele>
        <time>2013-06-28T07:11:59Z</time>
      </trkpt>
      <trkpt lat="47.64653" lon="1.4359">
        <ele>72.236206054688</ele>
        <time>2013-06-28T07:12:16Z</time>
      </trkpt>
      <trkpt lat="47.6461" lon="1.43469">
        <ele>70.794189453125</ele>
        <time>2013-06-28T07:12:28Z</time>
      </trkpt>
      <trkpt lat="47.64558" lon="1.43329">
        <ele>70.794189453125</ele>
        <time>2013-06-28T07:12:43Z</time>
      </trkpt>
      <trkpt lat="47.64509" lon="1.43198">
        <ele>69.832885742188</ele>
        <time>2013-06-28T07:12:58Z</time>
      </trkpt>
      <trkpt lat="47.64471" lon="1.43096">
        <ele>69.352294921875</ele>
        <time>2013-06-28T07:13:10Z</time>
      </trkpt>
      <trkpt lat="47.64434" lon="1.42999">
        <ele>70.794189453125</ele>
        <time>2013-06-28T07:13:22Z</time>
      </trkpt>
      <trkpt lat="47.644" lon="1.42904">
        <ele>70.794189453125</ele>
        <time>2013-06-28T07:13:34Z</time>
      </trkpt>
      <trkpt lat="47.64362" lon="1.42799">
        <ele>70.3134765625</ele>
        <time>2013-06-28T07:13:47Z</time>
      </trkpt>
      <trkpt lat="47.64322" lon="1.4269">
        <ele>69.832885742188</ele>
        <time>2013-06-28T07:14:01Z</time>
      </trkpt>
      <trkpt lat="47.64285" lon="1.42603">
        <ele>69.352294921875</ele>
        <time>2013-06-28T07:14:12Z</time>
      </trkpt>
      <trkpt lat="47.64239" lon="1.42529">
        <ele>70.3134765625</ele>
        <time>2013-06-28T07:14:23Z</time>
      </trkpt>
      <trkpt lat="47.64184" lon="1.42462">
        <ele>70.794189453125</ele>
        <time>2013-06-28T07:14:34Z</time>
      </trkpt>
      <trkpt lat="47.64125" lon="1.42385">
        <ele>71.27490234375</ele>
        <time>2013-06-28T07:14:46Z</time>
      </trkpt>
      <trkpt lat="47.64058" lon="1.42296">
        <ele>71.27490234375</ele>
        <time>2013-06-28T07:15:00Z</time>
      </trkpt>
      <trkpt lat="47.63992" lon="1.42209">
        <ele>70.794189453125</ele>
        <time>2013-06-28T07:15:14Z</time>
      </trkpt>
      <trkpt lat="47.63919" lon="1.42113">
        <ele>70.794189453125</ele>
        <time>2013-06-28T07:15:29Z</time>
      </trkpt>
      <trkpt lat="47.63851" lon="1.42013">
        <ele>69.832885742188</ele>
        <time>2013-06-28T07:15:44Z</time>
      </trkpt>
      <trkpt lat="47.63781" lon="1.41918">
        <ele>69.832885742188</ele>
        <time>2013-06-28T07:15:59Z</time>
      </trkpt>
      <trkpt lat="47.63725" lon="1.41841">
        <ele>69.832885742188</ele>
        <time>2013-06-28T07:16:11Z</time>
      </trkpt>
      <trkpt lat="47.63661" lon="1.41764">
        <ele>70.3134765625</ele>
        <time>2013-06-28T07:16:24Z</time>
      </trkpt>
      <trkpt lat="47.6358" lon="1.41665">
        <ele>70.3134765625</ele>
        <time>2013-06-28T07:16:40Z</time>
      </trkpt>
      <trkpt lat="47.63507" lon="1.41576">
        <ele>69.832885742188</ele>
        <time>2013-06-28T07:16:54Z</time>
      </trkpt>
      <trkpt lat="47.63445" lon="1.41501">
        <ele>69.832885742188</ele>
        <time>2013-06-28T07:17:06Z</time>
      </trkpt>
      <trkpt lat="47.63385" lon="1.41428">
        <ele>70.3134765625</ele>
        <time>2013-06-28T07:17:18Z</time>
      </trkpt>
      <trkpt lat="47.63366" lon="1.41402">
        <ele>70.3134765625</ele>
        <time>2013-06-28T07:17:24Z</time>
      </trkpt>
      <trkpt lat="47.63356" lon="1.41394">
        <ele>70.3134765625</ele>
        <time>2013-06-28T07:17:27Z</time>
      </trkpt>
      <trkpt lat="47.63326" lon="1.41357">
        <ele>70.3134765625</ele>
        <time>2013-06-28T07:17:34Z</time>
      </trkpt>
      <trkpt lat="47.63268" lon="1.41287">
        <ele>70.3134765625</ele>
        <time>2013-06-28T07:17:46Z</time>
      </trkpt>
      <trkpt lat="47.63205" lon="1.41213">
        <ele>71.27490234375</ele>
        <time>2013-06-28T07:17:58Z</time>
      </trkpt>
      <trkpt lat="47.63127" lon="1.41116">
        <ele>69.832885742188</ele>
        <time>2013-06-28T07:18:13Z</time>
      </trkpt>
      <trkpt lat="47.63076" lon="1.41049">
        <ele>70.794189453125</ele>
        <time>2013-06-28T07:18:23Z</time>
      </trkpt>
      <trkpt lat="47.63015" lon="1.40972">
        <ele>71.27490234375</ele>
        <time>2013-06-28T07:18:35Z</time>
      </trkpt>
      <trkpt lat="47.6294" lon="1.40873">
        <ele>71.755493164062</ele>
        <time>2013-06-28T07:18:50Z</time>
      </trkpt>
      <trkpt lat="47.6287" lon="1.40774">
        <ele>71.27490234375</ele>
        <time>2013-06-28T07:19:04Z</time>
      </trkpt>
      <trkpt lat="47.628" lon="1.40677">
        <ele>71.755493164062</ele>
        <time>2013-06-28T07:19:18Z</time>
      </trkpt>
      <trkpt lat="47.62725" lon="1.40581">
        <ele>71.27490234375</ele>
        <time>2013-06-28T07:19:33Z</time>
      </trkpt>
      <trkpt lat="47.62647" lon="1.40479">
        <ele>71.27490234375</ele>
        <time>2013-06-28T07:19:49Z</time>
      </trkpt>
      <trkpt lat="47.62583" lon="1.40396">
        <ele>71.27490234375</ele>
        <time>2013-06-28T07:20:02Z</time>
      </trkpt>
      <trkpt lat="47.62515" lon="1.40308">
        <ele>71.27490234375</ele>
        <time>2013-06-28T07:20:16Z</time>
      </trkpt>
      <trkpt lat="47.62453" lon="1.40226">
        <ele>71.27490234375</ele>
        <time>2013-06-28T07:20:29Z</time>
      </trkpt>
      <trkpt lat="47.62389" lon="1.4013">
        <ele>71.27490234375</ele>
        <time>2013-06-28T07:20:43Z</time>
      </trkpt>
      <trkpt lat="47.62324" lon="1.40018">
        <ele>71.27490234375</ele>
        <time>2013-06-28T07:20:58Z</time>
      </trkpt>
      <trkpt lat="47.62263" lon="1.39902">
        <ele>71.27490234375</ele>
        <time>2013-06-28T07:21:13Z</time>
      </trkpt>
      <trkpt lat="47.62198" lon="1.39793">
        <ele>71.27490234375</ele>
        <time>2013-06-28T07:21:28Z</time>
      </trkpt>
      <trkpt lat="47.62142" lon="1.39706">
        <ele>71.755493164062</ele>
        <time>2013-06-28T07:21:40Z</time>
      </trkpt>
      <trkpt lat="47.62081" lon="1.39626">
        <ele>71.27490234375</ele>
        <time>2013-06-28T07:21:52Z</time>
      </trkpt>
      <trkpt lat="47.62015" lon="1.39543">
        <ele>71.755493164062</ele>
        <time>2013-06-28T07:22:05Z</time>
      </trkpt>
      <trkpt lat="47.61931" lon="1.39435">
        <ele>72.236206054688</ele>
        <time>2013-06-28T07:22:22Z</time>
      </trkpt>
      <trkpt lat="47.61868" lon="1.39347">
        <ele>71.755493164062</ele>
        <time>2013-06-28T07:22:35Z</time>
      </trkpt>
      <trkpt lat="47.618" lon="1.39251">
        <ele>71.755493164062</ele>
        <time>2013-06-28T07:22:49Z</time>
      </trkpt>
      <trkpt lat="47.61738" lon="1.39162">
        <ele>71.27490234375</ele>
        <time>2013-06-28T07:23:02Z</time>
      </trkpt>
      <trkpt lat="47.6168" lon="1.39076">
        <ele>71.27490234375</ele>
        <time>2013-06-28T07:23:14Z</time>
      </trkpt>
      <trkpt lat="47.61608" lon="1.38971">
        <ele>71.27490234375</ele>
        <time>2013-06-28T07:23:29Z</time>
      </trkpt>
      <trkpt lat="47.61551" lon="1.38887">
        <ele>71.755493164062</ele>
        <time>2013-06-28T07:23:41Z</time>
      </trkpt>
      <trkpt lat="47.61484" lon="1.38785">
        <ele>71.755493164062</ele>
        <time>2013-06-28T07:23:55Z</time>
      </trkpt>
      <trkpt lat="47.61418" lon="1.38684">
        <ele>71.27490234375</ele>
        <time>2013-06-28T07:24:09Z</time>
      </trkpt>
      <trkpt lat="47.61343" lon="1.38568">
        <ele>71.27490234375</ele>
        <time>2013-06-28T07:24:25Z</time>
      </trkpt>
      <trkpt lat="47.61272" lon="1.38461">
        <ele>71.27490234375</ele>
        <time>2013-06-28T07:24:40Z</time>
      </trkpt>
      <trkpt lat="47.61213" lon="1.38367">
        <ele>70.794189453125</ele>
        <time>2013-06-28T07:24:53Z</time>
      </trkpt>
      <trkpt lat="47.61138" lon="1.38251">
        <ele>68.87158203125</ele>
        <time>2013-06-28T07:25:09Z</time>
      </trkpt>
      <trkpt lat="47.61064" lon="1.38141">
        <ele>69.352294921875</ele>
        <time>2013-06-28T07:25:24Z</time>
      </trkpt>
      <trkpt lat="47.60967" lon="1.38004">
        <ele>68.87158203125</ele>
        <time>2013-06-28T07:25:43Z</time>
      </trkpt>
      <trkpt lat="47.60898" lon="1.37913">
        <ele>69.832885742188</ele>
        <time>2013-06-28T07:25:56Z</time>
      </trkpt>
      <trkpt lat="47.60807" lon="1.37812">
        <ele>70.794189453125</ele>
        <time>2013-06-28T07:26:12Z</time>
      </trkpt>
      <trkpt lat="47.60742" lon="1.37763">
        <ele>70.794189453125</ele>
        <time>2013-06-28T07:26:22Z</time>
      </trkpt>
      <trkpt lat="47.60647" lon="1.3771">
        <ele>69.832885742188</ele>
        <time>2013-06-28T07:26:36Z</time>
      </trkpt>
      <trkpt lat="47.60576" lon="1.37689">
        <ele>68.87158203125</ele>
        <time>2013-06-28T07:26:46Z</time>
      </trkpt>
      <trkpt lat="47.6051" lon="1.37656">
        <ele>68.87158203125</ele>
        <time>2013-06-28T07:26:56Z</time>
      </trkpt>
      <trkpt lat="47.60412" lon="1.37592">
        <ele>69.352294921875</ele>
        <time>2013-06-28T07:27:11Z</time>
      </trkpt>
      <trkpt lat="47.60351" lon="1.37538">
        <ele>69.832885742188</ele>
        <time>2013-06-28T07:27:21Z</time>
      </trkpt>
      <trkpt lat="47.60297" lon="1.37469">
        <ele>70.794189453125</ele>
        <time>2013-06-28T07:27:31Z</time>
      </trkpt>
      <trkpt lat="47.60214" lon="1.37352">
        <ele>70.794189453125</ele>
        <time>2013-06-28T07:27:47Z</time>
      </trkpt>
      <trkpt lat="47.60152" lon="1.37248">
        <ele>70.3134765625</ele>
        <time>2013-06-28T07:28:00Z</time>
      </trkpt>
      <trkpt lat="47.60089" lon="1.37159">
        <ele>68.87158203125</ele>
        <time>2013-06-28T07:28:12Z</time>
      </trkpt>
      <trkpt lat="47.60012" lon="1.37055">
        <ele>68.390869140625</ele>
        <time>2013-06-28T07:28:26Z</time>
      </trkpt>
      <trkpt lat="47.59935" lon="1.36944">
        <ele>69.832885742188</ele>
        <time>2013-06-28T07:28:41Z</time>
      </trkpt>
      <trkpt lat="47.5986" lon="1.36819">
        <ele>70.3134765625</ele>
        <time>2013-06-28T07:28:57Z</time>
      </trkpt>
      <trkpt lat="47.59795" lon="1.36709">
        <ele>70.3134765625</ele>
        <time>2013-06-28T07:29:11Z</time>
      </trkpt>
      <trkpt lat="47.5971" lon="1.3658">
        <ele>69.832885742188</ele>
        <time>2013-06-28T07:29:28Z</time>
      </trkpt>
      <trkpt lat="47.59636" lon="1.36466">
        <ele>69.832885742188</ele>
        <time>2013-06-28T07:29:43Z</time>
      </trkpt>
      <trkpt lat="47.59575" lon="1.36369">
        <ele>70.3134765625</ele>
        <time>2013-06-28T07:29:56Z</time>
      </trkpt>
      <trkpt lat="47.59536" lon="1.36288">
        <ele>70.794189453125</ele>
        <time>2013-06-28T07:30:06Z</time>
      </trkpt>
      <trkpt lat="47.59495" lon="1.36192">
        <ele>70.794189453125</ele>
        <time>2013-06-28T07:30:18Z</time>
      </trkpt>
      <trkpt lat="47.59439" lon="1.36081">
        <ele>71.27490234375</ele>
        <time>2013-06-28T07:30:33Z</time>
      </trkpt>
      <trkpt lat="47.59411" lon="1.36027">
        <ele>71.755493164062</ele>
        <time>2013-06-28T07:30:42Z</time>
      </trkpt>
      <trkpt lat="47.59404" lon="1.36013">
        <ele>71.27490234375</ele>
        <time>2013-06-28T07:30:47Z</time>
      </trkpt>
      <trkpt lat="47.59405" lon="1.36013">
        <ele>70.3134765625</ele>
        <time>2013-06-28T07:30:57Z</time>
      </trkpt>
      <trkpt lat="47.59404" lon="1.36013">
        <ele>67.910278320312</ele>
        <time>2013-06-28T07:31:33Z</time>
      </trkpt>
      <trkpt lat="47.59404" lon="1.36013">
        <ele>66.948974609375</ele>
        <time>2013-06-28T07:32:15Z</time>
      </trkpt>
      <trkpt lat="47.59403" lon="1.36013">
        <ele>68.390869140625</ele>
        <time>2013-06-28T07:32:33Z</time>
      </trkpt>
      <trkpt lat="47.59396" lon="1.36006">
        <ele>68.87158203125</ele>
        <time>2013-06-28T07:32:43Z</time>
      </trkpt>
      <trkpt lat="47.59376" lon="1.35984">
        <ele>69.352294921875</ele>
        <time>2013-06-28T07:32:50Z</time>
      </trkpt>
      <trkpt lat="47.59344" lon="1.35954">
        <ele>69.352294921875</ele>
        <time>2013-06-28T07:32:58Z</time>
      </trkpt>
      <trkpt lat="47.59312" lon="1.35928">
        <ele>69.352294921875</ele>
        <time>2013-06-28T07:33:05Z</time>
      </trkpt>
      <trkpt lat="47.59263" lon="1.35879">
        <ele>69.352294921875</ele>
        <time>2013-06-28T07:33:16Z</time>
      </trkpt>
      <trkpt lat="47.59246" lon="1.35865">
        <ele>69.352294921875</ele>
        <time>2013-06-28T07:33:20Z</time>
      </trkpt>
      <trkpt lat="47.59215" lon="1.3585">
        <ele>67.910278320312</ele>
        <time>2013-06-28T07:33:27Z</time>
      </trkpt>
      <trkpt lat="47.59199" lon="1.35841">
        <ele>67.4296875</ele>
        <time>2013-06-28T07:33:30Z</time>
      </trkpt>
      <trkpt lat="47.59169" lon="1.35819">
        <ele>65.987670898438</ele>
        <time>2013-06-28T07:33:36Z</time>
      </trkpt>
      <trkpt lat="47.59153" lon="1.35807">
        <ele>65.987670898438</ele>
        <time>2013-06-28T07:33:39Z</time>
      </trkpt>
      <trkpt lat="47.59085" lon="1.35736">
        <ele>65.0263671875</ele>
        <time>2013-06-28T07:33:53Z</time>
      </trkpt>
      <trkpt lat="47.59072" lon="1.35693">
        <ele>64.545654296875</ele>
        <time>2013-06-28T07:33:58Z</time>
      </trkpt>
      <trkpt lat="47.59066" lon="1.35647">
        <ele>64.545654296875</ele>
        <time>2013-06-28T07:34:03Z</time>
      </trkpt>
      <trkpt lat="47.59049" lon="1.35579">
        <ele>64.545654296875</ele>
        <time>2013-06-28T07:34:11Z</time>
      </trkpt>
      <trkpt lat="47.59046" lon="1.35564">
        <ele>64.065063476562</ele>
        <time>2013-06-28T07:34:13Z</time>
      </trkpt>
      <trkpt lat="47.5905" lon="1.35538">
        <ele>65.0263671875</ele>
        <time>2013-06-28T07:34:17Z</time>
      </trkpt>
      <trkpt lat="47.59043" lon="1.35509">
        <ele>65.0263671875</ele>
        <time>2013-06-28T07:34:22Z</time>
      </trkpt>
      <trkpt lat="47.59026" lon="1.35492">
        <ele>65.507080078125</ele>
        <time>2013-06-28T07:34:27Z</time>
      </trkpt>
      <trkpt lat="47.59017" lon="1.35459">
        <ele>65.507080078125</ele>
        <time>2013-06-28T07:34:33Z</time>
      </trkpt>
      <trkpt lat="47.59001" lon="1.35384">
        <ele>65.507080078125</ele>
        <time>2013-06-28T07:34:43Z</time>
      </trkpt>
      <trkpt lat="47.5898" lon="1.35292">
        <ele>65.987670898438</ele>
        <time>2013-06-28T07:34:54Z</time>
      </trkpt>
      <trkpt lat="47.58953" lon="1.352">
        <ele>66.46826171875</ele>
        <time>2013-06-28T07:35:05Z</time>
      </trkpt>
      <trkpt lat="47.58925" lon="1.35133">
        <ele>65.0263671875</ele>
        <time>2013-06-28T07:35:13Z</time>
      </trkpt>
      <trkpt lat="47.58921" lon="1.35097">
        <ele>65.987670898438</ele>
        <time>2013-06-28T07:35:17Z</time>
      </trkpt>
      <trkpt lat="47.58911" lon="1.35047">
        <ele>65.987670898438</ele>
        <time>2013-06-28T07:35:23Z</time>
      </trkpt>
      <trkpt lat="47.58911" lon="1.35038">
        <ele>65.987670898438</ele>
        <time>2013-06-28T07:35:24Z</time>
      </trkpt>
      <trkpt lat="47.5891" lon="1.35013">
        <ele>66.948974609375</ele>
        <time>2013-06-28T07:35:27Z</time>
      </trkpt>
      <trkpt lat="47.58891" lon="1.34965">
        <ele>67.910278320312</ele>
        <time>2013-06-28T07:35:34Z</time>
      </trkpt>
      <trkpt lat="47.58847" lon="1.34889">
        <ele>69.352294921875</ele>
        <time>2013-06-28T07:35:47Z</time>
      </trkpt>
      <trkpt lat="47.58808" lon="1.34817">
        <ele>68.390869140625</ele>
        <time>2013-06-28T07:35:58Z</time>
      </trkpt>
      <trkpt lat="47.58769" lon="1.34738">
        <ele>68.87158203125</ele>
        <time>2013-06-28T07:36:10Z</time>
      </trkpt>
      <trkpt lat="47.58728" lon="1.34652">
        <ele>68.390869140625</ele>
        <time>2013-06-28T07:36:23Z</time>
      </trkpt>
      <trkpt lat="47.58688" lon="1.34554">
        <ele>67.4296875</ele>
        <time>2013-06-28T07:36:37Z</time>
      </trkpt>
      <trkpt lat="47.5865" lon="1.34483">
        <ele>65.987670898438</ele>
        <time>2013-06-28T07:36:48Z</time>
      </trkpt>
      <trkpt lat="47.58613" lon="1.34408">
        <ele>65.507080078125</ele>
        <time>2013-06-28T07:36:59Z</time>
      </trkpt>
      <trkpt lat="47.5858" lon="1.34326">
        <ele>64.545654296875</ele>
        <time>2013-06-28T07:37:11Z</time>
      </trkpt>
      <trkpt lat="47.58571" lon="1.34299">
        <ele>64.065063476562</ele>
        <time>2013-06-28T07:37:15Z</time>
      </trkpt>
      <trkpt lat="47.58567" lon="1.34243">
        <ele>65.0263671875</ele>
        <time>2013-06-28T07:37:23Z</time>
      </trkpt>
      <trkpt lat="47.58567" lon="1.34223">
        <ele>65.0263671875</ele>
        <time>2013-06-28T07:37:28Z</time>
      </trkpt>
      <trkpt lat="47.5857" lon="1.34215">
        <ele>65.507080078125</ele>
        <time>2013-06-28T07:37:35Z</time>
      </trkpt>
      <trkpt lat="47.5857" lon="1.34215">
        <ele>65.987670898438</ele>
        <time>2013-06-28T07:37:36Z</time>
      </trkpt>
      <trkpt lat="47.58568" lon="1.34186">
        <ele>65.507080078125</ele>
        <time>2013-06-28T07:37:45Z</time>
      </trkpt>
      <trkpt lat="47.58565" lon="1.34144">
        <ele>65.507080078125</ele>
        <time>2013-06-28T07:37:55Z</time>
      </trkpt>
      <trkpt lat="47.58564" lon="1.3412">
        <ele>65.507080078125</ele>
        <time>2013-06-28T07:38:04Z</time>
      </trkpt>
      <trkpt lat="47.58563" lon="1.34118">
        <ele>66.46826171875</ele>
        <time>2013-06-28T07:38:11Z</time>
      </trkpt>
      <trkpt lat="47.58562" lon="1.34115">
        <ele>69.352294921875</ele>
        <time>2013-06-28T07:38:34Z</time>
      </trkpt>
      <trkpt lat="47.58562" lon="1.34116">
        <ele>68.87158203125</ele>
        <time>2013-06-28T07:38:39Z</time>
      </trkpt>
      <trkpt lat="47.58553" lon="1.34105">
        <ele>68.87158203125</ele>
        <time>2013-06-28T07:38:45Z</time>
      </trkpt>
      <trkpt lat="47.58539" lon="1.34082">
        <ele>69.832885742188</ele>
        <time>2013-06-28T07:38:51Z</time>
      </trkpt>
      <trkpt lat="47.58511" lon="1.34034">
        <ele>68.390869140625</ele>
        <time>2013-06-28T07:39:00Z</time>
      </trkpt>
      <trkpt lat="47.58477" lon="1.33977">
        <ele>69.352294921875</ele>
        <time>2013-06-28T07:39:11Z</time>
      </trkpt>
      <trkpt lat="47.58444" lon="1.33932">
        <ele>69.832885742188</ele>
        <time>2013-06-28T07:39:22Z</time>
      </trkpt>
      <trkpt lat="47.58427" lon="1.33921">
        <ele>68.87158203125</ele>
        <time>2013-06-28T07:39:29Z</time>
      </trkpt>
      <trkpt lat="47.58394" lon="1.3388">
        <ele>67.910278320312</ele>
        <time>2013-06-28T07:39:38Z</time>
      </trkpt>
      <trkpt lat="47.58357" lon="1.33819">
        <ele>67.4296875</ele>
        <time>2013-06-28T07:39:48Z</time>
      </trkpt>
      <trkpt lat="47.58297" lon="1.33722">
        <ele>67.910278320312</ele>
        <time>2013-06-28T07:40:04Z</time>
      </trkpt>
      <trkpt lat="47.58243" lon="1.33636">
        <ele>68.87158203125</ele>
        <time>2013-06-28T07:40:18Z</time>
      </trkpt>
      <trkpt lat="47.582" lon="1.33568">
        <ele>69.352294921875</ele>
        <time>2013-06-28T07:40:29Z</time>
      </trkpt>
      <trkpt lat="47.58135" lon="1.33465">
        <ele>70.3134765625</ele>
        <time>2013-06-28T07:40:45Z</time>
      </trkpt>
      <trkpt lat="47.58077" lon="1.33387">
        <ele>71.755493164062</ele>
        <time>2013-06-28T07:40:58Z</time>
      </trkpt>
      <trkpt lat="47.58005" lon="1.33292">
        <ele>72.716918945312</ele>
        <time>2013-06-28T07:41:14Z</time>
      </trkpt>
      <trkpt lat="47.57927" lon="1.3319">
        <ele>71.27490234375</ele>
        <time>2013-06-28T07:41:31Z</time>
      </trkpt>
      <trkpt lat="47.57866" lon="1.33107">
        <ele>70.3134765625</ele>
        <time>2013-06-28T07:41:44Z</time>
      </trkpt>
      <trkpt lat="47.57808" lon="1.33009">
        <ele>71.755493164062</ele>
        <time>2013-06-28T07:41:58Z</time>
      </trkpt>
      <trkpt lat="47.57747" lon="1.32928">
        <ele>71.755493164062</ele>
        <time>2013-06-28T07:42:11Z</time>
      </trkpt>
      <trkpt lat="47.57688" lon="1.32826">
        <ele>72.236206054688</ele>
        <time>2013-06-28T07:42:25Z</time>
      </trkpt>
      <trkpt lat="47.57628" lon="1.32715">
        <ele>72.236206054688</ele>
        <time>2013-06-28T07:42:40Z</time>
      </trkpt>
      <trkpt lat="47.57561" lon="1.32591">
        <ele>72.716918945312</ele>
        <time>2013-06-28T07:42:57Z</time>
      </trkpt>
      <trkpt lat="47.57514" lon="1.32498">
        <ele>72.236206054688</ele>
        <time>2013-06-28T07:43:10Z</time>
      </trkpt>
      <trkpt lat="47.5749" lon="1.3246">
        <ele>71.755493164062</ele>
        <time>2013-06-28T07:43:17Z</time>
      </trkpt>
      <trkpt lat="47.5748" lon="1.3243">
        <ele>72.236206054688</ele>
        <time>2013-06-28T07:43:21Z</time>
      </trkpt>
      <trkpt lat="47.57458" lon="1.32392">
        <ele>72.236206054688</ele>
        <time>2013-06-28T07:43:27Z</time>
      </trkpt>
      <trkpt lat="47.5744" lon="1.32364">
        <ele>72.716918945312</ele>
        <time>2013-06-28T07:43:32Z</time>
      </trkpt>
      <trkpt lat="47.5743" lon="1.32346">
        <ele>72.716918945312</ele>
        <time>2013-06-28T07:43:35Z</time>
      </trkpt>
      <trkpt lat="47.57399" lon="1.32281">
        <ele>72.716918945312</ele>
        <time>2013-06-28T07:43:45Z</time>
      </trkpt>
      <trkpt lat="47.57359" lon="1.322">
        <ele>72.716918945312</ele>
        <time>2013-06-28T07:43:57Z</time>
      </trkpt>
      <trkpt lat="47.57322" lon="1.32113">
        <ele>72.716918945312</ele>
        <time>2013-06-28T07:44:09Z</time>
      </trkpt>
      <trkpt lat="47.57294" lon="1.32043">
        <ele>72.236206054688</ele>
        <time>2013-06-28T07:44:19Z</time>
      </trkpt>
      <trkpt lat="47.57281" lon="1.32018">
        <ele>72.716918945312</ele>
        <time>2013-06-28T07:44:24Z</time>
      </trkpt>
      <trkpt lat="47.57263" lon="1.32009">
        <ele>69.832885742188</ele>
        <time>2013-06-28T07:44:28Z</time>
      </trkpt>
      <trkpt lat="47.57231" lon="1.31985">
        <ele>67.4296875</ele>
        <time>2013-06-28T07:44:33Z</time>
      </trkpt>
      <trkpt lat="47.57227" lon="1.31977">
        <ele>67.910278320312</ele>
        <time>2013-06-28T07:44:34Z</time>
      </trkpt>
      <trkpt lat="47.57191" lon="1.31905">
        <ele>69.352294921875</ele>
        <time>2013-06-28T07:44:44Z</time>
      </trkpt>
      <trkpt lat="47.5715" lon="1.31829">
        <ele>68.87158203125</ele>
        <time>2013-06-28T07:44:55Z</time>
      </trkpt>
      <trkpt lat="47.57111" lon="1.31749">
        <ele>69.832885742188</ele>
        <time>2013-06-28T07:45:06Z</time>
      </trkpt>
      <trkpt lat="47.57072" lon="1.31669">
        <ele>69.832885742188</ele>
        <time>2013-06-28T07:45:17Z</time>
      </trkpt>
      <trkpt lat="47.57025" lon="1.3158">
        <ele>67.910278320312</ele>
        <time>2013-06-28T07:45:29Z</time>
      </trkpt>
      <trkpt lat="47.56977" lon="1.31489">
        <ele>69.352294921875</ele>
        <time>2013-06-28T07:45:42Z</time>
      </trkpt>
      <trkpt lat="47.56934" lon="1.31403">
        <ele>69.352294921875</ele>
        <time>2013-06-28T07:45:54Z</time>
      </trkpt>
      <trkpt lat="47.56896" lon="1.31341">
        <ele>69.352294921875</ele>
        <time>2013-06-28T07:46:03Z</time>
      </trkpt>
      <trkpt lat="47.56844" lon="1.31274">
        <ele>69.352294921875</ele>
        <time>2013-06-28T07:46:14Z</time>
      </trkpt>
      <trkpt lat="47.568" lon="1.31236">
        <ele>69.352294921875</ele>
        <time>2013-06-28T07:46:22Z</time>
      </trkpt>
      <trkpt lat="47.56774" lon="1.31215">
        <ele>69.352294921875</ele>
        <time>2013-06-28T07:46:27Z</time>
      </trkpt>
      <trkpt lat="47.56755" lon="1.31184">
        <ele>68.87158203125</ele>
        <time>2013-06-28T07:46:33Z</time>
      </trkpt>
      <trkpt lat="47.56733" lon="1.31136">
        <ele>69.352294921875</ele>
        <time>2013-06-28T07:46:40Z</time>
      </trkpt>
      <trkpt lat="47.56693" lon="1.31085">
        <ele>68.87158203125</ele>
        <time>2013-06-28T07:46:49Z</time>
      </trkpt>
      <trkpt lat="47.56632" lon="1.31018">
        <ele>67.910278320312</ele>
        <time>2013-06-28T07:47:01Z</time>
      </trkpt>
      <trkpt lat="47.56564" lon="1.30943">
        <ele>66.46826171875</ele>
        <time>2013-06-28T07:47:14Z</time>
      </trkpt>
      <trkpt lat="47.56491" lon="1.30868">
        <ele>66.46826171875</ele>
        <time>2013-06-28T07:47:28Z</time>
      </trkpt>
      <trkpt lat="47.56413" lon="1.30786">
        <ele>64.065063476562</ele>
        <time>2013-06-28T07:47:43Z</time>
      </trkpt>
      <trkpt lat="47.56359" lon="1.3073">
        <ele>63.103637695312</ele>
        <time>2013-06-28T07:47:53Z</time>
      </trkpt>
      <trkpt lat="47.56289" lon="1.30663">
        <ele>62.622924804688</ele>
        <time>2013-06-28T07:48:06Z</time>
      </trkpt>
      <trkpt lat="47.56219" lon="1.30597">
        <ele>64.065063476562</ele>
        <time>2013-06-28T07:48:19Z</time>
      </trkpt>
      <trkpt lat="47.56157" lon="1.30535">
        <ele>65.507080078125</ele>
        <time>2013-06-28T07:48:31Z</time>
      </trkpt>
      <trkpt lat="47.56091" lon="1.3048">
        <ele>66.46826171875</ele>
        <time>2013-06-28T07:48:43Z</time>
      </trkpt>
      <trkpt lat="47.56006" lon="1.30412">
        <ele>67.910278320312</ele>
        <time>2013-06-28T07:48:58Z</time>
      </trkpt>
      <trkpt lat="47.55926" lon="1.30349">
        <ele>68.87158203125</ele>
        <time>2013-06-28T07:49:12Z</time>
      </trkpt>
      <trkpt lat="47.55884" lon="1.3032">
        <ele>71.27490234375</ele>
        <time>2013-06-28T07:49:20Z</time>
      </trkpt>
      <trkpt lat="47.55861" lon="1.30305">
        <ele>71.755493164062</ele>
        <time>2013-06-28T07:49:27Z</time>
      </trkpt>
      <trkpt lat="47.55849" lon="1.30295">
        <ele>71.755493164062</ele>
        <time>2013-06-28T07:49:31Z</time>
      </trkpt>
      <trkpt lat="47.5582" lon="1.3027">
        <ele>69.352294921875</ele>
        <time>2013-06-28T07:49:36Z</time>
      </trkpt>
      <trkpt lat="47.55765" lon="1.30226">
        <ele>69.352294921875</ele>
        <time>2013-06-28T07:49:45Z</time>
      </trkpt>
      <trkpt lat="47.55697" lon="1.30176">
        <ele>68.390869140625</ele>
        <time>2013-06-28T07:49:57Z</time>
      </trkpt>
      <trkpt lat="47.55627" lon="1.30124">
        <ele>67.4296875</ele>
        <time>2013-06-28T07:50:10Z</time>
      </trkpt>
      <trkpt lat="47.55562" lon="1.30076">
        <ele>66.46826171875</ele>
        <time>2013-06-28T07:50:22Z</time>
      </trkpt>
      <trkpt lat="47.55538" lon="1.3007">
        <ele>67.4296875</ele>
        <time>2013-06-28T07:50:26Z</time>
      </trkpt>
      <trkpt lat="47.55497" lon="1.30045">
        <ele>67.910278320312</ele>
        <time>2013-06-28T07:50:34Z</time>
      </trkpt>
      <trkpt lat="47.55447" lon="1.29994">
        <ele>68.390869140625</ele>
        <time>2013-06-28T07:50:44Z</time>
      </trkpt>
      <trkpt lat="47.55443" lon="1.29988">
        <ele>68.390869140625</ele>
        <time>2013-06-28T07:50:45Z</time>
      </trkpt>
      <trkpt lat="47.55422" lon="1.2997">
        <ele>67.910278320312</ele>
        <time>2013-06-28T07:50:49Z</time>
      </trkpt>
      <trkpt lat="47.55383" lon="1.29943">
        <ele>67.4296875</ele>
        <time>2013-06-28T07:50:56Z</time>
      </trkpt>
      <trkpt lat="47.55363" lon="1.29951">
        <ele>67.4296875</ele>
        <time>2013-06-28T07:51:00Z</time>
      </trkpt>
      <trkpt lat="47.5536" lon="1.29957">
        <ele>67.4296875</ele>
        <time>2013-06-28T07:51:01Z</time>
      </trkpt>
      <trkpt lat="47.5533" lon="1.30018">
        <ele>65.507080078125</ele>
        <time>2013-06-28T07:51:10Z</time>
      </trkpt>
      <trkpt lat="47.55313" lon="1.30022">
        <ele>65.0263671875</ele>
        <time>2013-06-28T07:51:14Z</time>
      </trkpt>
      <trkpt lat="47.55309" lon="1.30018">
        <ele>65.0263671875</ele>
        <time>2013-06-28T07:51:15Z</time>
      </trkpt>
      <trkpt lat="47.55261" lon="1.29975">
        <ele>64.545654296875</ele>
        <time>2013-06-28T07:51:25Z</time>
      </trkpt>
      <trkpt lat="47.55211" lon="1.2993">
        <ele>64.545654296875</ele>
        <time>2013-06-28T07:51:35Z</time>
      </trkpt>
      <trkpt lat="47.55201" lon="1.29921">
        <ele>65.0263671875</ele>
        <time>2013-06-28T07:51:37Z</time>
      </trkpt>
      <trkpt lat="47.55183" lon="1.29924">
        <ele>65.507080078125</ele>
        <time>2013-06-28T07:51:41Z</time>
      </trkpt>
      <trkpt lat="47.55177" lon="1.29936">
        <ele>65.507080078125</ele>
        <time>2013-06-28T07:51:43Z</time>
      </trkpt>
      <trkpt lat="47.55141" lon="1.3001">
        <ele>64.065063476562</ele>
        <time>2013-06-28T07:51:54Z</time>
      </trkpt>
      <trkpt lat="47.5511" lon="1.3007">
        <ele>62.622924804688</ele>
        <time>2013-06-28T07:52:04Z</time>
      </trkpt>
      <trkpt lat="47.55082" lon="1.30129">
        <ele>63.103637695312</ele>
        <time>2013-06-28T07:52:14Z</time>
      </trkpt>
      <trkpt lat="47.55061" lon="1.30171">
        <ele>63.584350585938</ele>
        <time>2013-06-28T07:52:23Z</time>
      </trkpt>
      <trkpt lat="47.55056" lon="1.3018">
        <ele>64.065063476562</ele>
        <time>2013-06-28T07:52:26Z</time>
      </trkpt>
      <trkpt lat="47.55044" lon="1.30175">
        <ele>64.545654296875</ele>
        <time>2013-06-28T07:52:31Z</time>
      </trkpt>
      <trkpt lat="47.55017" lon="1.30153">
        <ele>65.507080078125</ele>
        <time>2013-06-28T07:52:38Z</time>
      </trkpt>
      <trkpt lat="47.54974" lon="1.30109">
        <ele>66.948974609375</ele>
        <time>2013-06-28T07:52:49Z</time>
      </trkpt>
      <trkpt lat="47.54949" lon="1.30106">
        <ele>67.4296875</ele>
        <time>2013-06-28T07:52:55Z</time>
      </trkpt>
      <trkpt lat="47.54941" lon="1.30116">
        <ele>67.4296875</ele>
        <time>2013-06-28T07:52:57Z</time>
      </trkpt>
      <trkpt lat="47.54907" lon="1.30167">
        <ele>66.948974609375</ele>
        <time>2013-06-28T07:53:07Z</time>
      </trkpt>
      <trkpt lat="47.54892" lon="1.30189">
        <ele>66.948974609375</ele>
        <time>2013-06-28T07:53:14Z</time>
      </trkpt>
      <trkpt lat="47.5489" lon="1.30189">
        <ele>66.948974609375</ele>
        <time>2013-06-28T07:53:20Z</time>
      </trkpt>
      <trkpt lat="47.5489" lon="1.30188">
        <ele>66.948974609375</ele>
        <time>2013-06-28T07:53:28Z</time>
      </trkpt>
      <trkpt lat="47.54889" lon="1.30187">
        <ele>67.4296875</ele>
        <time>2013-06-28T07:53:34Z</time>
      </trkpt>
      <trkpt lat="47.54884" lon="1.30179">
        <ele>67.4296875</ele>
        <time>2013-06-28T07:53:39Z</time>
      </trkpt>
      <trkpt lat="47.54874" lon="1.30187">
        <ele>67.4296875</ele>
        <time>2013-06-28T07:53:43Z</time>
      </trkpt>
      <trkpt lat="47.54844" lon="1.3023">
        <ele>67.4296875</ele>
        <time>2013-06-28T07:53:51Z</time>
      </trkpt>
      <trkpt lat="47.54794" lon="1.303">
        <ele>66.948974609375</ele>
        <time>2013-06-28T07:54:03Z</time>
      </trkpt>
      <trkpt lat="47.54749" lon="1.30363">
        <ele>67.4296875</ele>
        <time>2013-06-28T07:54:14Z</time>
      </trkpt>
      <trkpt lat="47.54697" lon="1.30437">
        <ele>67.4296875</ele>
        <time>2013-06-28T07:54:26Z</time>
      </trkpt>
      <trkpt lat="47.54644" lon="1.30511">
        <ele>66.948974609375</ele>
        <time>2013-06-28T07:54:38Z</time>
      </trkpt>
      <trkpt lat="47.54589" lon="1.30589">
        <ele>66.948974609375</ele>
        <time>2013-06-28T07:54:51Z</time>
      </trkpt>
      <trkpt lat="47.54552" lon="1.30642">
        <ele>66.948974609375</ele>
        <time>2013-06-28T07:55:00Z</time>
      </trkpt>
      <trkpt lat="47.54519" lon="1.30693">
        <ele>66.46826171875</ele>
        <time>2013-06-28T07:55:09Z</time>
      </trkpt>
      <trkpt lat="47.54478" lon="1.30749">
        <ele>66.46826171875</ele>
        <time>2013-06-28T07:55:18Z</time>
      </trkpt>
      <trkpt lat="47.54417" lon="1.30832">
        <ele>66.948974609375</ele>
        <time>2013-06-28T07:55:31Z</time>
      </trkpt>
      <trkpt lat="47.54385" lon="1.30877">
        <ele>67.4296875</ele>
        <time>2013-06-28T07:55:38Z</time>
      </trkpt>
      <trkpt lat="47.5435" lon="1.30917">
        <ele>68.87158203125</ele>
        <time>2013-06-28T07:55:46Z</time>
      </trkpt>
      <trkpt lat="47.5432" lon="1.30953">
        <ele>67.910278320312</ele>
        <time>2013-06-28T07:55:54Z</time>
      </trkpt>
      <trkpt lat="47.54284" lon="1.30964">
        <ele>66.46826171875</ele>
        <time>2013-06-28T07:56:00Z</time>
      </trkpt>
      <trkpt lat="47.5426" lon="1.30961">
        <ele>65.987670898438</ele>
        <time>2013-06-28T07:56:05Z</time>
      </trkpt>
      <trkpt lat="47.5426" lon="1.30931">
        <ele>65.507080078125</ele>
        <time>2013-06-28T07:56:10Z</time>
      </trkpt>
      <trkpt lat="47.54264" lon="1.30917">
        <ele>65.987670898438</ele>
        <time>2013-06-28T07:56:12Z</time>
      </trkpt>
      <trkpt lat="47.54287" lon="1.30873">
        <ele>65.0263671875</ele>
        <time>2013-06-28T07:56:19Z</time>
      </trkpt>
      <trkpt lat="47.54301" lon="1.3085">
        <ele>65.0263671875</ele>
        <time>2013-06-28T07:56:23Z</time>
      </trkpt>
      <trkpt lat="47.54303" lon="1.30837">
        <ele>64.545654296875</ele>
        <time>2013-06-28T07:56:25Z</time>
      </trkpt>
      <trkpt lat="47.54296" lon="1.30815">
        <ele>63.584350585938</ele>
        <time>2013-06-28T07:56:28Z</time>
      </trkpt>
      <trkpt lat="47.54278" lon="1.30783">
        <ele>63.584350585938</ele>
        <time>2013-06-28T07:56:33Z</time>
      </trkpt>
      <trkpt lat="47.54235" lon="1.3076">
        <ele>63.584350585938</ele>
        <time>2013-06-28T07:56:41Z</time>
      </trkpt>
      <trkpt lat="47.54224" lon="1.30753">
        <ele>64.065063476562</ele>
        <time>2013-06-28T07:56:43Z</time>
      </trkpt>
      <trkpt lat="47.54204" lon="1.30733">
        <ele>64.545654296875</ele>
        <time>2013-06-28T07:56:47Z</time>
      </trkpt>
      <trkpt lat="47.54177" lon="1.30673">
        <ele>65.0263671875</ele>
        <time>2013-06-28T07:56:55Z</time>
      </trkpt>
      <trkpt lat="47.54152" lon="1.30612">
        <ele>66.46826171875</ele>
        <time>2013-06-28T07:57:03Z</time>
      </trkpt>
      <trkpt lat="47.54115" lon="1.30558">
        <ele>64.545654296875</ele>
        <time>2013-06-28T07:57:12Z</time>
      </trkpt>
      <trkpt lat="47.54066" lon="1.3052">
        <ele>64.545654296875</ele>
        <time>2013-06-28T07:57:21Z</time>
      </trkpt>
      <trkpt lat="47.54029" lon="1.30469">
        <ele>64.545654296875</ele>
        <time>2013-06-28T07:57:29Z</time>
      </trkpt>
      <trkpt lat="47.54025" lon="1.30463">
        <ele>64.545654296875</ele>
        <time>2013-06-28T07:57:30Z</time>
      </trkpt>
      <trkpt lat="47.54007" lon="1.30446">
        <ele>66.46826171875</ele>
        <time>2013-06-28T07:57:34Z</time>
      </trkpt>
      <trkpt lat="47.54002" lon="1.3044">
        <ele>66.948974609375</ele>
        <time>2013-06-28T07:57:35Z</time>
      </trkpt>
      <trkpt lat="47.53972" lon="1.30399">
        <ele>67.910278320312</ele>
        <time>2013-06-28T07:57:42Z</time>
      </trkpt>
      <trkpt lat="47.5395" lon="1.30382">
        <ele>68.390869140625</ele>
        <time>2013-06-28T07:57:46Z</time>
      </trkpt>
      <trkpt lat="47.5392" lon="1.30384">
        <ele>68.390869140625</ele>
        <time>2013-06-28T07:57:51Z</time>
      </trkpt>
      <trkpt lat="47.53905" lon="1.3041">
        <ele>67.910278320312</ele>
        <time>2013-06-28T07:57:55Z</time>
      </trkpt>
      <trkpt lat="47.53895" lon="1.30432">
        <ele>67.4296875</ele>
        <time>2013-06-28T07:57:58Z</time>
      </trkpt>
      <trkpt lat="47.53853" lon="1.30484">
        <ele>66.46826171875</ele>
        <time>2013-06-28T07:58:07Z</time>
      </trkpt>
      <trkpt lat="47.53818" lon="1.30533">
        <ele>67.910278320312</ele>
        <time>2013-06-28T07:58:16Z</time>
      </trkpt>
      <trkpt lat="47.53797" lon="1.30558">
        <ele>70.3134765625</ele>
        <time>2013-06-28T07:58:23Z</time>
      </trkpt>
      <trkpt lat="47.53783" lon="1.30535">
        <ele>69.832885742188</ele>
        <time>2013-06-28T07:58:28Z</time>
      </trkpt>
      <trkpt lat="47.5378" lon="1.30528">
        <ele>69.832885742188</ele>
        <time>2013-06-28T07:58:29Z</time>
      </trkpt>
      <trkpt lat="47.53743" lon="1.30471">
        <ele>67.910278320312</ele>
        <time>2013-06-28T07:58:38Z</time>
      </trkpt>
      <trkpt lat="47.53693" lon="1.30404">
        <ele>65.987670898438</ele>
        <time>2013-06-28T07:58:48Z</time>
      </trkpt>
      <trkpt lat="47.5364" lon="1.30327">
        <ele>67.4296875</ele>
        <time>2013-06-28T07:58:59Z</time>
      </trkpt>
      <trkpt lat="47.53591" lon="1.30238">
        <ele>68.390869140625</ele>
        <time>2013-06-28T07:59:11Z</time>
      </trkpt>
      <trkpt lat="47.53545" lon="1.30158">
        <ele>68.87158203125</ele>
        <time>2013-06-28T07:59:22Z</time>
      </trkpt>
      <trkpt lat="47.53503" lon="1.30109">
        <ele>68.87158203125</ele>
        <time>2013-06-28T07:59:31Z</time>
      </trkpt>
      <trkpt lat="47.5346" lon="1.30067">
        <ele>69.352294921875</ele>
        <time>2013-06-28T07:59:41Z</time>
      </trkpt>
      <trkpt lat="47.53407" lon="1.30013">
        <ele>69.352294921875</ele>
        <time>2013-06-28T07:59:52Z</time>
      </trkpt>
      <trkpt lat="47.53348" lon="1.2995">
        <ele>69.832885742188</ele>
        <time>2013-06-28T08:00:04Z</time>
      </trkpt>
      <trkpt lat="47.53293" lon="1.29888">
        <ele>73.197631835938</ele>
        <time>2013-06-28T08:00:15Z</time>
      </trkpt>
      <trkpt lat="47.53232" lon="1.29826">
        <ele>72.236206054688</ele>
        <time>2013-06-28T08:00:27Z</time>
      </trkpt>
      <trkpt lat="47.53171" lon="1.29762">
        <ele>71.755493164062</ele>
        <time>2013-06-28T08:00:39Z</time>
      </trkpt>
      <trkpt lat="47.53101" lon="1.2969">
        <ele>72.236206054688</ele>
        <time>2013-06-28T08:00:53Z</time>
      </trkpt>
      <trkpt lat="47.53044" lon="1.29634">
        <ele>71.27490234375</ele>
        <time>2013-06-28T08:01:05Z</time>
      </trkpt>
      <trkpt lat="47.53028" lon="1.29621">
        <ele>71.27490234375</ele>
        <time>2013-06-28T08:01:08Z</time>
      </trkpt>
      <trkpt lat="47.53" lon="1.29621">
        <ele>70.794189453125</ele>
        <time>2013-06-28T08:01:13Z</time>
      </trkpt>
      <trkpt lat="47.5299" lon="1.29631">
        <ele>71.27490234375</ele>
        <time>2013-06-28T08:01:15Z</time>
      </trkpt>
      <trkpt lat="47.52947" lon="1.29682">
        <ele>74.639526367188</ele>
        <time>2013-06-28T08:01:25Z</time>
      </trkpt>
      <trkpt lat="47.52924" lon="1.29721">
        <ele>75.120239257812</ele>
        <time>2013-06-28T08:01:31Z</time>
      </trkpt>
      <trkpt lat="47.52905" lon="1.29744">
        <ele>75.120239257812</ele>
        <time>2013-06-28T08:01:36Z</time>
      </trkpt>
      <trkpt lat="47.52886" lon="1.29763">
        <ele>74.639526367188</ele>
        <time>2013-06-28T08:01:41Z</time>
      </trkpt>
      <trkpt lat="47.52876" lon="1.29705">
        <ele>75.120239257812</ele>
        <time>2013-06-28T08:01:48Z</time>
      </trkpt>
      <trkpt lat="47.5284" lon="1.29665">
        <ele>74.158813476562</ele>
        <time>2013-06-28T08:01:56Z</time>
      </trkpt>
      <trkpt lat="47.52753" lon="1.29562">
        <ele>74.158813476562</ele>
        <time>2013-06-28T08:02:08Z</time>
      </trkpt>
      <trkpt lat="47.52698" lon="1.29496">
        <ele>74.158813476562</ele>
        <time>2013-06-28T08:02:20Z</time>
      </trkpt>
      <trkpt lat="47.52632" lon="1.29411">
        <ele>76.562133789062</ele>
        <time>2013-06-28T08:02:33Z</time>
      </trkpt>
      <trkpt lat="47.52588" lon="1.29379">
        <ele>76.562133789062</ele>
        <time>2013-06-28T08:02:41Z</time>
      </trkpt>
      <trkpt lat="47.52546" lon="1.29338">
        <ele>75.120239257812</ele>
        <time>2013-06-28T08:02:49Z</time>
      </trkpt>
      <trkpt lat="47.52493" lon="1.29268">
        <ele>71.755493164062</ele>
        <time>2013-06-28T08:03:00Z</time>
      </trkpt>
      <trkpt lat="47.52431" lon="1.29176">
        <ele>70.3134765625</ele>
        <time>2013-06-28T08:03:13Z</time>
      </trkpt>
      <trkpt lat="47.52371" lon="1.29085">
        <ele>69.352294921875</ele>
        <time>2013-06-28T08:03:26Z</time>
      </trkpt>
      <trkpt lat="47.5229" lon="1.28977">
        <ele>68.390869140625</ele>
        <time>2013-06-28T08:03:42Z</time>
      </trkpt>
      <trkpt lat="47.52209" lon="1.28883">
        <ele>67.4296875</ele>
        <time>2013-06-28T08:03:57Z</time>
      </trkpt>
      <trkpt lat="47.52128" lon="1.28792">
        <ele>68.87158203125</ele>
        <time>2013-06-28T08:04:12Z</time>
      </trkpt>
      <trkpt lat="47.5206" lon="1.28726">
        <ele>70.3134765625</ele>
        <time>2013-06-28T08:04:24Z</time>
      </trkpt>
      <trkpt lat="47.52007" lon="1.2867">
        <ele>70.794189453125</ele>
        <time>2013-06-28T08:04:34Z</time>
      </trkpt>
      <trkpt lat="47.51975" lon="1.28626">
        <ele>70.794189453125</ele>
        <time>2013-06-28T08:04:41Z</time>
      </trkpt>
      <trkpt lat="47.51924" lon="1.28524">
        <ele>69.832885742188</ele>
        <time>2013-06-28T08:04:54Z</time>
      </trkpt>
      <trkpt lat="47.51919" lon="1.28516">
        <ele>69.832885742188</ele>
        <time>2013-06-28T08:04:55Z</time>
      </trkpt>
      <trkpt lat="47.51874" lon="1.28459">
        <ele>68.87158203125</ele>
        <time>2013-06-28T08:05:05Z</time>
      </trkpt>
      <trkpt lat="47.51867" lon="1.2845">
        <ele>68.87158203125</ele>
        <time>2013-06-28T08:05:07Z</time>
      </trkpt>
      <trkpt lat="47.51844" lon="1.28452">
        <ele>66.948974609375</ele>
        <time>2013-06-28T08:05:12Z</time>
      </trkpt>
      <trkpt lat="47.51834" lon="1.28451">
        <ele>67.4296875</ele>
        <time>2013-06-28T08:05:14Z</time>
      </trkpt>
      <trkpt lat="47.51825" lon="1.28449">
        <ele>67.4296875</ele>
        <time>2013-06-28T08:05:16Z</time>
      </trkpt>
      <trkpt lat="47.51781" lon="1.28421">
        <ele>66.948974609375</ele>
        <time>2013-06-28T08:05:25Z</time>
      </trkpt>
      <trkpt lat="47.51725" lon="1.28373">
        <ele>66.948974609375</ele>
        <time>2013-06-28T08:05:36Z</time>
      </trkpt>
      <trkpt lat="47.51719" lon="1.28368">
        <ele>66.948974609375</ele>
        <time>2013-06-28T08:05:37Z</time>
      </trkpt>
      <trkpt lat="47.51694" lon="1.28372">
        <ele>67.910278320312</ele>
        <time>2013-06-28T08:05:42Z</time>
      </trkpt>
      <trkpt lat="47.5169" lon="1.28378">
        <ele>68.390869140625</ele>
        <time>2013-06-28T08:05:43Z</time>
      </trkpt>
      <trkpt lat="47.51672" lon="1.28409">
        <ele>69.832885742188</ele>
        <time>2013-06-28T08:05:48Z</time>
      </trkpt>
      <trkpt lat="47.51655" lon="1.28416">
        <ele>71.755493164062</ele>
        <time>2013-06-28T08:05:52Z</time>
      </trkpt>
      <trkpt lat="47.51649" lon="1.28407">
        <ele>72.236206054688</ele>
        <time>2013-06-28T08:05:54Z</time>
      </trkpt>
      <trkpt lat="47.51613" lon="1.28358">
        <ele>72.716918945312</ele>
        <time>2013-06-28T08:06:03Z</time>
      </trkpt>
      <trkpt lat="47.51566" lon="1.28312">
        <ele>73.197631835938</ele>
        <time>2013-06-28T08:06:13Z</time>
      </trkpt>
      <trkpt lat="47.51519" lon="1.2828">
        <ele>73.67822265625</ele>
        <time>2013-06-28T08:06:22Z</time>
      </trkpt>
      <trkpt lat="47.51481" lon="1.28237">
        <ele>74.639526367188</ele>
        <time>2013-06-28T08:06:30Z</time>
      </trkpt>
      <trkpt lat="47.51437" lon="1.28184">
        <ele>76.081420898438</ele>
        <time>2013-06-28T08:06:40Z</time>
      </trkpt>
      <trkpt lat="47.51398" lon="1.28137">
        <ele>75.600830078125</ele>
        <time>2013-06-28T08:06:48Z</time>
      </trkpt>
      <trkpt lat="47.51338" lon="1.28065">
        <ele>75.600830078125</ele>
        <time>2013-06-28T08:07:00Z</time>
      </trkpt>
      <trkpt lat="47.51292" lon="1.27988">
        <ele>74.158813476562</ele>
        <time>2013-06-28T08:07:11Z</time>
      </trkpt>
      <trkpt lat="47.51238" lon="1.27888">
        <ele>72.716918945312</ele>
        <time>2013-06-28T08:07:24Z</time>
      </trkpt>
      <trkpt lat="47.51191" lon="1.2782">
        <ele>73.197631835938</ele>
        <time>2013-06-28T08:07:34Z</time>
      </trkpt>
      <trkpt lat="47.51132" lon="1.27754">
        <ele>74.639526367188</ele>
        <time>2013-06-28T08:07:46Z</time>
      </trkpt>
      <trkpt lat="47.51075" lon="1.27702">
        <ele>74.639526367188</ele>
        <time>2013-06-28T08:07:57Z</time>
      </trkpt>
      <trkpt lat="47.51018" lon="1.27635">
        <ele>76.081420898438</ele>
        <time>2013-06-28T08:08:09Z</time>
      </trkpt>
      <trkpt lat="47.5097" lon="1.27566">
        <ele>75.600830078125</ele>
        <time>2013-06-28T08:08:20Z</time>
      </trkpt>
      <trkpt lat="47.50914" lon="1.27482">
        <ele>75.600830078125</ele>
        <time>2013-06-28T08:08:33Z</time>
      </trkpt>
      <trkpt lat="47.50863" lon="1.2741">
        <ele>75.600830078125</ele>
        <time>2013-06-28T08:08:45Z</time>
      </trkpt>
      <trkpt lat="47.50818" lon="1.27341">
        <ele>74.639526367188</ele>
        <time>2013-06-28T08:08:56Z</time>
      </trkpt>
      <trkpt lat="47.50767" lon="1.27261">
        <ele>73.197631835938</ele>
        <time>2013-06-28T08:09:08Z</time>
      </trkpt>
      <trkpt lat="47.50698" lon="1.27163">
        <ele>73.197631835938</ele>
        <time>2013-06-28T08:09:23Z</time>
      </trkpt>
      <trkpt lat="47.50642" lon="1.27082">
        <ele>71.755493164062</ele>
        <time>2013-06-28T08:09:36Z</time>
      </trkpt>
      <trkpt lat="47.506" lon="1.27003">
        <ele>69.832885742188</ele>
        <time>2013-06-28T08:09:47Z</time>
      </trkpt>
      <trkpt lat="47.50549" lon="1.26905">
        <ele>66.948974609375</ele>
        <time>2013-06-28T08:10:00Z</time>
      </trkpt>
      <trkpt lat="47.50504" lon="1.26807">
        <ele>66.46826171875</ele>
        <time>2013-06-28T08:10:12Z</time>
      </trkpt>
      <trkpt lat="47.50471" lon="1.26732">
        <ele>66.948974609375</ele>
        <time>2013-06-28T08:10:22Z</time>
      </trkpt>
      <trkpt lat="47.50335" lon="1.26435">
        <ele>65.0263671875</ele>
        <time>2013-06-28T08:11:01Z</time>
      </trkpt>
      <trkpt lat="47.50294" lon="1.26349">
        <ele>63.584350585938</ele>
        <time>2013-06-28T08:11:12Z</time>
      </trkpt>
      <trkpt lat="47.50257" lon="1.26264">
        <ele>64.065063476562</ele>
        <time>2013-06-28T08:11:23Z</time>
      </trkpt>
      <trkpt lat="47.50215" lon="1.26182">
        <ele>64.065063476562</ele>
        <time>2013-06-28T08:11:34Z</time>
      </trkpt>
      <trkpt lat="47.50178" lon="1.26121">
        <ele>63.584350585938</ele>
        <time>2013-06-28T08:11:43Z</time>
      </trkpt>
      <trkpt lat="47.50164" lon="1.26105">
        <ele>64.545654296875</ele>
        <time>2013-06-28T08:11:46Z</time>
      </trkpt>
      <trkpt lat="47.50018" lon="1.26094">
        <ele>73.67822265625</ele>
        <time>2013-06-28T08:12:17Z</time>
      </trkpt>
      <trkpt lat="47.49979" lon="1.26102">
        <ele>78.004028320312</ele>
        <time>2013-06-28T08:12:27Z</time>
      </trkpt>
      <trkpt lat="47.49962" lon="1.26108">
        <ele>81.849365234375</ele>
        <time>2013-06-28T08:12:34Z</time>
      </trkpt>
      <trkpt lat="47.49954" lon="1.26114">
        <ele>84.7333984375</ele>
        <time>2013-06-28T08:12:42Z</time>
      </trkpt>
      <trkpt lat="47.49954" lon="1.26116">
        <ele>85.213989257812</ele>
        <time>2013-06-28T08:12:44Z</time>
      </trkpt>
      <trkpt lat="47.49966" lon="1.26101">
        <ele>84.7333984375</ele>
        <time>2013-06-28T08:12:50Z</time>
      </trkpt>
      <trkpt lat="47.49967" lon="1.2608">
        <ele>84.7333984375</ele>
        <time>2013-06-28T08:12:54Z</time>
      </trkpt>
      <trkpt lat="47.49956" lon="1.26038">
        <ele>87.136596679688</ele>
        <time>2013-06-28T08:13:03Z</time>
      </trkpt>
      <trkpt lat="47.49937" lon="1.25994">
        <ele>90.020629882812</ele>
        <time>2013-06-28T08:13:12Z</time>
      </trkpt>
      <trkpt lat="47.49931" lon="1.25984">
        <ele>90.98193359375</ele>
        <time>2013-06-28T08:13:14Z</time>
      </trkpt>
      <trkpt lat="47.49898" lon="1.25916">
        <ele>90.98193359375</ele>
        <time>2013-06-28T08:13:26Z</time>
      </trkpt>
      <trkpt lat="47.49869" lon="1.25858">
        <ele>91.462524414062</ele>
        <time>2013-06-28T08:13:36Z</time>
      </trkpt>
      <trkpt lat="47.49839" lon="1.25801">
        <ele>92.904541015625</ele>
        <time>2013-06-28T08:13:46Z</time>
      </trkpt>
      <trkpt lat="47.49823" lon="1.25797">
        <ele>92.904541015625</ele>
        <time>2013-06-28T08:13:50Z</time>
      </trkpt>
      <trkpt lat="47.4982" lon="1.25801">
        <ele>92.904541015625</ele>
        <time>2013-06-28T08:13:51Z</time>
      </trkpt>
      <trkpt lat="47.49791" lon="1.25827">
        <ele>94.346557617188</ele>
        <time>2013-06-28T08:14:00Z</time>
      </trkpt>
      <trkpt lat="47.49762" lon="1.25849">
        <ele>94.8271484375</ele>
        <time>2013-06-28T08:14:07Z</time>
      </trkpt>
      <trkpt lat="47.49736" lon="1.25851">
        <ele>94.8271484375</ele>
        <time>2013-06-28T08:14:12Z</time>
      </trkpt>
      <trkpt lat="47.49681" lon="1.25839">
        <ele>93.865844726562</ele>
        <time>2013-06-28T08:14:22Z</time>
      </trkpt>
      <trkpt lat="47.49652" lon="1.25842">
        <ele>92.904541015625</ele>
        <time>2013-06-28T08:14:27Z</time>
      </trkpt>
      <trkpt lat="47.4962" lon="1.25827">
        <ele>90.501342773438</ele>
        <time>2013-06-28T08:14:32Z</time>
      </trkpt>
      <trkpt lat="47.49574" lon="1.25826">
        <ele>86.656005859375</ele>
        <time>2013-06-28T08:14:38Z</time>
      </trkpt>
      <trkpt lat="47.49562" lon="1.25827">
        <ele>85.694580078125</ele>
        <time>2013-06-28T08:14:40Z</time>
      </trkpt>
      <trkpt lat="47.49545" lon="1.25852">
        <ele>83.77197265625</ele>
        <time>2013-06-28T08:14:45Z</time>
      </trkpt>
      <trkpt lat="47.4953" lon="1.25897">
        <ele>81.368774414062</ele>
        <time>2013-06-28T08:14:52Z</time>
      </trkpt>
      <trkpt lat="47.4951" lon="1.25891">
        <ele>78.004028320312</ele>
        <time>2013-06-28T08:14:56Z</time>
      </trkpt>
      <trkpt lat="47.49479" lon="1.2589">
        <ele>73.67822265625</ele>
        <time>2013-06-28T08:15:01Z</time>
      </trkpt>
      <trkpt lat="47.49463" lon="1.25904">
        <ele>73.197631835938</ele>
        <time>2013-06-28T08:15:06Z</time>
      </trkpt>
      <trkpt lat="47.49461" lon="1.25914">
        <ele>72.716918945312</ele>
        <time>2013-06-28T08:15:08Z</time>
      </trkpt>
      <trkpt lat="47.49459" lon="1.25939">
        <ele>71.755493164062</ele>
        <time>2013-06-28T08:15:15Z</time>
      </trkpt>
      <trkpt lat="47.49458" lon="1.25968">
        <ele>70.794189453125</ele>
        <time>2013-06-28T08:15:23Z</time>
      </trkpt>
      <trkpt lat="47.49455" lon="1.26011">
        <ele>70.3134765625</ele>
        <time>2013-06-28T08:15:32Z</time>
      </trkpt>
      <trkpt lat="47.49448" lon="1.26058">
        <ele>70.794189453125</ele>
        <time>2013-06-28T08:15:40Z</time>
      </trkpt>
      <trkpt lat="47.49446" lon="1.26065">
        <ele>70.794189453125</ele>
        <time>2013-06-28T08:15:41Z</time>
      </trkpt>
      <trkpt lat="47.49429" lon="1.26077">
        <ele>71.27490234375</ele>
        <time>2013-06-28T08:15:46Z</time>
      </trkpt>
      <trkpt lat="47.49418" lon="1.26069">
        <ele>71.27490234375</ele>
        <time>2013-06-28T08:15:49Z</time>
      </trkpt>
      <trkpt lat="47.49374" lon="1.26024">
        <ele>70.3134765625</ele>
        <time>2013-06-28T08:16:01Z</time>
      </trkpt>
      <trkpt lat="47.49338" lon="1.25996">
        <ele>70.3134765625</ele>
        <time>2013-06-28T08:16:09Z</time>
      </trkpt>
      <trkpt lat="47.49286" lon="1.25968">
        <ele>70.3134765625</ele>
        <time>2013-06-28T08:16:19Z</time>
      </trkpt>
      <trkpt lat="47.49229" lon="1.25939">
        <ele>69.832885742188</ele>
        <time>2013-06-28T08:16:29Z</time>
      </trkpt>
      <trkpt lat="47.49158" lon="1.25905">
        <ele>70.3134765625</ele>
        <time>2013-06-28T08:16:41Z</time>
      </trkpt>
      <trkpt lat="47.49097" lon="1.25873">
        <ele>69.832885742188</ele>
        <time>2013-06-28T08:16:52Z</time>
      </trkpt>
      <trkpt lat="47.49082" lon="1.25861">
        <ele>69.832885742188</ele>
        <time>2013-06-28T08:16:55Z</time>
      </trkpt>
      <trkpt lat="47.49069" lon="1.25846">
        <ele>69.832885742188</ele>
        <time>2013-06-28T08:16:58Z</time>
      </trkpt>
      <trkpt lat="47.49055" lon="1.25806">
        <ele>69.832885742188</ele>
        <time>2013-06-28T08:17:05Z</time>
      </trkpt>
      <trkpt lat="47.4905" lon="1.25744">
        <ele>69.832885742188</ele>
        <time>2013-06-28T08:17:13Z</time>
      </trkpt>
      <trkpt lat="47.49047" lon="1.2566">
        <ele>70.3134765625</ele>
        <time>2013-06-28T08:17:23Z</time>
      </trkpt>
      <trkpt lat="47.49045" lon="1.25582">
        <ele>69.832885742188</ele>
        <time>2013-06-28T08:17:32Z</time>
      </trkpt>
      <trkpt lat="47.4904" lon="1.25469">
        <ele>69.352294921875</ele>
        <time>2013-06-28T08:17:45Z</time>
      </trkpt>
      <trkpt lat="47.49034" lon="1.25321">
        <ele>67.910278320312</ele>
        <time>2013-06-28T08:18:02Z</time>
      </trkpt>
      <trkpt lat="47.4903" lon="1.25226">
        <ele>66.948974609375</ele>
        <time>2013-06-28T08:18:13Z</time>
      </trkpt>
      <trkpt lat="47.49026" lon="1.25129">
        <ele>64.065063476562</ele>
        <time>2013-06-28T08:18:24Z</time>
      </trkpt>
      <trkpt lat="47.4903" lon="1.25042">
        <ele>62.142333984375</ele>
        <time>2013-06-28T08:18:34Z</time>
      </trkpt>
      <trkpt lat="47.49064" lon="1.24758">
        <ele>61.661743164062</ele>
        <time>2013-06-28T08:19:08Z</time>
      </trkpt>
      <trkpt lat="47.49131" lon="1.2409">
        <ele>61.661743164062</ele>
        <time>2013-06-28T08:20:25Z</time>
      </trkpt>
      <trkpt lat="47.49102" lon="1.23692">
        <ele>60.700317382812</ele>
        <time>2013-06-28T08:21:05Z</time>
      </trkpt>
      <trkpt lat="47.49086" lon="1.23555">
        <ele>60.700317382812</ele>
        <time>2013-06-28T08:21:18Z</time>
      </trkpt>
      <trkpt lat="47.49071" lon="1.23461">
        <ele>60.700317382812</ele>
        <time>2013-06-28T08:21:29Z</time>
      </trkpt>
      <trkpt lat="47.49047" lon="1.23296">
        <ele>61.181030273438</ele>
        <time>2013-06-28T08:21:48Z</time>
      </trkpt>
      <trkpt lat="47.49024" lon="1.23207">
        <ele>62.622924804688</ele>
        <time>2013-06-28T08:21:58Z</time>
      </trkpt>
      <trkpt lat="47.48991" lon="1.23083">
        <ele>65.0263671875</ele>
        <time>2013-06-28T08:22:12Z</time>
      </trkpt>
      <trkpt lat="47.48965" lon="1.22987">
        <ele>65.0263671875</ele>
        <time>2013-06-28T08:22:23Z</time>
      </trkpt>
      <trkpt lat="47.48948" lon="1.22872">
        <ele>65.507080078125</ele>
        <time>2013-06-28T08:22:35Z</time>
      </trkpt>
      <trkpt lat="47.48924" lon="1.22736">
        <ele>64.065063476562</ele>
        <time>2013-06-28T08:22:49Z</time>
      </trkpt>
      <trkpt lat="47.48891" lon="1.22554">
        <ele>62.142333984375</ele>
        <time>2013-06-28T08:23:07Z</time>
      </trkpt>
      <trkpt lat="47.48862" lon="1.22439">
        <ele>60.700317382812</ele>
        <time>2013-06-28T08:23:19Z</time>
      </trkpt>
      <trkpt lat="47.48833" lon="1.22336">
        <ele>61.661743164062</ele>
        <time>2013-06-28T08:23:30Z</time>
      </trkpt>
      <trkpt lat="47.48795" lon="1.22205">
        <ele>62.622924804688</ele>
        <time>2013-06-28T08:23:44Z</time>
      </trkpt>
      <trkpt lat="47.48753" lon="1.22046">
        <ele>61.661743164062</ele>
        <time>2013-06-28T08:24:01Z</time>
      </trkpt>
      <trkpt lat="47.48724" lon="1.21924">
        <ele>61.181030273438</ele>
        <time>2013-06-28T08:24:14Z</time>
      </trkpt>
      <trkpt lat="47.48691" lon="1.21778">
        <ele>62.142333984375</ele>
        <time>2013-06-28T08:24:29Z</time>
      </trkpt>
      <trkpt lat="47.48652" lon="1.21602">
        <ele>63.103637695312</ele>
        <time>2013-06-28T08:24:47Z</time>
      </trkpt>
      <trkpt lat="47.48624" lon="1.21471">
        <ele>63.584350585938</ele>
        <time>2013-06-28T08:25:01Z</time>
      </trkpt>
      <trkpt lat="47.48588" lon="1.21308">
        <ele>65.0263671875</ele>
        <time>2013-06-28T08:25:19Z</time>
      </trkpt>
      <trkpt lat="47.48559" lon="1.21174">
        <ele>64.545654296875</ele>
        <time>2013-06-28T08:25:33Z</time>
      </trkpt>
      <trkpt lat="47.48529" lon="1.21014">
        <ele>64.545654296875</ele>
        <time>2013-06-28T08:25:49Z</time>
      </trkpt>
      <trkpt lat="47.48504" lon="1.20869">
        <ele>63.584350585938</ele>
        <time>2013-06-28T08:26:04Z</time>
      </trkpt>
      <trkpt lat="47.48479" lon="1.20724">
        <ele>62.622924804688</ele>
        <time>2013-06-28T08:26:24Z</time>
      </trkpt>
      <trkpt lat="47.48492" lon="1.20727">
        <ele>62.622924804688</ele>
        <time>2013-06-28T08:26:32Z</time>
      </trkpt>
      <trkpt lat="47.48481" lon="1.20736">
        <ele>64.545654296875</ele>
        <time>2013-06-28T08:27:11Z</time>
      </trkpt>
      <trkpt lat="47.48481" lon="1.20734">
        <ele>67.910278320312</ele>
        <time>2013-06-28T08:27:30Z</time>
      </trkpt>
      <trkpt lat="47.48491" lon="1.20746">
        <ele>69.832885742188</ele>
        <time>2013-06-28T08:27:48Z</time>
      </trkpt>
      <trkpt lat="47.48473" lon="1.2074">
        <ele>69.352294921875</ele>
        <time>2013-06-28T08:28:10Z</time>
      </trkpt>
      <trkpt lat="47.48476" lon="1.20737">
        <ele>67.4296875</ele>
        <time>2013-06-28T08:28:30Z</time>
      </trkpt>
      <trkpt lat="47.4846" lon="1.20753">
        <ele>86.17529296875</ele>
        <time>2013-06-28T08:28:57Z</time>
      </trkpt>
      <trkpt lat="47.48465" lon="1.20753">
        <ele>78.965454101562</ele>
        <time>2013-06-28T08:29:22Z</time>
      </trkpt>
      <trkpt lat="47.48485" lon="1.20744">
        <ele>70.794189453125</ele>
        <time>2013-06-28T08:29:46Z</time>
      </trkpt>
      <trkpt lat="47.48486" lon="1.20743">
        <ele>61.661743164062</ele>
        <time>2013-06-28T08:30:12Z</time>
      </trkpt>
      <trkpt lat="47.48486" lon="1.20744">
        <ele>70.794189453125</ele>
        <time>2013-06-28T08:30:35Z</time>
      </trkpt>
      <trkpt lat="47.48486" lon="1.20743">
        <ele>91.462524414062</ele>
        <time>2013-06-28T08:31:01Z</time>
      </trkpt>
      <trkpt lat="47.48486" lon="1.20743">
        <ele>85.694580078125</ele>
        <time>2013-06-28T08:31:21Z</time>
      </trkpt>
      <trkpt lat="47.48479" lon="1.20729">
        <ele>84.7333984375</ele>
        <time>2013-06-28T08:31:34Z</time>
      </trkpt>
      <trkpt lat="47.48474" lon="1.20714">
        <ele>85.694580078125</ele>
        <time>2013-06-28T08:31:43Z</time>
      </trkpt>
      <trkpt lat="47.48465" lon="1.20682">
        <ele>80.88818359375</ele>
        <time>2013-06-28T08:31:52Z</time>
      </trkpt>
      <trkpt lat="47.48454" lon="1.20606">
        <ele>76.081420898438</ele>
        <time>2013-06-28T08:32:03Z</time>
      </trkpt>
      <trkpt lat="47.48439" lon="1.20516">
        <ele>70.3134765625</ele>
        <time>2013-06-28T08:32:16Z</time>
      </trkpt>
      <trkpt lat="47.48425" lon="1.20431">
        <ele>67.4296875</ele>
        <time>2013-06-28T08:32:27Z</time>
      </trkpt>
      <trkpt lat="47.48408" lon="1.20335">
        <ele>65.0263671875</ele>
        <time>2013-06-28T08:32:37Z</time>
      </trkpt>
      <trkpt lat="47.48382" lon="1.20185">
        <ele>63.584350585938</ele>
        <time>2013-06-28T08:32:53Z</time>
      </trkpt>
      <trkpt lat="47.48352" lon="1.20017">
        <ele>63.103637695312</ele>
        <time>2013-06-28T08:33:11Z</time>
      </trkpt>
      <trkpt lat="47.48334" lon="1.19906">
        <ele>61.661743164062</ele>
        <time>2013-06-28T08:33:23Z</time>
      </trkpt>
      <trkpt lat="47.48315" lon="1.19787">
        <ele>60.700317382812</ele>
        <time>2013-06-28T08:33:36Z</time>
      </trkpt>
      <trkpt lat="47.48293" lon="1.19666">
        <ele>61.661743164062</ele>
        <time>2013-06-28T08:33:49Z</time>
      </trkpt>
      <trkpt lat="47.48275" lon="1.19553">
        <ele>62.142333984375</ele>
        <time>2013-06-28T08:34:01Z</time>
      </trkpt>
      <trkpt lat="47.48252" lon="1.19454">
        <ele>62.622924804688</ele>
        <time>2013-06-28T08:34:12Z</time>
      </trkpt>
      <trkpt lat="47.48227" lon="1.19374">
        <ele>62.622924804688</ele>
        <time>2013-06-28T08:34:22Z</time>
      </trkpt>
      <trkpt lat="47.48224" lon="1.19351">
        <ele>63.103637695312</ele>
        <time>2013-06-28T08:34:25Z</time>
      </trkpt>
      <trkpt lat="47.4822" lon="1.1926">
        <ele>62.622924804688</ele>
        <time>2013-06-28T08:34:36Z</time>
      </trkpt>
      <trkpt lat="47.48203" lon="1.19167">
        <ele>63.103637695312</ele>
        <time>2013-06-28T08:34:46Z</time>
      </trkpt>
      <trkpt lat="47.48188" lon="1.19071">
        <ele>63.103637695312</ele>
        <time>2013-06-28T08:34:57Z</time>
      </trkpt>
      <trkpt lat="47.48176" lon="1.19011">
        <ele>63.584350585938</ele>
        <time>2013-06-28T08:35:06Z</time>
      </trkpt>
      <trkpt lat="47.48168" lon="1.18981">
        <ele>63.103637695312</ele>
        <time>2013-06-28T08:35:14Z</time>
      </trkpt>
      <trkpt lat="47.48168" lon="1.18978">
        <ele>63.584350585938</ele>
        <time>2013-06-28T08:35:20Z</time>
      </trkpt>
      <trkpt lat="47.48164" lon="1.18961">
        <ele>63.584350585938</ele>
        <time>2013-06-28T08:35:26Z</time>
      </trkpt>
      <trkpt lat="47.48155" lon="1.18918">
        <ele>63.584350585938</ele>
        <time>2013-06-28T08:35:35Z</time>
      </trkpt>
      <trkpt lat="47.48142" lon="1.18858">
        <ele>62.142333984375</ele>
        <time>2013-06-28T08:35:44Z</time>
      </trkpt>
      <trkpt lat="47.48122" lon="1.1877">
        <ele>60.700317382812</ele>
        <time>2013-06-28T08:35:55Z</time>
      </trkpt>
      <trkpt lat="47.48094" lon="1.18646">
        <ele>61.661743164062</ele>
        <time>2013-06-28T08:36:10Z</time>
      </trkpt>
      <trkpt lat="47.48066" lon="1.18542">
        <ele>60.700317382812</ele>
        <time>2013-06-28T08:36:23Z</time>
      </trkpt>
      <trkpt lat="47.48044" lon="1.18451">
        <ele>61.661743164062</ele>
        <time>2013-06-28T08:36:35Z</time>
      </trkpt>
      <trkpt lat="47.48032" lon="1.18384">
        <ele>61.661743164062</ele>
        <time>2013-06-28T08:36:43Z</time>
      </trkpt>
      <trkpt lat="47.48018" lon="1.18284">
        <ele>60.700317382812</ele>
        <time>2013-06-28T08:36:54Z</time>
      </trkpt>
      <trkpt lat="47.48002" lon="1.1821">
        <ele>61.181030273438</ele>
        <time>2013-06-28T08:37:03Z</time>
      </trkpt>
      <trkpt lat="47.47985" lon="1.18143">
        <ele>62.622924804688</ele>
        <time>2013-06-28T08:37:13Z</time>
      </trkpt>
      <trkpt lat="47.4798" lon="1.1812">
        <ele>62.622924804688</ele>
        <time>2013-06-28T08:37:20Z</time>
      </trkpt>
      <trkpt lat="47.4798" lon="1.1812">
        <ele>63.103637695312</ele>
        <time>2013-06-28T08:37:45Z</time>
      </trkpt>
      <trkpt lat="47.4798" lon="1.1812">
        <ele>63.103637695312</ele>
        <time>2013-06-28T08:38:10Z</time>
      </trkpt>
      <trkpt lat="47.47977" lon="1.18109">
        <ele>63.584350585938</ele>
        <time>2013-06-28T08:38:20Z</time>
      </trkpt>
      <trkpt lat="47.47969" lon="1.18074">
        <ele>63.584350585938</ele>
        <time>2013-06-28T08:38:27Z</time>
      </trkpt>
      <trkpt lat="47.47955" lon="1.18014">
        <ele>63.103637695312</ele>
        <time>2013-06-28T08:38:36Z</time>
      </trkpt>
      <trkpt lat="47.47934" lon="1.1794">
        <ele>63.103637695312</ele>
        <time>2013-06-28T08:38:46Z</time>
      </trkpt>
      <trkpt lat="47.47903" lon="1.17832">
        <ele>63.103637695312</ele>
        <time>2013-06-28T08:39:00Z</time>
      </trkpt>
      <trkpt lat="47.47871" lon="1.17719">
        <ele>64.065063476562</ele>
        <time>2013-06-28T08:39:14Z</time>
      </trkpt>
      <trkpt lat="47.47843" lon="1.17621">
        <ele>63.103637695312</ele>
        <time>2013-06-28T08:39:26Z</time>
      </trkpt>
      <trkpt lat="47.47824" lon="1.17542">
        <ele>63.103637695312</ele>
        <time>2013-06-28T08:39:36Z</time>
      </trkpt>
      <trkpt lat="47.47808" lon="1.17472">
        <ele>63.103637695312</ele>
        <time>2013-06-28T08:39:44Z</time>
      </trkpt>
      <trkpt lat="47.47788" lon="1.17382">
        <ele>63.103637695312</ele>
        <time>2013-06-28T08:39:54Z</time>
      </trkpt>
      <trkpt lat="47.47757" lon="1.17251">
        <ele>62.142333984375</ele>
        <time>2013-06-28T08:40:09Z</time>
      </trkpt>
      <trkpt lat="47.47728" lon="1.17137">
        <ele>62.142333984375</ele>
        <time>2013-06-28T08:40:22Z</time>
      </trkpt>
      <trkpt lat="47.477" lon="1.17032">
        <ele>62.142333984375</ele>
        <time>2013-06-28T08:40:34Z</time>
      </trkpt>
      <trkpt lat="47.4767" lon="1.16917">
        <ele>62.142333984375</ele>
        <time>2013-06-28T08:40:47Z</time>
      </trkpt>
      <trkpt lat="47.47634" lon="1.16774">
        <ele>61.661743164062</ele>
        <time>2013-06-28T08:41:03Z</time>
      </trkpt>
      <trkpt lat="47.47603" lon="1.16656">
        <ele>60.700317382812</ele>
        <time>2013-06-28T08:41:16Z</time>
      </trkpt>
      <trkpt lat="47.47563" lon="1.165">
        <ele>62.622924804688</ele>
        <time>2013-06-28T08:41:33Z</time>
      </trkpt>
      <trkpt lat="47.47533" lon="1.16383">
        <ele>62.142333984375</ele>
        <time>2013-06-28T08:41:46Z</time>
      </trkpt>
      <trkpt lat="47.47499" lon="1.16271">
        <ele>61.181030273438</ele>
        <time>2013-06-28T08:41:59Z</time>
      </trkpt>
      <trkpt lat="47.4745" lon="1.1612">
        <ele>60.2197265625</ele>
        <time>2013-06-28T08:42:17Z</time>
      </trkpt>
      <trkpt lat="47.47402" lon="1.15971">
        <ele>59.739135742188</ele>
        <time>2013-06-28T08:42:34Z</time>
      </trkpt>
      <trkpt lat="47.47349" lon="1.1581">
        <ele>58.777709960938</ele>
        <time>2013-06-28T08:42:52Z</time>
      </trkpt>
      <trkpt lat="47.47306" lon="1.15667">
        <ele>59.739135742188</ele>
        <time>2013-06-28T08:43:08Z</time>
      </trkpt>
      <trkpt lat="47.47267" lon="1.15539">
        <ele>61.181030273438</ele>
        <time>2013-06-28T08:43:23Z</time>
      </trkpt>
      <trkpt lat="47.47166" lon="1.15307">
        <ele>64.065063476562</ele>
        <time>2013-06-28T08:43:54Z</time>
      </trkpt>
      <trkpt lat="47.47148" lon="1.15246">
        <ele>64.545654296875</ele>
        <time>2013-06-28T08:44:02Z</time>
      </trkpt>
      <trkpt lat="47.47138" lon="1.15173">
        <ele>63.584350585938</ele>
        <time>2013-06-28T08:44:11Z</time>
      </trkpt>
      <trkpt lat="47.47121" lon="1.151">
        <ele>63.584350585938</ele>
        <time>2013-06-28T08:44:19Z</time>
      </trkpt>
      <trkpt lat="47.47082" lon="1.14973">
        <ele>64.545654296875</ele>
        <time>2013-06-28T08:44:33Z</time>
      </trkpt>
      <trkpt lat="47.47042" lon="1.14813">
        <ele>65.0263671875</ele>
        <time>2013-06-28T08:44:50Z</time>
      </trkpt>
      <trkpt lat="47.47003" lon="1.1466">
        <ele>64.545654296875</ele>
        <time>2013-06-28T08:45:06Z</time>
      </trkpt>
      <trkpt lat="47.46968" lon="1.14525">
        <ele>64.545654296875</ele>
        <time>2013-06-28T08:45:20Z</time>
      </trkpt>
      <trkpt lat="47.46931" lon="1.14388">
        <ele>64.545654296875</ele>
        <time>2013-06-28T08:45:34Z</time>
      </trkpt>
      <trkpt lat="47.46892" lon="1.14238">
        <ele>64.545654296875</ele>
        <time>2013-06-28T08:45:50Z</time>
      </trkpt>
      <trkpt lat="47.46864" lon="1.14112">
        <ele>63.584350585938</ele>
        <time>2013-06-28T08:46:04Z</time>
      </trkpt>
      <trkpt lat="47.46835" lon="1.13972">
        <ele>63.103637695312</ele>
        <time>2013-06-28T08:46:19Z</time>
      </trkpt>
      <trkpt lat="47.46804" lon="1.13824">
        <ele>62.142333984375</ele>
        <time>2013-06-28T08:46:35Z</time>
      </trkpt>
      <trkpt lat="47.46776" lon="1.13694">
        <ele>62.142333984375</ele>
        <time>2013-06-28T08:46:49Z</time>
      </trkpt>
      <trkpt lat="47.46751" lon="1.1359">
        <ele>64.065063476562</ele>
        <time>2013-06-28T08:47:01Z</time>
      </trkpt>
      <trkpt lat="47.46726" lon="1.13537">
        <ele>63.103637695312</ele>
        <time>2013-06-28T08:47:08Z</time>
      </trkpt>
      <trkpt lat="47.46701" lon="1.13506">
        <ele>63.103637695312</ele>
        <time>2013-06-28T08:47:13Z</time>
      </trkpt>
      <trkpt lat="47.46693" lon="1.1349">
        <ele>63.584350585938</ele>
        <time>2013-06-28T08:47:15Z</time>
      </trkpt>
      <trkpt lat="47.46661" lon="1.13392">
        <ele>65.0263671875</ele>
        <time>2013-06-28T08:47:27Z</time>
      </trkpt>
      <trkpt lat="47.46638" lon="1.13324">
        <ele>65.987670898438</ele>
        <time>2013-06-28T08:47:36Z</time>
      </trkpt>
      <trkpt lat="47.46613" lon="1.13254">
        <ele>67.4296875</ele>
        <time>2013-06-28T08:47:45Z</time>
      </trkpt>
      <trkpt lat="47.46572" lon="1.13142">
        <ele>67.910278320312</ele>
        <time>2013-06-28T08:47:59Z</time>
      </trkpt>
      <trkpt lat="47.46532" lon="1.13032">
        <ele>66.948974609375</ele>
        <time>2013-06-28T08:48:13Z</time>
      </trkpt>
      <trkpt lat="47.46486" lon="1.12906">
        <ele>65.987670898438</ele>
        <time>2013-06-28T08:48:28Z</time>
      </trkpt>
      <trkpt lat="47.46452" lon="1.12812">
        <ele>65.507080078125</ele>
        <time>2013-06-28T08:48:39Z</time>
      </trkpt>
      <trkpt lat="47.4641" lon="1.12695">
        <ele>65.987670898438</ele>
        <time>2013-06-28T08:48:53Z</time>
      </trkpt>
      <trkpt lat="47.46372" lon="1.12588">
        <ele>66.46826171875</ele>
        <time>2013-06-28T08:49:06Z</time>
      </trkpt>
      <trkpt lat="47.46331" lon="1.12477">
        <ele>66.46826171875</ele>
        <time>2013-06-28T08:49:20Z</time>
      </trkpt>
      <trkpt lat="47.46278" lon="1.12331">
        <ele>67.4296875</ele>
        <time>2013-06-28T08:49:38Z</time>
      </trkpt>
      <trkpt lat="47.46241" lon="1.12222">
        <ele>68.390869140625</ele>
        <time>2013-06-28T08:49:51Z</time>
      </trkpt>
      <trkpt lat="47.462" lon="1.12101">
        <ele>68.390869140625</ele>
        <time>2013-06-28T08:50:05Z</time>
      </trkpt>
      <trkpt lat="47.46168" lon="1.11993">
        <ele>67.910278320312</ele>
        <time>2013-06-28T08:50:17Z</time>
      </trkpt>
      <trkpt lat="47.46121" lon="1.11849">
        <ele>67.4296875</ele>
        <time>2013-06-28T08:50:33Z</time>
      </trkpt>
      <trkpt lat="47.46083" lon="1.11728">
        <ele>66.46826171875</ele>
        <time>2013-06-28T08:50:46Z</time>
      </trkpt>
      <trkpt lat="47.46054" lon="1.11636">
        <ele>66.46826171875</ele>
        <time>2013-06-28T08:50:56Z</time>
      </trkpt>
      <trkpt lat="47.46006" lon="1.11487">
        <ele>65.987670898438</ele>
        <time>2013-06-28T08:51:12Z</time>
      </trkpt>
      <trkpt lat="47.45957" lon="1.11331">
        <ele>65.507080078125</ele>
        <time>2013-06-28T08:51:29Z</time>
      </trkpt>
      <trkpt lat="47.45915" lon="1.11201">
        <ele>64.065063476562</ele>
        <time>2013-06-28T08:51:43Z</time>
      </trkpt>
      <trkpt lat="47.45878" lon="1.11083">
        <ele>63.103637695312</ele>
        <time>2013-06-28T08:51:56Z</time>
      </trkpt>
      <trkpt lat="47.45843" lon="1.10974">
        <ele>63.103637695312</ele>
        <time>2013-06-28T08:52:08Z</time>
      </trkpt>
      <trkpt lat="47.45805" lon="1.10854">
        <ele>63.103637695312</ele>
        <time>2013-06-28T08:52:21Z</time>
      </trkpt>
      <trkpt lat="47.45761" lon="1.10714">
        <ele>63.103637695312</ele>
        <time>2013-06-28T08:52:36Z</time>
      </trkpt>
      <trkpt lat="47.45749" lon="1.10664">
        <ele>62.622924804688</ele>
        <time>2013-06-28T08:52:41Z</time>
      </trkpt>
      <trkpt lat="47.45722" lon="1.10577">
        <ele>62.622924804688</ele>
        <time>2013-06-28T08:52:50Z</time>
      </trkpt>
      <trkpt lat="47.457" lon="1.10515">
        <ele>64.065063476562</ele>
        <time>2013-06-28T08:52:57Z</time>
      </trkpt>
      <trkpt lat="47.45646" lon="1.10397">
        <ele>63.584350585938</ele>
        <time>2013-06-28T08:53:11Z</time>
      </trkpt>
      <trkpt lat="47.45604" lon="1.10276">
        <ele>63.584350585938</ele>
        <time>2013-06-28T08:53:25Z</time>
      </trkpt>
      <trkpt lat="47.45585" lon="1.10198">
        <ele>64.065063476562</ele>
        <time>2013-06-28T08:53:34Z</time>
      </trkpt>
      <trkpt lat="47.45573" lon="1.10145">
        <ele>64.065063476562</ele>
        <time>2013-06-28T08:53:42Z</time>
      </trkpt>
      <trkpt lat="47.4557" lon="1.10135">
        <ele>65.507080078125</ele>
        <time>2013-06-28T08:53:47Z</time>
      </trkpt>
      <trkpt lat="47.45562" lon="1.10114">
        <ele>66.46826171875</ele>
        <time>2013-06-28T08:53:56Z</time>
      </trkpt>
      <trkpt lat="47.45555" lon="1.1008">
        <ele>66.46826171875</ele>
        <time>2013-06-28T08:54:03Z</time>
      </trkpt>
      <trkpt lat="47.4554" lon="1.10037">
        <ele>66.46826171875</ele>
        <time>2013-06-28T08:54:11Z</time>
      </trkpt>
      <trkpt lat="47.4553" lon="1.1">
        <ele>66.948974609375</ele>
        <time>2013-06-28T08:54:18Z</time>
      </trkpt>
      <trkpt lat="47.45527" lon="1.09975">
        <ele>66.948974609375</ele>
        <time>2013-06-28T08:54:22Z</time>
      </trkpt>
      <trkpt lat="47.45529" lon="1.09948">
        <ele>66.46826171875</ele>
        <time>2013-06-28T08:54:26Z</time>
      </trkpt>
      <trkpt lat="47.45523" lon="1.09911">
        <ele>66.948974609375</ele>
        <time>2013-06-28T08:54:31Z</time>
      </trkpt>
      <trkpt lat="47.45494" lon="1.09811">
        <ele>65.507080078125</ele>
        <time>2013-06-28T08:54:42Z</time>
      </trkpt>
      <trkpt lat="47.45442" lon="1.09606">
        <ele>64.545654296875</ele>
        <time>2013-06-28T08:55:03Z</time>
      </trkpt>
      <trkpt lat="47.45419" lon="1.09518">
        <ele>64.065063476562</ele>
        <time>2013-06-28T08:55:12Z</time>
      </trkpt>
      <trkpt lat="47.45386" lon="1.094">
        <ele>64.065063476562</ele>
        <time>2013-06-28T08:55:24Z</time>
      </trkpt>
      <trkpt lat="47.4536" lon="1.09279">
        <ele>65.0263671875</ele>
        <time>2013-06-28T08:55:36Z</time>
      </trkpt>
      <trkpt lat="47.45325" lon="1.09128">
        <ele>64.065063476562</ele>
        <time>2013-06-28T08:55:51Z</time>
      </trkpt>
      <trkpt lat="47.45295" lon="1.08992">
        <ele>63.584350585938</ele>
        <time>2013-06-28T08:56:05Z</time>
      </trkpt>
      <trkpt lat="47.45262" lon="1.08845">
        <ele>63.103637695312</ele>
        <time>2013-06-28T08:56:20Z</time>
      </trkpt>
      <trkpt lat="47.45177" lon="1.08472">
        <ele>64.545654296875</ele>
        <time>2013-06-28T08:56:57Z</time>
      </trkpt>
      <trkpt lat="47.45146" lon="1.08331">
        <ele>63.584350585938</ele>
        <time>2013-06-28T08:57:11Z</time>
      </trkpt>
      <trkpt lat="47.45105" lon="1.08149">
        <ele>63.103637695312</ele>
        <time>2013-06-28T08:57:29Z</time>
      </trkpt>
      <trkpt lat="47.45083" lon="1.08042">
        <ele>64.545654296875</ele>
        <time>2013-06-28T08:57:40Z</time>
      </trkpt>
      <trkpt lat="47.45062" lon="1.0795">
        <ele>64.545654296875</ele>
        <time>2013-06-28T08:57:50Z</time>
      </trkpt>
      <trkpt lat="47.45032" lon="1.07818">
        <ele>64.545654296875</ele>
        <time>2013-06-28T08:58:03Z</time>
      </trkpt>
      <trkpt lat="47.45018" lon="1.07756">
        <ele>62.622924804688</ele>
        <time>2013-06-28T08:58:09Z</time>
      </trkpt>
      <trkpt lat="47.44998" lon="1.07679">
        <ele>62.142333984375</ele>
        <time>2013-06-28T08:58:17Z</time>
      </trkpt>
      <trkpt lat="47.44958" lon="1.07527">
        <ele>62.622924804688</ele>
        <time>2013-06-28T08:58:32Z</time>
      </trkpt>
      <trkpt lat="47.44921" lon="1.07381">
        <ele>61.181030273438</ele>
        <time>2013-06-28T08:58:47Z</time>
      </trkpt>
      <trkpt lat="47.44886" lon="1.07247">
        <ele>61.181030273438</ele>
        <time>2013-06-28T08:59:01Z</time>
      </trkpt>
      <trkpt lat="47.44851" lon="1.07113">
        <ele>61.661743164062</ele>
        <time>2013-06-28T08:59:16Z</time>
      </trkpt>
      <trkpt lat="47.44769" lon="1.06822">
        <ele>62.622924804688</ele>
        <time>2013-06-28T08:59:48Z</time>
      </trkpt>
      <trkpt lat="47.44733" lon="1.06699">
        <ele>61.181030273438</ele>
        <time>2013-06-28T09:00:02Z</time>
      </trkpt>
      <trkpt lat="47.44705" lon="1.06604">
        <ele>60.2197265625</ele>
        <time>2013-06-28T09:00:12Z</time>
      </trkpt>
      <trkpt lat="47.44679" lon="1.06529">
        <ele>62.622924804688</ele>
        <time>2013-06-28T09:00:20Z</time>
      </trkpt>
      <trkpt lat="47.44635" lon="1.06402">
        <ele>65.0263671875</ele>
        <time>2013-06-28T09:00:34Z</time>
      </trkpt>
      <trkpt lat="47.44607" lon="1.06315">
        <ele>66.46826171875</ele>
        <time>2013-06-28T09:00:44Z</time>
      </trkpt>
      <trkpt lat="47.44567" lon="1.06187">
        <ele>65.987670898438</ele>
        <time>2013-06-28T09:00:59Z</time>
      </trkpt>
      <trkpt lat="47.44529" lon="1.06068">
        <ele>65.0263671875</ele>
        <time>2013-06-28T09:01:12Z</time>
      </trkpt>
      <trkpt lat="47.44479" lon="1.05908">
        <ele>66.46826171875</ele>
        <time>2013-06-28T09:01:29Z</time>
      </trkpt>
      <trkpt lat="47.44437" lon="1.05773">
        <ele>66.46826171875</ele>
        <time>2013-06-28T09:01:44Z</time>
      </trkpt>
      <trkpt lat="47.44409" lon="1.05691">
        <ele>67.4296875</ele>
        <time>2013-06-28T09:01:53Z</time>
      </trkpt>
      <trkpt lat="47.44382" lon="1.05595">
        <ele>67.4296875</ele>
        <time>2013-06-28T09:02:03Z</time>
      </trkpt>
      <trkpt lat="47.4434" lon="1.05473">
        <ele>65.987670898438</ele>
        <time>2013-06-28T09:02:15Z</time>
      </trkpt>
      <trkpt lat="47.44293" lon="1.05342">
        <ele>65.507080078125</ele>
        <time>2013-06-28T09:02:28Z</time>
      </trkpt>
      <trkpt lat="47.44253" lon="1.05213">
        <ele>63.584350585938</ele>
        <time>2013-06-28T09:02:40Z</time>
      </trkpt>
      <trkpt lat="47.44216" lon="1.05099">
        <ele>63.103637695312</ele>
        <time>2013-06-28T09:02:51Z</time>
      </trkpt>
      <trkpt lat="47.44168" lon="1.04962">
        <ele>64.545654296875</ele>
        <time>2013-06-28T09:03:04Z</time>
      </trkpt>
      <trkpt lat="47.44125" lon="1.04854">
        <ele>64.545654296875</ele>
        <time>2013-06-28T09:03:15Z</time>
      </trkpt>
      <trkpt lat="47.44075" lon="1.04735">
        <ele>63.584350585938</ele>
        <time>2013-06-28T09:03:28Z</time>
      </trkpt>
      <trkpt lat="47.4403" lon="1.04626">
        <ele>63.584350585938</ele>
        <time>2013-06-28T09:03:40Z</time>
      </trkpt>
      <trkpt lat="47.43974" lon="1.04494">
        <ele>62.142333984375</ele>
        <time>2013-06-28T09:03:55Z</time>
      </trkpt>
      <trkpt lat="47.43933" lon="1.04385">
        <ele>62.142333984375</ele>
        <time>2013-06-28T09:04:07Z</time>
      </trkpt>
      <trkpt lat="47.43904" lon="1.04267">
        <ele>62.622924804688</ele>
        <time>2013-06-28T09:04:19Z</time>
      </trkpt>
      <trkpt lat="47.4387" lon="1.04128">
        <ele>62.142333984375</ele>
        <time>2013-06-28T09:04:33Z</time>
      </trkpt>
      <trkpt lat="47.43838" lon="1.03994">
        <ele>62.142333984375</ele>
        <time>2013-06-28T09:04:47Z</time>
      </trkpt>
      <trkpt lat="47.43808" lon="1.03867">
        <ele>62.142333984375</ele>
        <time>2013-06-28T09:05:00Z</time>
      </trkpt>
      <trkpt lat="47.43772" lon="1.03725">
        <ele>61.661743164062</ele>
        <time>2013-06-28T09:05:15Z</time>
      </trkpt>
      <trkpt lat="47.43743" lon="1.0363">
        <ele>61.661743164062</ele>
        <time>2013-06-28T09:05:25Z</time>
      </trkpt>
      <trkpt lat="47.43714" lon="1.03548">
        <ele>62.142333984375</ele>
        <time>2013-06-28T09:05:34Z</time>
      </trkpt>
      <trkpt lat="47.43667" lon="1.03435">
        <ele>62.142333984375</ele>
        <time>2013-06-28T09:05:47Z</time>
      </trkpt>
      <trkpt lat="47.43618" lon="1.03342">
        <ele>62.142333984375</ele>
        <time>2013-06-28T09:05:59Z</time>
      </trkpt>
      <trkpt lat="47.43565" lon="1.03258">
        <ele>62.622924804688</ele>
        <time>2013-06-28T09:06:10Z</time>
      </trkpt>
      <trkpt lat="47.43505" lon="1.03168">
        <ele>62.622924804688</ele>
        <time>2013-06-28T09:06:22Z</time>
      </trkpt>
      <trkpt lat="47.43444" lon="1.03076">
        <ele>62.622924804688</ele>
        <time>2013-06-28T09:06:34Z</time>
      </trkpt>
      <trkpt lat="47.43378" lon="1.02978">
        <ele>62.142333984375</ele>
        <time>2013-06-28T09:06:47Z</time>
      </trkpt>
      <trkpt lat="47.43318" lon="1.02889">
        <ele>62.142333984375</ele>
        <time>2013-06-28T09:06:59Z</time>
      </trkpt>
      <trkpt lat="47.43253" lon="1.0279">
        <ele>61.181030273438</ele>
        <time>2013-06-28T09:07:12Z</time>
      </trkpt>
      <trkpt lat="47.43222" lon="1.02719">
        <ele>61.181030273438</ele>
        <time>2013-06-28T09:07:20Z</time>
      </trkpt>
      <trkpt lat="47.4318" lon="1.026">
        <ele>61.661743164062</ele>
        <time>2013-06-28T09:07:33Z</time>
      </trkpt>
      <trkpt lat="47.43139" lon="1.02484">
        <ele>61.181030273438</ele>
        <time>2013-06-28T09:07:46Z</time>
      </trkpt>
      <trkpt lat="47.43093" lon="1.02353">
        <ele>62.142333984375</ele>
        <time>2013-06-28T09:08:01Z</time>
      </trkpt>
      <trkpt lat="47.43054" lon="1.02245">
        <ele>61.661743164062</ele>
        <time>2013-06-28T09:08:13Z</time>
      </trkpt>
      <trkpt lat="47.43018" lon="1.02131">
        <ele>62.142333984375</ele>
        <time>2013-06-28T09:08:25Z</time>
      </trkpt>
      <trkpt lat="47.42979" lon="1.02008">
        <ele>62.142333984375</ele>
        <time>2013-06-28T09:08:38Z</time>
      </trkpt>
      <trkpt lat="47.42925" lon="1.01845">
        <ele>62.142333984375</ele>
        <time>2013-06-28T09:08:55Z</time>
      </trkpt>
      <trkpt lat="47.42892" lon="1.01776">
        <ele>62.142333984375</ele>
        <time>2013-06-28T09:09:03Z</time>
      </trkpt>
      <trkpt lat="47.4281" lon="1.01645">
        <ele>60.700317382812</ele>
        <time>2013-06-28T09:09:20Z</time>
      </trkpt>
      <trkpt lat="47.42765" lon="1.01557">
        <ele>59.739135742188</ele>
        <time>2013-06-28T09:09:31Z</time>
      </trkpt>
      <trkpt lat="47.4273" lon="1.01481">
        <ele>59.258422851562</ele>
        <time>2013-06-28T09:09:40Z</time>
      </trkpt>
      <trkpt lat="47.42685" lon="1.01391">
        <ele>59.258422851562</ele>
        <time>2013-06-28T09:09:51Z</time>
      </trkpt>
      <trkpt lat="47.42622" lon="1.01286">
        <ele>60.2197265625</ele>
        <time>2013-06-28T09:10:05Z</time>
      </trkpt>
      <trkpt lat="47.42573" lon="1.01188">
        <ele>60.2197265625</ele>
        <time>2013-06-28T09:10:17Z</time>
      </trkpt>
      <trkpt lat="47.42517" lon="1.01072">
        <ele>60.2197265625</ele>
        <time>2013-06-28T09:10:31Z</time>
      </trkpt>
      <trkpt lat="47.42443" lon="1.00933">
        <ele>60.700317382812</ele>
        <time>2013-06-28T09:10:48Z</time>
      </trkpt>
      <trkpt lat="47.42375" lon="1.00809">
        <ele>60.700317382812</ele>
        <time>2013-06-28T09:11:03Z</time>
      </trkpt>
      <trkpt lat="47.42306" lon="1.00684">
        <ele>60.700317382812</ele>
        <time>2013-06-28T09:11:18Z</time>
      </trkpt>
      <trkpt lat="47.42262" lon="1.00605">
        <ele>60.2197265625</ele>
        <time>2013-06-28T09:11:28Z</time>
      </trkpt>
      <trkpt lat="47.42213" lon="1.00515">
        <ele>60.2197265625</ele>
        <time>2013-06-28T09:11:40Z</time>
      </trkpt>
      <trkpt lat="47.42152" lon="1.00411">
        <ele>59.739135742188</ele>
        <time>2013-06-28T09:11:54Z</time>
      </trkpt>
      <trkpt lat="47.42109" lon="1.00346">
        <ele>60.700317382812</ele>
        <time>2013-06-28T09:12:03Z</time>
      </trkpt>
      <trkpt lat="47.42062" lon="1.00283">
        <ele>59.258422851562</ele>
        <time>2013-06-28T09:12:12Z</time>
      </trkpt>
      <trkpt lat="47.42025" lon="1.00201">
        <ele>59.739135742188</ele>
        <time>2013-06-28T09:12:22Z</time>
      </trkpt>
      <trkpt lat="47.41977" lon="1.00095">
        <ele>60.2197265625</ele>
        <time>2013-06-28T09:12:35Z</time>
      </trkpt>
      <trkpt lat="47.41935" lon="1.00004">
        <ele>61.661743164062</ele>
        <time>2013-06-28T09:12:47Z</time>
      </trkpt>
      <trkpt lat="47.41897" lon="0.99918">
        <ele>61.661743164062</ele>
        <time>2013-06-28T09:12:58Z</time>
      </trkpt>
      <trkpt lat="47.41859" lon="0.99823">
        <ele>61.181030273438</ele>
        <time>2013-06-28T09:13:09Z</time>
      </trkpt>
      <trkpt lat="47.41817" lon="0.99709">
        <ele>61.181030273438</ele>
        <time>2013-06-28T09:13:22Z</time>
      </trkpt>
      <trkpt lat="47.41783" lon="0.99607">
        <ele>60.700317382812</ele>
        <time>2013-06-28T09:13:33Z</time>
      </trkpt>
      <trkpt lat="47.41723" lon="0.99441">
        <ele>59.258422851562</ele>
        <time>2013-06-28T09:13:51Z</time>
      </trkpt>
      <trkpt lat="47.41681" lon="0.99327">
        <ele>59.258422851562</ele>
        <time>2013-06-28T09:14:04Z</time>
      </trkpt>
      <trkpt lat="47.41659" lon="0.99268">
        <ele>59.258422851562</ele>
        <time>2013-06-28T09:14:13Z</time>
      </trkpt>
      <trkpt lat="47.41638" lon="0.9921">
        <ele>59.739135742188</ele>
        <time>2013-06-28T09:14:21Z</time>
      </trkpt>
      <trkpt lat="47.41606" lon="0.99118">
        <ele>58.297119140625</ele>
        <time>2013-06-28T09:14:33Z</time>
      </trkpt>
      <trkpt lat="47.41576" lon="0.99025">
        <ele>57.335815429688</ele>
        <time>2013-06-28T09:14:44Z</time>
      </trkpt>
      <trkpt lat="47.41552" lon="0.98946">
        <ele>57.335815429688</ele>
        <time>2013-06-28T09:14:54Z</time>
      </trkpt>
      <trkpt lat="47.4152" lon="0.98831">
        <ele>58.297119140625</ele>
        <time>2013-06-28T09:15:08Z</time>
      </trkpt>
      <trkpt lat="47.41495" lon="0.98747">
        <ele>57.816528320312</ele>
        <time>2013-06-28T09:15:18Z</time>
      </trkpt>
      <trkpt lat="47.41468" lon="0.98683">
        <ele>57.816528320312</ele>
        <time>2013-06-28T09:15:27Z</time>
      </trkpt>
      <trkpt lat="47.41439" lon="0.98618">
        <ele>57.335815429688</ele>
        <time>2013-06-28T09:15:37Z</time>
      </trkpt>
      <trkpt lat="47.41412" lon="0.9856">
        <ele>58.297119140625</ele>
        <time>2013-06-28T09:15:48Z</time>
      </trkpt>
      <trkpt lat="47.41414" lon="0.98539">
        <ele>57.816528320312</ele>
        <time>2013-06-28T09:15:53Z</time>
      </trkpt>
      <trkpt lat="47.41412" lon="0.98536">
        <ele>57.816528320312</ele>
        <time>2013-06-28T09:15:54Z</time>
      </trkpt>
      <trkpt lat="47.41408" lon="0.98523">
        <ele>59.258422851562</ele>
        <time>2013-06-28T09:16:02Z</time>
      </trkpt>
      <trkpt lat="47.41408" lon="0.98523">
        <ele>58.777709960938</ele>
        <time>2013-06-28T09:16:21Z</time>
      </trkpt>
      <trkpt lat="47.41408" lon="0.98523">
        <ele>61.181030273438</ele>
        <time>2013-06-28T09:16:39Z</time>
      </trkpt>
      <trkpt lat="47.41405" lon="0.98518">
        <ele>61.181030273438</ele>
        <time>2013-06-28T09:16:43Z</time>
      </trkpt>
      <trkpt lat="47.41396" lon="0.98494">
        <ele>61.181030273438</ele>
        <time>2013-06-28T09:16:51Z</time>
      </trkpt>
      <trkpt lat="47.41387" lon="0.9847">
        <ele>61.181030273438</ele>
        <time>2013-06-28T09:16:59Z</time>
      </trkpt>
      <trkpt lat="47.41388" lon="0.98466">
        <ele>61.661743164062</ele>
        <time>2013-06-28T09:17:04Z</time>
      </trkpt>
      <trkpt lat="47.41388" lon="0.98459">
        <ele>61.661743164062</ele>
        <time>2013-06-28T09:17:08Z</time>
      </trkpt>
      <trkpt lat="47.41398" lon="0.98441">
        <ele>62.142333984375</ele>
        <time>2013-06-28T09:17:16Z</time>
      </trkpt>
      <trkpt lat="47.4141" lon="0.9843">
        <ele>62.142333984375</ele>
        <time>2013-06-28T09:17:24Z</time>
      </trkpt>
      <trkpt lat="47.41411" lon="0.98429">
        <ele>62.622924804688</ele>
        <time>2013-06-28T09:17:33Z</time>
      </trkpt>
      <trkpt lat="47.41411" lon="0.98429">
        <ele>62.622924804688</ele>
        <time>2013-06-28T09:17:45Z</time>
      </trkpt>
      <trkpt lat="47.41411" lon="0.98429">
        <ele>62.622924804688</ele>
        <time>2013-06-28T09:18:04Z</time>
      </trkpt>
      <trkpt lat="47.41411" lon="0.98429">
        <ele>62.622924804688</ele>
        <time>2013-06-28T09:18:23Z</time>
      </trkpt>
      <trkpt lat="47.41411" lon="0.98428">
        <ele>62.622924804688</ele>
        <time>2013-06-28T09:18:36Z</time>
      </trkpt>
      <trkpt lat="47.4141" lon="0.98428">
        <ele>62.142333984375</ele>
        <time>2013-06-28T09:18:53Z</time>
      </trkpt>
      <trkpt lat="47.41394" lon="0.9844">
        <ele>60.700317382812</ele>
        <time>2013-06-28T09:19:04Z</time>
      </trkpt>
      <trkpt lat="47.41391" lon="0.98442">
        <ele>60.2197265625</ele>
        <time>2013-06-28T09:19:06Z</time>
      </trkpt>
      <trkpt lat="47.41372" lon="0.98432">
        <ele>59.258422851562</ele>
        <time>2013-06-28T09:19:12Z</time>
      </trkpt>
      <trkpt lat="47.41361" lon="0.98414">
        <ele>58.777709960938</ele>
        <time>2013-06-28T09:19:16Z</time>
      </trkpt>
      <trkpt lat="47.41329" lon="0.98343">
        <ele>56.37451171875</ele>
        <time>2013-06-28T09:19:27Z</time>
      </trkpt>
      <trkpt lat="47.41296" lon="0.98267">
        <ele>55.4130859375</ele>
        <time>2013-06-28T09:19:38Z</time>
      </trkpt>
      <trkpt lat="47.41261" lon="0.98176">
        <ele>55.893798828125</ele>
        <time>2013-06-28T09:19:51Z</time>
      </trkpt>
      <trkpt lat="47.41259" lon="0.98166">
        <ele>55.893798828125</ele>
        <time>2013-06-28T09:19:54Z</time>
      </trkpt>
      <trkpt lat="47.41243" lon="0.98112">
        <ele>55.4130859375</ele>
        <time>2013-06-28T09:20:02Z</time>
      </trkpt>
      <trkpt lat="47.4122" lon="0.9803">
        <ele>55.893798828125</ele>
        <time>2013-06-28T09:20:13Z</time>
      </trkpt>
      <trkpt lat="47.41192" lon="0.97941">
        <ele>55.4130859375</ele>
        <time>2013-06-28T09:20:26Z</time>
      </trkpt>
      <trkpt lat="47.41166" lon="0.97846">
        <ele>55.893798828125</ele>
        <time>2013-06-28T09:20:39Z</time>
      </trkpt>
      <trkpt lat="47.41153" lon="0.978">
        <ele>56.855102539062</ele>
        <time>2013-06-28T09:20:47Z</time>
      </trkpt>
      <trkpt lat="47.41122" lon="0.97699">
        <ele>57.816528320312</ele>
        <time>2013-06-28T09:21:01Z</time>
      </trkpt>
      <trkpt lat="47.41099" lon="0.97616">
        <ele>58.297119140625</ele>
        <time>2013-06-28T09:21:12Z</time>
      </trkpt>
      <trkpt lat="47.4109" lon="0.97584">
        <ele>57.816528320312</ele>
        <time>2013-06-28T09:21:16Z</time>
      </trkpt>
      <trkpt lat="47.41075" lon="0.975">
        <ele>56.855102539062</ele>
        <time>2013-06-28T09:21:27Z</time>
      </trkpt>
      <trkpt lat="47.41052" lon="0.97409">
        <ele>56.37451171875</ele>
        <time>2013-06-28T09:21:39Z</time>
      </trkpt>
      <trkpt lat="47.41026" lon="0.97358">
        <ele>55.893798828125</ele>
        <time>2013-06-28T09:21:46Z</time>
      </trkpt>
      <trkpt lat="47.40986" lon="0.97307">
        <ele>54.932373046875</ele>
        <time>2013-06-28T09:21:55Z</time>
      </trkpt>
      <trkpt lat="47.40926" lon="0.97238">
        <ele>54.451782226562</ele>
        <time>2013-06-28T09:22:08Z</time>
      </trkpt>
      <trkpt lat="47.40881" lon="0.97175">
        <ele>54.932373046875</ele>
        <time>2013-06-28T09:22:19Z</time>
      </trkpt>
      <trkpt lat="47.40859" lon="0.97112">
        <ele>54.451782226562</ele>
        <time>2013-06-28T09:22:27Z</time>
      </trkpt>
      <trkpt lat="47.40847" lon="0.97082">
        <ele>54.932373046875</ele>
        <time>2013-06-28T09:22:31Z</time>
      </trkpt>
      <trkpt lat="47.40832" lon="0.97031">
        <ele>54.932373046875</ele>
        <time>2013-06-28T09:22:37Z</time>
      </trkpt>
      <trkpt lat="47.40799" lon="0.96932">
        <ele>55.893798828125</ele>
        <time>2013-06-28T09:22:49Z</time>
      </trkpt>
      <trkpt lat="47.40762" lon="0.96806">
        <ele>57.816528320312</ele>
        <time>2013-06-28T09:23:04Z</time>
      </trkpt>
      <trkpt lat="47.40657" lon="0.96452">
        <ele>56.855102539062</ele>
        <time>2013-06-28T09:23:44Z</time>
      </trkpt>
      <trkpt lat="47.40634" lon="0.96375">
        <ele>55.4130859375</ele>
        <time>2013-06-28T09:23:52Z</time>
      </trkpt>
      <trkpt lat="47.40592" lon="0.96245">
        <ele>56.37451171875</ele>
        <time>2013-06-28T09:24:07Z</time>
      </trkpt>
      <trkpt lat="47.40572" lon="0.96176">
        <ele>56.855102539062</ele>
        <time>2013-06-28T09:24:16Z</time>
      </trkpt>
      <trkpt lat="47.40518" lon="0.9601">
        <ele>57.816528320312</ele>
        <time>2013-06-28T09:24:35Z</time>
      </trkpt>
      <trkpt lat="47.40497" lon="0.9595">
        <ele>57.335815429688</ele>
        <time>2013-06-28T09:24:42Z</time>
      </trkpt>
      <trkpt lat="47.4048" lon="0.95893">
        <ele>55.893798828125</ele>
        <time>2013-06-28T09:24:48Z</time>
      </trkpt>
      <trkpt lat="47.40438" lon="0.95764">
        <ele>55.4130859375</ele>
        <time>2013-06-28T09:25:03Z</time>
      </trkpt>
      <trkpt lat="47.40416" lon="0.95688">
        <ele>54.451782226562</ele>
        <time>2013-06-28T09:25:13Z</time>
      </trkpt>
      <trkpt lat="47.40392" lon="0.95618">
        <ele>53.97119140625</ele>
        <time>2013-06-28T09:25:20Z</time>
      </trkpt>
      <trkpt lat="47.4036" lon="0.9552">
        <ele>53.490478515625</ele>
        <time>2013-06-28T09:25:30Z</time>
      </trkpt>
      <trkpt lat="47.40298" lon="0.95323">
        <ele>53.490478515625</ele>
        <time>2013-06-28T09:25:51Z</time>
      </trkpt>
      <trkpt lat="47.40281" lon="0.9527">
        <ele>52.048583984375</ele>
        <time>2013-06-28T09:25:57Z</time>
      </trkpt>
      <trkpt lat="47.40247" lon="0.9516">
        <ele>53.009765625</ele>
        <time>2013-06-28T09:26:10Z</time>
      </trkpt>
      <trkpt lat="47.40222" lon="0.95061">
        <ele>53.009765625</ele>
        <time>2013-06-28T09:26:20Z</time>
      </trkpt>
      <trkpt lat="47.40191" lon="0.9493">
        <ele>53.97119140625</ele>
        <time>2013-06-28T09:26:33Z</time>
      </trkpt>
      <trkpt lat="47.40163" lon="0.94814">
        <ele>55.4130859375</ele>
        <time>2013-06-28T09:26:45Z</time>
      </trkpt>
      <trkpt lat="47.40134" lon="0.94688">
        <ele>55.4130859375</ele>
        <time>2013-06-28T09:26:58Z</time>
      </trkpt>
      <trkpt lat="47.40108" lon="0.94563">
        <ele>55.4130859375</ele>
        <time>2013-06-28T09:27:11Z</time>
      </trkpt>
      <trkpt lat="47.40083" lon="0.94419">
        <ele>56.37451171875</ele>
        <time>2013-06-28T09:27:26Z</time>
      </trkpt>
      <trkpt lat="47.40055" lon="0.9427">
        <ele>55.4130859375</ele>
        <time>2013-06-28T09:27:41Z</time>
      </trkpt>
      <trkpt lat="47.40035" lon="0.94145">
        <ele>54.932373046875</ele>
        <time>2013-06-28T09:27:53Z</time>
      </trkpt>
      <trkpt lat="47.40026" lon="0.94057">
        <ele>56.855102539062</ele>
        <time>2013-06-28T09:28:02Z</time>
      </trkpt>
      <trkpt lat="47.40036" lon="0.94029">
        <ele>56.37451171875</ele>
        <time>2013-06-28T09:28:07Z</time>
      </trkpt>
      <trkpt lat="47.40038" lon="0.9402">
        <ele>56.37451171875</ele>
        <time>2013-06-28T09:28:11Z</time>
      </trkpt>
      <trkpt lat="47.40027" lon="0.94026">
        <ele>49.16455078125</ele>
        <time>2013-06-28T09:28:24Z</time>
      </trkpt>
      <trkpt lat="47.4003" lon="0.94029">
        <ele>58.297119140625</ele>
        <time>2013-06-28T09:28:48Z</time>
      </trkpt>
      <trkpt lat="47.40034" lon="0.94031">
        <ele>59.258422851562</ele>
        <time>2013-06-28T09:29:08Z</time>
      </trkpt>
      <trkpt lat="47.40023" lon="0.94028">
        <ele>59.258422851562</ele>
        <time>2013-06-28T09:29:11Z</time>
      </trkpt>
      <trkpt lat="47.40017" lon="0.94032">
        <ele>59.739135742188</ele>
        <time>2013-06-28T09:29:17Z</time>
      </trkpt>
      <trkpt lat="47.40009" lon="0.94017">
        <ele>59.258422851562</ele>
        <time>2013-06-28T09:29:28Z</time>
      </trkpt>
      <trkpt lat="47.39996" lon="0.93972">
        <ele>59.739135742188</ele>
        <time>2013-06-28T09:29:42Z</time>
      </trkpt>
      <trkpt lat="47.39982" lon="0.93896">
        <ele>59.258422851562</ele>
        <time>2013-06-28T09:29:57Z</time>
      </trkpt>
      <trkpt lat="47.39979" lon="0.93862">
        <ele>58.297119140625</ele>
        <time>2013-06-28T09:30:00Z</time>
      </trkpt>
      <trkpt lat="47.39926" lon="0.93277">
        <ele>54.451782226562</ele>
        <time>2013-06-28T09:30:54Z</time>
      </trkpt>
      <trkpt lat="47.39919" lon="0.93162">
        <ele>53.97119140625</ele>
        <time>2013-06-28T09:31:05Z</time>
      </trkpt>
      <trkpt lat="47.39899" lon="0.93044">
        <ele>54.451782226562</ele>
        <time>2013-06-28T09:31:17Z</time>
      </trkpt>
      <trkpt lat="47.3988" lon="0.92894">
        <ele>54.451782226562</ele>
        <time>2013-06-28T09:31:33Z</time>
      </trkpt>
      <trkpt lat="47.3988" lon="0.9287">
        <ele>55.4130859375</ele>
        <time>2013-06-28T09:31:36Z</time>
      </trkpt>
      <trkpt lat="47.39881" lon="0.9283">
        <ele>56.37451171875</ele>
        <time>2013-06-28T09:31:41Z</time>
      </trkpt>
      <trkpt lat="47.39884" lon="0.92808">
        <ele>55.4130859375</ele>
        <time>2013-06-28T09:31:44Z</time>
      </trkpt>
      <trkpt lat="47.39881" lon="0.92708">
        <ele>55.4130859375</ele>
        <time>2013-06-28T09:31:56Z</time>
      </trkpt>
      <trkpt lat="47.39869" lon="0.92624">
        <ele>53.490478515625</ele>
        <time>2013-06-28T09:32:05Z</time>
      </trkpt>
      <trkpt lat="47.39853" lon="0.92541">
        <ele>52.529174804688</ele>
        <time>2013-06-28T09:32:14Z</time>
      </trkpt>
      <trkpt lat="47.39847" lon="0.92485">
        <ele>52.048583984375</ele>
        <time>2013-06-28T09:32:22Z</time>
      </trkpt>
      <trkpt lat="47.39838" lon="0.92429">
        <ele>52.048583984375</ele>
        <time>2013-06-28T09:32:29Z</time>
      </trkpt>
      <trkpt lat="47.39838" lon="0.92324">
        <ele>52.529174804688</ele>
        <time>2013-06-28T09:32:42Z</time>
      </trkpt>
      <trkpt lat="47.39835" lon="0.92217">
        <ele>52.529174804688</ele>
        <time>2013-06-28T09:32:54Z</time>
      </trkpt>
      <trkpt lat="47.39839" lon="0.92128">
        <ele>51.56787109375</ele>
        <time>2013-06-28T09:33:04Z</time>
      </trkpt>
      <trkpt lat="47.39847" lon="0.92053">
        <ele>51.56787109375</ele>
        <time>2013-06-28T09:33:13Z</time>
      </trkpt>
      <trkpt lat="47.39862" lon="0.91965">
        <ele>50.606567382812</ele>
        <time>2013-06-28T09:33:24Z</time>
      </trkpt>
      <trkpt lat="47.39866" lon="0.91888">
        <ele>51.087158203125</ele>
        <time>2013-06-28T09:33:33Z</time>
      </trkpt>
      <trkpt lat="47.39863" lon="0.91779">
        <ele>52.048583984375</ele>
        <time>2013-06-28T09:33:45Z</time>
      </trkpt>
      <trkpt lat="47.39861" lon="0.91658">
        <ele>53.97119140625</ele>
        <time>2013-06-28T09:33:58Z</time>
      </trkpt>
      <trkpt lat="47.39854" lon="0.91523">
        <ele>54.451782226562</ele>
        <time>2013-06-28T09:34:12Z</time>
      </trkpt>
      <trkpt lat="47.39828" lon="0.91222">
        <ele>54.932373046875</ele>
        <time>2013-06-28T09:34:42Z</time>
      </trkpt>
      <trkpt lat="47.39819" lon="0.91089">
        <ele>54.932373046875</ele>
        <time>2013-06-28T09:34:56Z</time>
      </trkpt>
      <trkpt lat="47.39817" lon="0.91068">
        <ele>54.932373046875</ele>
        <time>2013-06-28T09:34:58Z</time>
      </trkpt>
      <trkpt lat="47.39808" lon="0.90981">
        <ele>54.451782226562</ele>
        <time>2013-06-28T09:35:06Z</time>
      </trkpt>
      <trkpt lat="47.39797" lon="0.90853">
        <ele>53.97119140625</ele>
        <time>2013-06-28T09:35:18Z</time>
      </trkpt>
      <trkpt lat="47.39779" lon="0.90713">
        <ele>53.97119140625</ele>
        <time>2013-06-28T09:35:32Z</time>
      </trkpt>
      <trkpt lat="47.39765" lon="0.90605">
        <ele>53.490478515625</ele>
        <time>2013-06-28T09:35:43Z</time>
      </trkpt>
      <trkpt lat="47.39747" lon="0.90502">
        <ele>53.009765625</ele>
        <time>2013-06-28T09:35:53Z</time>
      </trkpt>
      <trkpt lat="47.39666" lon="0.90027">
        <ele>52.529174804688</ele>
        <time>2013-06-28T09:36:41Z</time>
      </trkpt>
      <trkpt lat="47.39663" lon="0.89935">
        <ele>52.529174804688</ele>
        <time>2013-06-28T09:36:51Z</time>
      </trkpt>
      <trkpt lat="47.39672" lon="0.89838">
        <ele>52.529174804688</ele>
        <time>2013-06-28T09:37:02Z</time>
      </trkpt>
      <trkpt lat="47.39687" lon="0.89724">
        <ele>53.009765625</ele>
        <time>2013-06-28T09:37:15Z</time>
      </trkpt>
      <trkpt lat="47.39701" lon="0.89612">
        <ele>53.009765625</ele>
        <time>2013-06-28T09:37:27Z</time>
      </trkpt>
      <trkpt lat="47.39715" lon="0.89507">
        <ele>53.490478515625</ele>
        <time>2013-06-28T09:37:38Z</time>
      </trkpt>
      <trkpt lat="47.39723" lon="0.89405">
        <ele>53.490478515625</ele>
        <time>2013-06-28T09:37:49Z</time>
      </trkpt>
      <trkpt lat="47.39721" lon="0.89332">
        <ele>53.009765625</ele>
        <time>2013-06-28T09:37:56Z</time>
      </trkpt>
      <trkpt lat="47.39718" lon="0.89153">
        <ele>52.529174804688</ele>
        <time>2013-06-28T09:38:12Z</time>
      </trkpt>
      <trkpt lat="47.39715" lon="0.88986">
        <ele>53.009765625</ele>
        <time>2013-06-28T09:38:27Z</time>
      </trkpt>
      <trkpt lat="47.39711" lon="0.88855">
        <ele>53.009765625</ele>
        <time>2013-06-28T09:38:39Z</time>
      </trkpt>
      <trkpt lat="47.39722" lon="0.88749">
        <ele>52.529174804688</ele>
        <time>2013-06-28T09:38:49Z</time>
      </trkpt>
      <trkpt lat="47.39725" lon="0.88634">
        <ele>53.009765625</ele>
        <time>2013-06-28T09:39:00Z</time>
      </trkpt>
      <trkpt lat="47.39716" lon="0.88506">
        <ele>53.490478515625</ele>
        <time>2013-06-28T09:39:12Z</time>
      </trkpt>
      <trkpt lat="47.39708" lon="0.88379">
        <ele>53.490478515625</ele>
        <time>2013-06-28T09:39:24Z</time>
      </trkpt>
      <trkpt lat="47.39698" lon="0.88233">
        <ele>53.490478515625</ele>
        <time>2013-06-28T09:39:38Z</time>
      </trkpt>
      <trkpt lat="47.39684" lon="0.8812">
        <ele>53.97119140625</ele>
        <time>2013-06-28T09:39:49Z</time>
      </trkpt>
      <trkpt lat="47.3967" lon="0.87986">
        <ele>53.490478515625</ele>
        <time>2013-06-28T09:40:02Z</time>
      </trkpt>
      <trkpt lat="47.39674" lon="0.87862">
        <ele>53.97119140625</ele>
        <time>2013-06-28T09:40:14Z</time>
      </trkpt>
      <trkpt lat="47.39675" lon="0.87736">
        <ele>53.009765625</ele>
        <time>2013-06-28T09:40:26Z</time>
      </trkpt>
      <trkpt lat="47.39678" lon="0.87639">
        <ele>52.529174804688</ele>
        <time>2013-06-28T09:40:36Z</time>
      </trkpt>
      <trkpt lat="47.39678" lon="0.87544">
        <ele>52.048583984375</ele>
        <time>2013-06-28T09:40:47Z</time>
      </trkpt>
      <trkpt lat="47.39668" lon="0.87428">
        <ele>52.048583984375</ele>
        <time>2013-06-28T09:41:01Z</time>
      </trkpt>
      <trkpt lat="47.39644" lon="0.87308">
        <ele>52.048583984375</ele>
        <time>2013-06-28T09:41:15Z</time>
      </trkpt>
      <trkpt lat="47.39619" lon="0.87185">
        <ele>52.529174804688</ele>
        <time>2013-06-28T09:41:29Z</time>
      </trkpt>
      <trkpt lat="47.39584" lon="0.87001">
        <ele>52.529174804688</ele>
        <time>2013-06-28T09:41:48Z</time>
      </trkpt>
      <trkpt lat="47.3956" lon="0.86882">
        <ele>51.56787109375</ele>
        <time>2013-06-28T09:42:00Z</time>
      </trkpt>
      <trkpt lat="47.39528" lon="0.86758">
        <ele>51.56787109375</ele>
        <time>2013-06-28T09:42:13Z</time>
      </trkpt>
      <trkpt lat="47.39499" lon="0.8664">
        <ele>51.56787109375</ele>
        <time>2013-06-28T09:42:25Z</time>
      </trkpt>
      <trkpt lat="47.3948" lon="0.86526">
        <ele>52.048583984375</ele>
        <time>2013-06-28T09:42:36Z</time>
      </trkpt>
      <trkpt lat="47.39463" lon="0.86382">
        <ele>51.56787109375</ele>
        <time>2013-06-28T09:42:50Z</time>
      </trkpt>
      <trkpt lat="47.39443" lon="0.86238">
        <ele>51.56787109375</ele>
        <time>2013-06-28T09:43:04Z</time>
      </trkpt>
      <trkpt lat="47.39416" lon="0.86154">
        <ele>51.56787109375</ele>
        <time>2013-06-28T09:43:13Z</time>
      </trkpt>
      <trkpt lat="47.39358" lon="0.86004">
        <ele>51.56787109375</ele>
        <time>2013-06-28T09:43:29Z</time>
      </trkpt>
      <trkpt lat="47.39307" lon="0.85885">
        <ele>52.048583984375</ele>
        <time>2013-06-28T09:43:42Z</time>
      </trkpt>
      <trkpt lat="47.3928" lon="0.85805">
        <ele>51.56787109375</ele>
        <time>2013-06-28T09:43:51Z</time>
      </trkpt>
      <trkpt lat="47.39257" lon="0.85715">
        <ele>51.56787109375</ele>
        <time>2013-06-28T09:44:02Z</time>
      </trkpt>
      <trkpt lat="47.39225" lon="0.85615">
        <ele>51.087158203125</ele>
        <time>2013-06-28T09:44:15Z</time>
      </trkpt>
      <trkpt lat="47.39197" lon="0.85537">
        <ele>50.606567382812</ele>
        <time>2013-06-28T09:44:25Z</time>
      </trkpt>
      <trkpt lat="47.39176" lon="0.8549">
        <ele>50.606567382812</ele>
        <time>2013-06-28T09:44:32Z</time>
      </trkpt>
      <trkpt lat="47.39172" lon="0.8547">
        <ele>51.087158203125</ele>
        <time>2013-06-28T09:44:35Z</time>
      </trkpt>
      <trkpt lat="47.39157" lon="0.85442">
        <ele>50.606567382812</ele>
        <time>2013-06-28T09:44:41Z</time>
      </trkpt>
      <trkpt lat="47.3915" lon="0.85407">
        <ele>50.606567382812</ele>
        <time>2013-06-28T09:44:50Z</time>
      </trkpt>
      <trkpt lat="47.39146" lon="0.85382">
        <ele>51.087158203125</ele>
        <time>2013-06-28T09:44:59Z</time>
      </trkpt>
      <trkpt lat="47.39146" lon="0.85382">
        <ele>52.048583984375</ele>
        <time>2013-06-28T09:45:19Z</time>
      </trkpt>
      <trkpt lat="47.39142" lon="0.85374">
        <ele>52.048583984375</ele>
        <time>2013-06-28T09:45:23Z</time>
      </trkpt>
      <trkpt lat="47.39135" lon="0.85338">
        <ele>52.529174804688</ele>
        <time>2013-06-28T09:45:31Z</time>
      </trkpt>
      <trkpt lat="47.39124" lon="0.85269">
        <ele>52.048583984375</ele>
        <time>2013-06-28T09:45:42Z</time>
      </trkpt>
      <trkpt lat="47.39116" lon="0.85199">
        <ele>52.529174804688</ele>
        <time>2013-06-28T09:45:53Z</time>
      </trkpt>
      <trkpt lat="47.39124" lon="0.84951">
        <ele>53.97119140625</ele>
        <time>2013-06-28T09:46:23Z</time>
      </trkpt>
      <trkpt lat="47.39127" lon="0.84504">
        <ele>52.529174804688</ele>
        <time>2013-06-28T09:47:09Z</time>
      </trkpt>
      <trkpt lat="47.39111" lon="0.84247">
        <ele>51.56787109375</ele>
        <time>2013-06-28T09:47:38Z</time>
      </trkpt>
      <trkpt lat="47.39107" lon="0.84119">
        <ele>50.1259765625</ele>
        <time>2013-06-28T09:47:52Z</time>
      </trkpt>
      <trkpt lat="47.39105" lon="0.83981">
        <ele>49.645263671875</ele>
        <time>2013-06-28T09:48:07Z</time>
      </trkpt>
      <trkpt lat="47.39106" lon="0.83884">
        <ele>49.16455078125</ele>
        <time>2013-06-28T09:48:18Z</time>
      </trkpt>
      <trkpt lat="47.39092" lon="0.83592">
        <ele>49.645263671875</ele>
        <time>2013-06-28T09:48:50Z</time>
      </trkpt>
      <trkpt lat="47.39083" lon="0.83454">
        <ele>48.683959960938</ele>
        <time>2013-06-28T09:49:05Z</time>
      </trkpt>
      <trkpt lat="47.39079" lon="0.83334">
        <ele>48.683959960938</ele>
        <time>2013-06-28T09:49:18Z</time>
      </trkpt>
      <trkpt lat="47.39069" lon="0.83064">
        <ele>48.683959960938</ele>
        <time>2013-06-28T09:49:47Z</time>
      </trkpt>
      <trkpt lat="47.39062" lon="0.8294">
        <ele>49.16455078125</ele>
        <time>2013-06-28T09:50:01Z</time>
      </trkpt>
      <trkpt lat="47.39051" lon="0.82814">
        <ele>49.645263671875</ele>
        <time>2013-06-28T09:50:15Z</time>
      </trkpt>
      <trkpt lat="47.39039" lon="0.82688">
        <ele>50.1259765625</ele>
        <time>2013-06-28T09:50:29Z</time>
      </trkpt>
      <trkpt lat="47.39028" lon="0.82556">
        <ele>50.1259765625</ele>
        <time>2013-06-28T09:50:43Z</time>
      </trkpt>
      <trkpt lat="47.39029" lon="0.8247">
        <ele>49.645263671875</ele>
        <time>2013-06-28T09:50:52Z</time>
      </trkpt>
      <trkpt lat="47.3904" lon="0.82335">
        <ele>49.645263671875</ele>
        <time>2013-06-28T09:51:06Z</time>
      </trkpt>
      <trkpt lat="47.39056" lon="0.82249">
        <ele>49.645263671875</ele>
        <time>2013-06-28T09:51:15Z</time>
      </trkpt>
      <trkpt lat="47.39091" lon="0.82123">
        <ele>48.683959960938</ele>
        <time>2013-06-28T09:51:30Z</time>
      </trkpt>
      <trkpt lat="47.39123" lon="0.82012">
        <ele>49.16455078125</ele>
        <time>2013-06-28T09:51:43Z</time>
      </trkpt>
      <trkpt lat="47.39143" lon="0.81942">
        <ele>49.16455078125</ele>
        <time>2013-06-28T09:51:53Z</time>
      </trkpt>
      <trkpt lat="47.39157" lon="0.81892">
        <ele>48.683959960938</ele>
        <time>2013-06-28T09:52:00Z</time>
      </trkpt>
      <trkpt lat="47.39162" lon="0.81877">
        <ele>48.683959960938</ele>
        <time>2013-06-28T09:52:02Z</time>
      </trkpt>
      <trkpt lat="47.39169" lon="0.81845">
        <ele>48.683959960938</ele>
        <time>2013-06-28T09:52:08Z</time>
      </trkpt>
      <trkpt lat="47.39172" lon="0.81835">
        <ele>48.683959960938</ele>
        <time>2013-06-28T09:52:14Z</time>
      </trkpt>
      <trkpt lat="47.39176" lon="0.81823">
        <ele>48.683959960938</ele>
        <time>2013-06-28T09:52:22Z</time>
      </trkpt>
      <trkpt lat="47.39175" lon="0.81801">
        <ele>48.683959960938</ele>
        <time>2013-06-28T09:52:27Z</time>
      </trkpt>
      <trkpt lat="47.39152" lon="0.81784">
        <ele>47.241821289062</ele>
        <time>2013-06-28T09:52:33Z</time>
      </trkpt>
      <trkpt lat="47.39133" lon="0.81771">
        <ele>46.280639648438</ele>
        <time>2013-06-28T09:52:39Z</time>
      </trkpt>
      <trkpt lat="47.39134" lon="0.81767">
        <ele>46.76123046875</ele>
        <time>2013-06-28T09:52:44Z</time>
      </trkpt>
      <trkpt lat="47.39134" lon="0.81767">
        <ele>50.606567382812</ele>
        <time>2013-06-28T09:52:55Z</time>
      </trkpt>
      <trkpt lat="47.39135" lon="0.81767">
        <ele>48.203369140625</ele>
        <time>2013-06-28T09:53:05Z</time>
      </trkpt>
      <trkpt lat="47.39133" lon="0.81766">
        <ele>42.916015625</ele>
        <time>2013-06-28T09:53:17Z</time>
      </trkpt>
      <trkpt lat="47.39132" lon="0.81764">
        <ele>48.203369140625</ele>
        <time>2013-06-28T09:53:34Z</time>
      </trkpt>
      <trkpt lat="47.39134" lon="0.81766">
        <ele>55.4130859375</ele>
        <time>2013-06-28T09:53:53Z</time>
      </trkpt>
      <trkpt lat="47.39134" lon="0.81767">
        <ele>49.645263671875</ele>
        <time>2013-06-28T09:54:10Z</time>
      </trkpt>
      <trkpt lat="47.39134" lon="0.81768">
        <ele>50.606567382812</ele>
        <time>2013-06-28T09:54:21Z</time>
      </trkpt>
      <trkpt lat="47.39134" lon="0.81768">
        <ele>56.37451171875</ele>
        <time>2013-06-28T09:54:42Z</time>
      </trkpt>
      <trkpt lat="47.39134" lon="0.81769">
        <ele>64.545654296875</ele>
        <time>2013-06-28T09:55:23Z</time>
      </trkpt>
      <trkpt lat="47.39141" lon="0.81775">
        <ele>68.87158203125</ele>
        <time>2013-06-28T09:55:47Z</time>
      </trkpt>
      <trkpt lat="47.39136" lon="0.8177">
        <ele>67.910278320312</ele>
        <time>2013-06-28T09:56:07Z</time>
      </trkpt>
      <trkpt lat="47.39136" lon="0.8177">
        <ele>64.065063476562</ele>
        <time>2013-06-28T09:56:28Z</time>
      </trkpt>
      <trkpt lat="47.39136" lon="0.8177">
        <ele>55.893798828125</ele>
        <time>2013-06-28T09:56:51Z</time>
      </trkpt>
      <trkpt lat="47.39137" lon="0.8177">
        <ele>56.855102539062</ele>
        <time>2013-06-28T09:57:15Z</time>
      </trkpt>
      <trkpt lat="47.39138" lon="0.8177">
        <ele>59.739135742188</ele>
        <time>2013-06-28T09:57:42Z</time>
      </trkpt>
      <trkpt lat="47.39138" lon="0.81772">
        <ele>70.794189453125</ele>
        <time>2013-06-28T09:58:13Z</time>
      </trkpt>
      <trkpt lat="47.39138" lon="0.81772">
        <ele>64.065063476562</ele>
        <time>2013-06-28T09:58:37Z</time>
      </trkpt>
      <trkpt lat="47.39138" lon="0.81773">
        <ele>53.97119140625</ele>
        <time>2013-06-28T09:58:52Z</time>
      </trkpt>
      <trkpt lat="47.39137" lon="0.81772">
        <ele>57.335815429688</ele>
        <time>2013-06-28T09:59:28Z</time>
      </trkpt>
      <trkpt lat="47.39137" lon="0.81772">
        <ele>54.932373046875</ele>
        <time>2013-06-28T10:00:06Z</time>
      </trkpt>
      <trkpt lat="47.39137" lon="0.81771">
        <ele>52.529174804688</ele>
        <time>2013-06-28T10:00:30Z</time>
      </trkpt>
      <trkpt lat="47.39136" lon="0.8177">
        <ele>52.048583984375</ele>
        <time>2013-06-28T10:00:46Z</time>
      </trkpt>
      <trkpt lat="47.39135" lon="0.81759">
        <ele>60.2197265625</ele>
        <time>2013-06-28T10:01:07Z</time>
      </trkpt>
      <trkpt lat="47.39136" lon="0.81757">
        <ele>61.181030273438</ele>
        <time>2013-06-28T10:01:28Z</time>
      </trkpt>
      <trkpt lat="47.39134" lon="0.81757">
        <ele>65.0263671875</ele>
        <time>2013-06-28T10:01:54Z</time>
      </trkpt>
      <trkpt lat="47.39133" lon="0.81757">
        <ele>67.4296875</ele>
        <time>2013-06-28T10:02:21Z</time>
      </trkpt>
      <trkpt lat="47.39132" lon="0.81757">
        <ele>69.832885742188</ele>
        <time>2013-06-28T10:02:48Z</time>
      </trkpt>
      <trkpt lat="47.39132" lon="0.81757">
        <ele>62.622924804688</ele>
        <time>2013-06-28T10:03:09Z</time>
      </trkpt>
      <trkpt lat="47.39132" lon="0.81757">
        <ele>59.739135742188</ele>
        <time>2013-06-28T10:03:34Z</time>
      </trkpt>
      <trkpt lat="47.39133" lon="0.81756">
        <ele>63.584350585938</ele>
        <time>2013-06-28T10:04:04Z</time>
      </trkpt>
      <trkpt lat="47.39133" lon="0.81756">
        <ele>61.661743164062</ele>
        <time>2013-06-28T10:04:22Z</time>
      </trkpt>
      <trkpt lat="47.39133" lon="0.81755">
        <ele>59.739135742188</ele>
        <time>2013-06-28T10:04:44Z</time>
      </trkpt>
      <trkpt lat="47.39133" lon="0.81756">
        <ele>64.065063476562</ele>
        <time>2013-06-28T10:05:08Z</time>
      </trkpt>
      <trkpt lat="47.39133" lon="0.81756">
        <ele>61.181030273438</ele>
        <time>2013-06-28T10:05:29Z</time>
      </trkpt>
      <trkpt lat="47.39133" lon="0.81756">
        <ele>65.0263671875</ele>
        <time>2013-06-28T10:05:58Z</time>
      </trkpt>
      <trkpt lat="47.39133" lon="0.81756">
        <ele>60.700317382812</ele>
        <time>2013-06-28T10:06:40Z</time>
      </trkpt>
      <trkpt lat="47.39133" lon="0.81755">
        <ele>59.258422851562</ele>
        <time>2013-06-28T10:07:21Z</time>
      </trkpt>
      <trkpt lat="47.39132" lon="0.81755">
        <ele>53.490478515625</ele>
        <time>2013-06-28T10:07:52Z</time>
      </trkpt>
      <trkpt lat="47.39133" lon="0.81755">
        <ele>53.009765625</ele>
        <time>2013-06-28T10:08:20Z</time>
      </trkpt>
      <trkpt lat="47.39133" lon="0.81754">
        <ele>55.893798828125</ele>
        <time>2013-06-28T10:08:53Z</time>
      </trkpt>
      <trkpt lat="47.39133" lon="0.81754">
        <ele>52.529174804688</ele>
        <time>2013-06-28T10:09:16Z</time>
      </trkpt>
      <trkpt lat="47.39133" lon="0.81754">
        <ele>46.280639648438</ele>
        <time>2013-06-28T10:09:49Z</time>
      </trkpt>
      <trkpt lat="47.39133" lon="0.81753">
        <ele>40.993408203125</ele>
        <time>2013-06-28T10:10:21Z</time>
      </trkpt>
      <trkpt lat="47.39133" lon="0.81752">
        <ele>45.799926757812</ele>
        <time>2013-06-28T10:10:55Z</time>
      </trkpt>
      <trkpt lat="47.39133" lon="0.81752">
        <ele>51.087158203125</ele>
        <time>2013-06-28T10:11:24Z</time>
      </trkpt>
      <trkpt lat="47.39133" lon="0.81751">
        <ele>49.645263671875</ele>
        <time>2013-06-28T10:11:52Z</time>
      </trkpt>
      <trkpt lat="47.39133" lon="0.81751">
        <ele>51.087158203125</ele>
        <time>2013-06-28T10:12:28Z</time>
      </trkpt>
      <trkpt lat="47.39133" lon="0.8175">
        <ele>56.855102539062</ele>
        <time>2013-06-28T10:13:03Z</time>
      </trkpt>
      <trkpt lat="47.39133" lon="0.8175">
        <ele>63.584350585938</ele>
        <time>2013-06-28T10:13:29Z</time>
      </trkpt>
      <trkpt lat="47.39133" lon="0.8175">
        <ele>59.258422851562</ele>
        <time>2013-06-28T10:13:56Z</time>
      </trkpt>
      <trkpt lat="47.39133" lon="0.8175">
        <ele>59.739135742188</ele>
        <time>2013-06-28T10:14:21Z</time>
      </trkpt>
      <trkpt lat="47.39133" lon="0.8175">
        <ele>65.0263671875</ele>
        <time>2013-06-28T10:14:52Z</time>
      </trkpt>
      <trkpt lat="47.39133" lon="0.8175">
        <ele>72.716918945312</ele>
        <time>2013-06-28T10:15:21Z</time>
      </trkpt>
      <trkpt lat="47.39133" lon="0.8175">
        <ele>79.926635742188</ele>
        <time>2013-06-28T10:15:38Z</time>
      </trkpt>
      <trkpt lat="47.39133" lon="0.81751">
        <ele>82.330078125</ele>
        <time>2013-06-28T10:15:57Z</time>
      </trkpt>
      <trkpt lat="47.39133" lon="0.81751">
        <ele>86.17529296875</ele>
        <time>2013-06-28T10:16:13Z</time>
      </trkpt>
      <trkpt lat="47.39121" lon="0.81779">
        <ele>86.17529296875</ele>
        <time>2013-06-28T10:16:31Z</time>
      </trkpt>
      <trkpt lat="47.39122" lon="0.81772">
        <ele>69.832885742188</ele>
        <time>2013-06-28T10:16:50Z</time>
      </trkpt>
      <trkpt lat="47.39124" lon="0.81766">
        <ele>61.661743164062</ele>
        <time>2013-06-28T10:17:10Z</time>
      </trkpt>
      <trkpt lat="47.39126" lon="0.81763">
        <ele>60.2197265625</ele>
        <time>2013-06-28T10:17:27Z</time>
      </trkpt>
      <trkpt lat="47.39126" lon="0.81761">
        <ele>59.739135742188</ele>
        <time>2013-06-28T10:17:44Z</time>
      </trkpt>
      <trkpt lat="47.39127" lon="0.8176">
        <ele>65.987670898438</ele>
        <time>2013-06-28T10:18:02Z</time>
      </trkpt>
      <trkpt lat="47.39128" lon="0.8176">
        <ele>72.716918945312</ele>
        <time>2013-06-28T10:18:21Z</time>
      </trkpt>
      <trkpt lat="47.39128" lon="0.81761">
        <ele>70.3134765625</ele>
        <time>2013-06-28T10:18:45Z</time>
      </trkpt>
      <trkpt lat="47.39128" lon="0.81762">
        <ele>69.352294921875</ele>
        <time>2013-06-28T10:19:03Z</time>
      </trkpt>
      <trkpt lat="47.39128" lon="0.81762">
        <ele>65.507080078125</ele>
        <time>2013-06-28T10:19:19Z</time>
      </trkpt>
      <trkpt lat="47.39128" lon="0.81762">
        <ele>69.352294921875</ele>
        <time>2013-06-28T10:19:38Z</time>
      </trkpt>
      <trkpt lat="47.39129" lon="0.81763">
        <ele>67.910278320312</ele>
        <time>2013-06-28T10:19:55Z</time>
      </trkpt>
      <trkpt lat="47.39129" lon="0.81763">
        <ele>61.181030273438</ele>
        <time>2013-06-28T10:20:24Z</time>
      </trkpt>
      <trkpt lat="47.39129" lon="0.81762">
        <ele>53.009765625</ele>
        <time>2013-06-28T10:20:51Z</time>
      </trkpt>
      <trkpt lat="47.39129" lon="0.81761">
        <ele>50.606567382812</ele>
        <time>2013-06-28T10:21:17Z</time>
      </trkpt>
      <trkpt lat="47.3913" lon="0.8176">
        <ele>49.16455078125</ele>
        <time>2013-06-28T10:21:47Z</time>
      </trkpt>
      <trkpt lat="47.3913" lon="0.8176">
        <ele>54.932373046875</ele>
        <time>2013-06-28T10:22:18Z</time>
      </trkpt>
      <trkpt lat="47.3913" lon="0.8176">
        <ele>51.087158203125</ele>
        <time>2013-06-28T10:22:43Z</time>
      </trkpt>
      <trkpt lat="47.3913" lon="0.81759">
        <ele>52.048583984375</ele>
        <time>2013-06-28T10:23:12Z</time>
      </trkpt>
      <trkpt lat="47.3913" lon="0.81759">
        <ele>48.203369140625</ele>
        <time>2013-06-28T10:23:33Z</time>
      </trkpt>
      <trkpt lat="47.3913" lon="0.81759">
        <ele>39.55126953125</ele>
        <time>2013-06-28T10:23:55Z</time>
      </trkpt>
      <trkpt lat="47.3913" lon="0.81759">
        <ele>36.186767578125</ele>
        <time>2013-06-28T10:24:20Z</time>
      </trkpt>
      <trkpt lat="47.3913" lon="0.81759">
        <ele>33.783447265625</ele>
        <time>2013-06-28T10:24:37Z</time>
      </trkpt>
      <trkpt lat="47.3913" lon="0.81758">
        <ele>32.822265625</ele>
        <time>2013-06-28T10:25:09Z</time>
      </trkpt>
      <trkpt lat="47.3913" lon="0.81758">
        <ele>38.109375</ele>
        <time>2013-06-28T10:25:42Z</time>
      </trkpt>
      <trkpt lat="47.3913" lon="0.81757">
        <ele>41.473999023438</ele>
        <time>2013-06-28T10:26:14Z</time>
      </trkpt>
      <trkpt lat="47.3913" lon="0.81757">
        <ele>25.6123046875</ele>
        <time>2013-06-28T10:26:34Z</time>
      </trkpt>
      <trkpt lat="47.39131" lon="0.81757">
        <ele>30.899536132812</ele>
        <time>2013-06-28T10:26:57Z</time>
      </trkpt>
      <trkpt lat="47.39131" lon="0.81757">
        <ele>43.396606445312</ele>
        <time>2013-06-28T10:27:25Z</time>
      </trkpt>
      <trkpt lat="47.39131" lon="0.81756">
        <ele>39.55126953125</ele>
        <time>2013-06-28T10:27:56Z</time>
      </trkpt>
      <trkpt lat="47.39131" lon="0.81756">
        <ele>35.225463867188</ele>
        <time>2013-06-28T10:28:33Z</time>
      </trkpt>
      <trkpt lat="47.39138" lon="0.81738">
        <ele>26.092895507812</ele>
        <time>2013-06-28T10:29:12Z</time>
      </trkpt>
      <trkpt lat="47.39141" lon="0.81735">
        <ele>17.441162109375</ele>
        <time>2013-06-28T10:29:50Z</time>
      </trkpt>
      <trkpt lat="47.39141" lon="0.81733">
        <ele>17.441162109375</ele>
        <time>2013-06-28T10:30:11Z</time>
      </trkpt>
      <trkpt lat="47.39142" lon="0.81732">
        <ele>25.131713867188</ele>
        <time>2013-06-28T10:30:42Z</time>
      </trkpt>
      <trkpt lat="47.39142" lon="0.81732">
        <ele>33.302856445312</ele>
        <time>2013-06-28T10:31:19Z</time>
      </trkpt>
      <trkpt lat="47.39142" lon="0.81733">
        <ele>38.109375</ele>
        <time>2013-06-28T10:31:53Z</time>
      </trkpt>
      <trkpt lat="47.39142" lon="0.81734">
        <ele>35.225463867188</ele>
        <time>2013-06-28T10:32:20Z</time>
      </trkpt>
      <trkpt lat="47.39141" lon="0.81735">
        <ele>42.916015625</ele>
        <time>2013-06-28T10:32:57Z</time>
      </trkpt>
      <trkpt lat="47.39141" lon="0.81735">
        <ele>49.645263671875</ele>
        <time>2013-06-28T10:33:27Z</time>
      </trkpt>
      <trkpt lat="47.3914" lon="0.81755">
        <ele>48.203369140625</ele>
        <time>2013-06-28T10:33:53Z</time>
      </trkpt>
      <trkpt lat="47.39134" lon="0.81764">
        <ele>56.37451171875</ele>
        <time>2013-06-28T10:34:14Z</time>
      </trkpt>
      <trkpt lat="47.39133" lon="0.81766">
        <ele>61.181030273438</ele>
        <time>2013-06-28T10:35:17Z</time>
      </trkpt>
      <trkpt lat="47.39133" lon="0.81766">
        <ele>51.56787109375</ele>
        <time>2013-06-28T10:35:40Z</time>
      </trkpt>
      <trkpt lat="47.39133" lon="0.81765">
        <ele>49.16455078125</ele>
        <time>2013-06-28T10:35:54Z</time>
      </trkpt>
      <trkpt lat="47.39133" lon="0.81763">
        <ele>37.148071289062</ele>
        <time>2013-06-28T10:36:24Z</time>
      </trkpt>
      <trkpt lat="47.39132" lon="0.81742">
        <ele>35.225463867188</ele>
        <time>2013-06-28T10:36:54Z</time>
      </trkpt>
      <trkpt lat="47.39131" lon="0.81744">
        <ele>44.358032226562</ele>
        <time>2013-06-28T10:37:16Z</time>
      </trkpt>
      <trkpt lat="47.39131" lon="0.81746">
        <ele>40.993408203125</ele>
        <time>2013-06-28T10:37:42Z</time>
      </trkpt>
      <trkpt lat="47.39131" lon="0.81747">
        <ele>36.186767578125</ele>
        <time>2013-06-28T10:38:14Z</time>
      </trkpt>
      <trkpt lat="47.39131" lon="0.81747">
        <ele>38.109375</ele>
        <time>2013-06-28T10:38:42Z</time>
      </trkpt>
      <trkpt lat="47.39132" lon="0.81747">
        <ele>41.954711914062</ele>
        <time>2013-06-28T10:39:08Z</time>
      </trkpt>
      <trkpt lat="47.39132" lon="0.81747">
        <ele>51.087158203125</ele>
        <time>2013-06-28T10:39:37Z</time>
      </trkpt>
      <trkpt lat="47.39132" lon="0.81747">
        <ele>56.855102539062</ele>
        <time>2013-06-28T10:39:59Z</time>
      </trkpt>
      <trkpt lat="47.39132" lon="0.81748">
        <ele>56.37451171875</ele>
        <time>2013-06-28T10:40:23Z</time>
      </trkpt>
      <trkpt lat="47.39132" lon="0.81749">
        <ele>56.37451171875</ele>
        <time>2013-06-28T10:40:53Z</time>
      </trkpt>
      <trkpt lat="47.39132" lon="0.8175">
        <ele>52.529174804688</ele>
        <time>2013-06-28T10:41:24Z</time>
      </trkpt>
      <trkpt lat="47.39133" lon="0.8175">
        <ele>55.4130859375</ele>
        <time>2013-06-28T10:41:54Z</time>
      </trkpt>
      <trkpt lat="47.39133" lon="0.8175">
        <ele>49.645263671875</ele>
        <time>2013-06-28T10:42:24Z</time>
      </trkpt>
      <trkpt lat="47.39133" lon="0.8175">
        <ele>51.087158203125</ele>
        <time>2013-06-28T10:43:03Z</time>
      </trkpt>
      <trkpt lat="47.39134" lon="0.81749">
        <ele>49.16455078125</ele>
        <time>2013-06-28T10:43:29Z</time>
      </trkpt>
      <trkpt lat="47.39134" lon="0.81749">
        <ele>43.877319335938</ele>
        <time>2013-06-28T10:43:54Z</time>
      </trkpt>
      <trkpt lat="47.39134" lon="0.81748">
        <ele>46.76123046875</ele>
        <time>2013-06-28T10:44:22Z</time>
      </trkpt>
      <trkpt lat="47.39135" lon="0.81748">
        <ele>47.241821289062</ele>
        <time>2013-06-28T10:44:57Z</time>
      </trkpt>
      <trkpt lat="47.39135" lon="0.81748">
        <ele>43.877319335938</ele>
        <time>2013-06-28T10:45:34Z</time>
      </trkpt>
      <trkpt lat="47.39135" lon="0.81747">
        <ele>49.16455078125</ele>
        <time>2013-06-28T10:46:03Z</time>
      </trkpt>
      <trkpt lat="47.39135" lon="0.81748">
        <ele>45.799926757812</ele>
        <time>2013-06-28T10:46:42Z</time>
      </trkpt>
      <trkpt lat="47.39135" lon="0.81747">
        <ele>50.1259765625</ele>
        <time>2013-06-28T10:47:12Z</time>
      </trkpt>
      <trkpt lat="47.39135" lon="0.81747">
        <ele>52.048583984375</ele>
        <time>2013-06-28T10:47:49Z</time>
      </trkpt>
      <trkpt lat="47.39135" lon="0.81747">
        <ele>54.932373046875</ele>
        <time>2013-06-28T10:48:26Z</time>
      </trkpt>
      <trkpt lat="47.39135" lon="0.81747">
        <ele>49.16455078125</ele>
        <time>2013-06-28T10:48:53Z</time>
      </trkpt>
      <trkpt lat="47.39135" lon="0.81747">
        <ele>47.241821289062</ele>
        <time>2013-06-28T10:49:16Z</time>
      </trkpt>
      <trkpt lat="47.39135" lon="0.81747">
        <ele>40.993408203125</ele>
        <time>2013-06-28T10:49:53Z</time>
      </trkpt>
      <trkpt lat="47.39135" lon="0.81747">
        <ele>40.993408203125</ele>
        <time>2013-06-28T10:50:17Z</time>
      </trkpt>
      <trkpt lat="47.39137" lon="0.81745">
        <ele>44.358032226562</ele>
        <time>2013-06-28T10:50:28Z</time>
      </trkpt>
      <trkpt lat="47.39138" lon="0.81747">
        <ele>49.645263671875</ele>
        <time>2013-06-28T10:50:40Z</time>
      </trkpt>
      <trkpt lat="47.39136" lon="0.81749">
        <ele>53.009765625</ele>
        <time>2013-06-28T10:50:54Z</time>
      </trkpt>
      <trkpt lat="47.39135" lon="0.8175">
        <ele>50.606567382812</ele>
        <time>2013-06-28T10:51:01Z</time>
      </trkpt>
      <trkpt lat="47.39142" lon="0.8176">
        <ele>51.087158203125</ele>
        <time>2013-06-28T10:51:06Z</time>
      </trkpt>
      <trkpt lat="47.39156" lon="0.8177">
        <ele>52.529174804688</ele>
        <time>2013-06-28T10:51:15Z</time>
      </trkpt>
      <trkpt lat="47.39168" lon="0.81776">
        <ele>53.490478515625</ele>
        <time>2013-06-28T10:51:23Z</time>
      </trkpt>
      <trkpt lat="47.39169" lon="0.81775">
        <ele>52.048583984375</ele>
        <time>2013-06-28T10:51:36Z</time>
      </trkpt>
      <trkpt lat="47.39169" lon="0.81776">
        <ele>61.661743164062</ele>
        <time>2013-06-28T10:51:57Z</time>
      </trkpt>
      <trkpt lat="47.39168" lon="0.81778">
        <ele>59.739135742188</ele>
        <time>2013-06-28T10:52:09Z</time>
      </trkpt>
      <trkpt lat="47.39166" lon="0.81781">
        <ele>60.2197265625</ele>
        <time>2013-06-28T10:52:25Z</time>
      </trkpt>
      <trkpt lat="47.39166" lon="0.8178">
        <ele>58.777709960938</ele>
        <time>2013-06-28T10:52:45Z</time>
      </trkpt>
      <trkpt lat="47.39166" lon="0.8178">
        <ele>59.258422851562</ele>
        <time>2013-06-28T10:53:03Z</time>
      </trkpt>
      <trkpt lat="47.39167" lon="0.8178">
        <ele>57.335815429688</ele>
        <time>2013-06-28T10:53:22Z</time>
      </trkpt>
      <trkpt lat="47.39177" lon="0.81785">
        <ele>56.855102539062</ele>
        <time>2013-06-28T10:53:27Z</time>
      </trkpt>
      <trkpt lat="47.3918" lon="0.81786">
        <ele>56.37451171875</ele>
        <time>2013-06-28T10:53:28Z</time>
      </trkpt>
      <trkpt lat="47.39194" lon="0.8177">
        <ele>56.37451171875</ele>
        <time>2013-06-28T10:53:32Z</time>
      </trkpt>
      <trkpt lat="47.39202" lon="0.81753">
        <ele>55.893798828125</ele>
        <time>2013-06-28T10:53:35Z</time>
      </trkpt>
      <trkpt lat="47.39223" lon="0.81688">
        <ele>56.37451171875</ele>
        <time>2013-06-28T10:53:45Z</time>
      </trkpt>
      <trkpt lat="47.39245" lon="0.81624">
        <ele>57.816528320312</ele>
        <time>2013-06-28T10:53:55Z</time>
      </trkpt>
      <trkpt lat="47.39272" lon="0.81541">
        <ele>58.777709960938</ele>
        <time>2013-06-28T10:54:08Z</time>
      </trkpt>
      <trkpt lat="47.39295" lon="0.81465">
        <ele>58.777709960938</ele>
        <time>2013-06-28T10:54:19Z</time>
      </trkpt>
      <trkpt lat="47.39331" lon="0.81366">
        <ele>58.777709960938</ele>
        <time>2013-06-28T10:54:33Z</time>
      </trkpt>
      <trkpt lat="47.39369" lon="0.81288">
        <ele>58.777709960938</ele>
        <time>2013-06-28T10:54:45Z</time>
      </trkpt>
      <trkpt lat="47.39408" lon="0.81241">
        <ele>58.777709960938</ele>
        <time>2013-06-28T10:54:54Z</time>
      </trkpt>
      <trkpt lat="47.39452" lon="0.81181">
        <ele>58.777709960938</ele>
        <time>2013-06-28T10:55:05Z</time>
      </trkpt>
      <trkpt lat="47.39496" lon="0.81092">
        <ele>58.777709960938</ele>
        <time>2013-06-28T10:55:19Z</time>
      </trkpt>
      <trkpt lat="47.39526" lon="0.81028">
        <ele>58.297119140625</ele>
        <time>2013-06-28T10:55:28Z</time>
      </trkpt>
      <trkpt lat="47.39543" lon="0.80958">
        <ele>58.297119140625</ele>
        <time>2013-06-28T10:55:37Z</time>
      </trkpt>
      <trkpt lat="47.39573" lon="0.80861">
        <ele>58.297119140625</ele>
        <time>2013-06-28T10:55:50Z</time>
      </trkpt>
      <trkpt lat="47.39612" lon="0.80752">
        <ele>58.297119140625</ele>
        <time>2013-06-28T10:56:05Z</time>
      </trkpt>
      <trkpt lat="47.39669" lon="0.8063">
        <ele>58.777709960938</ele>
        <time>2013-06-28T10:56:23Z</time>
      </trkpt>
      <trkpt lat="47.39711" lon="0.80539">
        <ele>57.335815429688</ele>
        <time>2013-06-28T10:56:35Z</time>
      </trkpt>
      <trkpt lat="47.39743" lon="0.8046">
        <ele>55.893798828125</ele>
        <time>2013-06-28T10:56:44Z</time>
      </trkpt>
      <trkpt lat="47.39781" lon="0.80365">
        <ele>55.4130859375</ele>
        <time>2013-06-28T10:56:55Z</time>
      </trkpt>
      <trkpt lat="47.39832" lon="0.80254">
        <ele>55.4130859375</ele>
        <time>2013-06-28T10:57:09Z</time>
      </trkpt>
      <trkpt lat="47.39877" lon="0.80181">
        <ele>55.893798828125</ele>
        <time>2013-06-28T10:57:20Z</time>
      </trkpt>
      <trkpt lat="47.39931" lon="0.80082">
        <ele>55.893798828125</ele>
        <time>2013-06-28T10:57:35Z</time>
      </trkpt>
      <trkpt lat="47.39988" lon="0.79978">
        <ele>55.4130859375</ele>
        <time>2013-06-28T10:57:50Z</time>
      </trkpt>
      <trkpt lat="47.40031" lon="0.79887">
        <ele>54.932373046875</ele>
        <time>2013-06-28T10:58:02Z</time>
      </trkpt>
      <trkpt lat="47.40071" lon="0.79786">
        <ele>54.932373046875</ele>
        <time>2013-06-28T10:58:14Z</time>
      </trkpt>
      <trkpt lat="47.40093" lon="0.79719">
        <ele>54.932373046875</ele>
        <time>2013-06-28T10:58:21Z</time>
      </trkpt>
      <trkpt lat="47.40115" lon="0.79632">
        <ele>54.451782226562</ele>
        <time>2013-06-28T10:58:31Z</time>
      </trkpt>
      <trkpt lat="47.40124" lon="0.7956">
        <ele>53.97119140625</ele>
        <time>2013-06-28T10:58:39Z</time>
      </trkpt>
      <trkpt lat="47.4012" lon="0.79466">
        <ele>53.009765625</ele>
        <time>2013-06-28T10:58:49Z</time>
      </trkpt>
      <trkpt lat="47.40102" lon="0.7935">
        <ele>53.009765625</ele>
        <time>2013-06-28T10:59:02Z</time>
      </trkpt>
      <trkpt lat="47.40095" lon="0.79309">
        <ele>53.009765625</ele>
        <time>2013-06-28T10:59:07Z</time>
      </trkpt>
      <trkpt lat="47.40101" lon="0.79281">
        <ele>53.009765625</ele>
        <time>2013-06-28T10:59:11Z</time>
      </trkpt>
      <trkpt lat="47.40112" lon="0.79229">
        <ele>53.009765625</ele>
        <time>2013-06-28T10:59:18Z</time>
      </trkpt>
      <trkpt lat="47.40119" lon="0.79197">
        <ele>53.009765625</ele>
        <time>2013-06-28T10:59:22Z</time>
      </trkpt>
      <trkpt lat="47.40153" lon="0.79111">
        <ele>54.932373046875</ele>
        <time>2013-06-28T10:59:34Z</time>
      </trkpt>
      <trkpt lat="47.40189" lon="0.79026">
        <ele>56.855102539062</ele>
        <time>2013-06-28T10:59:47Z</time>
      </trkpt>
      <trkpt lat="47.40235" lon="0.7891">
        <ele>57.816528320312</ele>
        <time>2013-06-28T11:00:04Z</time>
      </trkpt>
      <trkpt lat="47.40262" lon="0.78812">
        <ele>57.816528320312</ele>
        <time>2013-06-28T11:00:16Z</time>
      </trkpt>
      <trkpt lat="47.40276" lon="0.78711">
        <ele>57.335815429688</ele>
        <time>2013-06-28T11:00:27Z</time>
      </trkpt>
      <trkpt lat="47.40287" lon="0.78568">
        <ele>55.893798828125</ele>
        <time>2013-06-28T11:00:43Z</time>
      </trkpt>
      <trkpt lat="47.40292" lon="0.78476">
        <ele>56.37451171875</ele>
        <time>2013-06-28T11:00:54Z</time>
      </trkpt>
      <trkpt lat="47.403" lon="0.78291">
        <ele>56.855102539062</ele>
        <time>2013-06-28T11:01:14Z</time>
      </trkpt>
      <trkpt lat="47.40304" lon="0.78098">
        <ele>56.855102539062</ele>
        <time>2013-06-28T11:01:34Z</time>
      </trkpt>
      <trkpt lat="47.40303" lon="0.77938">
        <ele>56.37451171875</ele>
        <time>2013-06-28T11:01:51Z</time>
      </trkpt>
      <trkpt lat="47.40297" lon="0.7779">
        <ele>56.37451171875</ele>
        <time>2013-06-28T11:02:07Z</time>
      </trkpt>
      <trkpt lat="47.40281" lon="0.77634">
        <ele>55.893798828125</ele>
        <time>2013-06-28T11:02:24Z</time>
      </trkpt>
      <trkpt lat="47.40264" lon="0.77463">
        <ele>55.4130859375</ele>
        <time>2013-06-28T11:02:42Z</time>
      </trkpt>
      <trkpt lat="47.40259" lon="0.7733">
        <ele>53.97119140625</ele>
        <time>2013-06-28T11:02:56Z</time>
      </trkpt>
      <trkpt lat="47.40267" lon="0.77218">
        <ele>54.451782226562</ele>
        <time>2013-06-28T11:03:08Z</time>
      </trkpt>
      <trkpt lat="47.40281" lon="0.77073">
        <ele>55.4130859375</ele>
        <time>2013-06-28T11:03:24Z</time>
      </trkpt>
      <trkpt lat="47.40287" lon="0.76992">
        <ele>55.893798828125</ele>
        <time>2013-06-28T11:03:34Z</time>
      </trkpt>
      <trkpt lat="47.40296" lon="0.76971">
        <ele>56.37451171875</ele>
        <time>2013-06-28T11:03:39Z</time>
      </trkpt>
      <trkpt lat="47.40305" lon="0.76974">
        <ele>55.893798828125</ele>
        <time>2013-06-28T11:03:44Z</time>
      </trkpt>
      <trkpt lat="47.40305" lon="0.76981">
        <ele>55.893798828125</ele>
        <time>2013-06-28T11:03:46Z</time>
      </trkpt>
      <trkpt lat="47.40301" lon="0.77006">
        <ele>54.932373046875</ele>
        <time>2013-06-28T11:03:51Z</time>
      </trkpt>
      <trkpt lat="47.40296" lon="0.77054">
        <ele>53.490478515625</ele>
        <time>2013-06-28T11:03:58Z</time>
      </trkpt>
      <trkpt lat="47.40302" lon="0.7705">
        <ele>53.97119140625</ele>
        <time>2013-06-28T11:04:03Z</time>
      </trkpt>
      <trkpt lat="47.40314" lon="0.76983">
        <ele>53.009765625</ele>
        <time>2013-06-28T11:04:12Z</time>
      </trkpt>
      <trkpt lat="47.40313" lon="0.76952">
        <ele>52.048583984375</ele>
        <time>2013-06-28T11:04:16Z</time>
      </trkpt>
      <trkpt lat="47.40335" lon="0.76874">
        <ele>51.087158203125</ele>
        <time>2013-06-28T11:04:26Z</time>
      </trkpt>
      <trkpt lat="47.40352" lon="0.76793">
        <ele>50.606567382812</ele>
        <time>2013-06-28T11:04:36Z</time>
      </trkpt>
      <trkpt lat="47.40375" lon="0.76697">
        <ele>50.606567382812</ele>
        <time>2013-06-28T11:04:48Z</time>
      </trkpt>
      <trkpt lat="47.40398" lon="0.76604">
        <ele>50.1259765625</ele>
        <time>2013-06-28T11:05:00Z</time>
      </trkpt>
      <trkpt lat="47.40415" lon="0.76571">
        <ele>51.087158203125</ele>
        <time>2013-06-28T11:05:06Z</time>
      </trkpt>
      <trkpt lat="47.4042" lon="0.76557">
        <ele>51.087158203125</ele>
        <time>2013-06-28T11:05:08Z</time>
      </trkpt>
      <trkpt lat="47.40438" lon="0.76475">
        <ele>51.087158203125</ele>
        <time>2013-06-28T11:05:18Z</time>
      </trkpt>
      <trkpt lat="47.40446" lon="0.76413">
        <ele>50.606567382812</ele>
        <time>2013-06-28T11:05:25Z</time>
      </trkpt>
      <trkpt lat="47.40446" lon="0.76395">
        <ele>50.606567382812</ele>
        <time>2013-06-28T11:05:27Z</time>
      </trkpt>
      <trkpt lat="47.40439" lon="0.76318">
        <ele>48.683959960938</ele>
        <time>2013-06-28T11:05:36Z</time>
      </trkpt>
      <trkpt lat="47.4043" lon="0.76196">
        <ele>47.241821289062</ele>
        <time>2013-06-28T11:05:50Z</time>
      </trkpt>
      <trkpt lat="47.40422" lon="0.761">
        <ele>46.280639648438</ele>
        <time>2013-06-28T11:06:01Z</time>
      </trkpt>
      <trkpt lat="47.40422" lon="0.76083">
        <ele>46.280639648438</ele>
        <time>2013-06-28T11:06:03Z</time>
      </trkpt>
      <trkpt lat="47.40426" lon="0.76058">
        <ele>45.799926757812</ele>
        <time>2013-06-28T11:06:06Z</time>
      </trkpt>
      <trkpt lat="47.40425" lon="0.76023">
        <ele>45.319213867188</ele>
        <time>2013-06-28T11:06:10Z</time>
      </trkpt>
      <trkpt lat="47.40419" lon="0.75952">
        <ele>45.319213867188</ele>
        <time>2013-06-28T11:06:18Z</time>
      </trkpt>
      <trkpt lat="47.40419" lon="0.75943">
        <ele>45.319213867188</ele>
        <time>2013-06-28T11:06:19Z</time>
      </trkpt>
      <trkpt lat="47.40376" lon="0.75902">
        <ele>45.319213867188</ele>
        <time>2013-06-28T11:06:25Z</time>
      </trkpt>
      <trkpt lat="47.40406" lon="0.75889">
        <ele>45.319213867188</ele>
        <time>2013-06-28T11:06:26Z</time>
      </trkpt>
      <trkpt lat="47.40387" lon="0.75784">
        <ele>46.280639648438</ele>
        <time>2013-06-28T11:06:38Z</time>
      </trkpt>
      <trkpt lat="47.4038" lon="0.7568">
        <ele>46.280639648438</ele>
        <time>2013-06-28T11:06:50Z</time>
      </trkpt>
      <trkpt lat="47.40387" lon="0.75619">
        <ele>45.799926757812</ele>
        <time>2013-06-28T11:06:57Z</time>
      </trkpt>
      <trkpt lat="47.40386" lon="0.75581">
        <ele>45.319213867188</ele>
        <time>2013-06-28T11:07:01Z</time>
      </trkpt>
      <trkpt lat="47.40373" lon="0.75471">
        <ele>43.877319335938</ele>
        <time>2013-06-28T11:07:13Z</time>
      </trkpt>
      <trkpt lat="47.40366" lon="0.75444">
        <ele>44.358032226562</ele>
        <time>2013-06-28T11:07:16Z</time>
      </trkpt>
      <trkpt lat="47.40352" lon="0.75412">
        <ele>44.838623046875</ele>
        <time>2013-06-28T11:07:20Z</time>
      </trkpt>
      <trkpt lat="47.40333" lon="0.75388">
        <ele>44.838623046875</ele>
        <time>2013-06-28T11:07:24Z</time>
      </trkpt>
      <trkpt lat="47.40326" lon="0.75356">
        <ele>44.358032226562</ele>
        <time>2013-06-28T11:07:28Z</time>
      </trkpt>
      <trkpt lat="47.40326" lon="0.75347">
        <ele>44.358032226562</ele>
        <time>2013-06-28T11:07:29Z</time>
      </trkpt>
      <trkpt lat="47.40323" lon="0.75329">
        <ele>43.877319335938</ele>
        <time>2013-06-28T11:07:31Z</time>
      </trkpt>
      <trkpt lat="47.40314" lon="0.75296">
        <ele>43.877319335938</ele>
        <time>2013-06-28T11:07:35Z</time>
      </trkpt>
      <trkpt lat="47.40311" lon="0.75279">
        <ele>43.877319335938</ele>
        <time>2013-06-28T11:07:37Z</time>
      </trkpt>
      <trkpt lat="47.40311" lon="0.75198">
        <ele>44.358032226562</ele>
        <time>2013-06-28T11:07:46Z</time>
      </trkpt>
      <trkpt lat="47.40291" lon="0.75131">
        <ele>44.358032226562</ele>
        <time>2013-06-28T11:07:54Z</time>
      </trkpt>
      <trkpt lat="47.40276" lon="0.75104">
        <ele>44.838623046875</ele>
        <time>2013-06-28T11:07:58Z</time>
      </trkpt>
      <trkpt lat="47.40256" lon="0.7505">
        <ele>46.76123046875</ele>
        <time>2013-06-28T11:08:05Z</time>
      </trkpt>
      <trkpt lat="47.40235" lon="0.74999">
        <ele>51.087158203125</ele>
        <time>2013-06-28T11:08:13Z</time>
      </trkpt>
      <trkpt lat="47.40216" lon="0.74944">
        <ele>53.490478515625</ele>
        <time>2013-06-28T11:08:22Z</time>
      </trkpt>
      <trkpt lat="47.40206" lon="0.74876">
        <ele>53.97119140625</ele>
        <time>2013-06-28T11:08:32Z</time>
      </trkpt>
      <trkpt lat="47.40201" lon="0.74815">
        <ele>53.97119140625</ele>
        <time>2013-06-28T11:08:41Z</time>
      </trkpt>
      <trkpt lat="47.40193" lon="0.7477">
        <ele>52.048583984375</ele>
        <time>2013-06-28T11:08:46Z</time>
      </trkpt>
      <trkpt lat="47.40173" lon="0.74658">
        <ele>50.1259765625</ele>
        <time>2013-06-28T11:08:57Z</time>
      </trkpt>
      <trkpt lat="47.40151" lon="0.74576">
        <ele>50.606567382812</ele>
        <time>2013-06-28T11:09:07Z</time>
      </trkpt>
      <trkpt lat="47.40135" lon="0.74477">
        <ele>51.087158203125</ele>
        <time>2013-06-28T11:09:19Z</time>
      </trkpt>
      <trkpt lat="47.40121" lon="0.74381">
        <ele>51.56787109375</ele>
        <time>2013-06-28T11:09:31Z</time>
      </trkpt>
      <trkpt lat="47.401" lon="0.74295">
        <ele>52.048583984375</ele>
        <time>2013-06-28T11:09:42Z</time>
      </trkpt>
      <trkpt lat="47.40075" lon="0.74191">
        <ele>51.56787109375</ele>
        <time>2013-06-28T11:09:55Z</time>
      </trkpt>
      <trkpt lat="47.40054" lon="0.74073">
        <ele>51.56787109375</ele>
        <time>2013-06-28T11:10:09Z</time>
      </trkpt>
      <trkpt lat="47.4004" lon="0.73941">
        <ele>50.606567382812</ele>
        <time>2013-06-28T11:10:24Z</time>
      </trkpt>
      <trkpt lat="47.40041" lon="0.73847">
        <ele>50.1259765625</ele>
        <time>2013-06-28T11:10:35Z</time>
      </trkpt>
      <trkpt lat="47.40044" lon="0.73794">
        <ele>51.087158203125</ele>
        <time>2013-06-28T11:10:42Z</time>
      </trkpt>
      <trkpt lat="47.40039" lon="0.73669">
        <ele>50.1259765625</ele>
        <time>2013-06-28T11:10:56Z</time>
      </trkpt>
      <trkpt lat="47.40036" lon="0.73582">
        <ele>48.203369140625</ele>
        <time>2013-06-28T11:11:06Z</time>
      </trkpt>
      <trkpt lat="47.40021" lon="0.73522">
        <ele>47.241821289062</ele>
        <time>2013-06-28T11:11:13Z</time>
      </trkpt>
      <trkpt lat="47.40002" lon="0.73444">
        <ele>46.280639648438</ele>
        <time>2013-06-28T11:11:22Z</time>
      </trkpt>
      <trkpt lat="47.39998" lon="0.73397">
        <ele>46.76123046875</ele>
        <time>2013-06-28T11:11:27Z</time>
      </trkpt>
      <trkpt lat="47.39989" lon="0.73363">
        <ele>47.241821289062</ele>
        <time>2013-06-28T11:11:31Z</time>
      </trkpt>
      <trkpt lat="47.39953" lon="0.73283">
        <ele>48.203369140625</ele>
        <time>2013-06-28T11:11:41Z</time>
      </trkpt>
      <trkpt lat="47.39918" lon="0.73208">
        <ele>48.203369140625</ele>
        <time>2013-06-28T11:11:51Z</time>
      </trkpt>
      <trkpt lat="47.39866" lon="0.73072">
        <ele>49.645263671875</ele>
        <time>2013-06-28T11:12:08Z</time>
      </trkpt>
      <trkpt lat="47.39819" lon="0.72949">
        <ele>50.606567382812</ele>
        <time>2013-06-28T11:12:23Z</time>
      </trkpt>
      <trkpt lat="47.398" lon="0.72886">
        <ele>50.606567382812</ele>
        <time>2013-06-28T11:12:31Z</time>
      </trkpt>
      <trkpt lat="47.39782" lon="0.72811">
        <ele>50.606567382812</ele>
        <time>2013-06-28T11:12:40Z</time>
      </trkpt>
      <trkpt lat="47.39757" lon="0.72737">
        <ele>51.087158203125</ele>
        <time>2013-06-28T11:12:49Z</time>
      </trkpt>
      <trkpt lat="47.39723" lon="0.72638">
        <ele>51.087158203125</ele>
        <time>2013-06-28T11:13:01Z</time>
      </trkpt>
      <trkpt lat="47.39706" lon="0.72548">
        <ele>49.16455078125</ele>
        <time>2013-06-28T11:13:11Z</time>
      </trkpt>
      <trkpt lat="47.39696" lon="0.72438">
        <ele>50.606567382812</ele>
        <time>2013-06-28T11:13:23Z</time>
      </trkpt>
      <trkpt lat="47.39692" lon="0.72344">
        <ele>50.606567382812</ele>
        <time>2013-06-28T11:13:34Z</time>
      </trkpt>
      <trkpt lat="47.39693" lon="0.72241">
        <ele>48.683959960938</ele>
        <time>2013-06-28T11:13:46Z</time>
      </trkpt>
      <trkpt lat="47.39698" lon="0.72155">
        <ele>48.683959960938</ele>
        <time>2013-06-28T11:13:56Z</time>
      </trkpt>
      <trkpt lat="47.39698" lon="0.72065">
        <ele>48.683959960938</ele>
        <time>2013-06-28T11:14:06Z</time>
      </trkpt>
      <trkpt lat="47.39699" lon="0.71949">
        <ele>48.683959960938</ele>
        <time>2013-06-28T11:14:19Z</time>
      </trkpt>
      <trkpt lat="47.397" lon="0.71839">
        <ele>49.16455078125</ele>
        <time>2013-06-28T11:14:31Z</time>
      </trkpt>
      <trkpt lat="47.39701" lon="0.71731">
        <ele>49.16455078125</ele>
        <time>2013-06-28T11:14:43Z</time>
      </trkpt>
      <trkpt lat="47.39703" lon="0.71614">
        <ele>48.203369140625</ele>
        <time>2013-06-28T11:14:56Z</time>
      </trkpt>
      <trkpt lat="47.397" lon="0.71505">
        <ele>47.722534179688</ele>
        <time>2013-06-28T11:15:08Z</time>
      </trkpt>
      <trkpt lat="47.39705" lon="0.71377">
        <ele>47.722534179688</ele>
        <time>2013-06-28T11:15:22Z</time>
      </trkpt>
      <trkpt lat="47.39706" lon="0.71268">
        <ele>48.203369140625</ele>
        <time>2013-06-28T11:15:34Z</time>
      </trkpt>
      <trkpt lat="47.39703" lon="0.71161">
        <ele>48.203369140625</ele>
        <time>2013-06-28T11:15:46Z</time>
      </trkpt>
      <trkpt lat="47.39703" lon="0.71048">
        <ele>48.683959960938</ele>
        <time>2013-06-28T11:15:59Z</time>
      </trkpt>
      <trkpt lat="47.39701" lon="0.70958">
        <ele>50.1259765625</ele>
        <time>2013-06-28T11:16:10Z</time>
      </trkpt>
      <trkpt lat="47.39701" lon="0.70871">
        <ele>52.048583984375</ele>
        <time>2013-06-28T11:16:22Z</time>
      </trkpt>
      <trkpt lat="47.39701" lon="0.70858">
        <ele>52.529174804688</ele>
        <time>2013-06-28T11:16:24Z</time>
      </trkpt>
      <trkpt lat="47.39702" lon="0.70846">
        <ele>53.490478515625</ele>
        <time>2013-06-28T11:16:26Z</time>
      </trkpt>
      <trkpt lat="47.39706" lon="0.70702">
        <ele>53.97119140625</ele>
        <time>2013-06-28T11:16:46Z</time>
      </trkpt>
      <trkpt lat="47.39711" lon="0.70616">
        <ele>53.009765625</ele>
        <time>2013-06-28T11:16:58Z</time>
      </trkpt>
      <trkpt lat="47.39714" lon="0.70584">
        <ele>53.009765625</ele>
        <time>2013-06-28T11:17:03Z</time>
      </trkpt>
      <trkpt lat="47.39711" lon="0.70566">
        <ele>52.529174804688</ele>
        <time>2013-06-28T11:17:06Z</time>
      </trkpt>
      <trkpt lat="47.39712" lon="0.7054">
        <ele>53.009765625</ele>
        <time>2013-06-28T11:17:10Z</time>
      </trkpt>
      <trkpt lat="47.39721" lon="0.70454">
        <ele>54.451782226562</ele>
        <time>2013-06-28T11:17:23Z</time>
      </trkpt>
      <trkpt lat="47.39732" lon="0.70388">
        <ele>53.97119140625</ele>
        <time>2013-06-28T11:17:33Z</time>
      </trkpt>
      <trkpt lat="47.39743" lon="0.70311">
        <ele>53.009765625</ele>
        <time>2013-06-28T11:17:43Z</time>
      </trkpt>
      <trkpt lat="47.39756" lon="0.70194">
        <ele>52.529174804688</ele>
        <time>2013-06-28T11:17:57Z</time>
      </trkpt>
      <trkpt lat="47.39764" lon="0.70102">
        <ele>51.56787109375</ele>
        <time>2013-06-28T11:18:08Z</time>
      </trkpt>
      <trkpt lat="47.39766" lon="0.70026">
        <ele>51.087158203125</ele>
        <time>2013-06-28T11:18:18Z</time>
      </trkpt>
      <trkpt lat="47.39767" lon="0.69956">
        <ele>52.529174804688</ele>
        <time>2013-06-28T11:18:28Z</time>
      </trkpt>
      <trkpt lat="47.39768" lon="0.6995">
        <ele>53.009765625</ele>
        <time>2013-06-28T11:18:33Z</time>
      </trkpt>
      <trkpt lat="47.39767" lon="0.6995">
        <ele>53.490478515625</ele>
        <time>2013-06-28T11:18:52Z</time>
      </trkpt>
      <trkpt lat="47.39766" lon="0.69947">
        <ele>53.97119140625</ele>
        <time>2013-06-28T11:18:58Z</time>
      </trkpt>
      <trkpt lat="47.39766" lon="0.69947">
        <ele>56.855102539062</ele>
        <time>2013-06-28T11:19:17Z</time>
      </trkpt>
      <trkpt lat="47.39766" lon="0.69947">
        <ele>55.4130859375</ele>
        <time>2013-06-28T11:19:34Z</time>
      </trkpt>
      <trkpt lat="47.39766" lon="0.69948">
        <ele>56.37451171875</ele>
        <time>2013-06-28T11:19:54Z</time>
      </trkpt>
      <trkpt lat="47.39766" lon="0.69948">
        <ele>56.37451171875</ele>
        <time>2013-06-28T11:20:12Z</time>
      </trkpt>
      <trkpt lat="47.39766" lon="0.69948">
        <ele>56.37451171875</ele>
        <time>2013-06-28T11:20:31Z</time>
      </trkpt>
      <trkpt lat="47.39766" lon="0.69948">
        <ele>55.893798828125</ele>
        <time>2013-06-28T11:20:45Z</time>
      </trkpt>
      <trkpt lat="47.39764" lon="0.69921">
        <ele>55.893798828125</ele>
        <time>2013-06-28T11:20:51Z</time>
      </trkpt>
      <trkpt lat="47.39763" lon="0.69902">
        <ele>54.932373046875</ele>
        <time>2013-06-28T11:20:54Z</time>
      </trkpt>
      <trkpt lat="47.39764" lon="0.69813">
        <ele>53.490478515625</ele>
        <time>2013-06-28T11:21:07Z</time>
      </trkpt>
      <trkpt lat="47.39768" lon="0.69734">
        <ele>53.009765625</ele>
        <time>2013-06-28T11:21:17Z</time>
      </trkpt>
      <trkpt lat="47.39764" lon="0.69528">
        <ele>52.529174804688</ele>
        <time>2013-06-28T11:21:44Z</time>
      </trkpt>
      <trkpt lat="47.39762" lon="0.6947">
        <ele>52.529174804688</ele>
        <time>2013-06-28T11:21:53Z</time>
      </trkpt>
      <trkpt lat="47.3976" lon="0.69387">
        <ele>53.490478515625</ele>
        <time>2013-06-28T11:22:04Z</time>
      </trkpt>
      <trkpt lat="47.39759" lon="0.69314">
        <ele>53.97119140625</ele>
        <time>2013-06-28T11:22:15Z</time>
      </trkpt>
      <trkpt lat="47.39758" lon="0.69263">
        <ele>53.009765625</ele>
        <time>2013-06-28T11:22:24Z</time>
      </trkpt>
      <trkpt lat="47.3976" lon="0.69237">
        <ele>53.97119140625</ele>
        <time>2013-06-28T11:22:29Z</time>
      </trkpt>
      <trkpt lat="47.39761" lon="0.69234">
        <ele>54.932373046875</ele>
        <time>2013-06-28T11:22:36Z</time>
      </trkpt>
      <trkpt lat="47.39758" lon="0.6923">
        <ele>54.932373046875</ele>
        <time>2013-06-28T11:22:46Z</time>
      </trkpt>
      <trkpt lat="47.39757" lon="0.69231">
        <ele>55.4130859375</ele>
        <time>2013-06-28T11:22:48Z</time>
      </trkpt>
      <trkpt lat="47.39759" lon="0.69235">
        <ele>54.932373046875</ele>
        <time>2013-06-28T11:22:55Z</time>
      </trkpt>
      <trkpt lat="47.39761" lon="0.69238">
        <ele>59.258422851562</ele>
        <time>2013-06-28T11:23:07Z</time>
      </trkpt>
      <trkpt lat="47.3976" lon="0.69241">
        <ele>59.739135742188</ele>
        <time>2013-06-28T11:23:19Z</time>
      </trkpt>
      <trkpt lat="47.39759" lon="0.69247">
        <ele>58.297119140625</ele>
        <time>2013-06-28T11:23:34Z</time>
      </trkpt>
      <trkpt lat="47.39758" lon="0.69248">
        <ele>58.297119140625</ele>
        <time>2013-06-28T11:23:38Z</time>
      </trkpt>
      <trkpt lat="47.39746" lon="0.69087">
        <ele>53.97119140625</ele>
        <time>2013-06-28T11:24:06Z</time>
      </trkpt>
      <trkpt lat="47.39742" lon="0.69022">
        <ele>53.490478515625</ele>
        <time>2013-06-28T11:24:13Z</time>
      </trkpt>
      <trkpt lat="47.39735" lon="0.68946">
        <ele>53.490478515625</ele>
        <time>2013-06-28T11:24:22Z</time>
      </trkpt>
      <trkpt lat="47.39727" lon="0.68896">
        <ele>53.490478515625</ele>
        <time>2013-06-28T11:24:31Z</time>
      </trkpt>
      <trkpt lat="47.39726" lon="0.68881">
        <ele>53.97119140625</ele>
        <time>2013-06-28T11:24:39Z</time>
      </trkpt>
      <trkpt lat="47.39725" lon="0.68874">
        <ele>54.451782226562</ele>
        <time>2013-06-28T11:24:46Z</time>
      </trkpt>
      <trkpt lat="47.3972" lon="0.68846">
        <ele>54.932373046875</ele>
        <time>2013-06-28T11:24:52Z</time>
      </trkpt>
      <trkpt lat="47.39705" lon="0.68794">
        <ele>53.009765625</ele>
        <time>2013-06-28T11:25:01Z</time>
      </trkpt>
      <trkpt lat="47.39695" lon="0.68723">
        <ele>53.490478515625</ele>
        <time>2013-06-28T11:25:10Z</time>
      </trkpt>
      <trkpt lat="47.39689" lon="0.68675">
        <ele>54.451782226562</ele>
        <time>2013-06-28T11:25:18Z</time>
      </trkpt>
      <trkpt lat="47.39684" lon="0.68616">
        <ele>55.4130859375</ele>
        <time>2013-06-28T11:25:28Z</time>
      </trkpt>
      <trkpt lat="47.39684" lon="0.686">
        <ele>55.4130859375</ele>
        <time>2013-06-28T11:25:33Z</time>
      </trkpt>
      <trkpt lat="47.39685" lon="0.68589">
        <ele>56.855102539062</ele>
        <time>2013-06-28T11:25:49Z</time>
      </trkpt>
      <trkpt lat="47.39676" lon="0.68556">
        <ele>56.855102539062</ele>
        <time>2013-06-28T11:25:56Z</time>
      </trkpt>
      <trkpt lat="47.39665" lon="0.68496">
        <ele>55.893798828125</ele>
        <time>2013-06-28T11:26:05Z</time>
      </trkpt>
      <trkpt lat="47.3965" lon="0.68416">
        <ele>52.529174804688</ele>
        <time>2013-06-28T11:26:16Z</time>
      </trkpt>
      <trkpt lat="47.39649" lon="0.68404">
        <ele>52.048583984375</ele>
        <time>2013-06-28T11:26:18Z</time>
      </trkpt>
      <trkpt lat="47.39654" lon="0.68381">
        <ele>50.606567382812</ele>
        <time>2013-06-28T11:26:23Z</time>
      </trkpt>
      <trkpt lat="47.39652" lon="0.68371">
        <ele>51.087158203125</ele>
        <time>2013-06-28T11:26:27Z</time>
      </trkpt>
      <trkpt lat="47.3966" lon="0.68354">
        <ele>51.087158203125</ele>
        <time>2013-06-28T11:26:34Z</time>
      </trkpt>
      <trkpt lat="47.3966" lon="0.68347">
        <ele>51.087158203125</ele>
        <time>2013-06-28T11:26:37Z</time>
      </trkpt>
      <trkpt lat="47.39658" lon="0.68346">
        <ele>50.606567382812</ele>
        <time>2013-06-28T11:26:43Z</time>
      </trkpt>
      <trkpt lat="47.39657" lon="0.68345">
        <ele>50.606567382812</ele>
        <time>2013-06-28T11:26:44Z</time>
      </trkpt>
      <trkpt lat="47.39649" lon="0.68347">
        <ele>51.087158203125</ele>
        <time>2013-06-28T11:26:48Z</time>
      </trkpt>
      <trkpt lat="47.39638" lon="0.6834">
        <ele>51.087158203125</ele>
        <time>2013-06-28T11:26:54Z</time>
      </trkpt>
      <trkpt lat="47.39607" lon="0.68165">
        <ele>47.241821289062</ele>
        <time>2013-06-28T11:27:17Z</time>
      </trkpt>
      <trkpt lat="47.39597" lon="0.68081">
        <ele>45.319213867188</ele>
        <time>2013-06-28T11:27:27Z</time>
      </trkpt>
      <trkpt lat="47.39559" lon="0.67865">
        <ele>45.799926757812</ele>
        <time>2013-06-28T11:27:51Z</time>
      </trkpt>
      <trkpt lat="47.39553" lon="0.67832">
        <ele>45.319213867188</ele>
        <time>2013-06-28T11:27:55Z</time>
      </trkpt>
      <trkpt lat="47.39545" lon="0.67793">
        <ele>45.799926757812</ele>
        <time>2013-06-28T11:28:00Z</time>
      </trkpt>
      <trkpt lat="47.39537" lon="0.67747">
        <ele>45.319213867188</ele>
        <time>2013-06-28T11:28:06Z</time>
      </trkpt>
      <trkpt lat="47.39534" lon="0.67712">
        <ele>45.799926757812</ele>
        <time>2013-06-28T11:28:11Z</time>
      </trkpt>
      <trkpt lat="47.3953" lon="0.67699">
        <ele>46.280639648438</ele>
        <time>2013-06-28T11:28:13Z</time>
      </trkpt>
      <trkpt lat="47.39525" lon="0.67669">
        <ele>45.799926757812</ele>
        <time>2013-06-28T11:28:17Z</time>
      </trkpt>
      <trkpt lat="47.39525" lon="0.67653">
        <ele>45.319213867188</ele>
        <time>2013-06-28T11:28:19Z</time>
      </trkpt>
      <trkpt lat="47.39535" lon="0.67584">
        <ele>43.877319335938</ele>
        <time>2013-06-28T11:28:28Z</time>
      </trkpt>
      <trkpt lat="47.3954" lon="0.6757">
        <ele>42.916015625</ele>
        <time>2013-06-28T11:28:32Z</time>
      </trkpt>
      <trkpt lat="47.39547" lon="0.6754">
        <ele>41.954711914062</ele>
        <time>2013-06-28T11:28:40Z</time>
      </trkpt>
      <trkpt lat="47.39548" lon="0.67534">
        <ele>42.435424804688</ele>
        <time>2013-06-28T11:28:41Z</time>
      </trkpt>
      <trkpt lat="47.39551" lon="0.67498">
        <ele>42.916015625</ele>
        <time>2013-06-28T11:28:46Z</time>
      </trkpt>
      <trkpt lat="47.39532" lon="0.67411">
        <ele>43.877319335938</ele>
        <time>2013-06-28T11:28:57Z</time>
      </trkpt>
      <trkpt lat="47.39523" lon="0.67354">
        <ele>43.877319335938</ele>
        <time>2013-06-28T11:29:05Z</time>
      </trkpt>
      <trkpt lat="47.39513" lon="0.67287">
        <ele>41.954711914062</ele>
        <time>2013-06-28T11:29:15Z</time>
      </trkpt>
      <trkpt lat="47.39493" lon="0.67173">
        <ele>41.473999023438</ele>
        <time>2013-06-28T11:29:29Z</time>
      </trkpt>
      <trkpt lat="47.39476" lon="0.67017">
        <ele>44.838623046875</ele>
        <time>2013-06-28T11:29:42Z</time>
      </trkpt>
      <trkpt lat="47.39457" lon="0.66908">
        <ele>45.799926757812</ele>
        <time>2013-06-28T11:29:54Z</time>
      </trkpt>
      <trkpt lat="47.39435" lon="0.66813">
        <ele>47.241821289062</ele>
        <time>2013-06-28T11:30:06Z</time>
      </trkpt>
      <trkpt lat="47.39426" lon="0.66753">
        <ele>45.319213867188</ele>
        <time>2013-06-28T11:30:17Z</time>
      </trkpt>
      <trkpt lat="47.3942" lon="0.66713">
        <ele>47.241821289062</ele>
        <time>2013-06-28T11:30:25Z</time>
      </trkpt>
      <trkpt lat="47.39412" lon="0.66653">
        <ele>48.203369140625</ele>
        <time>2013-06-28T11:30:33Z</time>
      </trkpt>
      <trkpt lat="47.39397" lon="0.66565">
        <ele>49.16455078125</ele>
        <time>2013-06-28T11:30:44Z</time>
      </trkpt>
      <trkpt lat="47.39377" lon="0.66443">
        <ele>47.241821289062</ele>
        <time>2013-06-28T11:30:58Z</time>
      </trkpt>
      <trkpt lat="47.39373" lon="0.6638">
        <ele>46.76123046875</ele>
        <time>2013-06-28T11:31:07Z</time>
      </trkpt>
      <trkpt lat="47.3937" lon="0.66323">
        <ele>46.280639648438</ele>
        <time>2013-06-28T11:31:17Z</time>
      </trkpt>
      <trkpt lat="47.39366" lon="0.66271">
        <ele>45.799926757812</ele>
        <time>2013-06-28T11:31:24Z</time>
      </trkpt>
      <trkpt lat="47.39352" lon="0.66166">
        <ele>48.683959960938</ele>
        <time>2013-06-28T11:31:36Z</time>
      </trkpt>
      <trkpt lat="47.39331" lon="0.66076">
        <ele>49.16455078125</ele>
        <time>2013-06-28T11:31:46Z</time>
      </trkpt>
      <trkpt lat="47.39288" lon="0.65949">
        <ele>49.645263671875</ele>
        <time>2013-06-28T11:32:00Z</time>
      </trkpt>
      <trkpt lat="47.39242" lon="0.65829">
        <ele>49.16455078125</ele>
        <time>2013-06-28T11:32:13Z</time>
      </trkpt>
      <trkpt lat="47.39203" lon="0.65723">
        <ele>49.645263671875</ele>
        <time>2013-06-28T11:32:24Z</time>
      </trkpt>
      <trkpt lat="47.39154" lon="0.65532">
        <ele>101.55639648438</ele>
        <time>2013-06-28T11:32:40Z</time>
      </trkpt>
      <trkpt lat="47.39153" lon="0.65431">
        <ele>69.832885742188</ele>
        <time>2013-06-28T11:32:55Z</time>
      </trkpt>
      <trkpt lat="47.39127" lon="0.65298">
        <ele>61.661743164062</ele>
        <time>2013-06-28T11:33:09Z</time>
      </trkpt>
      <trkpt lat="47.39095" lon="0.65188">
        <ele>56.855102539062</ele>
        <time>2013-06-28T11:33:21Z</time>
      </trkpt>
      <trkpt lat="47.39047" lon="0.65038">
        <ele>51.087158203125</ele>
        <time>2013-06-28T11:33:37Z</time>
      </trkpt>
      <trkpt lat="47.39022" lon="0.64953">
        <ele>48.203369140625</ele>
        <time>2013-06-28T11:33:45Z</time>
      </trkpt>
      <trkpt lat="47.39001" lon="0.64878">
        <ele>45.799926757812</ele>
        <time>2013-06-28T11:33:52Z</time>
      </trkpt>
      <trkpt lat="47.38985" lon="0.64782">
        <ele>45.319213867188</ele>
        <time>2013-06-28T11:34:02Z</time>
      </trkpt>
      <trkpt lat="47.38969" lon="0.64723">
        <ele>47.241821289062</ele>
        <time>2013-06-28T11:34:10Z</time>
      </trkpt>
      <trkpt lat="47.38941" lon="0.64681">
        <ele>49.645263671875</ele>
        <time>2013-06-28T11:34:17Z</time>
      </trkpt>
      <trkpt lat="47.38907" lon="0.64656">
        <ele>51.56787109375</ele>
        <time>2013-06-28T11:34:24Z</time>
      </trkpt>
      <trkpt lat="47.38891" lon="0.64651">
        <ele>52.048583984375</ele>
        <time>2013-06-28T11:34:27Z</time>
      </trkpt>
      <trkpt lat="47.3884" lon="0.64655">
        <ele>52.529174804688</ele>
        <time>2013-06-28T11:34:36Z</time>
      </trkpt>
      <trkpt lat="47.38794" lon="0.64683">
        <ele>51.56787109375</ele>
        <time>2013-06-28T11:34:44Z</time>
      </trkpt>
      <trkpt lat="47.38756" lon="0.64722">
        <ele>51.087158203125</ele>
        <time>2013-06-28T11:34:52Z</time>
      </trkpt>
      <trkpt lat="47.38736" lon="0.6475">
        <ele>50.606567382812</ele>
        <time>2013-06-28T11:34:57Z</time>
      </trkpt>
      <trkpt lat="47.38725" lon="0.64779">
        <ele>50.1259765625</ele>
        <time>2013-06-28T11:35:01Z</time>
      </trkpt>
      <trkpt lat="47.38719" lon="0.64813">
        <ele>49.645263671875</ele>
        <time>2013-06-28T11:35:07Z</time>
      </trkpt>
      <trkpt lat="47.38719" lon="0.64815">
        <ele>49.645263671875</ele>
        <time>2013-06-28T11:35:12Z</time>
      </trkpt>
      <trkpt lat="47.38718" lon="0.64816">
        <ele>50.1259765625</ele>
        <time>2013-06-28T11:35:27Z</time>
      </trkpt>
      <trkpt lat="47.38718" lon="0.64818">
        <ele>49.645263671875</ele>
        <time>2013-06-28T11:35:39Z</time>
      </trkpt>
      <trkpt lat="47.38716" lon="0.64819">
        <ele>50.1259765625</ele>
        <time>2013-06-28T11:35:48Z</time>
      </trkpt>
      <trkpt lat="47.38712" lon="0.6482">
        <ele>49.16455078125</ele>
        <time>2013-06-28T11:35:58Z</time>
      </trkpt>
      <trkpt lat="47.3871" lon="0.64815">
        <ele>49.16455078125</ele>
        <time>2013-06-28T11:36:10Z</time>
      </trkpt>
      <trkpt lat="47.38709" lon="0.64815">
        <ele>49.645263671875</ele>
        <time>2013-06-28T11:36:25Z</time>
      </trkpt>
      <trkpt lat="47.38709" lon="0.64814">
        <ele>49.645263671875</ele>
        <time>2013-06-28T11:36:52Z</time>
      </trkpt>
      <trkpt lat="47.38709" lon="0.64814">
        <ele>49.645263671875</ele>
        <time>2013-06-28T11:36:54Z</time>
      </trkpt>
      <trkpt lat="47.38715" lon="0.64787">
        <ele>49.645263671875</ele>
        <time>2013-06-28T11:37:02Z</time>
      </trkpt>
      <trkpt lat="47.38726" lon="0.64745">
        <ele>49.16455078125</ele>
        <time>2013-06-28T11:37:11Z</time>
      </trkpt>
      <trkpt lat="47.38749" lon="0.64708">
        <ele>49.645263671875</ele>
        <time>2013-06-28T11:37:20Z</time>
      </trkpt>
      <trkpt lat="47.38758" lon="0.64698">
        <ele>49.16455078125</ele>
        <time>2013-06-28T11:37:23Z</time>
      </trkpt>
      <trkpt lat="47.38783" lon="0.64665">
        <ele>49.16455078125</ele>
        <time>2013-06-28T11:37:31Z</time>
      </trkpt>
      <trkpt lat="47.38808" lon="0.64641">
        <ele>47.722534179688</ele>
        <time>2013-06-28T11:37:38Z</time>
      </trkpt>
      <trkpt lat="47.3885" lon="0.64623">
        <ele>47.241821289062</ele>
        <time>2013-06-28T11:37:48Z</time>
      </trkpt>
      <trkpt lat="47.38887" lon="0.64621">
        <ele>46.76123046875</ele>
        <time>2013-06-28T11:37:57Z</time>
      </trkpt>
      <trkpt lat="47.38892" lon="0.64621">
        <ele>46.76123046875</ele>
        <time>2013-06-28T11:37:58Z</time>
      </trkpt>
      <trkpt lat="47.38917" lon="0.64629">
        <ele>47.722534179688</ele>
        <time>2013-06-28T11:38:05Z</time>
      </trkpt>
      <trkpt lat="47.38932" lon="0.64636">
        <ele>50.1259765625</ele>
        <time>2013-06-28T11:38:12Z</time>
      </trkpt>
      <trkpt lat="47.38938" lon="0.64644">
        <ele>51.087158203125</ele>
        <time>2013-06-28T11:38:16Z</time>
      </trkpt>
      <trkpt lat="47.38942" lon="0.64632">
        <ele>50.1259765625</ele>
        <time>2013-06-28T11:38:21Z</time>
      </trkpt>
      <trkpt lat="47.38942" lon="0.6459">
        <ele>49.645263671875</ele>
        <time>2013-06-28T11:38:28Z</time>
      </trkpt>
      <trkpt lat="47.38942" lon="0.64545">
        <ele>50.1259765625</ele>
        <time>2013-06-28T11:38:36Z</time>
      </trkpt>
      <trkpt lat="47.38935" lon="0.64502">
        <ele>49.645263671875</ele>
        <time>2013-06-28T11:38:44Z</time>
      </trkpt>
      <trkpt lat="47.38925" lon="0.64462">
        <ele>47.241821289062</ele>
        <time>2013-06-28T11:38:51Z</time>
      </trkpt>
      <trkpt lat="47.38912" lon="0.64403">
        <ele>47.241821289062</ele>
        <time>2013-06-28T11:39:01Z</time>
      </trkpt>
      <trkpt lat="47.38894" lon="0.64361">
        <ele>47.241821289062</ele>
        <time>2013-06-28T11:39:10Z</time>
      </trkpt>
      <trkpt lat="47.38863" lon="0.64303">
        <ele>47.241821289062</ele>
        <time>2013-06-28T11:39:20Z</time>
      </trkpt>
      <trkpt lat="47.38844" lon="0.64279">
        <ele>47.722534179688</ele>
        <time>2013-06-28T11:39:27Z</time>
      </trkpt>
      <trkpt lat="47.38827" lon="0.64282">
        <ele>48.203369140625</ele>
        <time>2013-06-28T11:39:35Z</time>
      </trkpt>
      <trkpt lat="47.38816" lon="0.64282">
        <ele>48.203369140625</ele>
        <time>2013-06-28T11:39:39Z</time>
      </trkpt>
      <trkpt lat="47.38808" lon="0.64279">
        <ele>47.722534179688</ele>
        <time>2013-06-28T11:39:43Z</time>
      </trkpt>
      <trkpt lat="47.3878" lon="0.6428">
        <ele>47.241821289062</ele>
        <time>2013-06-28T11:39:51Z</time>
      </trkpt>
      <trkpt lat="47.38754" lon="0.64289">
        <ele>49.16455078125</ele>
        <time>2013-06-28T11:39:58Z</time>
      </trkpt>
      <trkpt lat="47.38752" lon="0.6429">
        <ele>49.16455078125</ele>
        <time>2013-06-28T11:39:59Z</time>
      </trkpt>
      <trkpt lat="47.38741" lon="0.64282">
        <ele>49.645263671875</ele>
        <time>2013-06-28T11:40:03Z</time>
      </trkpt>
      <trkpt lat="47.38712" lon="0.6424">
        <ele>50.606567382812</ele>
        <time>2013-06-28T11:40:13Z</time>
      </trkpt>
      <trkpt lat="47.38693" lon="0.64201">
        <ele>51.087158203125</ele>
        <time>2013-06-28T11:40:21Z</time>
      </trkpt>
      <trkpt lat="47.38678" lon="0.64134">
        <ele>52.048583984375</ele>
        <time>2013-06-28T11:40:32Z</time>
      </trkpt>
      <trkpt lat="47.38666" lon="0.6407">
        <ele>52.529174804688</ele>
        <time>2013-06-28T11:40:42Z</time>
      </trkpt>
      <trkpt lat="47.38656" lon="0.64026">
        <ele>53.490478515625</ele>
        <time>2013-06-28T11:40:49Z</time>
      </trkpt>
      <trkpt lat="47.38641" lon="0.63956">
        <ele>53.97119140625</ele>
        <time>2013-06-28T11:40:59Z</time>
      </trkpt>
      <trkpt lat="47.38624" lon="0.63876">
        <ele>53.97119140625</ele>
        <time>2013-06-28T11:41:10Z</time>
      </trkpt>
      <trkpt lat="47.38601" lon="0.63819">
        <ele>53.97119140625</ele>
        <time>2013-06-28T11:41:19Z</time>
      </trkpt>
      <trkpt lat="47.38573" lon="0.63757">
        <ele>53.97119140625</ele>
        <time>2013-06-28T11:41:29Z</time>
      </trkpt>
      <trkpt lat="47.38546" lon="0.6369">
        <ele>54.451782226562</ele>
        <time>2013-06-28T11:41:39Z</time>
      </trkpt>
      <trkpt lat="47.3851" lon="0.63609">
        <ele>54.932373046875</ele>
        <time>2013-06-28T11:41:51Z</time>
      </trkpt>
      <trkpt lat="47.38478" lon="0.63542">
        <ele>54.932373046875</ele>
        <time>2013-06-28T11:42:01Z</time>
      </trkpt>
      <trkpt lat="47.38441" lon="0.63461">
        <ele>55.4130859375</ele>
        <time>2013-06-28T11:42:13Z</time>
      </trkpt>
      <trkpt lat="47.38402" lon="0.63384">
        <ele>55.4130859375</ele>
        <time>2013-06-28T11:42:25Z</time>
      </trkpt>
      <trkpt lat="47.38367" lon="0.6335">
        <ele>55.4130859375</ele>
        <time>2013-06-28T11:42:33Z</time>
      </trkpt>
      <trkpt lat="47.38314" lon="0.63321">
        <ele>54.932373046875</ele>
        <time>2013-06-28T11:42:44Z</time>
      </trkpt>
      <trkpt lat="47.38299" lon="0.63304">
        <ele>54.932373046875</ele>
        <time>2013-06-28T11:42:48Z</time>
      </trkpt>
      <trkpt lat="47.38293" lon="0.63294">
        <ele>54.932373046875</ele>
        <time>2013-06-28T11:42:50Z</time>
      </trkpt>
      <trkpt lat="47.38283" lon="0.6328">
        <ele>54.932373046875</ele>
        <time>2013-06-28T11:42:53Z</time>
      </trkpt>
      <trkpt lat="47.38262" lon="0.63221">
        <ele>53.97119140625</ele>
        <time>2013-06-28T11:43:01Z</time>
      </trkpt>
      <trkpt lat="47.38246" lon="0.63133">
        <ele>53.97119140625</ele>
        <time>2013-06-28T11:43:11Z</time>
      </trkpt>
      <trkpt lat="47.38232" lon="0.63051">
        <ele>53.97119140625</ele>
        <time>2013-06-28T11:43:21Z</time>
      </trkpt>
      <trkpt lat="47.38228" lon="0.63008">
        <ele>53.009765625</ele>
        <time>2013-06-28T11:43:26Z</time>
      </trkpt>
      <trkpt lat="47.3823" lon="0.62957">
        <ele>53.009765625</ele>
        <time>2013-06-28T11:43:32Z</time>
      </trkpt>
      <trkpt lat="47.38247" lon="0.62874">
        <ele>53.009765625</ele>
        <time>2013-06-28T11:43:42Z</time>
      </trkpt>
      <trkpt lat="47.38261" lon="0.62791">
        <ele>53.009765625</ele>
        <time>2013-06-28T11:43:52Z</time>
      </trkpt>
      <trkpt lat="47.38268" lon="0.62715">
        <ele>53.009765625</ele>
        <time>2013-06-28T11:44:01Z</time>
      </trkpt>
      <trkpt lat="47.38262" lon="0.6263">
        <ele>53.009765625</ele>
        <time>2013-06-28T11:44:11Z</time>
      </trkpt>
      <trkpt lat="47.38244" lon="0.62547">
        <ele>52.529174804688</ele>
        <time>2013-06-28T11:44:21Z</time>
      </trkpt>
      <trkpt lat="47.38221" lon="0.62453">
        <ele>52.529174804688</ele>
        <time>2013-06-28T11:44:32Z</time>
      </trkpt>
      <trkpt lat="47.38186" lon="0.62314">
        <ele>52.048583984375</ele>
        <time>2013-06-28T11:44:49Z</time>
      </trkpt>
      <trkpt lat="47.38167" lon="0.62239">
        <ele>52.048583984375</ele>
        <time>2013-06-28T11:44:58Z</time>
      </trkpt>
      <trkpt lat="47.38142" lon="0.62141">
        <ele>52.048583984375</ele>
        <time>2013-06-28T11:45:10Z</time>
      </trkpt>
      <trkpt lat="47.38131" lon="0.62064">
        <ele>52.529174804688</ele>
        <time>2013-06-28T11:45:19Z</time>
      </trkpt>
      <trkpt lat="47.38121" lon="0.61981">
        <ele>52.529174804688</ele>
        <time>2013-06-28T11:45:28Z</time>
      </trkpt>
      <trkpt lat="47.38109" lon="0.61898">
        <ele>52.048583984375</ele>
        <time>2013-06-28T11:45:37Z</time>
      </trkpt>
      <trkpt lat="47.38092" lon="0.61776">
        <ele>52.048583984375</ele>
        <time>2013-06-28T11:45:51Z</time>
      </trkpt>
      <trkpt lat="47.38071" lon="0.61692">
        <ele>52.529174804688</ele>
        <time>2013-06-28T11:46:01Z</time>
      </trkpt>
      <trkpt lat="47.38046" lon="0.61609">
        <ele>51.56787109375</ele>
        <time>2013-06-28T11:46:11Z</time>
      </trkpt>
      <trkpt lat="47.38016" lon="0.615">
        <ele>51.56787109375</ele>
        <time>2013-06-28T11:46:24Z</time>
      </trkpt>
      <trkpt lat="47.37987" lon="0.6139">
        <ele>52.048583984375</ele>
        <time>2013-06-28T11:46:37Z</time>
      </trkpt>
      <trkpt lat="47.37956" lon="0.61266">
        <ele>52.048583984375</ele>
        <time>2013-06-28T11:46:51Z</time>
      </trkpt>
      <trkpt lat="47.37929" lon="0.6114">
        <ele>51.56787109375</ele>
        <time>2013-06-28T11:47:05Z</time>
      </trkpt>
      <trkpt lat="47.37906" lon="0.61074">
        <ele>52.048583984375</ele>
        <time>2013-06-28T11:47:13Z</time>
      </trkpt>
      <trkpt lat="47.3788" lon="0.60997">
        <ele>52.048583984375</ele>
        <time>2013-06-28T11:47:22Z</time>
      </trkpt>
      <trkpt lat="47.37869" lon="0.6091">
        <ele>51.56787109375</ele>
        <time>2013-06-28T11:47:31Z</time>
      </trkpt>
      <trkpt lat="47.37863" lon="0.60805">
        <ele>51.087158203125</ele>
        <time>2013-06-28T11:47:42Z</time>
      </trkpt>
      <trkpt lat="47.37867" lon="0.60682">
        <ele>50.1259765625</ele>
        <time>2013-06-28T11:47:55Z</time>
      </trkpt>
      <trkpt lat="47.37873" lon="0.60552">
        <ele>50.606567382812</ele>
        <time>2013-06-28T11:48:09Z</time>
      </trkpt>
      <trkpt lat="47.37869" lon="0.60462">
        <ele>50.606567382812</ele>
        <time>2013-06-28T11:48:19Z</time>
      </trkpt>
      <trkpt lat="47.37855" lon="0.60378">
        <ele>50.606567382812</ele>
        <time>2013-06-28T11:48:28Z</time>
      </trkpt>
      <trkpt lat="47.37847" lon="0.60273">
        <ele>49.645263671875</ele>
        <time>2013-06-28T11:48:39Z</time>
      </trkpt>
      <trkpt lat="47.37838" lon="0.60151">
        <ele>48.683959960938</ele>
        <time>2013-06-28T11:48:52Z</time>
      </trkpt>
      <trkpt lat="47.37823" lon="0.6005">
        <ele>49.645263671875</ele>
        <time>2013-06-28T11:49:03Z</time>
      </trkpt>
      <trkpt lat="47.37815" lon="0.60016">
        <ele>49.16455078125</ele>
        <time>2013-06-28T11:49:07Z</time>
      </trkpt>
      <trkpt lat="47.37809" lon="0.59939">
        <ele>48.683959960938</ele>
        <time>2013-06-28T11:49:15Z</time>
      </trkpt>
      <trkpt lat="47.37808" lon="0.59838">
        <ele>48.683959960938</ele>
        <time>2013-06-28T11:49:25Z</time>
      </trkpt>
      <trkpt lat="47.37806" lon="0.59788">
        <ele>48.203369140625</ele>
        <time>2013-06-28T11:49:31Z</time>
      </trkpt>
      <trkpt lat="47.37798" lon="0.59738">
        <ele>47.722534179688</ele>
        <time>2013-06-28T11:49:38Z</time>
      </trkpt>
      <trkpt lat="47.37788" lon="0.59672">
        <ele>49.16455078125</ele>
        <time>2013-06-28T11:49:46Z</time>
      </trkpt>
      <trkpt lat="47.3778" lon="0.59572">
        <ele>49.16455078125</ele>
        <time>2013-06-28T11:49:57Z</time>
      </trkpt>
      <trkpt lat="47.37773" lon="0.59481">
        <ele>49.16455078125</ele>
        <time>2013-06-28T11:50:07Z</time>
      </trkpt>
      <trkpt lat="47.37767" lon="0.59377">
        <ele>49.16455078125</ele>
        <time>2013-06-28T11:50:18Z</time>
      </trkpt>
      <trkpt lat="47.37763" lon="0.59275">
        <ele>49.16455078125</ele>
        <time>2013-06-28T11:50:29Z</time>
      </trkpt>
      <trkpt lat="47.37754" lon="0.59195">
        <ele>49.16455078125</ele>
        <time>2013-06-28T11:50:38Z</time>
      </trkpt>
      <trkpt lat="47.37747" lon="0.59093">
        <ele>49.16455078125</ele>
        <time>2013-06-28T11:50:48Z</time>
      </trkpt>
      <trkpt lat="47.37742" lon="0.58975">
        <ele>48.683959960938</ele>
        <time>2013-06-28T11:51:00Z</time>
      </trkpt>
      <trkpt lat="47.37732" lon="0.5886">
        <ele>49.16455078125</ele>
        <time>2013-06-28T11:51:12Z</time>
      </trkpt>
      <trkpt lat="47.37714" lon="0.58718">
        <ele>49.16455078125</ele>
        <time>2013-06-28T11:51:27Z</time>
      </trkpt>
      <trkpt lat="47.37694" lon="0.58584">
        <ele>49.16455078125</ele>
        <time>2013-06-28T11:51:41Z</time>
      </trkpt>
      <trkpt lat="47.37692" lon="0.58554">
        <ele>49.16455078125</ele>
        <time>2013-06-28T11:51:44Z</time>
      </trkpt>
      <trkpt lat="47.37697" lon="0.58475">
        <ele>49.16455078125</ele>
        <time>2013-06-28T11:51:52Z</time>
      </trkpt>
      <trkpt lat="47.37698" lon="0.58386">
        <ele>49.645263671875</ele>
        <time>2013-06-28T11:52:01Z</time>
      </trkpt>
      <trkpt lat="47.37691" lon="0.58275">
        <ele>49.645263671875</ele>
        <time>2013-06-28T11:52:13Z</time>
      </trkpt>
      <trkpt lat="47.37677" lon="0.58158">
        <ele>49.16455078125</ele>
        <time>2013-06-28T11:52:26Z</time>
      </trkpt>
      <trkpt lat="47.37655" lon="0.58064">
        <ele>48.683959960938</ele>
        <time>2013-06-28T11:52:37Z</time>
      </trkpt>
      <trkpt lat="47.37627" lon="0.57971">
        <ele>48.683959960938</ele>
        <time>2013-06-28T11:52:48Z</time>
      </trkpt>
      <trkpt lat="47.37609" lon="0.57882">
        <ele>49.645263671875</ele>
        <time>2013-06-28T11:52:58Z</time>
      </trkpt>
      <trkpt lat="47.37601" lon="0.57791">
        <ele>50.1259765625</ele>
        <time>2013-06-28T11:53:08Z</time>
      </trkpt>
      <trkpt lat="47.3759" lon="0.57691">
        <ele>49.645263671875</ele>
        <time>2013-06-28T11:53:19Z</time>
      </trkpt>
      <trkpt lat="47.37568" lon="0.57611">
        <ele>50.1259765625</ele>
        <time>2013-06-28T11:53:28Z</time>
      </trkpt>
      <trkpt lat="47.37531" lon="0.57519">
        <ele>49.645263671875</ele>
        <time>2013-06-28T11:53:39Z</time>
      </trkpt>
      <trkpt lat="47.37485" lon="0.57414">
        <ele>49.645263671875</ele>
        <time>2013-06-28T11:53:52Z</time>
      </trkpt>
      <trkpt lat="47.37441" lon="0.57309">
        <ele>50.1259765625</ele>
        <time>2013-06-28T11:54:05Z</time>
      </trkpt>
      <trkpt lat="47.37399" lon="0.57212">
        <ele>50.606567382812</ele>
        <time>2013-06-28T11:54:17Z</time>
      </trkpt>
      <trkpt lat="47.37368" lon="0.5714">
        <ele>50.606567382812</ele>
        <time>2013-06-28T11:54:25Z</time>
      </trkpt>
      <trkpt lat="47.3733" lon="0.57043">
        <ele>50.606567382812</ele>
        <time>2013-06-28T11:54:36Z</time>
      </trkpt>
      <trkpt lat="47.373" lon="0.56926">
        <ele>51.087158203125</ele>
        <time>2013-06-28T11:54:48Z</time>
      </trkpt>
      <trkpt lat="47.3729" lon="0.56835">
        <ele>50.606567382812</ele>
        <time>2013-06-28T11:54:57Z</time>
      </trkpt>
      <trkpt lat="47.37293" lon="0.56735">
        <ele>49.645263671875</ele>
        <time>2013-06-28T11:55:07Z</time>
      </trkpt>
      <trkpt lat="47.37297" lon="0.56602">
        <ele>49.645263671875</ele>
        <time>2013-06-28T11:55:20Z</time>
      </trkpt>
      <trkpt lat="47.37301" lon="0.56472">
        <ele>50.1259765625</ele>
        <time>2013-06-28T11:55:33Z</time>
      </trkpt>
      <trkpt lat="47.37295" lon="0.56382">
        <ele>49.645263671875</ele>
        <time>2013-06-28T11:55:42Z</time>
      </trkpt>
      <trkpt lat="47.37272" lon="0.56291">
        <ele>50.1259765625</ele>
        <time>2013-06-28T11:55:52Z</time>
      </trkpt>
      <trkpt lat="47.37244" lon="0.56184">
        <ele>50.1259765625</ele>
        <time>2013-06-28T11:56:04Z</time>
      </trkpt>
      <trkpt lat="47.37219" lon="0.5609">
        <ele>49.16455078125</ele>
        <time>2013-06-28T11:56:14Z</time>
      </trkpt>
      <trkpt lat="47.37188" lon="0.55979">
        <ele>49.16455078125</ele>
        <time>2013-06-28T11:56:26Z</time>
      </trkpt>
      <trkpt lat="47.37179" lon="0.55911">
        <ele>49.16455078125</ele>
        <time>2013-06-28T11:56:33Z</time>
      </trkpt>
      <trkpt lat="47.37173" lon="0.55843">
        <ele>49.16455078125</ele>
        <time>2013-06-28T11:56:40Z</time>
      </trkpt>
      <trkpt lat="47.37144" lon="0.55761">
        <ele>49.645263671875</ele>
        <time>2013-06-28T11:56:49Z</time>
      </trkpt>
      <trkpt lat="47.37094" lon="0.55639">
        <ele>49.645263671875</ele>
        <time>2013-06-28T11:57:03Z</time>
      </trkpt>
      <trkpt lat="47.37055" lon="0.55578">
        <ele>49.645263671875</ele>
        <time>2013-06-28T11:57:11Z</time>
      </trkpt>
      <trkpt lat="47.37024" lon="0.55511">
        <ele>49.645263671875</ele>
        <time>2013-06-28T11:57:19Z</time>
      </trkpt>
      <trkpt lat="47.36965" lon="0.55371">
        <ele>49.645263671875</ele>
        <time>2013-06-28T11:57:35Z</time>
      </trkpt>
      <trkpt lat="47.36923" lon="0.55271">
        <ele>48.683959960938</ele>
        <time>2013-06-28T11:57:46Z</time>
      </trkpt>
      <trkpt lat="47.36864" lon="0.55127">
        <ele>50.1259765625</ele>
        <time>2013-06-28T11:58:02Z</time>
      </trkpt>
      <trkpt lat="47.36825" lon="0.55009">
        <ele>49.645263671875</ele>
        <time>2013-06-28T11:58:15Z</time>
      </trkpt>
      <trkpt lat="47.36783" lon="0.54889">
        <ele>47.722534179688</ele>
        <time>2013-06-28T11:58:28Z</time>
      </trkpt>
      <trkpt lat="47.36751" lon="0.54796">
        <ele>47.722534179688</ele>
        <time>2013-06-28T11:58:38Z</time>
      </trkpt>
      <trkpt lat="47.36728" lon="0.54685">
        <ele>47.241821289062</ele>
        <time>2013-06-28T11:58:49Z</time>
      </trkpt>
      <trkpt lat="47.367" lon="0.54568">
        <ele>46.280639648438</ele>
        <time>2013-06-28T11:59:01Z</time>
      </trkpt>
      <trkpt lat="47.36677" lon="0.54457">
        <ele>46.76123046875</ele>
        <time>2013-06-28T11:59:12Z</time>
      </trkpt>
      <trkpt lat="47.36663" lon="0.54357">
        <ele>46.76123046875</ele>
        <time>2013-06-28T11:59:22Z</time>
      </trkpt>
      <trkpt lat="47.36657" lon="0.54267">
        <ele>47.241821289062</ele>
        <time>2013-06-28T11:59:32Z</time>
      </trkpt>
      <trkpt lat="47.36655" lon="0.54198">
        <ele>47.722534179688</ele>
        <time>2013-06-28T11:59:41Z</time>
      </trkpt>
      <trkpt lat="47.36651" lon="0.54178">
        <ele>47.241821289062</ele>
        <time>2013-06-28T11:59:44Z</time>
      </trkpt>
      <trkpt lat="47.36636" lon="0.54162">
        <ele>46.280639648438</ele>
        <time>2013-06-28T11:59:48Z</time>
      </trkpt>
      <trkpt lat="47.36616" lon="0.54166">
        <ele>45.319213867188</ele>
        <time>2013-06-28T11:59:51Z</time>
      </trkpt>
      <trkpt lat="47.36554" lon="0.54198">
        <ele>43.877319335938</ele>
        <time>2013-06-28T12:00:00Z</time>
      </trkpt>
      <trkpt lat="47.36493" lon="0.54242">
        <ele>44.358032226562</ele>
        <time>2013-06-28T12:00:10Z</time>
      </trkpt>
      <trkpt lat="47.36441" lon="0.5426">
        <ele>45.319213867188</ele>
        <time>2013-06-28T12:00:18Z</time>
      </trkpt>
      <trkpt lat="47.3637" lon="0.54285">
        <ele>45.319213867188</ele>
        <time>2013-06-28T12:00:29Z</time>
      </trkpt>
      <trkpt lat="47.36304" lon="0.54324">
        <ele>44.838623046875</ele>
        <time>2013-06-28T12:00:40Z</time>
      </trkpt>
      <trkpt lat="47.36232" lon="0.54369">
        <ele>45.319213867188</ele>
        <time>2013-06-28T12:00:52Z</time>
      </trkpt>
      <trkpt lat="47.36163" lon="0.54423">
        <ele>45.319213867188</ele>
        <time>2013-06-28T12:01:04Z</time>
      </trkpt>
      <trkpt lat="47.36114" lon="0.5444">
        <ele>45.799926757812</ele>
        <time>2013-06-28T12:01:12Z</time>
      </trkpt>
      <trkpt lat="47.36058" lon="0.5446">
        <ele>46.280639648438</ele>
        <time>2013-06-28T12:01:22Z</time>
      </trkpt>
      <trkpt lat="47.36002" lon="0.54482">
        <ele>44.838623046875</ele>
        <time>2013-06-28T12:01:31Z</time>
      </trkpt>
      <trkpt lat="47.35921" lon="0.54496">
        <ele>45.799926757812</ele>
        <time>2013-06-28T12:01:43Z</time>
      </trkpt>
      <trkpt lat="47.35872" lon="0.54492">
        <ele>47.241821289062</ele>
        <time>2013-06-28T12:01:51Z</time>
      </trkpt>
      <trkpt lat="47.35823" lon="0.54475">
        <ele>49.16455078125</ele>
        <time>2013-06-28T12:02:00Z</time>
      </trkpt>
      <trkpt lat="47.35768" lon="0.54443">
        <ele>48.683959960938</ele>
        <time>2013-06-28T12:02:10Z</time>
      </trkpt>
      <trkpt lat="47.35751" lon="0.54436">
        <ele>48.683959960938</ele>
        <time>2013-06-28T12:02:13Z</time>
      </trkpt>
      <trkpt lat="47.35714" lon="0.54443">
        <ele>48.683959960938</ele>
        <time>2013-06-28T12:02:19Z</time>
      </trkpt>
      <trkpt lat="47.35656" lon="0.54524">
        <ele>49.16455078125</ele>
        <time>2013-06-28T12:02:29Z</time>
      </trkpt>
      <trkpt lat="47.35637" lon="0.54545">
        <ele>49.645263671875</ele>
        <time>2013-06-28T12:02:33Z</time>
      </trkpt>
      <trkpt lat="47.35626" lon="0.54551">
        <ele>49.645263671875</ele>
        <time>2013-06-28T12:02:35Z</time>
      </trkpt>
      <trkpt lat="47.35603" lon="0.54558">
        <ele>50.1259765625</ele>
        <time>2013-06-28T12:02:39Z</time>
      </trkpt>
      <trkpt lat="47.35535" lon="0.54541">
        <ele>49.16455078125</ele>
        <time>2013-06-28T12:02:50Z</time>
      </trkpt>
      <trkpt lat="47.35472" lon="0.54541">
        <ele>48.683959960938</ele>
        <time>2013-06-28T12:03:00Z</time>
      </trkpt>
      <trkpt lat="47.35408" lon="0.5456">
        <ele>48.683959960938</ele>
        <time>2013-06-28T12:03:10Z</time>
      </trkpt>
      <trkpt lat="47.35335" lon="0.5458">
        <ele>49.645263671875</ele>
        <time>2013-06-28T12:03:21Z</time>
      </trkpt>
      <trkpt lat="47.35244" lon="0.54611">
        <ele>50.1259765625</ele>
        <time>2013-06-28T12:03:35Z</time>
      </trkpt>
      <trkpt lat="47.3517" lon="0.54627">
        <ele>51.087158203125</ele>
        <time>2013-06-28T12:03:46Z</time>
      </trkpt>
      <trkpt lat="47.35108" lon="0.5464">
        <ele>50.606567382812</ele>
        <time>2013-06-28T12:03:56Z</time>
      </trkpt>
      <trkpt lat="47.35076" lon="0.54641">
        <ele>50.606567382812</ele>
        <time>2013-06-28T12:04:01Z</time>
      </trkpt>
      <trkpt lat="47.35042" lon="0.54614">
        <ele>51.087158203125</ele>
        <time>2013-06-28T12:04:07Z</time>
      </trkpt>
      <trkpt lat="47.35004" lon="0.54549">
        <ele>51.56787109375</ele>
        <time>2013-06-28T12:04:16Z</time>
      </trkpt>
      <trkpt lat="47.34996" lon="0.5453">
        <ele>51.56787109375</ele>
        <time>2013-06-28T12:04:20Z</time>
      </trkpt>
      <trkpt lat="47.34993" lon="0.54535">
        <ele>51.087158203125</ele>
        <time>2013-06-28T12:04:24Z</time>
      </trkpt>
      <trkpt lat="47.35" lon="0.54548">
        <ele>51.56787109375</ele>
        <time>2013-06-28T12:04:32Z</time>
      </trkpt>
      <trkpt lat="47.34999" lon="0.54548">
        <ele>51.087158203125</ele>
        <time>2013-06-28T12:04:36Z</time>
      </trkpt>
      <trkpt lat="47.35" lon="0.54548">
        <ele>46.76123046875</ele>
        <time>2013-06-28T12:04:50Z</time>
      </trkpt>
      <trkpt lat="47.34991" lon="0.54524">
        <ele>48.203369140625</ele>
        <time>2013-06-28T12:04:58Z</time>
      </trkpt>
      <trkpt lat="47.34984" lon="0.54495">
        <ele>49.16455078125</ele>
        <time>2013-06-28T12:05:04Z</time>
      </trkpt>
      <trkpt lat="47.34966" lon="0.54456">
        <ele>49.645263671875</ele>
        <time>2013-06-28T12:05:12Z</time>
      </trkpt>
      <trkpt lat="47.3495" lon="0.54427">
        <ele>50.606567382812</ele>
        <time>2013-06-28T12:05:20Z</time>
      </trkpt>
      <trkpt lat="47.34939" lon="0.54406">
        <ele>50.606567382812</ele>
        <time>2013-06-28T12:05:27Z</time>
      </trkpt>
      <trkpt lat="47.34928" lon="0.54387">
        <ele>51.087158203125</ele>
        <time>2013-06-28T12:05:31Z</time>
      </trkpt>
      <trkpt lat="47.34915" lon="0.54358">
        <ele>52.048583984375</ele>
        <time>2013-06-28T12:05:36Z</time>
      </trkpt>
      <trkpt lat="47.34912" lon="0.54346">
        <ele>52.048583984375</ele>
        <time>2013-06-28T12:05:38Z</time>
      </trkpt>
      <trkpt lat="47.349" lon="0.54311">
        <ele>52.529174804688</ele>
        <time>2013-06-28T12:05:44Z</time>
      </trkpt>
      <trkpt lat="47.34885" lon="0.54265">
        <ele>53.490478515625</ele>
        <time>2013-06-28T12:05:52Z</time>
      </trkpt>
      <trkpt lat="47.3487" lon="0.54259">
        <ele>54.451782226562</ele>
        <time>2013-06-28T12:05:57Z</time>
      </trkpt>
      <trkpt lat="47.34867" lon="0.5426">
        <ele>54.451782226562</ele>
        <time>2013-06-28T12:05:58Z</time>
      </trkpt>
      <trkpt lat="47.34844" lon="0.54267">
        <ele>56.37451171875</ele>
        <time>2013-06-28T12:06:07Z</time>
      </trkpt>
      <trkpt lat="47.34836" lon="0.54269">
        <ele>56.855102539062</ele>
        <time>2013-06-28T12:06:11Z</time>
      </trkpt>
      <trkpt lat="47.34833" lon="0.54279">
        <ele>56.855102539062</ele>
        <time>2013-06-28T12:06:17Z</time>
      </trkpt>
      <trkpt lat="47.34833" lon="0.5428">
        <ele>56.855102539062</ele>
        <time>2013-06-28T12:06:25Z</time>
      </trkpt>
      <trkpt lat="47.34832" lon="0.54277">
        <ele>59.258422851562</ele>
        <time>2013-06-28T12:07:03Z</time>
      </trkpt>
      <trkpt lat="47.34831" lon="0.54277">
        <ele>59.258422851562</ele>
        <time>2013-06-28T12:07:05Z</time>
      </trkpt>
      <trkpt lat="47.34816" lon="0.54276">
        <ele>58.297119140625</ele>
        <time>2013-06-28T12:07:13Z</time>
      </trkpt>
      <trkpt lat="47.34787" lon="0.54287">
        <ele>56.855102539062</ele>
        <time>2013-06-28T12:07:21Z</time>
      </trkpt>
      <trkpt lat="47.34777" lon="0.54291">
        <ele>55.893798828125</ele>
        <time>2013-06-28T12:07:24Z</time>
      </trkpt>
      <trkpt lat="47.34764" lon="0.5427">
        <ele>53.97119140625</ele>
        <time>2013-06-28T12:07:28Z</time>
      </trkpt>
      <trkpt lat="47.34748" lon="0.5418">
        <ele>52.529174804688</ele>
        <time>2013-06-28T12:07:39Z</time>
      </trkpt>
      <trkpt lat="47.34738" lon="0.54107">
        <ele>51.56787109375</ele>
        <time>2013-06-28T12:07:48Z</time>
      </trkpt>
      <trkpt lat="47.34727" lon="0.53997">
        <ele>50.606567382812</ele>
        <time>2013-06-28T12:08:01Z</time>
      </trkpt>
      <trkpt lat="47.34718" lon="0.53899">
        <ele>50.1259765625</ele>
        <time>2013-06-28T12:08:12Z</time>
      </trkpt>
      <trkpt lat="47.34708" lon="0.53784">
        <ele>50.606567382812</ele>
        <time>2013-06-28T12:08:25Z</time>
      </trkpt>
      <trkpt lat="47.34695" lon="0.53687">
        <ele>50.606567382812</ele>
        <time>2013-06-28T12:08:36Z</time>
      </trkpt>
      <trkpt lat="47.3468" lon="0.53618">
        <ele>50.1259765625</ele>
        <time>2013-06-28T12:08:44Z</time>
      </trkpt>
      <trkpt lat="47.3466" lon="0.53533">
        <ele>50.606567382812</ele>
        <time>2013-06-28T12:08:54Z</time>
      </trkpt>
      <trkpt lat="47.34641" lon="0.5346">
        <ele>51.56787109375</ele>
        <time>2013-06-28T12:09:03Z</time>
      </trkpt>
      <trkpt lat="47.34626" lon="0.53383">
        <ele>52.529174804688</ele>
        <time>2013-06-28T12:09:12Z</time>
      </trkpt>
      <trkpt lat="47.34611" lon="0.53295">
        <ele>52.048583984375</ele>
        <time>2013-06-28T12:09:22Z</time>
      </trkpt>
      <trkpt lat="47.34599" lon="0.53208">
        <ele>52.048583984375</ele>
        <time>2013-06-28T12:09:31Z</time>
      </trkpt>
      <trkpt lat="47.34584" lon="0.53079">
        <ele>50.1259765625</ele>
        <time>2013-06-28T12:09:44Z</time>
      </trkpt>
      <trkpt lat="47.34566" lon="0.5297">
        <ele>51.087158203125</ele>
        <time>2013-06-28T12:09:55Z</time>
      </trkpt>
      <trkpt lat="47.34546" lon="0.5288">
        <ele>52.048583984375</ele>
        <time>2013-06-28T12:10:04Z</time>
      </trkpt>
      <trkpt lat="47.34518" lon="0.52751">
        <ele>52.048583984375</ele>
        <time>2013-06-28T12:10:17Z</time>
      </trkpt>
      <trkpt lat="47.3448" lon="0.52573">
        <ele>53.009765625</ele>
        <time>2013-06-28T12:10:35Z</time>
      </trkpt>
      <trkpt lat="47.34393" lon="0.52235">
        <ele>53.009765625</ele>
        <time>2013-06-28T12:11:10Z</time>
      </trkpt>
      <trkpt lat="47.34361" lon="0.52127">
        <ele>53.009765625</ele>
        <time>2013-06-28T12:11:22Z</time>
      </trkpt>
      <trkpt lat="47.34334" lon="0.52036">
        <ele>53.490478515625</ele>
        <time>2013-06-28T12:11:32Z</time>
      </trkpt>
      <trkpt lat="47.34297" lon="0.51921">
        <ele>51.087158203125</ele>
        <time>2013-06-28T12:11:44Z</time>
      </trkpt>
      <trkpt lat="47.34231" lon="0.51698">
        <ele>49.16455078125</ele>
        <time>2013-06-28T12:12:07Z</time>
      </trkpt>
      <trkpt lat="47.34202" lon="0.51599">
        <ele>49.16455078125</ele>
        <time>2013-06-28T12:12:18Z</time>
      </trkpt>
      <trkpt lat="47.34178" lon="0.51515">
        <ele>47.722534179688</ele>
        <time>2013-06-28T12:12:28Z</time>
      </trkpt>
      <trkpt lat="47.3415" lon="0.51418">
        <ele>49.16455078125</ele>
        <time>2013-06-28T12:12:40Z</time>
      </trkpt>
      <trkpt lat="47.34136" lon="0.51371">
        <ele>49.645263671875</ele>
        <time>2013-06-28T12:12:47Z</time>
      </trkpt>
      <trkpt lat="47.34118" lon="0.51314">
        <ele>49.645263671875</ele>
        <time>2013-06-28T12:12:58Z</time>
      </trkpt>
      <trkpt lat="47.34107" lon="0.5127">
        <ele>50.1259765625</ele>
        <time>2013-06-28T12:13:06Z</time>
      </trkpt>
      <trkpt lat="47.34099" lon="0.51245">
        <ele>49.645263671875</ele>
        <time>2013-06-28T12:13:13Z</time>
      </trkpt>
      <trkpt lat="47.34095" lon="0.51231">
        <ele>50.1259765625</ele>
        <time>2013-06-28T12:13:19Z</time>
      </trkpt>
      <trkpt lat="47.34095" lon="0.51231">
        <ele>51.087158203125</ele>
        <time>2013-06-28T12:13:34Z</time>
      </trkpt>
      <trkpt lat="47.34094" lon="0.51227">
        <ele>51.56787109375</ele>
        <time>2013-06-28T12:13:43Z</time>
      </trkpt>
      <trkpt lat="47.34095" lon="0.51225">
        <ele>52.048583984375</ele>
        <time>2013-06-28T12:13:49Z</time>
      </trkpt>
      <trkpt lat="47.34097" lon="0.51225">
        <ele>53.490478515625</ele>
        <time>2013-06-28T12:14:17Z</time>
      </trkpt>
      <trkpt lat="47.34097" lon="0.51225">
        <ele>50.1259765625</ele>
        <time>2013-06-28T12:14:43Z</time>
      </trkpt>
      <trkpt lat="47.34097" lon="0.51225">
        <ele>50.606567382812</ele>
        <time>2013-06-28T12:15:08Z</time>
      </trkpt>
      <trkpt lat="47.34097" lon="0.51225">
        <ele>52.048583984375</ele>
        <time>2013-06-28T12:15:22Z</time>
      </trkpt>
      <trkpt lat="47.34097" lon="0.51226">
        <ele>53.009765625</ele>
        <time>2013-06-28T12:15:41Z</time>
      </trkpt>
      <trkpt lat="47.34096" lon="0.51225">
        <ele>53.490478515625</ele>
        <time>2013-06-28T12:15:51Z</time>
      </trkpt>
      <trkpt lat="47.34095" lon="0.51223">
        <ele>53.009765625</ele>
        <time>2013-06-28T12:15:58Z</time>
      </trkpt>
      <trkpt lat="47.34087" lon="0.51194">
        <ele>52.048583984375</ele>
        <time>2013-06-28T12:16:06Z</time>
      </trkpt>
      <trkpt lat="47.34083" lon="0.51166">
        <ele>52.048583984375</ele>
        <time>2013-06-28T12:16:11Z</time>
      </trkpt>
      <trkpt lat="47.34079" lon="0.51134">
        <ele>52.048583984375</ele>
        <time>2013-06-28T12:16:17Z</time>
      </trkpt>
      <trkpt lat="47.34077" lon="0.51119">
        <ele>52.048583984375</ele>
        <time>2013-06-28T12:16:21Z</time>
      </trkpt>
      <trkpt lat="47.34084" lon="0.5112">
        <ele>51.56787109375</ele>
        <time>2013-06-28T12:16:26Z</time>
      </trkpt>
      <trkpt lat="47.34093" lon="0.51128">
        <ele>52.048583984375</ele>
        <time>2013-06-28T12:16:30Z</time>
      </trkpt>
      <trkpt lat="47.34109" lon="0.51124">
        <ele>52.048583984375</ele>
        <time>2013-06-28T12:16:34Z</time>
      </trkpt>
      <trkpt lat="47.34126" lon="0.51119">
        <ele>52.529174804688</ele>
        <time>2013-06-28T12:16:38Z</time>
      </trkpt>
      <trkpt lat="47.34149" lon="0.51112">
        <ele>52.048583984375</ele>
        <time>2013-06-28T12:16:43Z</time>
      </trkpt>
      <trkpt lat="47.34191" lon="0.51097">
        <ele>51.56787109375</ele>
        <time>2013-06-28T12:16:51Z</time>
      </trkpt>
      <trkpt lat="47.34239" lon="0.51083">
        <ele>51.56787109375</ele>
        <time>2013-06-28T12:17:00Z</time>
      </trkpt>
      <trkpt lat="47.34305" lon="0.51075">
        <ele>52.048583984375</ele>
        <time>2013-06-28T12:17:12Z</time>
      </trkpt>
      <trkpt lat="47.34363" lon="0.51058">
        <ele>51.56787109375</ele>
        <time>2013-06-28T12:17:22Z</time>
      </trkpt>
      <trkpt lat="47.3441" lon="0.5104">
        <ele>51.56787109375</ele>
        <time>2013-06-28T12:17:30Z</time>
      </trkpt>
      <trkpt lat="47.34416" lon="0.5102">
        <ele>52.048583984375</ele>
        <time>2013-06-28T12:17:34Z</time>
      </trkpt>
      <trkpt lat="47.34418" lon="0.5094">
        <ele>52.048583984375</ele>
        <time>2013-06-28T12:17:44Z</time>
      </trkpt>
      <trkpt lat="47.34428" lon="0.50837">
        <ele>53.009765625</ele>
        <time>2013-06-28T12:17:55Z</time>
      </trkpt>
      <trkpt lat="47.34442" lon="0.50778">
        <ele>53.009765625</ele>
        <time>2013-06-28T12:18:02Z</time>
      </trkpt>
      <trkpt lat="47.34449" lon="0.50754">
        <ele>53.490478515625</ele>
        <time>2013-06-28T12:18:05Z</time>
      </trkpt>
      <trkpt lat="47.34452" lon="0.50682">
        <ele>53.97119140625</ele>
        <time>2013-06-28T12:18:13Z</time>
      </trkpt>
      <trkpt lat="47.34448" lon="0.50591">
        <ele>54.451782226562</ele>
        <time>2013-06-28T12:18:23Z</time>
      </trkpt>
      <trkpt lat="47.34441" lon="0.50488">
        <ele>54.451782226562</ele>
        <time>2013-06-28T12:18:35Z</time>
      </trkpt>
      <trkpt lat="47.34426" lon="0.50413">
        <ele>53.97119140625</ele>
        <time>2013-06-28T12:18:44Z</time>
      </trkpt>
      <trkpt lat="47.34403" lon="0.50332">
        <ele>53.490478515625</ele>
        <time>2013-06-28T12:18:54Z</time>
      </trkpt>
      <trkpt lat="47.34377" lon="0.50239">
        <ele>52.529174804688</ele>
        <time>2013-06-28T12:19:05Z</time>
      </trkpt>
      <trkpt lat="47.34358" lon="0.50176">
        <ele>53.009765625</ele>
        <time>2013-06-28T12:19:13Z</time>
      </trkpt>
      <trkpt lat="47.34336" lon="0.50102">
        <ele>53.009765625</ele>
        <time>2013-06-28T12:19:22Z</time>
      </trkpt>
      <trkpt lat="47.34312" lon="0.50018">
        <ele>51.56787109375</ele>
        <time>2013-06-28T12:19:32Z</time>
      </trkpt>
      <trkpt lat="47.34293" lon="0.49955">
        <ele>50.606567382812</ele>
        <time>2013-06-28T12:19:40Z</time>
      </trkpt>
      <trkpt lat="47.34268" lon="0.49896">
        <ele>51.087158203125</ele>
        <time>2013-06-28T12:19:48Z</time>
      </trkpt>
      <trkpt lat="47.34233" lon="0.49827">
        <ele>50.606567382812</ele>
        <time>2013-06-28T12:19:58Z</time>
      </trkpt>
      <trkpt lat="47.34204" lon="0.49774">
        <ele>50.606567382812</ele>
        <time>2013-06-28T12:20:07Z</time>
      </trkpt>
      <trkpt lat="47.34175" lon="0.49724">
        <ele>51.087158203125</ele>
        <time>2013-06-28T12:20:17Z</time>
      </trkpt>
      <trkpt lat="47.34161" lon="0.49698">
        <ele>51.56787109375</ele>
        <time>2013-06-28T12:20:25Z</time>
      </trkpt>
      <trkpt lat="47.34156" lon="0.4969">
        <ele>51.56787109375</ele>
        <time>2013-06-28T12:20:32Z</time>
      </trkpt>
      <trkpt lat="47.34157" lon="0.4969">
        <ele>51.56787109375</ele>
        <time>2013-06-28T12:20:56Z</time>
      </trkpt>
      <trkpt lat="47.34156" lon="0.4969">
        <ele>50.606567382812</ele>
        <time>2013-06-28T12:21:31Z</time>
      </trkpt>
      <trkpt lat="47.34157" lon="0.49689">
        <ele>50.1259765625</ele>
        <time>2013-06-28T12:21:58Z</time>
      </trkpt>
      <trkpt lat="47.34157" lon="0.49689">
        <ele>53.009765625</ele>
        <time>2013-06-28T12:22:27Z</time>
      </trkpt>
      <trkpt lat="47.34157" lon="0.49689">
        <ele>52.529174804688</ele>
        <time>2013-06-28T12:22:47Z</time>
      </trkpt>
      <trkpt lat="47.34157" lon="0.49688">
        <ele>52.048583984375</ele>
        <time>2013-06-28T12:23:16Z</time>
      </trkpt>
      <trkpt lat="47.34158" lon="0.49689">
        <ele>53.009765625</ele>
        <time>2013-06-28T12:23:32Z</time>
      </trkpt>
      <trkpt lat="47.34158" lon="0.4969">
        <ele>52.529174804688</ele>
        <time>2013-06-28T12:23:44Z</time>
      </trkpt>
      <trkpt lat="47.34158" lon="0.4969">
        <ele>53.009765625</ele>
        <time>2013-06-28T12:23:57Z</time>
      </trkpt>
      <trkpt lat="47.34157" lon="0.49688">
        <ele>52.529174804688</ele>
        <time>2013-06-28T12:24:13Z</time>
      </trkpt>
      <trkpt lat="47.3415" lon="0.49676">
        <ele>53.009765625</ele>
        <time>2013-06-28T12:24:20Z</time>
      </trkpt>
      <trkpt lat="47.34141" lon="0.4966">
        <ele>52.529174804688</ele>
        <time>2013-06-28T12:24:28Z</time>
      </trkpt>
      <trkpt lat="47.34129" lon="0.49634">
        <ele>52.529174804688</ele>
        <time>2013-06-28T12:24:37Z</time>
      </trkpt>
      <trkpt lat="47.34116" lon="0.49596">
        <ele>52.048583984375</ele>
        <time>2013-06-28T12:24:49Z</time>
      </trkpt>
      <trkpt lat="47.34105" lon="0.49561">
        <ele>52.048583984375</ele>
        <time>2013-06-28T12:24:59Z</time>
      </trkpt>
      <trkpt lat="47.34093" lon="0.49519">
        <ele>52.048583984375</ele>
        <time>2013-06-28T12:25:08Z</time>
      </trkpt>
      <trkpt lat="47.3408" lon="0.49476">
        <ele>52.048583984375</ele>
        <time>2013-06-28T12:25:14Z</time>
      </trkpt>
      <trkpt lat="47.34055" lon="0.49415">
        <ele>53.009765625</ele>
        <time>2013-06-28T12:25:23Z</time>
      </trkpt>
      <trkpt lat="47.34027" lon="0.49344">
        <ele>52.529174804688</ele>
        <time>2013-06-28T12:25:33Z</time>
      </trkpt>
      <trkpt lat="47.33995" lon="0.49263">
        <ele>52.048583984375</ele>
        <time>2013-06-28T12:25:44Z</time>
      </trkpt>
      <trkpt lat="47.33955" lon="0.49186">
        <ele>52.529174804688</ele>
        <time>2013-06-28T12:25:55Z</time>
      </trkpt>
      <trkpt lat="47.33909" lon="0.49124">
        <ele>53.009765625</ele>
        <time>2013-06-28T12:26:05Z</time>
      </trkpt>
      <trkpt lat="47.33867" lon="0.49063">
        <ele>53.490478515625</ele>
        <time>2013-06-28T12:26:14Z</time>
      </trkpt>
      <trkpt lat="47.33835" lon="0.49015">
        <ele>53.97119140625</ele>
        <time>2013-06-28T12:26:22Z</time>
      </trkpt>
      <trkpt lat="47.33821" lon="0.49">
        <ele>53.97119140625</ele>
        <time>2013-06-28T12:26:26Z</time>
      </trkpt>
      <trkpt lat="47.33817" lon="0.48974">
        <ele>52.529174804688</ele>
        <time>2013-06-28T12:26:31Z</time>
      </trkpt>
      <trkpt lat="47.33813" lon="0.48908">
        <ele>52.529174804688</ele>
        <time>2013-06-28T12:26:41Z</time>
      </trkpt>
      <trkpt lat="47.33812" lon="0.48902">
        <ele>52.529174804688</ele>
        <time>2013-06-28T12:26:42Z</time>
      </trkpt>
      <trkpt lat="47.33796" lon="0.48855">
        <ele>52.048583984375</ele>
        <time>2013-06-28T12:26:50Z</time>
      </trkpt>
      <trkpt lat="47.33761" lon="0.488">
        <ele>52.529174804688</ele>
        <time>2013-06-28T12:27:02Z</time>
      </trkpt>
      <trkpt lat="47.33748" lon="0.48786">
        <ele>53.490478515625</ele>
        <time>2013-06-28T12:27:09Z</time>
      </trkpt>
      <trkpt lat="47.33752" lon="0.4876">
        <ele>53.490478515625</ele>
        <time>2013-06-28T12:27:16Z</time>
      </trkpt>
      <trkpt lat="47.33763" lon="0.48729">
        <ele>52.529174804688</ele>
        <time>2013-06-28T12:27:23Z</time>
      </trkpt>
      <trkpt lat="47.33779" lon="0.4868">
        <ele>51.087158203125</ele>
        <time>2013-06-28T12:27:32Z</time>
      </trkpt>
      <trkpt lat="47.33798" lon="0.48635">
        <ele>52.048583984375</ele>
        <time>2013-06-28T12:27:41Z</time>
      </trkpt>
      <trkpt lat="47.33809" lon="0.48596">
        <ele>51.56787109375</ele>
        <time>2013-06-28T12:27:48Z</time>
      </trkpt>
      <trkpt lat="47.3382" lon="0.48544">
        <ele>51.087158203125</ele>
        <time>2013-06-28T12:27:58Z</time>
      </trkpt>
      <trkpt lat="47.33836" lon="0.48493">
        <ele>51.56787109375</ele>
        <time>2013-06-28T12:28:08Z</time>
      </trkpt>
      <trkpt lat="47.33862" lon="0.48452">
        <ele>53.009765625</ele>
        <time>2013-06-28T12:28:18Z</time>
      </trkpt>
      <trkpt lat="47.33887" lon="0.4842">
        <ele>55.4130859375</ele>
        <time>2013-06-28T12:28:28Z</time>
      </trkpt>
      <trkpt lat="47.33899" lon="0.48405">
        <ele>55.4130859375</ele>
        <time>2013-06-28T12:28:34Z</time>
      </trkpt>
      <trkpt lat="47.33899" lon="0.4841">
        <ele>55.4130859375</ele>
        <time>2013-06-28T12:28:38Z</time>
      </trkpt>
      <trkpt lat="47.33894" lon="0.48413">
        <ele>55.4130859375</ele>
        <time>2013-06-28T12:28:40Z</time>
      </trkpt>
      <trkpt lat="47.33883" lon="0.48423">
        <ele>54.932373046875</ele>
        <time>2013-06-28T12:28:48Z</time>
      </trkpt>
      <trkpt lat="47.33881" lon="0.48424">
        <ele>59.258422851562</ele>
        <time>2013-06-28T12:29:11Z</time>
      </trkpt>
      <trkpt lat="47.3388" lon="0.48426">
        <ele>60.2197265625</ele>
        <time>2013-06-28T12:29:30Z</time>
      </trkpt>
      <trkpt lat="47.3388" lon="0.48425">
        <ele>58.297119140625</ele>
        <time>2013-06-28T12:29:50Z</time>
      </trkpt>
      <trkpt lat="47.33881" lon="0.48425">
        <ele>58.297119140625</ele>
        <time>2013-06-28T12:29:51Z</time>
      </trkpt>
      <trkpt lat="47.33898" lon="0.48406">
        <ele>57.816528320312</ele>
        <time>2013-06-28T12:29:58Z</time>
      </trkpt>
      <trkpt lat="47.33931" lon="0.48368">
        <ele>57.335815429688</ele>
        <time>2013-06-28T12:30:07Z</time>
      </trkpt>
      <trkpt lat="47.33974" lon="0.48319">
        <ele>55.4130859375</ele>
        <time>2013-06-28T12:30:18Z</time>
      </trkpt>
      <trkpt lat="47.34014" lon="0.48269">
        <ele>55.4130859375</ele>
        <time>2013-06-28T12:30:29Z</time>
      </trkpt>
      <trkpt lat="47.34059" lon="0.48208">
        <ele>55.4130859375</ele>
        <time>2013-06-28T12:30:40Z</time>
      </trkpt>
      <trkpt lat="47.34097" lon="0.48146">
        <ele>53.97119140625</ele>
        <time>2013-06-28T12:30:50Z</time>
      </trkpt>
      <trkpt lat="47.3413" lon="0.48088">
        <ele>54.451782226562</ele>
        <time>2013-06-28T12:30:59Z</time>
      </trkpt>
      <trkpt lat="47.34163" lon="0.48045">
        <ele>54.932373046875</ele>
        <time>2013-06-28T12:31:08Z</time>
      </trkpt>
      <trkpt lat="47.34174" lon="0.48018">
        <ele>54.451782226562</ele>
        <time>2013-06-28T12:31:15Z</time>
      </trkpt>
      <trkpt lat="47.34174" lon="0.48018">
        <ele>54.451782226562</ele>
        <time>2013-06-28T12:31:20Z</time>
      </trkpt>
      <trkpt lat="47.34174" lon="0.48018">
        <ele>55.4130859375</ele>
        <time>2013-06-28T12:31:41Z</time>
      </trkpt>
      <trkpt lat="47.34177" lon="0.48007">
        <ele>53.009765625</ele>
        <time>2013-06-28T12:31:49Z</time>
      </trkpt>
      <trkpt lat="47.34178" lon="0.48007">
        <ele>53.97119140625</ele>
        <time>2013-06-28T12:32:06Z</time>
      </trkpt>
      <trkpt lat="47.34179" lon="0.48007">
        <ele>55.893798828125</ele>
        <time>2013-06-28T12:32:22Z</time>
      </trkpt>
      <trkpt lat="47.34179" lon="0.48007">
        <ele>54.932373046875</ele>
        <time>2013-06-28T12:32:35Z</time>
      </trkpt>
      <trkpt lat="47.3418" lon="0.48007">
        <ele>55.4130859375</ele>
        <time>2013-06-28T12:32:44Z</time>
      </trkpt>
      <trkpt lat="47.34179" lon="0.48008">
        <ele>55.4130859375</ele>
        <time>2013-06-28T12:33:01Z</time>
      </trkpt>
      <trkpt lat="47.34178" lon="0.48009">
        <ele>57.816528320312</ele>
        <time>2013-06-28T12:33:18Z</time>
      </trkpt>
      <trkpt lat="47.34175" lon="0.48012">
        <ele>58.297119140625</ele>
        <time>2013-06-28T12:33:36Z</time>
      </trkpt>
      <trkpt lat="47.34176" lon="0.48014">
        <ele>54.451782226562</ele>
        <time>2013-06-28T12:33:42Z</time>
      </trkpt>
      <trkpt lat="47.34177" lon="0.48014">
        <ele>52.529174804688</ele>
        <time>2013-06-28T12:34:11Z</time>
      </trkpt>
      <trkpt lat="47.34176" lon="0.48013">
        <ele>53.97119140625</ele>
        <time>2013-06-28T12:34:45Z</time>
      </trkpt>
      <trkpt lat="47.34176" lon="0.48013">
        <ele>59.258422851562</ele>
        <time>2013-06-28T12:35:20Z</time>
      </trkpt>
      <trkpt lat="47.34175" lon="0.48013">
        <ele>61.661743164062</ele>
        <time>2013-06-28T12:35:54Z</time>
      </trkpt>
      <trkpt lat="47.34174" lon="0.48013">
        <ele>57.816528320312</ele>
        <time>2013-06-28T12:36:23Z</time>
      </trkpt>
      <trkpt lat="47.34176" lon="0.48013">
        <ele>53.97119140625</ele>
        <time>2013-06-28T12:36:47Z</time>
      </trkpt>
      <trkpt lat="47.34176" lon="0.4801">
        <ele>53.97119140625</ele>
        <time>2013-06-28T12:36:56Z</time>
      </trkpt>
      <trkpt lat="47.34176" lon="0.4801">
        <ele>53.97119140625</ele>
        <time>2013-06-28T12:37:00Z</time>
      </trkpt>
      <trkpt lat="47.3418" lon="0.47984">
        <ele>53.490478515625</ele>
        <time>2013-06-28T12:37:08Z</time>
      </trkpt>
      <trkpt lat="47.34184" lon="0.47955">
        <ele>53.490478515625</ele>
        <time>2013-06-28T12:37:15Z</time>
      </trkpt>
      <trkpt lat="47.34189" lon="0.47915">
        <ele>52.529174804688</ele>
        <time>2013-06-28T12:37:23Z</time>
      </trkpt>
      <trkpt lat="47.34187" lon="0.47879">
        <ele>50.606567382812</ele>
        <time>2013-06-28T12:37:31Z</time>
      </trkpt>
      <trkpt lat="47.34176" lon="0.47851">
        <ele>50.606567382812</ele>
        <time>2013-06-28T12:37:40Z</time>
      </trkpt>
      <trkpt lat="47.34161" lon="0.47829">
        <ele>51.087158203125</ele>
        <time>2013-06-28T12:37:49Z</time>
      </trkpt>
      <trkpt lat="47.34142" lon="0.47798">
        <ele>51.087158203125</ele>
        <time>2013-06-28T12:37:57Z</time>
      </trkpt>
      <trkpt lat="47.34106" lon="0.47746">
        <ele>52.048583984375</ele>
        <time>2013-06-28T12:38:08Z</time>
      </trkpt>
      <trkpt lat="47.34075" lon="0.47708">
        <ele>53.009765625</ele>
        <time>2013-06-28T12:38:17Z</time>
      </trkpt>
      <trkpt lat="47.34068" lon="0.47699">
        <ele>53.009765625</ele>
        <time>2013-06-28T12:38:19Z</time>
      </trkpt>
      <trkpt lat="47.34041" lon="0.4766">
        <ele>52.529174804688</ele>
        <time>2013-06-28T12:38:28Z</time>
      </trkpt>
      <trkpt lat="47.34014" lon="0.4762">
        <ele>52.048583984375</ele>
        <time>2013-06-28T12:38:38Z</time>
      </trkpt>
      <trkpt lat="47.3399" lon="0.47602">
        <ele>52.048583984375</ele>
        <time>2013-06-28T12:38:45Z</time>
      </trkpt>
      <trkpt lat="47.33945" lon="0.47598">
        <ele>53.009765625</ele>
        <time>2013-06-28T12:38:55Z</time>
      </trkpt>
      <trkpt lat="47.33903" lon="0.47594">
        <ele>53.490478515625</ele>
        <time>2013-06-28T12:39:03Z</time>
      </trkpt>
      <trkpt lat="47.3388" lon="0.47583">
        <ele>53.97119140625</ele>
        <time>2013-06-28T12:39:08Z</time>
      </trkpt>
      <trkpt lat="47.33847" lon="0.47556">
        <ele>53.97119140625</ele>
        <time>2013-06-28T12:39:15Z</time>
      </trkpt>
      <trkpt lat="47.33833" lon="0.47534">
        <ele>53.490478515625</ele>
        <time>2013-06-28T12:39:19Z</time>
      </trkpt>
      <trkpt lat="47.33812" lon="0.47478">
        <ele>53.97119140625</ele>
        <time>2013-06-28T12:39:28Z</time>
      </trkpt>
      <trkpt lat="47.33802" lon="0.47461">
        <ele>53.490478515625</ele>
        <time>2013-06-28T12:39:31Z</time>
      </trkpt>
      <trkpt lat="47.3376" lon="0.47412">
        <ele>53.490478515625</ele>
        <time>2013-06-28T12:39:41Z</time>
      </trkpt>
      <trkpt lat="47.33756" lon="0.47407">
        <ele>53.009765625</ele>
        <time>2013-06-28T12:39:42Z</time>
      </trkpt>
      <trkpt lat="47.3371" lon="0.47356">
        <ele>52.048583984375</ele>
        <time>2013-06-28T12:39:53Z</time>
      </trkpt>
      <trkpt lat="47.33669" lon="0.47313">
        <ele>52.048583984375</ele>
        <time>2013-06-28T12:40:01Z</time>
      </trkpt>
      <trkpt lat="47.3363" lon="0.47269">
        <ele>51.56787109375</ele>
        <time>2013-06-28T12:40:09Z</time>
      </trkpt>
      <trkpt lat="47.3359" lon="0.47215">
        <ele>50.606567382812</ele>
        <time>2013-06-28T12:40:17Z</time>
      </trkpt>
      <trkpt lat="47.33542" lon="0.47136">
        <ele>51.087158203125</ele>
        <time>2013-06-28T12:40:28Z</time>
      </trkpt>
      <trkpt lat="47.33485" lon="0.47065">
        <ele>50.606567382812</ele>
        <time>2013-06-28T12:40:39Z</time>
      </trkpt>
      <trkpt lat="47.33421" lon="0.46986">
        <ele>50.606567382812</ele>
        <time>2013-06-28T12:40:51Z</time>
      </trkpt>
      <trkpt lat="47.3336" lon="0.46913">
        <ele>52.529174804688</ele>
        <time>2013-06-28T12:41:02Z</time>
      </trkpt>
      <trkpt lat="47.33304" lon="0.46846">
        <ele>52.529174804688</ele>
        <time>2013-06-28T12:41:12Z</time>
      </trkpt>
      <trkpt lat="47.33263" lon="0.46789">
        <ele>52.529174804688</ele>
        <time>2013-06-28T12:41:20Z</time>
      </trkpt>
      <trkpt lat="47.33243" lon="0.46761">
        <ele>52.529174804688</ele>
        <time>2013-06-28T12:41:24Z</time>
      </trkpt>
      <trkpt lat="47.33203" lon="0.46703">
        <ele>53.009765625</ele>
        <time>2013-06-28T12:41:32Z</time>
      </trkpt>
      <trkpt lat="47.33165" lon="0.46632">
        <ele>52.048583984375</ele>
        <time>2013-06-28T12:41:41Z</time>
      </trkpt>
      <trkpt lat="47.33148" lon="0.46577">
        <ele>51.56787109375</ele>
        <time>2013-06-28T12:41:47Z</time>
      </trkpt>
      <trkpt lat="47.33128" lon="0.46547">
        <ele>51.56787109375</ele>
        <time>2013-06-28T12:41:51Z</time>
      </trkpt>
      <trkpt lat="47.3306" lon="0.46473">
        <ele>50.606567382812</ele>
        <time>2013-06-28T12:42:03Z</time>
      </trkpt>
      <trkpt lat="47.32981" lon="0.46368">
        <ele>50.1259765625</ele>
        <time>2013-06-28T12:42:17Z</time>
      </trkpt>
      <trkpt lat="47.32957" lon="0.46309">
        <ele>52.048583984375</ele>
        <time>2013-06-28T12:42:24Z</time>
      </trkpt>
      <trkpt lat="47.32931" lon="0.4626">
        <ele>52.529174804688</ele>
        <time>2013-06-28T12:42:31Z</time>
      </trkpt>
      <trkpt lat="47.32882" lon="0.46183">
        <ele>53.009765625</ele>
        <time>2013-06-28T12:42:41Z</time>
      </trkpt>
      <trkpt lat="47.32818" lon="0.46088">
        <ele>50.606567382812</ele>
        <time>2013-06-28T12:42:53Z</time>
      </trkpt>
      <trkpt lat="47.32756" lon="0.46023">
        <ele>53.009765625</ele>
        <time>2013-06-28T12:43:03Z</time>
      </trkpt>
      <trkpt lat="47.32711" lon="0.46011">
        <ele>53.490478515625</ele>
        <time>2013-06-28T12:43:09Z</time>
      </trkpt>
      <trkpt lat="47.32678" lon="0.45979">
        <ele>53.490478515625</ele>
        <time>2013-06-28T12:43:14Z</time>
      </trkpt>
      <trkpt lat="47.32622" lon="0.45888">
        <ele>54.451782226562</ele>
        <time>2013-06-28T12:43:25Z</time>
      </trkpt>
      <trkpt lat="47.32566" lon="0.45797">
        <ele>54.932373046875</ele>
        <time>2013-06-28T12:43:37Z</time>
      </trkpt>
      <trkpt lat="47.32526" lon="0.45728">
        <ele>53.490478515625</ele>
        <time>2013-06-28T12:43:46Z</time>
      </trkpt>
      <trkpt lat="47.32497" lon="0.45654">
        <ele>53.490478515625</ele>
        <time>2013-06-28T12:43:54Z</time>
      </trkpt>
      <trkpt lat="47.32475" lon="0.45563">
        <ele>52.529174804688</ele>
        <time>2013-06-28T12:44:03Z</time>
      </trkpt>
      <trkpt lat="47.3244" lon="0.45418">
        <ele>52.529174804688</ele>
        <time>2013-06-28T12:44:17Z</time>
      </trkpt>
      <trkpt lat="47.32409" lon="0.45292">
        <ele>51.087158203125</ele>
        <time>2013-06-28T12:44:29Z</time>
      </trkpt>
      <trkpt lat="47.32368" lon="0.45135">
        <ele>50.606567382812</ele>
        <time>2013-06-28T12:44:44Z</time>
      </trkpt>
      <trkpt lat="47.32325" lon="0.4497">
        <ele>50.606567382812</ele>
        <time>2013-06-28T12:45:00Z</time>
      </trkpt>
      <trkpt lat="47.32284" lon="0.44811">
        <ele>50.606567382812</ele>
        <time>2013-06-28T12:45:15Z</time>
      </trkpt>
      <trkpt lat="47.32244" lon="0.4466">
        <ele>50.606567382812</ele>
        <time>2013-06-28T12:45:29Z</time>
      </trkpt>
      <trkpt lat="47.32219" lon="0.44551">
        <ele>50.606567382812</ele>
        <time>2013-06-28T12:45:39Z</time>
      </trkpt>
      <trkpt lat="47.32215" lon="0.44459">
        <ele>49.645263671875</ele>
        <time>2013-06-28T12:45:47Z</time>
      </trkpt>
      <trkpt lat="47.32197" lon="0.44347">
        <ele>50.1259765625</ele>
        <time>2013-06-28T12:45:57Z</time>
      </trkpt>
      <trkpt lat="47.3217" lon="0.44228">
        <ele>50.606567382812</ele>
        <time>2013-06-28T12:46:08Z</time>
      </trkpt>
      <trkpt lat="47.32127" lon="0.44085">
        <ele>50.1259765625</ele>
        <time>2013-06-28T12:46:22Z</time>
      </trkpt>
      <trkpt lat="47.32094" lon="0.43972">
        <ele>49.645263671875</ele>
        <time>2013-06-28T12:46:33Z</time>
      </trkpt>
      <trkpt lat="47.32087" lon="0.43892">
        <ele>48.683959960938</ele>
        <time>2013-06-28T12:46:40Z</time>
      </trkpt>
      <trkpt lat="47.32074" lon="0.4378">
        <ele>48.683959960938</ele>
        <time>2013-06-28T12:46:50Z</time>
      </trkpt>
      <trkpt lat="47.32052" lon="0.43693">
        <ele>48.683959960938</ele>
        <time>2013-06-28T12:46:58Z</time>
      </trkpt>
      <trkpt lat="47.32044" lon="0.43661">
        <ele>47.722534179688</ele>
        <time>2013-06-28T12:47:01Z</time>
      </trkpt>
      <trkpt lat="47.32045" lon="0.43607">
        <ele>47.722534179688</ele>
        <time>2013-06-28T12:47:06Z</time>
      </trkpt>
      <trkpt lat="47.32057" lon="0.43523">
        <ele>47.241821289062</ele>
        <time>2013-06-28T12:47:14Z</time>
      </trkpt>
      <trkpt lat="47.32056" lon="0.4344">
        <ele>48.203369140625</ele>
        <time>2013-06-28T12:47:22Z</time>
      </trkpt>
      <trkpt lat="47.32035" lon="0.43362">
        <ele>48.683959960938</ele>
        <time>2013-06-28T12:47:30Z</time>
      </trkpt>
      <trkpt lat="47.32012" lon="0.43282">
        <ele>49.16455078125</ele>
        <time>2013-06-28T12:47:38Z</time>
      </trkpt>
      <trkpt lat="47.31991" lon="0.43228">
        <ele>49.16455078125</ele>
        <time>2013-06-28T12:47:44Z</time>
      </trkpt>
      <trkpt lat="47.31963" lon="0.43143">
        <ele>51.087158203125</ele>
        <time>2013-06-28T12:47:53Z</time>
      </trkpt>
      <trkpt lat="47.31936" lon="0.43066">
        <ele>50.606567382812</ele>
        <time>2013-06-28T12:48:01Z</time>
      </trkpt>
      <trkpt lat="47.31917" lon="0.42998">
        <ele>50.606567382812</ele>
        <time>2013-06-28T12:48:08Z</time>
      </trkpt>
      <trkpt lat="47.31895" lon="0.42873">
        <ele>50.1259765625</ele>
        <time>2013-06-28T12:48:20Z</time>
      </trkpt>
      <trkpt lat="47.31894" lon="0.42778">
        <ele>49.645263671875</ele>
        <time>2013-06-28T12:48:29Z</time>
      </trkpt>
      <trkpt lat="47.31896" lon="0.42738">
        <ele>49.645263671875</ele>
        <time>2013-06-28T12:48:33Z</time>
      </trkpt>
      <trkpt lat="47.31879" lon="0.42674">
        <ele>49.16455078125</ele>
        <time>2013-06-28T12:48:40Z</time>
      </trkpt>
      <trkpt lat="47.31867" lon="0.4261">
        <ele>49.16455078125</ele>
        <time>2013-06-28T12:48:47Z</time>
      </trkpt>
      <trkpt lat="47.31865" lon="0.42542">
        <ele>50.1259765625</ele>
        <time>2013-06-28T12:48:54Z</time>
      </trkpt>
      <trkpt lat="47.31851" lon="0.42489">
        <ele>50.1259765625</ele>
        <time>2013-06-28T12:49:00Z</time>
      </trkpt>
      <trkpt lat="47.31821" lon="0.42398">
        <ele>50.1259765625</ele>
        <time>2013-06-28T12:49:10Z</time>
      </trkpt>
      <trkpt lat="47.31816" lon="0.42379">
        <ele>50.1259765625</ele>
        <time>2013-06-28T12:49:12Z</time>
      </trkpt>
      <trkpt lat="47.31813" lon="0.42329">
        <ele>49.16455078125</ele>
        <time>2013-06-28T12:49:17Z</time>
      </trkpt>
      <trkpt lat="47.3182" lon="0.42228">
        <ele>47.722534179688</ele>
        <time>2013-06-28T12:49:27Z</time>
      </trkpt>
      <trkpt lat="47.31826" lon="0.42135">
        <ele>47.722534179688</ele>
        <time>2013-06-28T12:49:36Z</time>
      </trkpt>
      <trkpt lat="47.3183" lon="0.42043">
        <ele>48.683959960938</ele>
        <time>2013-06-28T12:49:45Z</time>
      </trkpt>
      <trkpt lat="47.31827" lon="0.41969">
        <ele>48.203369140625</ele>
        <time>2013-06-28T12:49:52Z</time>
      </trkpt>
      <trkpt lat="47.31811" lon="0.41875">
        <ele>48.203369140625</ele>
        <time>2013-06-28T12:50:01Z</time>
      </trkpt>
      <trkpt lat="47.31788" lon="0.41797">
        <ele>48.203369140625</ele>
        <time>2013-06-28T12:50:09Z</time>
      </trkpt>
      <trkpt lat="47.31749" lon="0.41673">
        <ele>48.203369140625</ele>
        <time>2013-06-28T12:50:22Z</time>
      </trkpt>
      <trkpt lat="47.31717" lon="0.41588">
        <ele>47.722534179688</ele>
        <time>2013-06-28T12:50:31Z</time>
      </trkpt>
      <trkpt lat="47.3168" lon="0.41482">
        <ele>48.203369140625</ele>
        <time>2013-06-28T12:50:42Z</time>
      </trkpt>
      <trkpt lat="47.31646" lon="0.41385">
        <ele>48.683959960938</ele>
        <time>2013-06-28T12:50:52Z</time>
      </trkpt>
      <trkpt lat="47.31597" lon="0.41252">
        <ele>49.16455078125</ele>
        <time>2013-06-28T12:51:06Z</time>
      </trkpt>
      <trkpt lat="47.31569" lon="0.41155">
        <ele>49.16455078125</ele>
        <time>2013-06-28T12:51:16Z</time>
      </trkpt>
      <trkpt lat="47.31542" lon="0.41043">
        <ele>49.16455078125</ele>
        <time>2013-06-28T12:51:27Z</time>
      </trkpt>
      <trkpt lat="47.3153" lon="0.4094">
        <ele>49.16455078125</ele>
        <time>2013-06-28T12:51:37Z</time>
      </trkpt>
      <trkpt lat="47.31517" lon="0.40888">
        <ele>49.645263671875</ele>
        <time>2013-06-28T12:51:43Z</time>
      </trkpt>
      <trkpt lat="47.31511" lon="0.40864">
        <ele>49.645263671875</ele>
        <time>2013-06-28T12:51:46Z</time>
      </trkpt>
      <trkpt lat="47.31499" lon="0.40825">
        <ele>49.16455078125</ele>
        <time>2013-06-28T12:51:53Z</time>
      </trkpt>
      <trkpt lat="47.31496" lon="0.40809">
        <ele>49.16455078125</ele>
        <time>2013-06-28T12:51:56Z</time>
      </trkpt>
      <trkpt lat="47.31479" lon="0.40753">
        <ele>49.16455078125</ele>
        <time>2013-06-28T12:52:03Z</time>
      </trkpt>
      <trkpt lat="47.31459" lon="0.40696">
        <ele>49.16455078125</ele>
        <time>2013-06-28T12:52:09Z</time>
      </trkpt>
      <trkpt lat="47.31425" lon="0.40609">
        <ele>48.683959960938</ele>
        <time>2013-06-28T12:52:19Z</time>
      </trkpt>
      <trkpt lat="47.31391" lon="0.40514">
        <ele>47.722534179688</ele>
        <time>2013-06-28T12:52:30Z</time>
      </trkpt>
      <trkpt lat="47.31354" lon="0.40416">
        <ele>47.722534179688</ele>
        <time>2013-06-28T12:52:41Z</time>
      </trkpt>
      <trkpt lat="47.31312" lon="0.40299">
        <ele>47.241821289062</ele>
        <time>2013-06-28T12:52:54Z</time>
      </trkpt>
      <trkpt lat="47.31278" lon="0.40185">
        <ele>47.722534179688</ele>
        <time>2013-06-28T12:53:06Z</time>
      </trkpt>
      <trkpt lat="47.31242" lon="0.40051">
        <ele>48.203369140625</ele>
        <time>2013-06-28T12:53:20Z</time>
      </trkpt>
      <trkpt lat="47.31216" lon="0.3993">
        <ele>49.645263671875</ele>
        <time>2013-06-28T12:53:32Z</time>
      </trkpt>
      <trkpt lat="47.31159" lon="0.39791">
        <ele>48.683959960938</ele>
        <time>2013-06-28T12:53:47Z</time>
      </trkpt>
      <trkpt lat="47.31099" lon="0.39658">
        <ele>51.087158203125</ele>
        <time>2013-06-28T12:54:02Z</time>
      </trkpt>
      <trkpt lat="47.31051" lon="0.39529">
        <ele>50.1259765625</ele>
        <time>2013-06-28T12:54:16Z</time>
      </trkpt>
      <trkpt lat="47.31004" lon="0.39374">
        <ele>49.16455078125</ele>
        <time>2013-06-28T12:54:32Z</time>
      </trkpt>
      <trkpt lat="47.30991" lon="0.39291">
        <ele>48.203369140625</ele>
        <time>2013-06-28T12:54:40Z</time>
      </trkpt>
      <trkpt lat="47.30972" lon="0.39223">
        <ele>49.16455078125</ele>
        <time>2013-06-28T12:54:47Z</time>
      </trkpt>
      <trkpt lat="47.30924" lon="0.39091">
        <ele>50.1259765625</ele>
        <time>2013-06-28T12:55:01Z</time>
      </trkpt>
      <trkpt lat="47.30883" lon="0.39">
        <ele>49.16455078125</ele>
        <time>2013-06-28T12:55:11Z</time>
      </trkpt>
      <trkpt lat="47.30808" lon="0.3886">
        <ele>48.203369140625</ele>
        <time>2013-06-28T12:55:27Z</time>
      </trkpt>
      <trkpt lat="47.30776" lon="0.38771">
        <ele>49.645263671875</ele>
        <time>2013-06-28T12:55:36Z</time>
      </trkpt>
      <trkpt lat="47.30744" lon="0.38647">
        <ele>48.203369140625</ele>
        <time>2013-06-28T12:55:48Z</time>
      </trkpt>
      <trkpt lat="47.3071" lon="0.38499">
        <ele>48.683959960938</ele>
        <time>2013-06-28T12:56:02Z</time>
      </trkpt>
      <trkpt lat="47.30702" lon="0.38467">
        <ele>48.683959960938</ele>
        <time>2013-06-28T12:56:05Z</time>
      </trkpt>
      <trkpt lat="47.3066" lon="0.38399">
        <ele>49.16455078125</ele>
        <time>2013-06-28T12:56:13Z</time>
      </trkpt>
      <trkpt lat="47.30628" lon="0.38331">
        <ele>49.645263671875</ele>
        <time>2013-06-28T12:56:20Z</time>
      </trkpt>
      <trkpt lat="47.30571" lon="0.38208">
        <ele>48.683959960938</ele>
        <time>2013-06-28T12:56:33Z</time>
      </trkpt>
      <trkpt lat="47.30509" lon="0.38075">
        <ele>49.645263671875</ele>
        <time>2013-06-28T12:56:47Z</time>
      </trkpt>
      <trkpt lat="47.30466" lon="0.37979">
        <ele>49.645263671875</ele>
        <time>2013-06-28T12:56:57Z</time>
      </trkpt>
      <trkpt lat="47.30423" lon="0.37914">
        <ele>49.16455078125</ele>
        <time>2013-06-28T12:57:05Z</time>
      </trkpt>
      <trkpt lat="47.30418" lon="0.37904">
        <ele>49.16455078125</ele>
        <time>2013-06-28T12:57:06Z</time>
      </trkpt>
      <trkpt lat="47.30388" lon="0.3781">
        <ele>49.645263671875</ele>
        <time>2013-06-28T12:57:15Z</time>
      </trkpt>
      <trkpt lat="47.30357" lon="0.37683">
        <ele>49.16455078125</ele>
        <time>2013-06-28T12:57:27Z</time>
      </trkpt>
      <trkpt lat="47.30328" lon="0.37574">
        <ele>49.16455078125</ele>
        <time>2013-06-28T12:57:38Z</time>
      </trkpt>
      <trkpt lat="47.30301" lon="0.37467">
        <ele>49.16455078125</ele>
        <time>2013-06-28T12:57:49Z</time>
      </trkpt>
      <trkpt lat="47.30279" lon="0.37359">
        <ele>49.645263671875</ele>
        <time>2013-06-28T12:58:00Z</time>
      </trkpt>
      <trkpt lat="47.3026" lon="0.37301">
        <ele>49.16455078125</ele>
        <time>2013-06-28T12:58:06Z</time>
      </trkpt>
      <trkpt lat="47.30222" lon="0.3723">
        <ele>48.203369140625</ele>
        <time>2013-06-28T12:58:15Z</time>
      </trkpt>
      <trkpt lat="47.30169" lon="0.37152">
        <ele>48.203369140625</ele>
        <time>2013-06-28T12:58:26Z</time>
      </trkpt>
      <trkpt lat="47.3012" lon="0.3708">
        <ele>48.203369140625</ele>
        <time>2013-06-28T12:58:36Z</time>
      </trkpt>
      <trkpt lat="47.30086" lon="0.37023">
        <ele>48.683959960938</ele>
        <time>2013-06-28T12:58:43Z</time>
      </trkpt>
      <trkpt lat="47.30031" lon="0.36913">
        <ele>48.203369140625</ele>
        <time>2013-06-28T12:58:56Z</time>
      </trkpt>
      <trkpt lat="47.29974" lon="0.36821">
        <ele>48.203369140625</ele>
        <time>2013-06-28T12:59:08Z</time>
      </trkpt>
      <trkpt lat="47.29905" lon="0.36752">
        <ele>48.203369140625</ele>
        <time>2013-06-28T12:59:20Z</time>
      </trkpt>
      <trkpt lat="47.29874" lon="0.36696">
        <ele>47.722534179688</ele>
        <time>2013-06-28T12:59:27Z</time>
      </trkpt>
      <trkpt lat="47.29853" lon="0.36611">
        <ele>47.241821289062</ele>
        <time>2013-06-28T12:59:36Z</time>
      </trkpt>
      <trkpt lat="47.29844" lon="0.36522">
        <ele>46.280639648438</ele>
        <time>2013-06-28T12:59:45Z</time>
      </trkpt>
      <trkpt lat="47.29831" lon="0.36391">
        <ele>45.319213867188</ele>
        <time>2013-06-28T12:59:58Z</time>
      </trkpt>
      <trkpt lat="47.29814" lon="0.36317">
        <ele>45.319213867188</ele>
        <time>2013-06-28T13:00:06Z</time>
      </trkpt>
      <trkpt lat="47.29811" lon="0.36308">
        <ele>45.319213867188</ele>
        <time>2013-06-28T13:00:07Z</time>
      </trkpt>
      <trkpt lat="47.29808" lon="0.36288">
        <ele>45.319213867188</ele>
        <time>2013-06-28T13:00:09Z</time>
      </trkpt>
      <trkpt lat="47.29781" lon="0.36201">
        <ele>46.280639648438</ele>
        <time>2013-06-28T13:00:18Z</time>
      </trkpt>
      <trkpt lat="47.29745" lon="0.36089">
        <ele>47.241821289062</ele>
        <time>2013-06-28T13:00:30Z</time>
      </trkpt>
      <trkpt lat="47.29726" lon="0.36021">
        <ele>47.722534179688</ele>
        <time>2013-06-28T13:00:38Z</time>
      </trkpt>
      <trkpt lat="47.29713" lon="0.35974">
        <ele>47.722534179688</ele>
        <time>2013-06-28T13:00:45Z</time>
      </trkpt>
      <trkpt lat="47.29694" lon="0.35902">
        <ele>48.203369140625</ele>
        <time>2013-06-28T13:00:56Z</time>
      </trkpt>
      <trkpt lat="47.2968" lon="0.35857">
        <ele>48.683959960938</ele>
        <time>2013-06-28T13:01:05Z</time>
      </trkpt>
      <trkpt lat="47.29675" lon="0.35829">
        <ele>48.203369140625</ele>
        <time>2013-06-28T13:01:13Z</time>
      </trkpt>
      <trkpt lat="47.29675" lon="0.35827">
        <ele>47.722534179688</ele>
        <time>2013-06-28T13:01:19Z</time>
      </trkpt>
      <trkpt lat="47.29676" lon="0.35829">
        <ele>45.799926757812</ele>
        <time>2013-06-28T13:01:31Z</time>
      </trkpt>
      <trkpt lat="47.29677" lon="0.35829">
        <ele>44.358032226562</ele>
        <time>2013-06-28T13:02:04Z</time>
      </trkpt>
      <trkpt lat="47.29677" lon="0.35829">
        <ele>45.799926757812</ele>
        <time>2013-06-28T13:02:43Z</time>
      </trkpt>
      <trkpt lat="47.29677" lon="0.3583">
        <ele>48.683959960938</ele>
        <time>2013-06-28T13:03:21Z</time>
      </trkpt>
      <trkpt lat="47.29677" lon="0.35831">
        <ele>48.203369140625</ele>
        <time>2013-06-28T13:03:31Z</time>
      </trkpt>
      <trkpt lat="47.29669" lon="0.35817">
        <ele>46.76123046875</ele>
        <time>2013-06-28T13:03:39Z</time>
      </trkpt>
      <trkpt lat="47.29655" lon="0.35774">
        <ele>45.799926757812</ele>
        <time>2013-06-28T13:03:48Z</time>
      </trkpt>
      <trkpt lat="47.29635" lon="0.35702">
        <ele>45.319213867188</ele>
        <time>2013-06-28T13:03:59Z</time>
      </trkpt>
      <trkpt lat="47.29619" lon="0.35637">
        <ele>46.76123046875</ele>
        <time>2013-06-28T13:04:09Z</time>
      </trkpt>
      <trkpt lat="47.29614" lon="0.35598">
        <ele>47.241821289062</ele>
        <time>2013-06-28T13:04:15Z</time>
      </trkpt>
      <trkpt lat="47.29612" lon="0.35585">
        <ele>48.203369140625</ele>
        <time>2013-06-28T13:04:17Z</time>
      </trkpt>
      <trkpt lat="47.29607" lon="0.35559">
        <ele>48.203369140625</ele>
        <time>2013-06-28T13:04:21Z</time>
      </trkpt>
      <trkpt lat="47.29593" lon="0.35485">
        <ele>47.722534179688</ele>
        <time>2013-06-28T13:04:32Z</time>
      </trkpt>
      <trkpt lat="47.29573" lon="0.3543">
        <ele>47.241821289062</ele>
        <time>2013-06-28T13:04:40Z</time>
      </trkpt>
      <trkpt lat="47.29549" lon="0.35355">
        <ele>47.722534179688</ele>
        <time>2013-06-28T13:04:50Z</time>
      </trkpt>
      <trkpt lat="47.29528" lon="0.35275">
        <ele>48.203369140625</ele>
        <time>2013-06-28T13:05:00Z</time>
      </trkpt>
      <trkpt lat="47.29516" lon="0.35237">
        <ele>48.203369140625</ele>
        <time>2013-06-28T13:05:05Z</time>
      </trkpt>
      <trkpt lat="47.29485" lon="0.35177">
        <ele>48.683959960938</ele>
        <time>2013-06-28T13:05:14Z</time>
      </trkpt>
      <trkpt lat="47.29456" lon="0.35116">
        <ele>48.683959960938</ele>
        <time>2013-06-28T13:05:23Z</time>
      </trkpt>
      <trkpt lat="47.29415" lon="0.35041">
        <ele>49.16455078125</ele>
        <time>2013-06-28T13:05:34Z</time>
      </trkpt>
      <trkpt lat="47.29365" lon="0.34957">
        <ele>51.087158203125</ele>
        <time>2013-06-28T13:05:46Z</time>
      </trkpt>
      <trkpt lat="47.29305" lon="0.34872">
        <ele>52.048583984375</ele>
        <time>2013-06-28T13:05:59Z</time>
      </trkpt>
      <trkpt lat="47.29241" lon="0.34785">
        <ele>53.97119140625</ele>
        <time>2013-06-28T13:06:12Z</time>
      </trkpt>
      <trkpt lat="47.29179" lon="0.34704">
        <ele>55.4130859375</ele>
        <time>2013-06-28T13:06:24Z</time>
      </trkpt>
      <trkpt lat="47.29128" lon="0.34619">
        <ele>53.97119140625</ele>
        <time>2013-06-28T13:06:35Z</time>
      </trkpt>
      <trkpt lat="47.291" lon="0.34558">
        <ele>53.009765625</ele>
        <time>2013-06-28T13:06:42Z</time>
      </trkpt>
      <trkpt lat="47.2905" lon="0.34443">
        <ele>53.009765625</ele>
        <time>2013-06-28T13:06:55Z</time>
      </trkpt>
      <trkpt lat="47.2901" lon="0.34386">
        <ele>52.048583984375</ele>
        <time>2013-06-28T13:07:03Z</time>
      </trkpt>
      <trkpt lat="47.28942" lon="0.34292">
        <ele>52.048583984375</ele>
        <time>2013-06-28T13:07:16Z</time>
      </trkpt>
      <trkpt lat="47.28878" lon="0.34192">
        <ele>50.606567382812</ele>
        <time>2013-06-28T13:07:29Z</time>
      </trkpt>
      <trkpt lat="47.28812" lon="0.34094">
        <ele>52.048583984375</ele>
        <time>2013-06-28T13:07:42Z</time>
      </trkpt>
      <trkpt lat="47.2875" lon="0.33994">
        <ele>53.490478515625</ele>
        <time>2013-06-28T13:07:55Z</time>
      </trkpt>
      <trkpt lat="47.28709" lon="0.33913">
        <ele>51.087158203125</ele>
        <time>2013-06-28T13:08:05Z</time>
      </trkpt>
      <trkpt lat="47.28664" lon="0.33833">
        <ele>52.048583984375</ele>
        <time>2013-06-28T13:08:15Z</time>
      </trkpt>
      <trkpt lat="47.28607" lon="0.33722">
        <ele>50.1259765625</ele>
        <time>2013-06-28T13:08:28Z</time>
      </trkpt>
      <trkpt lat="47.2855" lon="0.33637">
        <ele>48.203369140625</ele>
        <time>2013-06-28T13:08:39Z</time>
      </trkpt>
      <trkpt lat="47.28478" lon="0.3356">
        <ele>47.722534179688</ele>
        <time>2013-06-28T13:08:51Z</time>
      </trkpt>
      <trkpt lat="47.28423" lon="0.33483">
        <ele>47.241821289062</ele>
        <time>2013-06-28T13:09:01Z</time>
      </trkpt>
      <trkpt lat="47.28387" lon="0.33396">
        <ele>47.241821289062</ele>
        <time>2013-06-28T13:09:10Z</time>
      </trkpt>
      <trkpt lat="47.28345" lon="0.33315">
        <ele>47.241821289062</ele>
        <time>2013-06-28T13:09:19Z</time>
      </trkpt>
      <trkpt lat="47.28283" lon="0.33232">
        <ele>47.241821289062</ele>
        <time>2013-06-28T13:09:30Z</time>
      </trkpt>
      <trkpt lat="47.28216" lon="0.33138">
        <ele>45.319213867188</ele>
        <time>2013-06-28T13:09:42Z</time>
      </trkpt>
      <trkpt lat="47.28198" lon="0.33116">
        <ele>46.76123046875</ele>
        <time>2013-06-28T13:09:45Z</time>
      </trkpt>
      <trkpt lat="47.28172" lon="0.33094">
        <ele>46.76123046875</ele>
        <time>2013-06-28T13:09:49Z</time>
      </trkpt>
      <trkpt lat="47.28119" lon="0.3305">
        <ele>45.799926757812</ele>
        <time>2013-06-28T13:09:57Z</time>
      </trkpt>
      <trkpt lat="47.28059" lon="0.32973">
        <ele>45.319213867188</ele>
        <time>2013-06-28T13:10:08Z</time>
      </trkpt>
      <trkpt lat="47.28019" lon="0.32898">
        <ele>43.396606445312</ele>
        <time>2013-06-28T13:10:17Z</time>
      </trkpt>
      <trkpt lat="47.27976" lon="0.32801">
        <ele>42.435424804688</ele>
        <time>2013-06-28T13:10:28Z</time>
      </trkpt>
      <trkpt lat="47.27964" lon="0.32731">
        <ele>41.954711914062</ele>
        <time>2013-06-28T13:10:35Z</time>
      </trkpt>
      <trkpt lat="47.27958" lon="0.3269">
        <ele>41.954711914062</ele>
        <time>2013-06-28T13:10:39Z</time>
      </trkpt>
      <trkpt lat="47.27939" lon="0.32647">
        <ele>41.954711914062</ele>
        <time>2013-06-28T13:10:44Z</time>
      </trkpt>
      <trkpt lat="47.27884" lon="0.32561">
        <ele>42.435424804688</ele>
        <time>2013-06-28T13:10:56Z</time>
      </trkpt>
      <trkpt lat="47.2784" lon="0.32504">
        <ele>43.396606445312</ele>
        <time>2013-06-28T13:11:06Z</time>
      </trkpt>
      <trkpt lat="47.2779" lon="0.32467">
        <ele>43.396606445312</ele>
        <time>2013-06-28T13:11:15Z</time>
      </trkpt>
      <trkpt lat="47.27742" lon="0.32437">
        <ele>43.396606445312</ele>
        <time>2013-06-28T13:11:23Z</time>
      </trkpt>
      <trkpt lat="47.277" lon="0.3239">
        <ele>43.877319335938</ele>
        <time>2013-06-28T13:11:31Z</time>
      </trkpt>
      <trkpt lat="47.27654" lon="0.32319">
        <ele>43.396606445312</ele>
        <time>2013-06-28T13:11:41Z</time>
      </trkpt>
      <trkpt lat="47.27595" lon="0.32249">
        <ele>43.877319335938</ele>
        <time>2013-06-28T13:11:52Z</time>
      </trkpt>
      <trkpt lat="47.27538" lon="0.32187">
        <ele>44.838623046875</ele>
        <time>2013-06-28T13:12:02Z</time>
      </trkpt>
      <trkpt lat="47.27445" lon="0.32097">
        <ele>44.358032226562</ele>
        <time>2013-06-28T13:12:18Z</time>
      </trkpt>
      <trkpt lat="47.27407" lon="0.32068">
        <ele>44.358032226562</ele>
        <time>2013-06-28T13:12:24Z</time>
      </trkpt>
      <trkpt lat="47.27349" lon="0.3206">
        <ele>45.319213867188</ele>
        <time>2013-06-28T13:12:32Z</time>
      </trkpt>
      <trkpt lat="47.27335" lon="0.32055">
        <ele>45.319213867188</ele>
        <time>2013-06-28T13:12:34Z</time>
      </trkpt>
      <trkpt lat="47.27301" lon="0.32017">
        <ele>45.319213867188</ele>
        <time>2013-06-28T13:12:40Z</time>
      </trkpt>
      <trkpt lat="47.27293" lon="0.31988">
        <ele>44.358032226562</ele>
        <time>2013-06-28T13:12:43Z</time>
      </trkpt>
      <trkpt lat="47.27216" lon="0.31784">
        <ele>40.512817382812</ele>
        <time>2013-06-28T13:13:06Z</time>
      </trkpt>
      <trkpt lat="47.2717" lon="0.31713">
        <ele>41.473999023438</ele>
        <time>2013-06-28T13:13:15Z</time>
      </trkpt>
      <trkpt lat="47.27148" lon="0.31682">
        <ele>41.954711914062</ele>
        <time>2013-06-28T13:13:19Z</time>
      </trkpt>
      <trkpt lat="47.27122" lon="0.31662">
        <ele>42.916015625</ele>
        <time>2013-06-28T13:13:23Z</time>
      </trkpt>
      <trkpt lat="47.27073" lon="0.31615">
        <ele>42.916015625</ele>
        <time>2013-06-28T13:13:31Z</time>
      </trkpt>
      <trkpt lat="47.2701" lon="0.3152">
        <ele>43.396606445312</ele>
        <time>2013-06-28T13:13:43Z</time>
      </trkpt>
      <trkpt lat="47.26977" lon="0.31449">
        <ele>42.916015625</ele>
        <time>2013-06-28T13:13:51Z</time>
      </trkpt>
      <trkpt lat="47.26962" lon="0.31408">
        <ele>43.396606445312</ele>
        <time>2013-06-28T13:13:55Z</time>
      </trkpt>
      <trkpt lat="47.26925" lon="0.31355">
        <ele>44.358032226562</ele>
        <time>2013-06-28T13:14:02Z</time>
      </trkpt>
      <trkpt lat="47.26897" lon="0.31294">
        <ele>44.358032226562</ele>
        <time>2013-06-28T13:14:09Z</time>
      </trkpt>
      <trkpt lat="47.26864" lon="0.3119">
        <ele>43.396606445312</ele>
        <time>2013-06-28T13:14:20Z</time>
      </trkpt>
      <trkpt lat="47.26837" lon="0.31103">
        <ele>42.435424804688</ele>
        <time>2013-06-28T13:14:29Z</time>
      </trkpt>
      <trkpt lat="47.2678" lon="0.30977">
        <ele>42.916015625</ele>
        <time>2013-06-28T13:14:43Z</time>
      </trkpt>
      <trkpt lat="47.26734" lon="0.3092">
        <ele>43.396606445312</ele>
        <time>2013-06-28T13:14:51Z</time>
      </trkpt>
      <trkpt lat="47.26677" lon="0.3083">
        <ele>43.396606445312</ele>
        <time>2013-06-28T13:15:02Z</time>
      </trkpt>
      <trkpt lat="47.26617" lon="0.30718">
        <ele>43.396606445312</ele>
        <time>2013-06-28T13:15:15Z</time>
      </trkpt>
      <trkpt lat="47.26584" lon="0.30618">
        <ele>42.916015625</ele>
        <time>2013-06-28T13:15:25Z</time>
      </trkpt>
      <trkpt lat="47.26542" lon="0.30475">
        <ele>42.435424804688</ele>
        <time>2013-06-28T13:15:39Z</time>
      </trkpt>
      <trkpt lat="47.2651" lon="0.30411">
        <ele>42.916015625</ele>
        <time>2013-06-28T13:15:46Z</time>
      </trkpt>
      <trkpt lat="47.26457" lon="0.30304">
        <ele>43.396606445312</ele>
        <time>2013-06-28T13:15:58Z</time>
      </trkpt>
      <trkpt lat="47.26433" lon="0.30208">
        <ele>42.916015625</ele>
        <time>2013-06-28T13:16:07Z</time>
      </trkpt>
      <trkpt lat="47.26411" lon="0.30078">
        <ele>41.954711914062</ele>
        <time>2013-06-28T13:16:19Z</time>
      </trkpt>
      <trkpt lat="47.26405" lon="0.29983">
        <ele>41.473999023438</ele>
        <time>2013-06-28T13:16:28Z</time>
      </trkpt>
      <trkpt lat="47.26404" lon="0.29937">
        <ele>40.993408203125</ele>
        <time>2013-06-28T13:16:33Z</time>
      </trkpt>
      <trkpt lat="47.26395" lon="0.29907">
        <ele>41.473999023438</ele>
        <time>2013-06-28T13:16:37Z</time>
      </trkpt>
      <trkpt lat="47.26377" lon="0.29862">
        <ele>41.473999023438</ele>
        <time>2013-06-28T13:16:45Z</time>
      </trkpt>
      <trkpt lat="47.26363" lon="0.29828">
        <ele>41.954711914062</ele>
        <time>2013-06-28T13:16:54Z</time>
      </trkpt>
      <trkpt lat="47.26357" lon="0.29815">
        <ele>41.954711914062</ele>
        <time>2013-06-28T13:17:02Z</time>
      </trkpt>
      <trkpt lat="47.26354" lon="0.2981">
        <ele>42.435424804688</ele>
        <time>2013-06-28T13:17:15Z</time>
      </trkpt>
      <trkpt lat="47.26345" lon="0.29793">
        <ele>42.435424804688</ele>
        <time>2013-06-28T13:17:22Z</time>
      </trkpt>
      <trkpt lat="47.26331" lon="0.29753">
        <ele>42.435424804688</ele>
        <time>2013-06-28T13:17:29Z</time>
      </trkpt>
      <trkpt lat="47.26316" lon="0.29684">
        <ele>41.473999023438</ele>
        <time>2013-06-28T13:17:38Z</time>
      </trkpt>
      <trkpt lat="47.26315" lon="0.29613">
        <ele>41.954711914062</ele>
        <time>2013-06-28T13:17:46Z</time>
      </trkpt>
      <trkpt lat="47.26313" lon="0.29507">
        <ele>42.435424804688</ele>
        <time>2013-06-28T13:17:57Z</time>
      </trkpt>
      <trkpt lat="47.2631" lon="0.29488">
        <ele>41.473999023438</ele>
        <time>2013-06-28T13:17:59Z</time>
      </trkpt>
      <trkpt lat="47.26287" lon="0.29411">
        <ele>40.032104492188</ele>
        <time>2013-06-28T13:18:08Z</time>
      </trkpt>
      <trkpt lat="47.26267" lon="0.29335">
        <ele>40.032104492188</ele>
        <time>2013-06-28T13:18:17Z</time>
      </trkpt>
      <trkpt lat="47.26249" lon="0.29269">
        <ele>40.512817382812</ele>
        <time>2013-06-28T13:18:24Z</time>
      </trkpt>
      <trkpt lat="47.26225" lon="0.29198">
        <ele>40.993408203125</ele>
        <time>2013-06-28T13:18:32Z</time>
      </trkpt>
      <trkpt lat="47.26205" lon="0.29125">
        <ele>40.512817382812</ele>
        <time>2013-06-28T13:18:40Z</time>
      </trkpt>
      <trkpt lat="47.26186" lon="0.29038">
        <ele>40.512817382812</ele>
        <time>2013-06-28T13:18:50Z</time>
      </trkpt>
      <trkpt lat="47.26161" lon="0.28927">
        <ele>40.993408203125</ele>
        <time>2013-06-28T13:19:03Z</time>
      </trkpt>
      <trkpt lat="47.26141" lon="0.28847">
        <ele>40.993408203125</ele>
        <time>2013-06-28T13:19:12Z</time>
      </trkpt>
      <trkpt lat="47.26125" lon="0.28759">
        <ele>41.473999023438</ele>
        <time>2013-06-28T13:19:22Z</time>
      </trkpt>
      <trkpt lat="47.26106" lon="0.28666">
        <ele>41.473999023438</ele>
        <time>2013-06-28T13:19:33Z</time>
      </trkpt>
      <trkpt lat="47.26091" lon="0.28588">
        <ele>40.993408203125</ele>
        <time>2013-06-28T13:19:42Z</time>
      </trkpt>
      <trkpt lat="47.26069" lon="0.28472">
        <ele>40.032104492188</ele>
        <time>2013-06-28T13:19:55Z</time>
      </trkpt>
      <trkpt lat="47.26048" lon="0.28351">
        <ele>37.628662109375</ele>
        <time>2013-06-28T13:20:08Z</time>
      </trkpt>
      <trkpt lat="47.26032" lon="0.28243">
        <ele>35.225463867188</ele>
        <time>2013-06-28T13:20:19Z</time>
      </trkpt>
      <trkpt lat="47.26027" lon="0.28133">
        <ele>35.225463867188</ele>
        <time>2013-06-28T13:20:30Z</time>
      </trkpt>
      <trkpt lat="47.26035" lon="0.27985">
        <ele>34.744873046875</ele>
        <time>2013-06-28T13:20:45Z</time>
      </trkpt>
      <trkpt lat="47.26034" lon="0.27883">
        <ele>33.783447265625</ele>
        <time>2013-06-28T13:20:55Z</time>
      </trkpt>
      <trkpt lat="47.26024" lon="0.27748">
        <ele>35.225463867188</ele>
        <time>2013-06-28T13:21:08Z</time>
      </trkpt>
      <trkpt lat="47.26008" lon="0.27636">
        <ele>35.225463867188</ele>
        <time>2013-06-28T13:21:19Z</time>
      </trkpt>
      <trkpt lat="47.2599" lon="0.27496">
        <ele>35.7060546875</ele>
        <time>2013-06-28T13:21:33Z</time>
      </trkpt>
      <trkpt lat="47.25982" lon="0.27446">
        <ele>35.7060546875</ele>
        <time>2013-06-28T13:21:38Z</time>
      </trkpt>
      <trkpt lat="47.2596" lon="0.27404">
        <ele>34.744873046875</ele>
        <time>2013-06-28T13:21:43Z</time>
      </trkpt>
      <trkpt lat="47.25947" lon="0.27391">
        <ele>34.744873046875</ele>
        <time>2013-06-28T13:21:45Z</time>
      </trkpt>
      <trkpt lat="47.25834" lon="0.27314">
        <ele>35.225463867188</ele>
        <time>2013-06-28T13:22:01Z</time>
      </trkpt>
      <trkpt lat="47.25747" lon="0.27255">
        <ele>36.66748046875</ele>
        <time>2013-06-28T13:22:14Z</time>
      </trkpt>
      <trkpt lat="47.25737" lon="0.27244">
        <ele>37.628662109375</ele>
        <time>2013-06-28T13:22:16Z</time>
      </trkpt>
      <trkpt lat="47.25713" lon="0.27244">
        <ele>38.590087890625</ele>
        <time>2013-06-28T13:22:20Z</time>
      </trkpt>
      <trkpt lat="47.25701" lon="0.2725">
        <ele>38.590087890625</ele>
        <time>2013-06-28T13:22:22Z</time>
      </trkpt>
      <trkpt lat="47.25668" lon="0.27239">
        <ele>38.109375</ele>
        <time>2013-06-28T13:22:27Z</time>
      </trkpt>
      <trkpt lat="47.25603" lon="0.27174">
        <ele>39.070678710938</ele>
        <time>2013-06-28T13:22:39Z</time>
      </trkpt>
      <trkpt lat="47.25592" lon="0.27164">
        <ele>39.55126953125</ele>
        <time>2013-06-28T13:22:41Z</time>
      </trkpt>
      <trkpt lat="47.25577" lon="0.27146">
        <ele>40.512817382812</ele>
        <time>2013-06-28T13:22:44Z</time>
      </trkpt>
      <trkpt lat="47.25554" lon="0.27068">
        <ele>40.512817382812</ele>
        <time>2013-06-28T13:22:53Z</time>
      </trkpt>
      <trkpt lat="47.25534" lon="0.26965">
        <ele>38.109375</ele>
        <time>2013-06-28T13:23:04Z</time>
      </trkpt>
      <trkpt lat="47.2552" lon="0.26834">
        <ele>36.66748046875</ele>
        <time>2013-06-28T13:23:17Z</time>
      </trkpt>
      <trkpt lat="47.25511" lon="0.26713">
        <ele>36.186767578125</ele>
        <time>2013-06-28T13:23:29Z</time>
      </trkpt>
      <trkpt lat="47.25514" lon="0.26576">
        <ele>34.26416015625</ele>
        <time>2013-06-28T13:23:42Z</time>
      </trkpt>
      <trkpt lat="47.25516" lon="0.26513">
        <ele>34.26416015625</ele>
        <time>2013-06-28T13:23:48Z</time>
      </trkpt>
      <trkpt lat="47.25504" lon="0.26477">
        <ele>34.26416015625</ele>
        <time>2013-06-28T13:23:52Z</time>
      </trkpt>
      <trkpt lat="47.25483" lon="0.26472">
        <ele>34.26416015625</ele>
        <time>2013-06-28T13:23:55Z</time>
      </trkpt>
      <trkpt lat="47.25396" lon="0.26467">
        <ele>35.225463867188</ele>
        <time>2013-06-28T13:24:07Z</time>
      </trkpt>
      <trkpt lat="47.25299" lon="0.26464">
        <ele>36.186767578125</ele>
        <time>2013-06-28T13:24:20Z</time>
      </trkpt>
      <trkpt lat="47.25266" lon="0.26439">
        <ele>36.66748046875</ele>
        <time>2013-06-28T13:24:25Z</time>
      </trkpt>
      <trkpt lat="47.25261" lon="0.26432">
        <ele>36.66748046875</ele>
        <time>2013-06-28T13:24:26Z</time>
      </trkpt>
      <trkpt lat="47.25197" lon="0.26321">
        <ele>36.186767578125</ele>
        <time>2013-06-28T13:24:39Z</time>
      </trkpt>
      <trkpt lat="47.25151" lon="0.26193">
        <ele>36.186767578125</ele>
        <time>2013-06-28T13:24:52Z</time>
      </trkpt>
      <trkpt lat="47.25106" lon="0.26067">
        <ele>35.7060546875</ele>
        <time>2013-06-28T13:25:05Z</time>
      </trkpt>
      <trkpt lat="47.25069" lon="0.25962">
        <ele>36.66748046875</ele>
        <time>2013-06-28T13:25:16Z</time>
      </trkpt>
      <trkpt lat="47.24997" lon="0.25867">
        <ele>36.66748046875</ele>
        <time>2013-06-28T13:25:29Z</time>
      </trkpt>
      <trkpt lat="47.24925" lon="0.25822">
        <ele>37.628662109375</ele>
        <time>2013-06-28T13:25:40Z</time>
      </trkpt>
      <trkpt lat="47.24867" lon="0.25784">
        <ele>37.628662109375</ele>
        <time>2013-06-28T13:25:49Z</time>
      </trkpt>
      <trkpt lat="47.24848" lon="0.25753">
        <ele>37.148071289062</ele>
        <time>2013-06-28T13:25:53Z</time>
      </trkpt>
      <trkpt lat="47.24831" lon="0.25686">
        <ele>37.628662109375</ele>
        <time>2013-06-28T13:26:00Z</time>
      </trkpt>
      <trkpt lat="47.24805" lon="0.25557">
        <ele>37.628662109375</ele>
        <time>2013-06-28T13:26:13Z</time>
      </trkpt>
      <trkpt lat="47.24774" lon="0.25442">
        <ele>37.148071289062</ele>
        <time>2013-06-28T13:26:25Z</time>
      </trkpt>
      <trkpt lat="47.2474" lon="0.2535">
        <ele>37.148071289062</ele>
        <time>2013-06-28T13:26:35Z</time>
      </trkpt>
      <trkpt lat="47.24697" lon="0.25237">
        <ele>35.7060546875</ele>
        <time>2013-06-28T13:26:47Z</time>
      </trkpt>
      <trkpt lat="47.2466" lon="0.25112">
        <ele>33.783447265625</ele>
        <time>2013-06-28T13:26:59Z</time>
      </trkpt>
      <trkpt lat="47.24618" lon="0.24979">
        <ele>32.822265625</ele>
        <time>2013-06-28T13:27:12Z</time>
      </trkpt>
      <trkpt lat="47.24593" lon="0.24909">
        <ele>33.302856445312</ele>
        <time>2013-06-28T13:27:19Z</time>
      </trkpt>
      <trkpt lat="47.24571" lon="0.24877">
        <ele>34.744873046875</ele>
        <time>2013-06-28T13:27:23Z</time>
      </trkpt>
      <trkpt lat="47.24519" lon="0.24814">
        <ele>35.225463867188</ele>
        <time>2013-06-28T13:27:32Z</time>
      </trkpt>
      <trkpt lat="47.24437" lon="0.24768">
        <ele>34.744873046875</ele>
        <time>2013-06-28T13:27:41Z</time>
      </trkpt>
      <trkpt lat="47.24389" lon="0.24754">
        <ele>34.744873046875</ele>
        <time>2013-06-28T13:27:48Z</time>
      </trkpt>
      <trkpt lat="47.24297" lon="0.2472">
        <ele>33.783447265625</ele>
        <time>2013-06-28T13:28:02Z</time>
      </trkpt>
      <trkpt lat="47.24244" lon="0.24702">
        <ele>34.744873046875</ele>
        <time>2013-06-28T13:28:11Z</time>
      </trkpt>
      <trkpt lat="47.24188" lon="0.24682">
        <ele>34.26416015625</ele>
        <time>2013-06-28T13:28:20Z</time>
      </trkpt>
      <trkpt lat="47.24154" lon="0.24696">
        <ele>36.186767578125</ele>
        <time>2013-06-28T13:28:27Z</time>
      </trkpt>
      <trkpt lat="47.24108" lon="0.24719">
        <ele>37.628662109375</ele>
        <time>2013-06-28T13:28:37Z</time>
      </trkpt>
      <trkpt lat="47.24066" lon="0.24738">
        <ele>39.55126953125</ele>
        <time>2013-06-28T13:28:46Z</time>
      </trkpt>
      <trkpt lat="47.24024" lon="0.24758">
        <ele>41.473999023438</ele>
        <time>2013-06-28T13:28:57Z</time>
      </trkpt>
      <trkpt lat="47.23984" lon="0.24778">
        <ele>41.954711914062</ele>
        <time>2013-06-28T13:29:06Z</time>
      </trkpt>
      <trkpt lat="47.23966" lon="0.24787">
        <ele>42.916015625</ele>
        <time>2013-06-28T13:29:10Z</time>
      </trkpt>
      <trkpt lat="47.23953" lon="0.24795">
        <ele>44.358032226562</ele>
        <time>2013-06-28T13:29:13Z</time>
      </trkpt>
      <trkpt lat="47.23916" lon="0.24809">
        <ele>45.319213867188</ele>
        <time>2013-06-28T13:29:22Z</time>
      </trkpt>
      <trkpt lat="47.23907" lon="0.24789">
        <ele>45.319213867188</ele>
        <time>2013-06-28T13:29:27Z</time>
      </trkpt>
      <trkpt lat="47.23895" lon="0.24729">
        <ele>44.838623046875</ele>
        <time>2013-06-28T13:29:34Z</time>
      </trkpt>
      <trkpt lat="47.23868" lon="0.24621">
        <ele>44.358032226562</ele>
        <time>2013-06-28T13:29:45Z</time>
      </trkpt>
      <trkpt lat="47.23832" lon="0.2453">
        <ele>43.877319335938</ele>
        <time>2013-06-28T13:29:55Z</time>
      </trkpt>
      <trkpt lat="47.23789" lon="0.24438">
        <ele>43.396606445312</ele>
        <time>2013-06-28T13:30:06Z</time>
      </trkpt>
      <trkpt lat="47.23756" lon="0.24338">
        <ele>41.954711914062</ele>
        <time>2013-06-28T13:30:17Z</time>
      </trkpt>
      <trkpt lat="47.23735" lon="0.24237">
        <ele>42.916015625</ele>
        <time>2013-06-28T13:30:28Z</time>
      </trkpt>
      <trkpt lat="47.2371" lon="0.24144">
        <ele>44.838623046875</ele>
        <time>2013-06-28T13:30:39Z</time>
      </trkpt>
      <trkpt lat="47.23674" lon="0.24035">
        <ele>49.16455078125</ele>
        <time>2013-06-28T13:30:53Z</time>
      </trkpt>
      <trkpt lat="47.23663" lon="0.23997">
        <ele>50.1259765625</ele>
        <time>2013-06-28T13:30:58Z</time>
      </trkpt>
      <trkpt lat="47.23662" lon="0.23955">
        <ele>50.606567382812</ele>
        <time>2013-06-28T13:31:03Z</time>
      </trkpt>
      <trkpt lat="47.23665" lon="0.23864">
        <ele>51.087158203125</ele>
        <time>2013-06-28T13:31:13Z</time>
      </trkpt>
      <trkpt lat="47.23654" lon="0.23781">
        <ele>49.645263671875</ele>
        <time>2013-06-28T13:31:21Z</time>
      </trkpt>
      <trkpt lat="47.23636" lon="0.23645">
        <ele>46.76123046875</ele>
        <time>2013-06-28T13:31:33Z</time>
      </trkpt>
      <trkpt lat="47.23629" lon="0.23528">
        <ele>44.358032226562</ele>
        <time>2013-06-28T13:31:43Z</time>
      </trkpt>
      <trkpt lat="47.2363" lon="0.23435">
        <ele>42.435424804688</ele>
        <time>2013-06-28T13:31:52Z</time>
      </trkpt>
      <trkpt lat="47.23625" lon="0.23334">
        <ele>40.993408203125</ele>
        <time>2013-06-28T13:32:02Z</time>
      </trkpt>
      <trkpt lat="47.23613" lon="0.23186">
        <ele>40.032104492188</ele>
        <time>2013-06-28T13:32:17Z</time>
      </trkpt>
      <trkpt lat="47.23603" lon="0.23097">
        <ele>40.032104492188</ele>
        <time>2013-06-28T13:32:27Z</time>
      </trkpt>
      <trkpt lat="47.23581" lon="0.22963">
        <ele>39.55126953125</ele>
        <time>2013-06-28T13:32:43Z</time>
      </trkpt>
      <trkpt lat="47.23563" lon="0.22847">
        <ele>38.590087890625</ele>
        <time>2013-06-28T13:32:56Z</time>
      </trkpt>
      <trkpt lat="47.2354" lon="0.2274">
        <ele>37.628662109375</ele>
        <time>2013-06-28T13:33:08Z</time>
      </trkpt>
      <trkpt lat="47.23499" lon="0.22611">
        <ele>36.66748046875</ele>
        <time>2013-06-28T13:33:23Z</time>
      </trkpt>
      <trkpt lat="47.23473" lon="0.22514">
        <ele>36.186767578125</ele>
        <time>2013-06-28T13:33:33Z</time>
      </trkpt>
      <trkpt lat="47.23467" lon="0.22421">
        <ele>36.66748046875</ele>
        <time>2013-06-28T13:33:42Z</time>
      </trkpt>
      <trkpt lat="47.23473" lon="0.22317">
        <ele>36.186767578125</ele>
        <time>2013-06-28T13:33:52Z</time>
      </trkpt>
      <trkpt lat="47.23485" lon="0.22144">
        <ele>35.225463867188</ele>
        <time>2013-06-28T13:34:09Z</time>
      </trkpt>
      <trkpt lat="47.23475" lon="0.22059">
        <ele>34.744873046875</ele>
        <time>2013-06-28T13:34:17Z</time>
      </trkpt>
      <trkpt lat="47.23456" lon="0.21958">
        <ele>34.26416015625</ele>
        <time>2013-06-28T13:34:27Z</time>
      </trkpt>
      <trkpt lat="47.23441" lon="0.21851">
        <ele>34.744873046875</ele>
        <time>2013-06-28T13:34:38Z</time>
      </trkpt>
      <trkpt lat="47.23433" lon="0.21727">
        <ele>34.744873046875</ele>
        <time>2013-06-28T13:34:50Z</time>
      </trkpt>
      <trkpt lat="47.23422" lon="0.21587">
        <ele>34.744873046875</ele>
        <time>2013-06-28T13:35:04Z</time>
      </trkpt>
      <trkpt lat="47.2341" lon="0.21512">
        <ele>33.783447265625</ele>
        <time>2013-06-28T13:35:12Z</time>
      </trkpt>
      <trkpt lat="47.23394" lon="0.21421">
        <ele>35.225463867188</ele>
        <time>2013-06-28T13:35:22Z</time>
      </trkpt>
      <trkpt lat="47.23382" lon="0.21344">
        <ele>35.7060546875</ele>
        <time>2013-06-28T13:35:30Z</time>
      </trkpt>
      <trkpt lat="47.23369" lon="0.21235">
        <ele>35.225463867188</ele>
        <time>2013-06-28T13:35:41Z</time>
      </trkpt>
      <trkpt lat="47.23368" lon="0.21206">
        <ele>35.7060546875</ele>
        <time>2013-06-28T13:35:44Z</time>
      </trkpt>
      <trkpt lat="47.23353" lon="0.21121">
        <ele>35.225463867188</ele>
        <time>2013-06-28T13:35:53Z</time>
      </trkpt>
      <trkpt lat="47.2334" lon="0.21038">
        <ele>35.225463867188</ele>
        <time>2013-06-28T13:36:02Z</time>
      </trkpt>
      <trkpt lat="47.23335" lon="0.20952">
        <ele>34.744873046875</ele>
        <time>2013-06-28T13:36:11Z</time>
      </trkpt>
      <trkpt lat="47.2332" lon="0.20875">
        <ele>33.783447265625</ele>
        <time>2013-06-28T13:36:19Z</time>
      </trkpt>
      <trkpt lat="47.23299" lon="0.2078">
        <ele>32.341552734375</ele>
        <time>2013-06-28T13:36:29Z</time>
      </trkpt>
      <trkpt lat="47.23284" lon="0.20706">
        <ele>31.380126953125</ele>
        <time>2013-06-28T13:36:37Z</time>
      </trkpt>
      <trkpt lat="47.23282" lon="0.20687">
        <ele>31.380126953125</ele>
        <time>2013-06-28T13:36:39Z</time>
      </trkpt>
      <trkpt lat="47.23266" lon="0.20632">
        <ele>31.860717773438</ele>
        <time>2013-06-28T13:36:45Z</time>
      </trkpt>
      <trkpt lat="47.23246" lon="0.20545">
        <ele>31.860717773438</ele>
        <time>2013-06-28T13:36:54Z</time>
      </trkpt>
      <trkpt lat="47.23219" lon="0.20438">
        <ele>33.302856445312</ele>
        <time>2013-06-28T13:37:05Z</time>
      </trkpt>
      <trkpt lat="47.23199" lon="0.20328">
        <ele>33.302856445312</ele>
        <time>2013-06-28T13:37:16Z</time>
      </trkpt>
      <trkpt lat="47.23185" lon="0.20215">
        <ele>32.822265625</ele>
        <time>2013-06-28T13:37:27Z</time>
      </trkpt>
      <trkpt lat="47.23186" lon="0.20131">
        <ele>32.822265625</ele>
        <time>2013-06-28T13:37:35Z</time>
      </trkpt>
      <trkpt lat="47.23188" lon="0.20036">
        <ele>32.822265625</ele>
        <time>2013-06-28T13:37:44Z</time>
      </trkpt>
      <trkpt lat="47.23184" lon="0.19931">
        <ele>32.822265625</ele>
        <time>2013-06-28T13:37:54Z</time>
      </trkpt>
      <trkpt lat="47.23169" lon="0.19837">
        <ele>33.302856445312</ele>
        <time>2013-06-28T13:38:03Z</time>
      </trkpt>
      <trkpt lat="47.23167" lon="0.19754">
        <ele>32.822265625</ele>
        <time>2013-06-28T13:38:11Z</time>
      </trkpt>
      <trkpt lat="47.23171" lon="0.19618">
        <ele>33.783447265625</ele>
        <time>2013-06-28T13:38:24Z</time>
      </trkpt>
      <trkpt lat="47.2317" lon="0.19533">
        <ele>34.26416015625</ele>
        <time>2013-06-28T13:38:31Z</time>
      </trkpt>
      <trkpt lat="47.23166" lon="0.19465">
        <ele>33.783447265625</ele>
        <time>2013-06-28T13:38:36Z</time>
      </trkpt>
      <trkpt lat="47.23177" lon="0.19362">
        <ele>33.302856445312</ele>
        <time>2013-06-28T13:38:45Z</time>
      </trkpt>
      <trkpt lat="47.23182" lon="0.19258">
        <ele>33.783447265625</ele>
        <time>2013-06-28T13:38:55Z</time>
      </trkpt>
      <trkpt lat="47.23183" lon="0.19157">
        <ele>34.744873046875</ele>
        <time>2013-06-28T13:39:05Z</time>
      </trkpt>
      <trkpt lat="47.23182" lon="0.19066">
        <ele>33.783447265625</ele>
        <time>2013-06-28T13:39:14Z</time>
      </trkpt>
      <trkpt lat="47.23185" lon="0.18971">
        <ele>34.744873046875</ele>
        <time>2013-06-28T13:39:24Z</time>
      </trkpt>
      <trkpt lat="47.23187" lon="0.18864">
        <ele>35.225463867188</ele>
        <time>2013-06-28T13:39:35Z</time>
      </trkpt>
      <trkpt lat="47.23187" lon="0.1874">
        <ele>35.7060546875</ele>
        <time>2013-06-28T13:39:48Z</time>
      </trkpt>
      <trkpt lat="47.23184" lon="0.18645">
        <ele>35.7060546875</ele>
        <time>2013-06-28T13:39:58Z</time>
      </trkpt>
      <trkpt lat="47.23182" lon="0.18524">
        <ele>35.7060546875</ele>
        <time>2013-06-28T13:40:10Z</time>
      </trkpt>
      <trkpt lat="47.2318" lon="0.18392">
        <ele>35.7060546875</ele>
        <time>2013-06-28T13:40:23Z</time>
      </trkpt>
      <trkpt lat="47.23177" lon="0.18273">
        <ele>35.225463867188</ele>
        <time>2013-06-28T13:40:35Z</time>
      </trkpt>
      <trkpt lat="47.23168" lon="0.18166">
        <ele>36.186767578125</ele>
        <time>2013-06-28T13:40:46Z</time>
      </trkpt>
      <trkpt lat="47.23145" lon="0.1806">
        <ele>36.66748046875</ele>
        <time>2013-06-28T13:40:57Z</time>
      </trkpt>
      <trkpt lat="47.23116" lon="0.1798">
        <ele>36.66748046875</ele>
        <time>2013-06-28T13:41:06Z</time>
      </trkpt>
      <trkpt lat="47.23076" lon="0.1791">
        <ele>36.66748046875</ele>
        <time>2013-06-28T13:41:15Z</time>
      </trkpt>
      <trkpt lat="47.23019" lon="0.17848">
        <ele>36.186767578125</ele>
        <time>2013-06-28T13:41:25Z</time>
      </trkpt>
      <trkpt lat="47.22958" lon="0.17808">
        <ele>36.186767578125</ele>
        <time>2013-06-28T13:41:34Z</time>
      </trkpt>
      <trkpt lat="47.22876" lon="0.17778">
        <ele>36.66748046875</ele>
        <time>2013-06-28T13:41:45Z</time>
      </trkpt>
      <trkpt lat="47.22777" lon="0.17747">
        <ele>37.148071289062</ele>
        <time>2013-06-28T13:41:58Z</time>
      </trkpt>
      <trkpt lat="47.22713" lon="0.17706">
        <ele>38.109375</ele>
        <time>2013-06-28T13:42:07Z</time>
      </trkpt>
      <trkpt lat="47.22657" lon="0.17645">
        <ele>38.109375</ele>
        <time>2013-06-28T13:42:16Z</time>
      </trkpt>
      <trkpt lat="47.22603" lon="0.17557">
        <ele>36.66748046875</ele>
        <time>2013-06-28T13:42:27Z</time>
      </trkpt>
      <trkpt lat="47.22548" lon="0.17463">
        <ele>35.7060546875</ele>
        <time>2013-06-28T13:42:39Z</time>
      </trkpt>
      <trkpt lat="47.2249" lon="0.17366">
        <ele>35.7060546875</ele>
        <time>2013-06-28T13:42:51Z</time>
      </trkpt>
      <trkpt lat="47.22419" lon="0.17249">
        <ele>35.225463867188</ele>
        <time>2013-06-28T13:43:05Z</time>
      </trkpt>
      <trkpt lat="47.22361" lon="0.17157">
        <ele>36.186767578125</ele>
        <time>2013-06-28T13:43:17Z</time>
      </trkpt>
      <trkpt lat="47.22314" lon="0.17076">
        <ele>36.186767578125</ele>
        <time>2013-06-28T13:43:28Z</time>
      </trkpt>
      <trkpt lat="47.22275" lon="0.16989">
        <ele>36.66748046875</ele>
        <time>2013-06-28T13:43:39Z</time>
      </trkpt>
      <trkpt lat="47.22244" lon="0.16892">
        <ele>37.148071289062</ele>
        <time>2013-06-28T13:43:50Z</time>
      </trkpt>
      <trkpt lat="47.22226" lon="0.16806">
        <ele>36.186767578125</ele>
        <time>2013-06-28T13:43:59Z</time>
      </trkpt>
      <trkpt lat="47.22213" lon="0.16687">
        <ele>36.186767578125</ele>
        <time>2013-06-28T13:44:11Z</time>
      </trkpt>
      <trkpt lat="47.22203" lon="0.16581">
        <ele>36.186767578125</ele>
        <time>2013-06-28T13:44:22Z</time>
      </trkpt>
      <trkpt lat="47.22196" lon="0.16487">
        <ele>36.186767578125</ele>
        <time>2013-06-28T13:44:32Z</time>
      </trkpt>
      <trkpt lat="47.22194" lon="0.16375">
        <ele>35.225463867188</ele>
        <time>2013-06-28T13:44:44Z</time>
      </trkpt>
      <trkpt lat="47.22196" lon="0.16298">
        <ele>35.7060546875</ele>
        <time>2013-06-28T13:44:53Z</time>
      </trkpt>
      <trkpt lat="47.22197" lon="0.16264">
        <ele>35.7060546875</ele>
        <time>2013-06-28T13:44:58Z</time>
      </trkpt>
      <trkpt lat="47.22208" lon="0.16237">
        <ele>36.186767578125</ele>
        <time>2013-06-28T13:45:04Z</time>
      </trkpt>
      <trkpt lat="47.22229" lon="0.16228">
        <ele>36.186767578125</ele>
        <time>2013-06-28T13:45:10Z</time>
      </trkpt>
      <trkpt lat="47.22267" lon="0.16216">
        <ele>37.148071289062</ele>
        <time>2013-06-28T13:45:18Z</time>
      </trkpt>
      <trkpt lat="47.22319" lon="0.16208">
        <ele>37.148071289062</ele>
        <time>2013-06-28T13:45:27Z</time>
      </trkpt>
      <trkpt lat="47.22374" lon="0.16203">
        <ele>38.109375</ele>
        <time>2013-06-28T13:45:36Z</time>
      </trkpt>
      <trkpt lat="47.22457" lon="0.16201">
        <ele>38.590087890625</ele>
        <time>2013-06-28T13:45:49Z</time>
      </trkpt>
      <trkpt lat="47.22531" lon="0.16198">
        <ele>39.070678710938</ele>
        <time>2013-06-28T13:46:01Z</time>
      </trkpt>
      <trkpt lat="47.22606" lon="0.16197">
        <ele>39.070678710938</ele>
        <time>2013-06-28T13:46:13Z</time>
      </trkpt>
      <trkpt lat="47.22693" lon="0.16194">
        <ele>39.55126953125</ele>
        <time>2013-06-28T13:46:27Z</time>
      </trkpt>
      <trkpt lat="47.22792" lon="0.16191">
        <ele>40.512817382812</ele>
        <time>2013-06-28T13:46:42Z</time>
      </trkpt>
      <trkpt lat="47.2289" lon="0.16188">
        <ele>40.032104492188</ele>
        <time>2013-06-28T13:46:57Z</time>
      </trkpt>
      <trkpt lat="47.2299" lon="0.16185">
        <ele>40.512817382812</ele>
        <time>2013-06-28T13:47:12Z</time>
      </trkpt>
      <trkpt lat="47.23083" lon="0.16174">
        <ele>40.512817382812</ele>
        <time>2013-06-28T13:47:26Z</time>
      </trkpt>
      <trkpt lat="47.23142" lon="0.16153">
        <ele>40.993408203125</ele>
        <time>2013-06-28T13:47:35Z</time>
      </trkpt>
      <trkpt lat="47.23205" lon="0.1612">
        <ele>41.954711914062</ele>
        <time>2013-06-28T13:47:47Z</time>
      </trkpt>
      <trkpt lat="47.23259" lon="0.16091">
        <ele>41.954711914062</ele>
        <time>2013-06-28T13:47:57Z</time>
      </trkpt>
      <trkpt lat="47.23304" lon="0.16067">
        <ele>42.916015625</ele>
        <time>2013-06-28T13:48:04Z</time>
      </trkpt>
      <trkpt lat="47.23367" lon="0.1605">
        <ele>43.396606445312</ele>
        <time>2013-06-28T13:48:14Z</time>
      </trkpt>
      <trkpt lat="47.23384" lon="0.16029">
        <ele>43.877319335938</ele>
        <time>2013-06-28T13:48:18Z</time>
      </trkpt>
      <trkpt lat="47.23382" lon="0.16014">
        <ele>42.916015625</ele>
        <time>2013-06-28T13:48:20Z</time>
      </trkpt>
      <trkpt lat="47.23381" lon="0.15961">
        <ele>40.032104492188</ele>
        <time>2013-06-28T13:48:26Z</time>
      </trkpt>
      <trkpt lat="47.23401" lon="0.159">
        <ele>39.55126953125</ele>
        <time>2013-06-28T13:48:33Z</time>
      </trkpt>
      <trkpt lat="47.23443" lon="0.158">
        <ele>37.628662109375</ele>
        <time>2013-06-28T13:48:45Z</time>
      </trkpt>
      <trkpt lat="47.23471" lon="0.15711">
        <ele>36.66748046875</ele>
        <time>2013-06-28T13:48:55Z</time>
      </trkpt>
      <trkpt lat="47.23489" lon="0.15614">
        <ele>36.186767578125</ele>
        <time>2013-06-28T13:49:05Z</time>
      </trkpt>
      <trkpt lat="47.23499" lon="0.15491">
        <ele>36.186767578125</ele>
        <time>2013-06-28T13:49:17Z</time>
      </trkpt>
      <trkpt lat="47.23509" lon="0.15363">
        <ele>35.7060546875</ele>
        <time>2013-06-28T13:49:30Z</time>
      </trkpt>
      <trkpt lat="47.23518" lon="0.15241">
        <ele>35.225463867188</ele>
        <time>2013-06-28T13:49:43Z</time>
      </trkpt>
      <trkpt lat="47.23526" lon="0.15088">
        <ele>35.225463867188</ele>
        <time>2013-06-28T13:49:58Z</time>
      </trkpt>
      <trkpt lat="47.23532" lon="0.14952">
        <ele>35.225463867188</ele>
        <time>2013-06-28T13:50:11Z</time>
      </trkpt>
      <trkpt lat="47.23534" lon="0.14827">
        <ele>35.225463867188</ele>
        <time>2013-06-28T13:50:23Z</time>
      </trkpt>
      <trkpt lat="47.23527" lon="0.14716">
        <ele>34.26416015625</ele>
        <time>2013-06-28T13:50:34Z</time>
      </trkpt>
      <trkpt lat="47.23519" lon="0.14612">
        <ele>35.225463867188</ele>
        <time>2013-06-28T13:50:45Z</time>
      </trkpt>
      <trkpt lat="47.23511" lon="0.14524">
        <ele>34.744873046875</ele>
        <time>2013-06-28T13:50:54Z</time>
      </trkpt>
      <trkpt lat="47.23499" lon="0.14436">
        <ele>34.26416015625</ele>
        <time>2013-06-28T13:51:03Z</time>
      </trkpt>
      <trkpt lat="47.23482" lon="0.14324">
        <ele>34.744873046875</ele>
        <time>2013-06-28T13:51:14Z</time>
      </trkpt>
      <trkpt lat="47.23453" lon="0.14176">
        <ele>34.744873046875</ele>
        <time>2013-06-28T13:51:29Z</time>
      </trkpt>
      <trkpt lat="47.23395" lon="0.1392">
        <ele>34.744873046875</ele>
        <time>2013-06-28T13:51:55Z</time>
      </trkpt>
      <trkpt lat="47.23365" lon="0.13803">
        <ele>33.302856445312</ele>
        <time>2013-06-28T13:52:07Z</time>
      </trkpt>
      <trkpt lat="47.23337" lon="0.13698">
        <ele>32.822265625</ele>
        <time>2013-06-28T13:52:18Z</time>
      </trkpt>
      <trkpt lat="47.23309" lon="0.1359">
        <ele>32.822265625</ele>
        <time>2013-06-28T13:52:29Z</time>
      </trkpt>
      <trkpt lat="47.23277" lon="0.13474">
        <ele>32.822265625</ele>
        <time>2013-06-28T13:52:41Z</time>
      </trkpt>
      <trkpt lat="47.23241" lon="0.1335">
        <ele>32.822265625</ele>
        <time>2013-06-28T13:52:54Z</time>
      </trkpt>
      <trkpt lat="47.23197" lon="0.13218">
        <ele>33.302856445312</ele>
        <time>2013-06-28T13:53:08Z</time>
      </trkpt>
      <trkpt lat="47.23176" lon="0.13151">
        <ele>32.822265625</ele>
        <time>2013-06-28T13:53:14Z</time>
      </trkpt>
      <trkpt lat="47.23123" lon="0.12993">
        <ele>32.341552734375</ele>
        <time>2013-06-28T13:53:29Z</time>
      </trkpt>
      <trkpt lat="47.23077" lon="0.12859">
        <ele>32.822265625</ele>
        <time>2013-06-28T13:53:42Z</time>
      </trkpt>
      <trkpt lat="47.23037" lon="0.1274">
        <ele>32.822265625</ele>
        <time>2013-06-28T13:53:54Z</time>
      </trkpt>
      <trkpt lat="47.22989" lon="0.12601">
        <ele>33.302856445312</ele>
        <time>2013-06-28T13:54:09Z</time>
      </trkpt>
      <trkpt lat="47.22933" lon="0.12437">
        <ele>30.899536132812</ele>
        <time>2013-06-28T13:54:26Z</time>
      </trkpt>
      <trkpt lat="47.22886" lon="0.12298">
        <ele>31.380126953125</ele>
        <time>2013-06-28T13:54:40Z</time>
      </trkpt>
      <trkpt lat="47.22841" lon="0.12165">
        <ele>31.860717773438</ele>
        <time>2013-06-28T13:54:53Z</time>
      </trkpt>
      <trkpt lat="47.22794" lon="0.12028">
        <ele>32.341552734375</ele>
        <time>2013-06-28T13:55:06Z</time>
      </trkpt>
      <trkpt lat="47.22744" lon="0.11893">
        <ele>31.860717773438</ele>
        <time>2013-06-28T13:55:19Z</time>
      </trkpt>
      <trkpt lat="47.22679" lon="0.11716">
        <ele>32.341552734375</ele>
        <time>2013-06-28T13:55:36Z</time>
      </trkpt>
      <trkpt lat="47.22615" lon="0.11542">
        <ele>32.822265625</ele>
        <time>2013-06-28T13:55:53Z</time>
      </trkpt>
      <trkpt lat="47.22569" lon="0.11417">
        <ele>32.822265625</ele>
        <time>2013-06-28T13:56:06Z</time>
      </trkpt>
      <trkpt lat="47.22519" lon="0.11291">
        <ele>33.302856445312</ele>
        <time>2013-06-28T13:56:20Z</time>
      </trkpt>
      <trkpt lat="47.22481" lon="0.11203">
        <ele>33.783447265625</ele>
        <time>2013-06-28T13:56:30Z</time>
      </trkpt>
      <trkpt lat="47.22433" lon="0.11103">
        <ele>34.26416015625</ele>
        <time>2013-06-28T13:56:42Z</time>
      </trkpt>
      <trkpt lat="47.22391" lon="0.11029">
        <ele>33.783447265625</ele>
        <time>2013-06-28T13:56:51Z</time>
      </trkpt>
      <trkpt lat="47.22331" lon="0.10941">
        <ele>33.302856445312</ele>
        <time>2013-06-28T13:57:02Z</time>
      </trkpt>
      <trkpt lat="47.2226" lon="0.10834">
        <ele>33.783447265625</ele>
        <time>2013-06-28T13:57:15Z</time>
      </trkpt>
      <trkpt lat="47.22181" lon="0.10715">
        <ele>34.26416015625</ele>
        <time>2013-06-28T13:57:30Z</time>
      </trkpt>
      <trkpt lat="47.22103" lon="0.10598">
        <ele>34.744873046875</ele>
        <time>2013-06-28T13:57:45Z</time>
      </trkpt>
      <trkpt lat="47.22029" lon="0.10487">
        <ele>34.744873046875</ele>
        <time>2013-06-28T13:57:59Z</time>
      </trkpt>
      <trkpt lat="47.21948" lon="0.10366">
        <ele>34.744873046875</ele>
        <time>2013-06-28T13:58:14Z</time>
      </trkpt>
      <trkpt lat="47.21874" lon="0.10255">
        <ele>34.744873046875</ele>
        <time>2013-06-28T13:58:28Z</time>
      </trkpt>
      <trkpt lat="47.21802" lon="0.10145">
        <ele>34.744873046875</ele>
        <time>2013-06-28T13:58:42Z</time>
      </trkpt>
      <trkpt lat="47.21739" lon="0.10051">
        <ele>34.744873046875</ele>
        <time>2013-06-28T13:58:54Z</time>
      </trkpt>
      <trkpt lat="47.21682" lon="0.09948">
        <ele>34.26416015625</ele>
        <time>2013-06-28T13:59:06Z</time>
      </trkpt>
      <trkpt lat="47.21656" lon="0.09857">
        <ele>33.783447265625</ele>
        <time>2013-06-28T13:59:15Z</time>
      </trkpt>
      <trkpt lat="47.2163" lon="0.09726">
        <ele>32.341552734375</ele>
        <time>2013-06-28T13:59:27Z</time>
      </trkpt>
      <trkpt lat="47.21615" lon="0.09643">
        <ele>31.860717773438</ele>
        <time>2013-06-28T13:59:35Z</time>
      </trkpt>
      <trkpt lat="47.21591" lon="0.09494">
        <ele>30.899536132812</ele>
        <time>2013-06-28T13:59:50Z</time>
      </trkpt>
      <trkpt lat="47.21576" lon="0.09382">
        <ele>31.380126953125</ele>
        <time>2013-06-28T14:00:01Z</time>
      </trkpt>
      <trkpt lat="47.21561" lon="0.09255">
        <ele>30.899536132812</ele>
        <time>2013-06-28T14:00:14Z</time>
      </trkpt>
      <trkpt lat="47.21542" lon="0.09107">
        <ele>30.899536132812</ele>
        <time>2013-06-28T14:00:29Z</time>
      </trkpt>
      <trkpt lat="47.21526" lon="0.08995">
        <ele>30.418823242188</ele>
        <time>2013-06-28T14:00:40Z</time>
      </trkpt>
      <trkpt lat="47.21502" lon="0.08893">
        <ele>28.976928710938</ele>
        <time>2013-06-28T14:00:50Z</time>
      </trkpt>
      <trkpt lat="47.21469" lon="0.08772">
        <ele>28.976928710938</ele>
        <time>2013-06-28T14:01:02Z</time>
      </trkpt>
      <trkpt lat="47.2144" lon="0.08689">
        <ele>29.938110351562</ele>
        <time>2013-06-28T14:01:11Z</time>
      </trkpt>
      <trkpt lat="47.21399" lon="0.08589">
        <ele>29.938110351562</ele>
        <time>2013-06-28T14:01:22Z</time>
      </trkpt>
      <trkpt lat="47.21341" lon="0.08478">
        <ele>29.938110351562</ele>
        <time>2013-06-28T14:01:35Z</time>
      </trkpt>
      <trkpt lat="47.21287" lon="0.0839">
        <ele>29.938110351562</ele>
        <time>2013-06-28T14:01:46Z</time>
      </trkpt>
      <trkpt lat="47.21231" lon="0.083">
        <ele>29.938110351562</ele>
        <time>2013-06-28T14:01:57Z</time>
      </trkpt>
      <trkpt lat="47.21175" lon="0.08212">
        <ele>30.899536132812</ele>
        <time>2013-06-28T14:02:09Z</time>
      </trkpt>
      <trkpt lat="47.21126" lon="0.08133">
        <ele>30.899536132812</ele>
        <time>2013-06-28T14:02:21Z</time>
      </trkpt>
      <trkpt lat="47.21099" lon="0.08094">
        <ele>32.822265625</ele>
        <time>2013-06-28T14:02:29Z</time>
      </trkpt>
      <trkpt lat="47.21087" lon="0.08076">
        <ele>34.26416015625</ele>
        <time>2013-06-28T14:02:36Z</time>
      </trkpt>
      <trkpt lat="47.21087" lon="0.08077">
        <ele>34.26416015625</ele>
        <time>2013-06-28T14:02:44Z</time>
      </trkpt>
      <trkpt lat="47.21088" lon="0.08076">
        <ele>34.744873046875</ele>
        <time>2013-06-28T14:02:50Z</time>
      </trkpt>
      <trkpt lat="47.21089" lon="0.08075">
        <ele>36.66748046875</ele>
        <time>2013-06-28T14:03:22Z</time>
      </trkpt>
      <trkpt lat="47.21091" lon="0.08074">
        <ele>37.148071289062</ele>
        <time>2013-06-28T14:03:59Z</time>
      </trkpt>
      <trkpt lat="47.21091" lon="0.08073">
        <ele>40.993408203125</ele>
        <time>2013-06-28T14:04:36Z</time>
      </trkpt>
      <trkpt lat="47.2109" lon="0.08071">
        <ele>40.993408203125</ele>
        <time>2013-06-28T14:04:46Z</time>
      </trkpt>
      <trkpt lat="47.21088" lon="0.0807">
        <ele>40.032104492188</ele>
        <time>2013-06-28T14:04:58Z</time>
      </trkpt>
      <trkpt lat="47.21088" lon="0.0807">
        <ele>40.512817382812</ele>
        <time>2013-06-28T14:05:14Z</time>
      </trkpt>
      <trkpt lat="47.21087" lon="0.08069">
        <ele>41.954711914062</ele>
        <time>2013-06-28T14:05:32Z</time>
      </trkpt>
      <trkpt lat="47.21086" lon="0.08068">
        <ele>41.954711914062</ele>
        <time>2013-06-28T14:05:35Z</time>
      </trkpt>
      <trkpt lat="47.21078" lon="0.08053">
        <ele>40.993408203125</ele>
        <time>2013-06-28T14:05:44Z</time>
      </trkpt>
      <trkpt lat="47.21074" lon="0.08045">
        <ele>40.032104492188</ele>
        <time>2013-06-28T14:05:53Z</time>
      </trkpt>
      <trkpt lat="47.21074" lon="0.08045">
        <ele>40.512817382812</ele>
        <time>2013-06-28T14:06:24Z</time>
      </trkpt>
      <trkpt lat="47.21075" lon="0.08044">
        <ele>43.396606445312</ele>
        <time>2013-06-28T14:06:44Z</time>
      </trkpt>
      <trkpt lat="47.21075" lon="0.08044">
        <ele>41.473999023438</ele>
        <time>2013-06-28T14:07:04Z</time>
      </trkpt>
      <trkpt lat="47.21073" lon="0.08039">
        <ele>40.993408203125</ele>
        <time>2013-06-28T14:07:14Z</time>
      </trkpt>
      <trkpt lat="47.2106" lon="0.08019">
        <ele>40.512817382812</ele>
        <time>2013-06-28T14:07:20Z</time>
      </trkpt>
      <trkpt lat="47.21017" lon="0.07953">
        <ele>40.512817382812</ele>
        <time>2013-06-28T14:07:35Z</time>
      </trkpt>
      <trkpt lat="47.20975" lon="0.07887">
        <ele>40.993408203125</ele>
        <time>2013-06-28T14:07:49Z</time>
      </trkpt>
      <trkpt lat="47.20941" lon="0.07833">
        <ele>40.993408203125</ele>
        <time>2013-06-28T14:08:01Z</time>
      </trkpt>
      <trkpt lat="47.20925" lon="0.07806">
        <ele>41.473999023438</ele>
        <time>2013-06-28T14:08:10Z</time>
      </trkpt>
      <trkpt lat="47.20928" lon="0.0779">
        <ele>40.993408203125</ele>
        <time>2013-06-28T14:08:14Z</time>
      </trkpt>
      <trkpt lat="47.20949" lon="0.07747">
        <ele>40.032104492188</ele>
        <time>2013-06-28T14:08:23Z</time>
      </trkpt>
      <trkpt lat="47.20969" lon="0.07712">
        <ele>39.55126953125</ele>
        <time>2013-06-28T14:08:30Z</time>
      </trkpt>
      <trkpt lat="47.21023" lon="0.07636">
        <ele>38.109375</ele>
        <time>2013-06-28T14:08:42Z</time>
      </trkpt>
      <trkpt lat="47.21067" lon="0.0757">
        <ele>37.148071289062</ele>
        <time>2013-06-28T14:08:52Z</time>
      </trkpt>
      <trkpt lat="47.211" lon="0.07506">
        <ele>38.109375</ele>
        <time>2013-06-28T14:09:01Z</time>
      </trkpt>
      <trkpt lat="47.21129" lon="0.07456">
        <ele>39.070678710938</ele>
        <time>2013-06-28T14:09:10Z</time>
      </trkpt>
      <trkpt lat="47.21148" lon="0.07421">
        <ele>38.590087890625</ele>
        <time>2013-06-28T14:09:16Z</time>
      </trkpt>
      <trkpt lat="47.21162" lon="0.07379">
        <ele>37.628662109375</ele>
        <time>2013-06-28T14:09:23Z</time>
      </trkpt>
      <trkpt lat="47.21186" lon="0.07319">
        <ele>37.148071289062</ele>
        <time>2013-06-28T14:09:34Z</time>
      </trkpt>
      <trkpt lat="47.21211" lon="0.07258">
        <ele>38.109375</ele>
        <time>2013-06-28T14:09:44Z</time>
      </trkpt>
      <trkpt lat="47.21233" lon="0.07201">
        <ele>38.109375</ele>
        <time>2013-06-28T14:09:54Z</time>
      </trkpt>
      <trkpt lat="47.21237" lon="0.07193">
        <ele>39.070678710938</ele>
        <time>2013-06-28T14:09:58Z</time>
      </trkpt>
      <trkpt lat="47.21245" lon="0.07193">
        <ele>39.55126953125</ele>
        <time>2013-06-28T14:10:03Z</time>
      </trkpt>
      <trkpt lat="47.21249" lon="0.07196">
        <ele>39.070678710938</ele>
        <time>2013-06-28T14:10:04Z</time>
      </trkpt>
      <trkpt lat="47.21275" lon="0.0722">
        <ele>35.225463867188</ele>
        <time>2013-06-28T14:10:13Z</time>
      </trkpt>
      <trkpt lat="47.21279" lon="0.07222">
        <ele>34.744873046875</ele>
        <time>2013-06-28T14:10:18Z</time>
      </trkpt>
      <trkpt lat="47.21281" lon="0.07222">
        <ele>36.186767578125</ele>
        <time>2013-06-28T14:10:32Z</time>
      </trkpt>
      <trkpt lat="47.21282" lon="0.07225">
        <ele>35.7060546875</ele>
        <time>2013-06-28T14:11:07Z</time>
      </trkpt>
      <trkpt lat="47.21282" lon="0.07225">
        <ele>36.186767578125</ele>
        <time>2013-06-28T14:11:15Z</time>
      </trkpt>
      <trkpt lat="47.21272" lon="0.0722">
        <ele>37.148071289062</ele>
        <time>2013-06-28T14:11:21Z</time>
      </trkpt>
      <trkpt lat="47.21255" lon="0.07206">
        <ele>38.590087890625</ele>
        <time>2013-06-28T14:11:28Z</time>
      </trkpt>
      <trkpt lat="47.21236" lon="0.07195">
        <ele>40.032104492188</ele>
        <time>2013-06-28T14:11:35Z</time>
      </trkpt>
      <trkpt lat="47.21245" lon="0.07184">
        <ele>40.512817382812</ele>
        <time>2013-06-28T14:11:41Z</time>
      </trkpt>
      <trkpt lat="47.21259" lon="0.07154">
        <ele>40.512817382812</ele>
        <time>2013-06-28T14:11:48Z</time>
      </trkpt>
      <trkpt lat="47.21276" lon="0.07117">
        <ele>40.032104492188</ele>
        <time>2013-06-28T14:11:57Z</time>
      </trkpt>
      <trkpt lat="47.21278" lon="0.07114">
        <ele>40.512817382812</ele>
        <time>2013-06-28T14:12:03Z</time>
      </trkpt>
      <trkpt lat="47.21281" lon="0.07103">
        <ele>41.473999023438</ele>
        <time>2013-06-28T14:12:08Z</time>
      </trkpt>
      <trkpt lat="47.21285" lon="0.07089">
        <ele>41.473999023438</ele>
        <time>2013-06-28T14:12:14Z</time>
      </trkpt>
      <trkpt lat="47.21298" lon="0.0706">
        <ele>40.032104492188</ele>
        <time>2013-06-28T14:12:21Z</time>
      </trkpt>
      <trkpt lat="47.21319" lon="0.07016">
        <ele>39.070678710938</ele>
        <time>2013-06-28T14:12:28Z</time>
      </trkpt>
      <trkpt lat="47.21348" lon="0.06955">
        <ele>36.186767578125</ele>
        <time>2013-06-28T14:12:35Z</time>
      </trkpt>
      <trkpt lat="47.21395" lon="0.06861">
        <ele>35.7060546875</ele>
        <time>2013-06-28T14:12:45Z</time>
      </trkpt>
      <trkpt lat="47.21423" lon="0.06773">
        <ele>35.225463867188</ele>
        <time>2013-06-28T14:12:55Z</time>
      </trkpt>
      <trkpt lat="47.21429" lon="0.06755">
        <ele>34.744873046875</ele>
        <time>2013-06-28T14:12:57Z</time>
      </trkpt>
      <trkpt lat="47.2145" lon="0.06677">
        <ele>34.744873046875</ele>
        <time>2013-06-28T14:13:06Z</time>
      </trkpt>
      <trkpt lat="47.21477" lon="0.06589">
        <ele>33.783447265625</ele>
        <time>2013-06-28T14:13:17Z</time>
      </trkpt>
      <trkpt lat="47.21507" lon="0.0649">
        <ele>35.7060546875</ele>
        <time>2013-06-28T14:13:29Z</time>
      </trkpt>
      <trkpt lat="47.21532" lon="0.06411">
        <ele>36.186767578125</ele>
        <time>2013-06-28T14:13:39Z</time>
      </trkpt>
      <trkpt lat="47.21552" lon="0.06351">
        <ele>36.186767578125</ele>
        <time>2013-06-28T14:13:48Z</time>
      </trkpt>
      <trkpt lat="47.21567" lon="0.06299">
        <ele>35.7060546875</ele>
        <time>2013-06-28T14:13:58Z</time>
      </trkpt>
      <trkpt lat="47.2158" lon="0.06255">
        <ele>34.26416015625</ele>
        <time>2013-06-28T14:14:06Z</time>
      </trkpt>
      <trkpt lat="47.21599" lon="0.0619">
        <ele>33.302856445312</ele>
        <time>2013-06-28T14:14:15Z</time>
      </trkpt>
      <trkpt lat="47.21609" lon="0.06155">
        <ele>33.783447265625</ele>
        <time>2013-06-28T14:14:21Z</time>
      </trkpt>
      <trkpt lat="47.21615" lon="0.06139">
        <ele>33.783447265625</ele>
        <time>2013-06-28T14:14:27Z</time>
      </trkpt>
      <trkpt lat="47.21616" lon="0.06136">
        <ele>35.7060546875</ele>
        <time>2013-06-28T14:14:34Z</time>
      </trkpt>
      <trkpt lat="47.21616" lon="0.06132">
        <ele>38.590087890625</ele>
        <time>2013-06-28T14:14:49Z</time>
      </trkpt>
      <trkpt lat="47.21617" lon="0.06123">
        <ele>39.070678710938</ele>
        <time>2013-06-28T14:14:57Z</time>
      </trkpt>
      <trkpt lat="47.21622" lon="0.06097">
        <ele>38.590087890625</ele>
        <time>2013-06-28T14:15:03Z</time>
      </trkpt>
      <trkpt lat="47.21629" lon="0.06049">
        <ele>37.628662109375</ele>
        <time>2013-06-28T14:15:11Z</time>
      </trkpt>
      <trkpt lat="47.21635" lon="0.05983">
        <ele>36.66748046875</ele>
        <time>2013-06-28T14:15:20Z</time>
      </trkpt>
      <trkpt lat="47.21646" lon="0.05901">
        <ele>37.148071289062</ele>
        <time>2013-06-28T14:15:30Z</time>
      </trkpt>
      <trkpt lat="47.21658" lon="0.05804">
        <ele>38.109375</ele>
        <time>2013-06-28T14:15:41Z</time>
      </trkpt>
      <trkpt lat="47.21671" lon="0.05705">
        <ele>37.628662109375</ele>
        <time>2013-06-28T14:15:53Z</time>
      </trkpt>
      <trkpt lat="47.21674" lon="0.05668">
        <ele>37.628662109375</ele>
        <time>2013-06-28T14:15:58Z</time>
      </trkpt>
      <trkpt lat="47.21687" lon="0.05625">
        <ele>37.628662109375</ele>
        <time>2013-06-28T14:16:04Z</time>
      </trkpt>
      <trkpt lat="47.21712" lon="0.05549">
        <ele>36.66748046875</ele>
        <time>2013-06-28T14:16:14Z</time>
      </trkpt>
      <trkpt lat="47.21732" lon="0.05488">
        <ele>36.66748046875</ele>
        <time>2013-06-28T14:16:23Z</time>
      </trkpt>
      <trkpt lat="47.21746" lon="0.05476">
        <ele>36.66748046875</ele>
        <time>2013-06-28T14:16:29Z</time>
      </trkpt>
      <trkpt lat="47.21748" lon="0.05476">
        <ele>36.66748046875</ele>
        <time>2013-06-28T14:16:33Z</time>
      </trkpt>
      <trkpt lat="47.21751" lon="0.05479">
        <ele>36.186767578125</ele>
        <time>2013-06-28T14:16:44Z</time>
      </trkpt>
      <trkpt lat="47.2175" lon="0.05477">
        <ele>34.26416015625</ele>
        <time>2013-06-28T14:17:14Z</time>
      </trkpt>
      <trkpt lat="47.2175" lon="0.05477">
        <ele>36.186767578125</ele>
        <time>2013-06-28T14:17:28Z</time>
      </trkpt>
      <trkpt lat="47.21743" lon="0.05468">
        <ele>36.66748046875</ele>
        <time>2013-06-28T14:17:33Z</time>
      </trkpt>
      <trkpt lat="47.21745" lon="0.05453">
        <ele>37.148071289062</ele>
        <time>2013-06-28T14:17:37Z</time>
      </trkpt>
      <trkpt lat="47.21758" lon="0.05407">
        <ele>37.628662109375</ele>
        <time>2013-06-28T14:17:45Z</time>
      </trkpt>
      <trkpt lat="47.21784" lon="0.05322">
        <ele>37.628662109375</ele>
        <time>2013-06-28T14:17:57Z</time>
      </trkpt>
      <trkpt lat="47.21821" lon="0.05205">
        <ele>36.186767578125</ele>
        <time>2013-06-28T14:18:12Z</time>
      </trkpt>
      <trkpt lat="47.21853" lon="0.05104">
        <ele>34.744873046875</ele>
        <time>2013-06-28T14:18:25Z</time>
      </trkpt>
      <trkpt lat="47.21871" lon="0.05052">
        <ele>33.302856445312</ele>
        <time>2013-06-28T14:18:33Z</time>
      </trkpt>
      <trkpt lat="47.21885" lon="0.05008">
        <ele>32.822265625</ele>
        <time>2013-06-28T14:18:40Z</time>
      </trkpt>
      <trkpt lat="47.219" lon="0.04956">
        <ele>32.341552734375</ele>
        <time>2013-06-28T14:18:51Z</time>
      </trkpt>
      <trkpt lat="47.21909" lon="0.04927">
        <ele>33.302856445312</ele>
        <time>2013-06-28T14:18:57Z</time>
      </trkpt>
      <trkpt lat="47.21913" lon="0.04914">
        <ele>33.783447265625</ele>
        <time>2013-06-28T14:18:59Z</time>
      </trkpt>
      <trkpt lat="47.21938" lon="0.04837">
        <ele>34.26416015625</ele>
        <time>2013-06-28T14:19:10Z</time>
      </trkpt>
      <trkpt lat="47.21969" lon="0.04738">
        <ele>33.783447265625</ele>
        <time>2013-06-28T14:19:23Z</time>
      </trkpt>
      <trkpt lat="47.21996" lon="0.04659">
        <ele>33.783447265625</ele>
        <time>2013-06-28T14:19:33Z</time>
      </trkpt>
      <trkpt lat="47.22029" lon="0.0456">
        <ele>34.26416015625</ele>
        <time>2013-06-28T14:19:45Z</time>
      </trkpt>
      <trkpt lat="47.22048" lon="0.04525">
        <ele>34.26416015625</ele>
        <time>2013-06-28T14:19:50Z</time>
      </trkpt>
      <trkpt lat="47.2205" lon="0.04506">
        <ele>34.744873046875</ele>
        <time>2013-06-28T14:19:52Z</time>
      </trkpt>
      <trkpt lat="47.22073" lon="0.04419">
        <ele>33.783447265625</ele>
        <time>2013-06-28T14:20:02Z</time>
      </trkpt>
      <trkpt lat="47.22103" lon="0.04314">
        <ele>33.302856445312</ele>
        <time>2013-06-28T14:20:14Z</time>
      </trkpt>
      <trkpt lat="47.22141" lon="0.04193">
        <ele>33.302856445312</ele>
        <time>2013-06-28T14:20:28Z</time>
      </trkpt>
      <trkpt lat="47.22182" lon="0.04059">
        <ele>34.744873046875</ele>
        <time>2013-06-28T14:20:43Z</time>
      </trkpt>
      <trkpt lat="47.22216" lon="0.03951">
        <ele>36.186767578125</ele>
        <time>2013-06-28T14:20:55Z</time>
      </trkpt>
      <trkpt lat="47.22247" lon="0.03854">
        <ele>37.148071289062</ele>
        <time>2013-06-28T14:21:06Z</time>
      </trkpt>
      <trkpt lat="47.22271" lon="0.03774">
        <ele>37.628662109375</ele>
        <time>2013-06-28T14:21:15Z</time>
      </trkpt>
      <trkpt lat="47.22308" lon="0.03659">
        <ele>36.186767578125</ele>
        <time>2013-06-28T14:21:29Z</time>
      </trkpt>
      <trkpt lat="47.22324" lon="0.03612">
        <ele>37.628662109375</ele>
        <time>2013-06-28T14:21:37Z</time>
      </trkpt>
      <trkpt lat="47.22327" lon="0.03605">
        <ele>38.109375</ele>
        <time>2013-06-28T14:21:42Z</time>
      </trkpt>
      <trkpt lat="47.22327" lon="0.03604">
        <ele>38.109375</ele>
        <time>2013-06-28T14:21:47Z</time>
      </trkpt>
      <trkpt lat="47.22317" lon="0.03587">
        <ele>36.186767578125</ele>
        <time>2013-06-28T14:21:54Z</time>
      </trkpt>
      <trkpt lat="47.22307" lon="0.03572">
        <ele>35.7060546875</ele>
        <time>2013-06-28T14:22:01Z</time>
      </trkpt>
      <trkpt lat="47.22307" lon="0.03572">
        <ele>38.109375</ele>
        <time>2013-06-28T14:22:28Z</time>
      </trkpt>
      <trkpt lat="47.22307" lon="0.03572">
        <ele>37.148071289062</ele>
        <time>2013-06-28T14:22:46Z</time>
      </trkpt>
      <trkpt lat="47.22306" lon="0.0357">
        <ele>37.628662109375</ele>
        <time>2013-06-28T14:22:49Z</time>
      </trkpt>
      <trkpt lat="47.22305" lon="0.03575">
        <ele>37.628662109375</ele>
        <time>2013-06-28T14:22:54Z</time>
      </trkpt>
      <trkpt lat="47.22307" lon="0.03578">
        <ele>37.628662109375</ele>
        <time>2013-06-28T14:23:01Z</time>
      </trkpt>
      <trkpt lat="47.22311" lon="0.03583">
        <ele>36.66748046875</ele>
        <time>2013-06-28T14:23:17Z</time>
      </trkpt>
      <trkpt lat="47.22321" lon="0.036">
        <ele>36.186767578125</ele>
        <time>2013-06-28T14:23:25Z</time>
      </trkpt>
      <trkpt lat="47.22334" lon="0.03584">
        <ele>36.186767578125</ele>
        <time>2013-06-28T14:23:30Z</time>
      </trkpt>
      <trkpt lat="47.22336" lon="0.03577">
        <ele>36.186767578125</ele>
        <time>2013-06-28T14:23:31Z</time>
      </trkpt>
      <trkpt lat="47.22356" lon="0.03508">
        <ele>35.7060546875</ele>
        <time>2013-06-28T14:23:40Z</time>
      </trkpt>
      <trkpt lat="47.22384" lon="0.03419">
        <ele>36.186767578125</ele>
        <time>2013-06-28T14:23:51Z</time>
      </trkpt>
      <trkpt lat="47.22415" lon="0.03323">
        <ele>36.186767578125</ele>
        <time>2013-06-28T14:24:02Z</time>
      </trkpt>
      <trkpt lat="47.22442" lon="0.0324">
        <ele>35.225463867188</ele>
        <time>2013-06-28T14:24:11Z</time>
      </trkpt>
      <trkpt lat="47.22473" lon="0.03147">
        <ele>34.26416015625</ele>
        <time>2013-06-28T14:24:21Z</time>
      </trkpt>
      <trkpt lat="47.22509" lon="0.03034">
        <ele>34.26416015625</ele>
        <time>2013-06-28T14:24:34Z</time>
      </trkpt>
      <trkpt lat="47.22522" lon="0.02997">
        <ele>33.783447265625</ele>
        <time>2013-06-28T14:24:39Z</time>
      </trkpt>
      <trkpt lat="47.22539" lon="0.02962">
        <ele>33.783447265625</ele>
        <time>2013-06-28T14:24:44Z</time>
      </trkpt>
      <trkpt lat="47.22539" lon="0.02953">
        <ele>34.26416015625</ele>
        <time>2013-06-28T14:24:45Z</time>
      </trkpt>
      <trkpt lat="47.22555" lon="0.02883">
        <ele>34.744873046875</ele>
        <time>2013-06-28T14:24:53Z</time>
      </trkpt>
      <trkpt lat="47.22581" lon="0.02797">
        <ele>35.225463867188</ele>
        <time>2013-06-28T14:25:02Z</time>
      </trkpt>
      <trkpt lat="47.2261" lon="0.02705">
        <ele>34.744873046875</ele>
        <time>2013-06-28T14:25:12Z</time>
      </trkpt>
      <trkpt lat="47.22653" lon="0.02574">
        <ele>35.7060546875</ele>
        <time>2013-06-28T14:25:26Z</time>
      </trkpt>
      <trkpt lat="47.2269" lon="0.02455">
        <ele>36.186767578125</ele>
        <time>2013-06-28T14:25:39Z</time>
      </trkpt>
      <trkpt lat="47.22724" lon="0.02343">
        <ele>36.186767578125</ele>
        <time>2013-06-28T14:25:51Z</time>
      </trkpt>
      <trkpt lat="47.22765" lon="0.02213">
        <ele>38.109375</ele>
        <time>2013-06-28T14:26:05Z</time>
      </trkpt>
      <trkpt lat="47.22803" lon="0.02095">
        <ele>38.109375</ele>
        <time>2013-06-28T14:26:18Z</time>
      </trkpt>
      <trkpt lat="47.22841" lon="0.01988">
        <ele>37.628662109375</ele>
        <time>2013-06-28T14:26:30Z</time>
      </trkpt>
      <trkpt lat="47.22874" lon="0.01886">
        <ele>37.148071289062</ele>
        <time>2013-06-28T14:26:41Z</time>
      </trkpt>
      <trkpt lat="47.22907" lon="0.01783">
        <ele>36.66748046875</ele>
        <time>2013-06-28T14:26:52Z</time>
      </trkpt>
      <trkpt lat="47.22948" lon="0.01648">
        <ele>35.7060546875</ele>
        <time>2013-06-28T14:27:06Z</time>
      </trkpt>
      <trkpt lat="47.22973" lon="0.01553">
        <ele>35.7060546875</ele>
        <time>2013-06-28T14:27:16Z</time>
      </trkpt>
      <trkpt lat="47.23006" lon="0.01447">
        <ele>36.66748046875</ele>
        <time>2013-06-28T14:27:27Z</time>
      </trkpt>
      <trkpt lat="47.23051" lon="0.01303">
        <ele>35.7060546875</ele>
        <time>2013-06-28T14:27:42Z</time>
      </trkpt>
      <trkpt lat="47.23088" lon="0.01189">
        <ele>35.225463867188</ele>
        <time>2013-06-28T14:27:54Z</time>
      </trkpt>
      <trkpt lat="47.23117" lon="0.01095">
        <ele>35.225463867188</ele>
        <time>2013-06-28T14:28:04Z</time>
      </trkpt>
      <trkpt lat="47.23152" lon="0.00983">
        <ele>35.7060546875</ele>
        <time>2013-06-28T14:28:16Z</time>
      </trkpt>
      <trkpt lat="47.2319" lon="0.00864">
        <ele>35.225463867188</ele>
        <time>2013-06-28T14:28:29Z</time>
      </trkpt>
      <trkpt lat="47.23227" lon="0.00742">
        <ele>32.822265625</ele>
        <time>2013-06-28T14:28:42Z</time>
      </trkpt>
      <trkpt lat="47.23258" lon="0.00647">
        <ele>33.783447265625</ele>
        <time>2013-06-28T14:28:52Z</time>
      </trkpt>
      <trkpt lat="47.23287" lon="0.00556">
        <ele>34.744873046875</ele>
        <time>2013-06-28T14:29:02Z</time>
      </trkpt>
      <trkpt lat="47.23319" lon="0.00451">
        <ele>34.26416015625</ele>
        <time>2013-06-28T14:29:14Z</time>
      </trkpt>
      <trkpt lat="47.2336" lon="0.0032">
        <ele>34.26416015625</ele>
        <time>2013-06-28T14:29:29Z</time>
      </trkpt>
      <trkpt lat="47.23396" lon="0.00197">
        <ele>34.744873046875</ele>
        <time>2013-06-28T14:29:43Z</time>
      </trkpt>
      <trkpt lat="47.23421" lon="0.00109">
        <ele>34.744873046875</ele>
        <time>2013-06-28T14:29:53Z</time>
      </trkpt>
      <trkpt lat="47.23449" lon="1.0E-5">
        <ele>34.744873046875</ele>
        <time>2013-06-28T14:30:05Z</time>
      </trkpt>
      <trkpt lat="47.23466" lon="-0.00063">
        <ele>35.225463867188</ele>
        <time>2013-06-28T14:30:12Z</time>
      </trkpt>
      <trkpt lat="47.23495" lon="-0.00171">
        <ele>36.66748046875</ele>
        <time>2013-06-28T14:30:24Z</time>
      </trkpt>
      <trkpt lat="47.23527" lon="-0.00289">
        <ele>35.7060546875</ele>
        <time>2013-06-28T14:30:37Z</time>
      </trkpt>
      <trkpt lat="47.23555" lon="-0.00394">
        <ele>36.186767578125</ele>
        <time>2013-06-28T14:30:49Z</time>
      </trkpt>
      <trkpt lat="47.23564" lon="-0.00433">
        <ele>35.7060546875</ele>
        <time>2013-06-28T14:30:53Z</time>
      </trkpt>
      <trkpt lat="47.23594" lon="-0.00561">
        <ele>36.186767578125</ele>
        <time>2013-06-28T14:31:06Z</time>
      </trkpt>
      <trkpt lat="47.23621" lon="-0.00686">
        <ele>35.7060546875</ele>
        <time>2013-06-28T14:31:19Z</time>
      </trkpt>
      <trkpt lat="47.23647" lon="-0.00765">
        <ele>35.7060546875</ele>
        <time>2013-06-28T14:31:28Z</time>
      </trkpt>
      <trkpt lat="47.23686" lon="-0.00842">
        <ele>34.26416015625</ele>
        <time>2013-06-28T14:31:38Z</time>
      </trkpt>
      <trkpt lat="47.23731" lon="-0.00932">
        <ele>34.26416015625</ele>
        <time>2013-06-28T14:31:50Z</time>
      </trkpt>
      <trkpt lat="47.23765" lon="-0.01018">
        <ele>34.26416015625</ele>
        <time>2013-06-28T14:32:01Z</time>
      </trkpt>
      <trkpt lat="47.23793" lon="-0.01101">
        <ele>34.744873046875</ele>
        <time>2013-06-28T14:32:11Z</time>
      </trkpt>
      <trkpt lat="47.23827" lon="-0.01202">
        <ele>35.225463867188</ele>
        <time>2013-06-28T14:32:22Z</time>
      </trkpt>
      <trkpt lat="47.23858" lon="-0.01304">
        <ele>36.186767578125</ele>
        <time>2013-06-28T14:32:33Z</time>
      </trkpt>
      <trkpt lat="47.23906" lon="-0.01463">
        <ele>37.148071289062</ele>
        <time>2013-06-28T14:32:50Z</time>
      </trkpt>
      <trkpt lat="47.23929" lon="-0.0156">
        <ele>36.66748046875</ele>
        <time>2013-06-28T14:33:00Z</time>
      </trkpt>
      <trkpt lat="47.23955" lon="-0.01679">
        <ele>35.7060546875</ele>
        <time>2013-06-28T14:33:12Z</time>
      </trkpt>
      <trkpt lat="47.23979" lon="-0.01792">
        <ele>35.225463867188</ele>
        <time>2013-06-28T14:33:23Z</time>
      </trkpt>
      <trkpt lat="47.24016" lon="-0.01974">
        <ele>34.26416015625</ele>
        <time>2013-06-28T14:33:41Z</time>
      </trkpt>
      <trkpt lat="47.2404" lon="-0.02087">
        <ele>34.26416015625</ele>
        <time>2013-06-28T14:33:52Z</time>
      </trkpt>
      <trkpt lat="47.24058" lon="-0.02161">
        <ele>34.744873046875</ele>
        <time>2013-06-28T14:33:59Z</time>
      </trkpt>
      <trkpt lat="47.24071" lon="-0.02239">
        <ele>35.225463867188</ele>
        <time>2013-06-28T14:34:07Z</time>
      </trkpt>
      <trkpt lat="47.2409" lon="-0.0234">
        <ele>36.186767578125</ele>
        <time>2013-06-28T14:34:18Z</time>
      </trkpt>
      <trkpt lat="47.24113" lon="-0.02412">
        <ele>37.148071289062</ele>
        <time>2013-06-28T14:34:26Z</time>
      </trkpt>
      <trkpt lat="47.24157" lon="-0.02523">
        <ele>36.186767578125</ele>
        <time>2013-06-28T14:34:38Z</time>
      </trkpt>
      <trkpt lat="47.24195" lon="-0.0264">
        <ele>36.66748046875</ele>
        <time>2013-06-28T14:34:50Z</time>
      </trkpt>
      <trkpt lat="47.24234" lon="-0.02766">
        <ele>36.186767578125</ele>
        <time>2013-06-28T14:35:03Z</time>
      </trkpt>
      <trkpt lat="47.24283" lon="-0.02933">
        <ele>34.744873046875</ele>
        <time>2013-06-28T14:35:20Z</time>
      </trkpt>
      <trkpt lat="47.24311" lon="-0.03031">
        <ele>34.744873046875</ele>
        <time>2013-06-28T14:35:30Z</time>
      </trkpt>
      <trkpt lat="47.24347" lon="-0.03155">
        <ele>34.26416015625</ele>
        <time>2013-06-28T14:35:43Z</time>
      </trkpt>
      <trkpt lat="47.24395" lon="-0.0331">
        <ele>37.148071289062</ele>
        <time>2013-06-28T14:35:59Z</time>
      </trkpt>
      <trkpt lat="47.24433" lon="-0.03426">
        <ele>39.070678710938</ele>
        <time>2013-06-28T14:36:11Z</time>
      </trkpt>
      <trkpt lat="47.24472" lon="-0.03523">
        <ele>38.590087890625</ele>
        <time>2013-06-28T14:36:22Z</time>
      </trkpt>
      <trkpt lat="47.24505" lon="-0.03603">
        <ele>37.148071289062</ele>
        <time>2013-06-28T14:36:31Z</time>
      </trkpt>
      <trkpt lat="47.24588" lon="-0.03871">
        <ele>36.186767578125</ele>
        <time>2013-06-28T14:36:59Z</time>
      </trkpt>
      <trkpt lat="47.24623" lon="-0.03998">
        <ele>35.7060546875</ele>
        <time>2013-06-28T14:37:12Z</time>
      </trkpt>
      <trkpt lat="47.24665" lon="-0.04162">
        <ele>35.225463867188</ele>
        <time>2013-06-28T14:37:28Z</time>
      </trkpt>
      <trkpt lat="47.24703" lon="-0.04271">
        <ele>36.186767578125</ele>
        <time>2013-06-28T14:37:39Z</time>
      </trkpt>
      <trkpt lat="47.24756" lon="-0.04426">
        <ele>36.186767578125</ele>
        <time>2013-06-28T14:37:54Z</time>
      </trkpt>
      <trkpt lat="47.24805" lon="-0.04534">
        <ele>35.7060546875</ele>
        <time>2013-06-28T14:38:05Z</time>
      </trkpt>
      <trkpt lat="47.24859" lon="-0.04665">
        <ele>36.186767578125</ele>
        <time>2013-06-28T14:38:18Z</time>
      </trkpt>
      <trkpt lat="47.24917" lon="-0.04852">
        <ele>35.225463867188</ele>
        <time>2013-06-28T14:38:36Z</time>
      </trkpt>
      <trkpt lat="47.24946" lon="-0.04984">
        <ele>35.225463867188</ele>
        <time>2013-06-28T14:38:48Z</time>
      </trkpt>
      <trkpt lat="47.24982" lon="-0.05156">
        <ele>34.744873046875</ele>
        <time>2013-06-28T14:39:03Z</time>
      </trkpt>
      <trkpt lat="47.24995" lon="-0.05243">
        <ele>34.744873046875</ele>
        <time>2013-06-28T14:39:11Z</time>
      </trkpt>
      <trkpt lat="47.25009" lon="-0.05287">
        <ele>34.744873046875</ele>
        <time>2013-06-28T14:39:16Z</time>
      </trkpt>
      <trkpt lat="47.25028" lon="-0.05386">
        <ele>34.744873046875</ele>
        <time>2013-06-28T14:39:26Z</time>
      </trkpt>
      <trkpt lat="47.25055" lon="-0.05486">
        <ele>35.225463867188</ele>
        <time>2013-06-28T14:39:36Z</time>
      </trkpt>
      <trkpt lat="47.25095" lon="-0.05618">
        <ele>33.783447265625</ele>
        <time>2013-06-28T14:39:49Z</time>
      </trkpt>
      <trkpt lat="47.25137" lon="-0.05754">
        <ele>35.225463867188</ele>
        <time>2013-06-28T14:40:02Z</time>
      </trkpt>
      <trkpt lat="47.25174" lon="-0.05888">
        <ele>35.225463867188</ele>
        <time>2013-06-28T14:40:15Z</time>
      </trkpt>
      <trkpt lat="47.25217" lon="-0.06029">
        <ele>34.744873046875</ele>
        <time>2013-06-28T14:40:29Z</time>
      </trkpt>
      <trkpt lat="47.2524" lon="-0.06107">
        <ele>33.783447265625</ele>
        <time>2013-06-28T14:40:38Z</time>
      </trkpt>
      <trkpt lat="47.25284" lon="-0.06183">
        <ele>33.302856445312</ele>
        <time>2013-06-28T14:40:49Z</time>
      </trkpt>
      <trkpt lat="47.25341" lon="-0.06284">
        <ele>32.341552734375</ele>
        <time>2013-06-28T14:41:02Z</time>
      </trkpt>
      <trkpt lat="47.25382" lon="-0.06356">
        <ele>32.341552734375</ele>
        <time>2013-06-28T14:41:11Z</time>
      </trkpt>
      <trkpt lat="47.25442" lon="-0.0646">
        <ele>32.341552734375</ele>
        <time>2013-06-28T14:41:24Z</time>
      </trkpt>
      <trkpt lat="47.25494" lon="-0.0655">
        <ele>33.783447265625</ele>
        <time>2013-06-28T14:41:36Z</time>
      </trkpt>
      <trkpt lat="47.25512" lon="-0.06581">
        <ele>33.783447265625</ele>
        <time>2013-06-28T14:41:41Z</time>
      </trkpt>
      <trkpt lat="47.25545" lon="-0.06638">
        <ele>33.302856445312</ele>
        <time>2013-06-28T14:41:49Z</time>
      </trkpt>
      <trkpt lat="47.25596" lon="-0.06728">
        <ele>32.822265625</ele>
        <time>2013-06-28T14:42:01Z</time>
      </trkpt>
      <trkpt lat="47.25648" lon="-0.06822">
        <ele>33.302856445312</ele>
        <time>2013-06-28T14:42:13Z</time>
      </trkpt>
      <trkpt lat="47.25713" lon="-0.06936">
        <ele>32.822265625</ele>
        <time>2013-06-28T14:42:27Z</time>
      </trkpt>
      <trkpt lat="47.25756" lon="-0.07008">
        <ele>33.302856445312</ele>
        <time>2013-06-28T14:42:36Z</time>
      </trkpt>
      <trkpt lat="47.25822" lon="-0.07123">
        <ele>32.822265625</ele>
        <time>2013-06-28T14:42:50Z</time>
      </trkpt>
      <trkpt lat="47.2585" lon="-0.07168">
        <ele>33.302856445312</ele>
        <time>2013-06-28T14:42:57Z</time>
      </trkpt>
      <trkpt lat="47.25903" lon="-0.07248">
        <ele>35.225463867188</ele>
        <time>2013-06-28T14:43:14Z</time>
      </trkpt>
      <trkpt lat="47.25915" lon="-0.07269">
        <ele>33.783447265625</ele>
        <time>2013-06-28T14:43:24Z</time>
      </trkpt>
      <trkpt lat="47.25927" lon="-0.07274">
        <ele>33.302856445312</ele>
        <time>2013-06-28T14:43:31Z</time>
      </trkpt>
      <trkpt lat="47.25926" lon="-0.07273">
        <ele>32.822265625</ele>
        <time>2013-06-28T14:43:37Z</time>
      </trkpt>
      <trkpt lat="47.25925" lon="-0.07271">
        <ele>30.899536132812</ele>
        <time>2013-06-28T14:44:05Z</time>
      </trkpt>
      <trkpt lat="47.25923" lon="-0.0727">
        <ele>32.341552734375</ele>
        <time>2013-06-28T14:44:32Z</time>
      </trkpt>
      <trkpt lat="47.25916" lon="-0.07269">
        <ele>37.628662109375</ele>
        <time>2013-06-28T14:45:01Z</time>
      </trkpt>
      <trkpt lat="47.25916" lon="-0.07268">
        <ele>34.744873046875</ele>
        <time>2013-06-28T14:45:34Z</time>
      </trkpt>
      <trkpt lat="47.25917" lon="-0.07267">
        <ele>36.186767578125</ele>
        <time>2013-06-28T14:45:59Z</time>
      </trkpt>
      <trkpt lat="47.25918" lon="-0.07267">
        <ele>36.66748046875</ele>
        <time>2013-06-28T14:46:30Z</time>
      </trkpt>
      <trkpt lat="47.25918" lon="-0.07267">
        <ele>37.148071289062</ele>
        <time>2013-06-28T14:46:55Z</time>
      </trkpt>
      <trkpt lat="47.25916" lon="-0.07266">
        <ele>35.225463867188</ele>
        <time>2013-06-28T14:47:07Z</time>
      </trkpt>
      <trkpt lat="47.25917" lon="-0.07266">
        <ele>34.26416015625</ele>
        <time>2013-06-28T14:47:13Z</time>
      </trkpt>
      <trkpt lat="47.25925" lon="-0.07284">
        <ele>33.302856445312</ele>
        <time>2013-06-28T14:47:21Z</time>
      </trkpt>
      <trkpt lat="47.2594" lon="-0.07305">
        <ele>31.380126953125</ele>
        <time>2013-06-28T14:47:27Z</time>
      </trkpt>
      <trkpt lat="47.25978" lon="-0.07371">
        <ele>32.341552734375</ele>
        <time>2013-06-28T14:47:39Z</time>
      </trkpt>
      <trkpt lat="47.26014" lon="-0.0743">
        <ele>35.7060546875</ele>
        <time>2013-06-28T14:47:50Z</time>
      </trkpt>
      <trkpt lat="47.26048" lon="-0.075">
        <ele>35.7060546875</ele>
        <time>2013-06-28T14:48:02Z</time>
      </trkpt>
      <trkpt lat="47.26074" lon="-0.0756">
        <ele>36.186767578125</ele>
        <time>2013-06-28T14:48:13Z</time>
      </trkpt>
      <trkpt lat="47.26093" lon="-0.07603">
        <ele>37.148071289062</ele>
        <time>2013-06-28T14:48:21Z</time>
      </trkpt>
      <trkpt lat="47.26118" lon="-0.07649">
        <ele>38.590087890625</ele>
        <time>2013-06-28T14:48:31Z</time>
      </trkpt>
      <trkpt lat="47.2613" lon="-0.07669">
        <ele>38.109375</ele>
        <time>2013-06-28T14:48:37Z</time>
      </trkpt>
      <trkpt lat="47.26141" lon="-0.07684">
        <ele>38.109375</ele>
        <time>2013-06-28T14:48:42Z</time>
      </trkpt>
      <trkpt lat="47.26146" lon="-0.07695">
        <ele>38.109375</ele>
        <time>2013-06-28T14:48:44Z</time>
      </trkpt>
      <trkpt lat="47.26186" lon="-0.07763">
        <ele>38.109375</ele>
        <time>2013-06-28T14:48:55Z</time>
      </trkpt>
      <trkpt lat="47.26228" lon="-0.07841">
        <ele>38.109375</ele>
        <time>2013-06-28T14:49:06Z</time>
      </trkpt>
      <trkpt lat="47.2624" lon="-0.0786">
        <ele>38.109375</ele>
        <time>2013-06-28T14:49:09Z</time>
      </trkpt>
      <trkpt lat="47.26252" lon="-0.07872">
        <ele>38.109375</ele>
        <time>2013-06-28T14:49:14Z</time>
      </trkpt>
      <trkpt lat="47.26265" lon="-0.07888">
        <ele>37.628662109375</ele>
        <time>2013-06-28T14:49:20Z</time>
      </trkpt>
      <trkpt lat="47.26289" lon="-0.07916">
        <ele>38.109375</ele>
        <time>2013-06-28T14:49:27Z</time>
      </trkpt>
      <trkpt lat="47.26297" lon="-0.07932">
        <ele>37.628662109375</ele>
        <time>2013-06-28T14:49:30Z</time>
      </trkpt>
      <trkpt lat="47.26302" lon="-0.07944">
        <ele>38.109375</ele>
        <time>2013-06-28T14:49:32Z</time>
      </trkpt>
      <trkpt lat="47.263" lon="-0.07969">
        <ele>37.628662109375</ele>
        <time>2013-06-28T14:49:37Z</time>
      </trkpt>
      <trkpt lat="47.26298" lon="-0.07975">
        <ele>37.148071289062</ele>
        <time>2013-06-28T14:49:43Z</time>
      </trkpt>
      <trkpt lat="47.26298" lon="-0.07975">
        <ele>39.55126953125</ele>
        <time>2013-06-28T14:50:01Z</time>
      </trkpt>
      <trkpt lat="47.26293" lon="-0.0798">
        <ele>39.070678710938</ele>
        <time>2013-06-28T14:50:04Z</time>
      </trkpt>
      <trkpt lat="47.2627" lon="-0.07991">
        <ele>36.186767578125</ele>
        <time>2013-06-28T14:50:12Z</time>
      </trkpt>
      <trkpt lat="47.2625" lon="-0.07985">
        <ele>35.225463867188</ele>
        <time>2013-06-28T14:50:16Z</time>
      </trkpt>
      <trkpt lat="47.26204" lon="-0.08033">
        <ele>35.7060546875</ele>
        <time>2013-06-28T14:50:28Z</time>
      </trkpt>
      <trkpt lat="47.2618" lon="-0.08057">
        <ele>34.744873046875</ele>
        <time>2013-06-28T14:50:36Z</time>
      </trkpt>
      <trkpt lat="47.26146" lon="-0.08088">
        <ele>33.783447265625</ele>
        <time>2013-06-28T14:50:47Z</time>
      </trkpt>
      <trkpt lat="47.2613" lon="-0.08102">
        <ele>33.302856445312</ele>
        <time>2013-06-28T14:50:52Z</time>
      </trkpt>
      <trkpt lat="47.26113" lon="-0.08103">
        <ele>33.783447265625</ele>
        <time>2013-06-28T14:51:00Z</time>
      </trkpt>
      <trkpt lat="47.26116" lon="-0.08103">
        <ele>35.225463867188</ele>
        <time>2013-06-28T14:51:14Z</time>
      </trkpt>
      <trkpt lat="47.26117" lon="-0.08103">
        <ele>37.148071289062</ele>
        <time>2013-06-28T14:51:29Z</time>
      </trkpt>
      <trkpt lat="47.26122" lon="-0.08097">
        <ele>36.66748046875</ele>
        <time>2013-06-28T14:51:37Z</time>
      </trkpt>
      <trkpt lat="47.26123" lon="-0.08089">
        <ele>39.55126953125</ele>
        <time>2013-06-28T14:51:42Z</time>
      </trkpt>
      <trkpt lat="47.26128" lon="-0.08089">
        <ele>40.512817382812</ele>
        <time>2013-06-28T14:51:50Z</time>
      </trkpt>
      <trkpt lat="47.26125" lon="-0.08076">
        <ele>40.993408203125</ele>
        <time>2013-06-28T14:51:59Z</time>
      </trkpt>
      <trkpt lat="47.26116" lon="-0.08053">
        <ele>40.993408203125</ele>
        <time>2013-06-28T14:52:07Z</time>
      </trkpt>
      <trkpt lat="47.26108" lon="-0.08032">
        <ele>41.473999023438</ele>
        <time>2013-06-28T14:52:17Z</time>
      </trkpt>
      <trkpt lat="47.26129" lon="-0.08087">
        <ele>42.916015625</ele>
        <time>2013-06-28T14:52:29Z</time>
      </trkpt>
      <trkpt lat="47.26129" lon="-0.08085">
        <ele>43.396606445312</ele>
        <time>2013-06-28T14:52:38Z</time>
      </trkpt>
      <trkpt lat="47.26129" lon="-0.08077">
        <ele>45.799926757812</ele>
        <time>2013-06-28T14:52:48Z</time>
      </trkpt>
      <trkpt lat="47.26127" lon="-0.08076">
        <ele>46.76123046875</ele>
        <time>2013-06-28T14:53:00Z</time>
      </trkpt>
      <trkpt lat="47.26106" lon="-0.08051">
        <ele>46.76123046875</ele>
        <time>2013-06-28T14:53:21Z</time>
      </trkpt>
      <trkpt lat="47.26105" lon="-0.08044">
        <ele>48.203369140625</ele>
        <time>2013-06-28T14:53:41Z</time>
      </trkpt>
      <trkpt lat="47.26105" lon="-0.08043">
        <ele>52.048583984375</ele>
        <time>2013-06-28T14:53:59Z</time>
      </trkpt>
      <trkpt lat="47.26108" lon="-0.08042">
        <ele>64.545654296875</ele>
        <time>2013-06-28T14:54:22Z</time>
      </trkpt>
      <trkpt lat="47.26122" lon="-0.08037">
        <ele>68.87158203125</ele>
        <time>2013-06-28T14:54:40Z</time>
      </trkpt>
      <trkpt lat="47.26128" lon="-0.08074">
        <ele>69.832885742188</ele>
        <time>2013-06-28T14:54:56Z</time>
      </trkpt>
      <trkpt lat="47.26128" lon="-0.08076">
        <ele>64.065063476562</ele>
        <time>2013-06-28T14:55:09Z</time>
      </trkpt>
      <trkpt lat="47.26128" lon="-0.0808">
        <ele>64.065063476562</ele>
        <time>2013-06-28T14:55:27Z</time>
      </trkpt>
      <trkpt lat="47.26129" lon="-0.08078">
        <ele>64.065063476562</ele>
        <time>2013-06-28T14:55:41Z</time>
      </trkpt>
      <trkpt lat="47.26118" lon="-0.08047">
        <ele>59.258422851562</ele>
        <time>2013-06-28T14:56:08Z</time>
      </trkpt>
      <trkpt lat="47.26128" lon="-0.08084">
        <ele>60.2197265625</ele>
        <time>2013-06-28T14:56:38Z</time>
      </trkpt>
      <trkpt lat="47.26128" lon="-0.08081">
        <ele>60.700317382812</ele>
        <time>2013-06-28T14:56:54Z</time>
      </trkpt>
      <trkpt lat="47.26126" lon="-0.0808">
        <ele>53.490478515625</ele>
        <time>2013-06-28T14:57:11Z</time>
      </trkpt>
      <trkpt lat="47.26113" lon="-0.08049">
        <ele>52.529174804688</ele>
        <time>2013-06-28T14:57:47Z</time>
      </trkpt>
      <trkpt lat="47.26107" lon="-0.08043">
        <ele>52.048583984375</ele>
        <time>2013-06-28T14:58:01Z</time>
      </trkpt>
      <trkpt lat="47.26106" lon="-0.08041">
        <ele>53.490478515625</ele>
        <time>2013-06-28T14:58:18Z</time>
      </trkpt>
      <trkpt lat="47.26106" lon="-0.08039">
        <ele>54.451782226562</ele>
        <time>2013-06-28T14:58:34Z</time>
      </trkpt>
      <trkpt lat="47.26108" lon="-0.08038">
        <ele>56.855102539062</ele>
        <time>2013-06-28T14:58:49Z</time>
      </trkpt>
      <trkpt lat="47.26108" lon="-0.08038">
        <ele>56.855102539062</ele>
        <time>2013-06-28T14:59:03Z</time>
      </trkpt>
      <trkpt lat="47.2611" lon="-0.08037">
        <ele>65.0263671875</ele>
        <time>2013-06-28T14:59:17Z</time>
      </trkpt>
      <trkpt lat="47.26131" lon="-0.08086">
        <ele>63.584350585938</ele>
        <time>2013-06-28T14:59:25Z</time>
      </trkpt>
      <trkpt lat="47.2613" lon="-0.0809">
        <ele>63.584350585938</ele>
        <time>2013-06-28T14:59:34Z</time>
      </trkpt>
      <trkpt lat="47.26137" lon="-0.08113">
        <ele>63.584350585938</ele>
        <time>2013-06-28T14:59:39Z</time>
      </trkpt>
      <trkpt lat="47.25984" lon="-0.0821">
        <ele>62.142333984375</ele>
        <time>2013-06-28T15:00:17Z</time>
      </trkpt>
      <trkpt lat="47.25902" lon="-0.08216">
        <ele>61.661743164062</ele>
        <time>2013-06-28T15:00:29Z</time>
      </trkpt>
      <trkpt lat="47.26147" lon="-0.08444">
        <ele>61.661743164062</ele>
        <time>2013-06-28T15:00:43Z</time>
      </trkpt>
      <trkpt lat="47.2616" lon="-0.08527">
        <ele>59.258422851562</ele>
        <time>2013-06-28T15:00:54Z</time>
      </trkpt>
      <trkpt lat="47.2617" lon="-0.08549">
        <ele>54.932373046875</ele>
        <time>2013-06-28T15:01:00Z</time>
      </trkpt>
      <trkpt lat="47.26169" lon="-0.08549">
        <ele>52.529174804688</ele>
        <time>2013-06-28T15:01:05Z</time>
      </trkpt>
      <trkpt lat="47.26165" lon="-0.08552">
        <ele>50.606567382812</ele>
        <time>2013-06-28T15:01:22Z</time>
      </trkpt>
      <trkpt lat="47.26163" lon="-0.08553">
        <ele>45.799926757812</ele>
        <time>2013-06-28T15:01:31Z</time>
      </trkpt>
      <trkpt lat="47.26149" lon="-0.08564">
        <ele>41.954711914062</ele>
        <time>2013-06-28T15:01:39Z</time>
      </trkpt>
      <trkpt lat="47.26147" lon="-0.08564">
        <ele>41.473999023438</ele>
        <time>2013-06-28T15:01:40Z</time>
      </trkpt>
      <trkpt lat="47.26146" lon="-0.08559">
        <ele>40.993408203125</ele>
        <time>2013-06-28T15:01:46Z</time>
      </trkpt>
      <trkpt lat="47.26153" lon="-0.08556">
        <ele>40.032104492188</ele>
        <time>2013-06-28T15:01:56Z</time>
      </trkpt>
      <trkpt lat="47.26156" lon="-0.08555">
        <ele>40.993408203125</ele>
        <time>2013-06-28T15:02:13Z</time>
      </trkpt>
      <trkpt lat="47.26157" lon="-0.08554">
        <ele>41.954711914062</ele>
        <time>2013-06-28T15:02:34Z</time>
      </trkpt>
      <trkpt lat="47.26156" lon="-0.08555">
        <ele>38.109375</ele>
        <time>2013-06-28T15:02:56Z</time>
      </trkpt>
      <trkpt lat="47.26156" lon="-0.08555">
        <ele>35.225463867188</ele>
        <time>2013-06-28T15:03:19Z</time>
      </trkpt>
      <trkpt lat="47.26159" lon="-0.08553">
        <ele>35.225463867188</ele>
        <time>2013-06-28T15:03:33Z</time>
      </trkpt>
      <trkpt lat="47.26158" lon="-0.08554">
        <ele>34.26416015625</ele>
        <time>2013-06-28T15:03:51Z</time>
      </trkpt>
      <trkpt lat="47.26158" lon="-0.08551">
        <ele>34.26416015625</ele>
        <time>2013-06-28T15:04:08Z</time>
      </trkpt>
      <trkpt lat="47.26162" lon="-0.0855">
        <ele>34.26416015625</ele>
        <time>2013-06-28T15:04:14Z</time>
      </trkpt>
      <trkpt lat="47.26162" lon="-0.08549">
        <ele>36.186767578125</ele>
        <time>2013-06-28T15:04:32Z</time>
      </trkpt>
      <trkpt lat="47.26186" lon="-0.0871">
        <ele>37.148071289062</ele>
        <time>2013-06-28T15:05:00Z</time>
      </trkpt>
      <trkpt lat="47.26165" lon="-0.08555">
        <ele>36.186767578125</ele>
        <time>2013-06-28T15:05:09Z</time>
      </trkpt>
      <trkpt lat="47.26171" lon="-0.08572">
        <ele>36.186767578125</ele>
        <time>2013-06-28T15:05:16Z</time>
      </trkpt>
      <trkpt lat="47.2617" lon="-0.0858">
        <ele>35.7060546875</ele>
        <time>2013-06-28T15:05:18Z</time>
      </trkpt>
      <trkpt lat="47.26173" lon="-0.086">
        <ele>35.7060546875</ele>
        <time>2013-06-28T15:05:23Z</time>
      </trkpt>
      <trkpt lat="47.26198" lon="-0.08672">
        <ele>35.225463867188</ele>
        <time>2013-06-28T15:05:36Z</time>
      </trkpt>
      <trkpt lat="47.26231" lon="-0.08787">
        <ele>35.225463867188</ele>
        <time>2013-06-28T15:05:53Z</time>
      </trkpt>
      <trkpt lat="47.26261" lon="-0.08912">
        <ele>34.744873046875</ele>
        <time>2013-06-28T15:06:09Z</time>
      </trkpt>
      <trkpt lat="47.26276" lon="-0.09028">
        <ele>36.186767578125</ele>
        <time>2013-06-28T15:06:25Z</time>
      </trkpt>
      <trkpt lat="47.26277" lon="-0.09028">
        <ele>35.7060546875</ele>
        <time>2013-06-28T15:06:35Z</time>
      </trkpt>
      <trkpt lat="47.26283" lon="-0.09037">
        <ele>35.7060546875</ele>
        <time>2013-06-28T15:06:40Z</time>
      </trkpt>
      <trkpt lat="47.26285" lon="-0.09051">
        <ele>35.7060546875</ele>
        <time>2013-06-28T15:06:43Z</time>
      </trkpt>
      <trkpt lat="47.26291" lon="-0.09089">
        <ele>36.186767578125</ele>
        <time>2013-06-28T15:06:49Z</time>
      </trkpt>
      <trkpt lat="47.26297" lon="-0.09101">
        <ele>35.7060546875</ele>
        <time>2013-06-28T15:06:51Z</time>
      </trkpt>
      <trkpt lat="47.2631" lon="-0.09133">
        <ele>36.186767578125</ele>
        <time>2013-06-28T15:06:56Z</time>
      </trkpt>
      <trkpt lat="47.26324" lon="-0.09193">
        <ele>35.7060546875</ele>
        <time>2013-06-28T15:07:04Z</time>
      </trkpt>
      <trkpt lat="47.2633" lon="-0.09215">
        <ele>35.7060546875</ele>
        <time>2013-06-28T15:07:07Z</time>
      </trkpt>
      <trkpt lat="47.26344" lon="-0.09234">
        <ele>35.225463867188</ele>
        <time>2013-06-28T15:07:11Z</time>
      </trkpt>
      <trkpt lat="47.26353" lon="-0.09249">
        <ele>35.225463867188</ele>
        <time>2013-06-28T15:07:14Z</time>
      </trkpt>
      <trkpt lat="47.26348" lon="-0.0926">
        <ele>34.744873046875</ele>
        <time>2013-06-28T15:07:16Z</time>
      </trkpt>
      <trkpt lat="47.26321" lon="-0.09306">
        <ele>33.302856445312</ele>
        <time>2013-06-28T15:07:24Z</time>
      </trkpt>
      <trkpt lat="47.26301" lon="-0.09342">
        <ele>33.302856445312</ele>
        <time>2013-06-28T15:07:31Z</time>
      </trkpt>
      <trkpt lat="47.26298" lon="-0.09357">
        <ele>33.783447265625</ele>
        <time>2013-06-28T15:07:33Z</time>
      </trkpt>
      <trkpt lat="47.26297" lon="-0.09373">
        <ele>34.26416015625</ele>
        <time>2013-06-28T15:07:35Z</time>
      </trkpt>
      <trkpt lat="47.26312" lon="-0.09447">
        <ele>34.26416015625</ele>
        <time>2013-06-28T15:07:45Z</time>
      </trkpt>
      <trkpt lat="47.26343" lon="-0.09507">
        <ele>34.744873046875</ele>
        <time>2013-06-28T15:07:54Z</time>
      </trkpt>
      <trkpt lat="47.26352" lon="-0.09534">
        <ele>34.744873046875</ele>
        <time>2013-06-28T15:07:59Z</time>
      </trkpt>
      <trkpt lat="47.26356" lon="-0.09538">
        <ele>34.744873046875</ele>
        <time>2013-06-28T15:08:00Z</time>
      </trkpt>
      <trkpt lat="47.26387" lon="-0.09548">
        <ele>35.225463867188</ele>
        <time>2013-06-28T15:08:07Z</time>
      </trkpt>
      <trkpt lat="47.26397" lon="-0.09552">
        <ele>35.7060546875</ele>
        <time>2013-06-28T15:08:10Z</time>
      </trkpt>
      <trkpt lat="47.26402" lon="-0.0957">
        <ele>34.744873046875</ele>
        <time>2013-06-28T15:08:14Z</time>
      </trkpt>
      <trkpt lat="47.26405" lon="-0.09584">
        <ele>33.302856445312</ele>
        <time>2013-06-28T15:08:16Z</time>
      </trkpt>
      <trkpt lat="47.26427" lon="-0.09626">
        <ele>30.418823242188</ele>
        <time>2013-06-28T15:08:22Z</time>
      </trkpt>
      <trkpt lat="47.26418" lon="-0.09584">
        <ele>30.418823242188</ele>
        <time>2013-06-28T15:08:28Z</time>
      </trkpt>
      <trkpt lat="47.26423" lon="-0.09587">
        <ele>33.302856445312</ele>
        <time>2013-06-28T15:08:37Z</time>
      </trkpt>
      <trkpt lat="47.26437" lon="-0.0959">
        <ele>32.341552734375</ele>
        <time>2013-06-28T15:08:43Z</time>
      </trkpt>
      <trkpt lat="47.2644" lon="-0.0959">
        <ele>31.860717773438</ele>
        <time>2013-06-28T15:08:48Z</time>
      </trkpt>
      <trkpt lat="47.2644" lon="-0.0959">
        <ele>32.341552734375</ele>
        <time>2013-06-28T15:08:49Z</time>
      </trkpt>
      <trkpt lat="47.26433" lon="-0.09599">
        <ele>32.341552734375</ele>
        <time>2013-06-28T15:08:59Z</time>
      </trkpt>
      <trkpt lat="47.26431" lon="-0.096">
        <ele>31.380126953125</ele>
        <time>2013-06-28T15:09:04Z</time>
      </trkpt>
      <trkpt lat="47.26427" lon="-0.09584">
        <ele>32.341552734375</ele>
        <time>2013-06-28T15:09:12Z</time>
      </trkpt>
      <trkpt lat="47.26424" lon="-0.09557">
        <ele>34.26416015625</ele>
        <time>2013-06-28T15:09:22Z</time>
      </trkpt>
      <trkpt lat="47.26423" lon="-0.09555">
        <ele>34.26416015625</ele>
        <time>2013-06-28T15:09:23Z</time>
      </trkpt>
      <trkpt lat="47.26418" lon="-0.09555">
        <ele>34.26416015625</ele>
        <time>2013-06-28T15:09:29Z</time>
      </trkpt>
      <trkpt lat="47.26417" lon="-0.0956">
        <ele>34.26416015625</ele>
        <time>2013-06-28T15:09:30Z</time>
      </trkpt>
      <trkpt lat="47.26422" lon="-0.09607">
        <ele>35.7060546875</ele>
        <time>2013-06-28T15:09:39Z</time>
      </trkpt>
      <trkpt lat="47.2644" lon="-0.09686">
        <ele>36.186767578125</ele>
        <time>2013-06-28T15:09:53Z</time>
      </trkpt>
      <trkpt lat="47.26457" lon="-0.09759">
        <ele>35.7060546875</ele>
        <time>2013-06-28T15:10:03Z</time>
      </trkpt>
      <trkpt lat="47.26469" lon="-0.09812">
        <ele>35.225463867188</ele>
        <time>2013-06-28T15:10:10Z</time>
      </trkpt>
      <trkpt lat="47.26501" lon="-0.09952">
        <ele>33.783447265625</ele>
        <time>2013-06-28T15:10:29Z</time>
      </trkpt>
      <trkpt lat="47.26527" lon="-0.10087">
        <ele>32.341552734375</ele>
        <time>2013-06-28T15:10:47Z</time>
      </trkpt>
      <trkpt lat="47.26532" lon="-0.10106">
        <ele>32.341552734375</ele>
        <time>2013-06-28T15:10:50Z</time>
      </trkpt>
      <trkpt lat="47.26572" lon="-0.10147">
        <ele>32.822265625</ele>
        <time>2013-06-28T15:10:59Z</time>
      </trkpt>
      <trkpt lat="47.266" lon="-0.10207">
        <ele>33.302856445312</ele>
        <time>2013-06-28T15:11:09Z</time>
      </trkpt>
      <trkpt lat="47.26652" lon="-0.10181">
        <ele>33.302856445312</ele>
        <time>2013-06-28T15:11:14Z</time>
      </trkpt>
      <trkpt lat="47.26826" lon="-0.10281">
        <ele>32.822265625</ele>
        <time>2013-06-28T15:11:51Z</time>
      </trkpt>
      <trkpt lat="47.27052" lon="-0.10456">
        <ele>32.822265625</ele>
        <time>2013-06-28T15:12:36Z</time>
      </trkpt>
      <trkpt lat="47.27165" lon="-0.10549">
        <ele>32.822265625</ele>
        <time>2013-06-28T15:13:00Z</time>
      </trkpt>
      <trkpt lat="47.27194" lon="-0.10577">
        <ele>32.341552734375</ele>
        <time>2013-06-28T15:13:06Z</time>
      </trkpt>
      <trkpt lat="47.27244" lon="-0.10665">
        <ele>31.860717773438</ele>
        <time>2013-06-28T15:13:19Z</time>
      </trkpt>
      <trkpt lat="47.27398" lon="-0.1085">
        <ele>32.822265625</ele>
        <time>2013-06-28T15:13:49Z</time>
      </trkpt>
      <trkpt lat="47.2742" lon="-0.10891">
        <ele>32.822265625</ele>
        <time>2013-06-28T15:13:55Z</time>
      </trkpt>
      <trkpt lat="47.2747" lon="-0.10973">
        <ele>32.822265625</ele>
        <time>2013-06-28T15:14:07Z</time>
      </trkpt>
      <trkpt lat="47.27475" lon="-0.11016">
        <ele>32.341552734375</ele>
        <time>2013-06-28T15:14:12Z</time>
      </trkpt>
      <trkpt lat="47.27506" lon="-0.11175">
        <ele>31.860717773438</ele>
        <time>2013-06-28T15:14:30Z</time>
      </trkpt>
      <trkpt lat="47.27515" lon="-0.11197">
        <ele>32.341552734375</ele>
        <time>2013-06-28T15:14:33Z</time>
      </trkpt>
      <trkpt lat="47.27557" lon="-0.11266">
        <ele>32.822265625</ele>
        <time>2013-06-28T15:14:44Z</time>
      </trkpt>
      <trkpt lat="47.276" lon="-0.11334">
        <ele>32.822265625</ele>
        <time>2013-06-28T15:14:55Z</time>
      </trkpt>
      <trkpt lat="47.27668" lon="-0.11443">
        <ele>32.341552734375</ele>
        <time>2013-06-28T15:15:11Z</time>
      </trkpt>
      <trkpt lat="47.27735" lon="-0.11549">
        <ele>31.860717773438</ele>
        <time>2013-06-28T15:15:27Z</time>
      </trkpt>
      <trkpt lat="47.27784" lon="-0.11627">
        <ele>31.380126953125</ele>
        <time>2013-06-28T15:15:39Z</time>
      </trkpt>
      <trkpt lat="47.27835" lon="-0.11715">
        <ele>32.822265625</ele>
        <time>2013-06-28T15:15:52Z</time>
      </trkpt>
      <trkpt lat="47.27893" lon="-0.11819">
        <ele>33.783447265625</ele>
        <time>2013-06-28T15:16:07Z</time>
      </trkpt>
      <trkpt lat="47.27949" lon="-0.11921">
        <ele>33.783447265625</ele>
        <time>2013-06-28T15:16:21Z</time>
      </trkpt>
      <trkpt lat="47.28008" lon="-0.12018">
        <ele>32.822265625</ele>
        <time>2013-06-28T15:16:35Z</time>
      </trkpt>
      <trkpt lat="47.2807" lon="-0.12094">
        <ele>32.822265625</ele>
        <time>2013-06-28T15:16:48Z</time>
      </trkpt>
      <trkpt lat="47.28142" lon="-0.12165">
        <ele>32.822265625</ele>
        <time>2013-06-28T15:17:02Z</time>
      </trkpt>
      <trkpt lat="47.28234" lon="-0.12245">
        <ele>32.822265625</ele>
        <time>2013-06-28T15:17:19Z</time>
      </trkpt>
      <trkpt lat="47.28332" lon="-0.12361">
        <ele>32.341552734375</ele>
        <time>2013-06-28T15:17:40Z</time>
      </trkpt>
      <trkpt lat="47.28474" lon="-0.12586">
        <ele>32.822265625</ele>
        <time>2013-06-28T15:18:12Z</time>
      </trkpt>
      <trkpt lat="47.28527" lon="-0.12676">
        <ele>32.822265625</ele>
        <time>2013-06-28T15:18:24Z</time>
      </trkpt>
      <trkpt lat="47.28583" lon="-0.12771">
        <ele>31.860717773438</ele>
        <time>2013-06-28T15:18:37Z</time>
      </trkpt>
      <trkpt lat="47.28642" lon="-0.12865">
        <ele>31.860717773438</ele>
        <time>2013-06-28T15:18:51Z</time>
      </trkpt>
      <trkpt lat="47.28712" lon="-0.12985">
        <ele>30.899536132812</ele>
        <time>2013-06-28T15:19:07Z</time>
      </trkpt>
      <trkpt lat="47.28853" lon="-0.13187">
        <ele>30.899536132812</ele>
        <time>2013-06-28T15:19:36Z</time>
      </trkpt>
      <trkpt lat="47.28901" lon="-0.13253">
        <ele>30.899536132812</ele>
        <time>2013-06-28T15:19:46Z</time>
      </trkpt>
      <trkpt lat="47.28905" lon="-0.13261">
        <ele>30.899536132812</ele>
        <time>2013-06-28T15:19:47Z</time>
      </trkpt>
      <trkpt lat="47.28962" lon="-0.13357">
        <ele>32.341552734375</ele>
        <time>2013-06-28T15:19:59Z</time>
      </trkpt>
      <trkpt lat="47.29013" lon="-0.13416">
        <ele>32.341552734375</ele>
        <time>2013-06-28T15:20:08Z</time>
      </trkpt>
      <trkpt lat="47.2908" lon="-0.13497">
        <ele>31.380126953125</ele>
        <time>2013-06-28T15:20:20Z</time>
      </trkpt>
      <trkpt lat="47.29198" lon="-0.13596">
        <ele>30.899536132812</ele>
        <time>2013-06-28T15:20:39Z</time>
      </trkpt>
      <trkpt lat="47.29271" lon="-0.13655">
        <ele>30.899536132812</ele>
        <time>2013-06-28T15:20:51Z</time>
      </trkpt>
      <trkpt lat="47.29346" lon="-0.13715">
        <ele>30.899536132812</ele>
        <time>2013-06-28T15:21:03Z</time>
      </trkpt>
      <trkpt lat="47.29435" lon="-0.13785">
        <ele>30.899536132812</ele>
        <time>2013-06-28T15:21:17Z</time>
      </trkpt>
      <trkpt lat="47.29514" lon="-0.13847">
        <ele>31.380126953125</ele>
        <time>2013-06-28T15:21:30Z</time>
      </trkpt>
      <trkpt lat="47.29581" lon="-0.139">
        <ele>30.899536132812</ele>
        <time>2013-06-28T15:21:41Z</time>
      </trkpt>
      <trkpt lat="47.29638" lon="-0.13959">
        <ele>30.899536132812</ele>
        <time>2013-06-28T15:21:51Z</time>
      </trkpt>
      <trkpt lat="47.29694" lon="-0.14002">
        <ele>30.418823242188</ele>
        <time>2013-06-28T15:22:00Z</time>
      </trkpt>
      <trkpt lat="47.29767" lon="-0.14058">
        <ele>30.899536132812</ele>
        <time>2013-06-28T15:22:12Z</time>
      </trkpt>
      <trkpt lat="47.29834" lon="-0.14108">
        <ele>30.899536132812</ele>
        <time>2013-06-28T15:22:23Z</time>
      </trkpt>
      <trkpt lat="47.29912" lon="-0.14169">
        <ele>30.418823242188</ele>
        <time>2013-06-28T15:22:36Z</time>
      </trkpt>
      <trkpt lat="47.29976" lon="-0.14217">
        <ele>32.341552734375</ele>
        <time>2013-06-28T15:22:47Z</time>
      </trkpt>
      <trkpt lat="47.30033" lon="-0.14268">
        <ele>31.860717773438</ele>
        <time>2013-06-28T15:22:57Z</time>
      </trkpt>
      <trkpt lat="47.30103" lon="-0.14334">
        <ele>33.302856445312</ele>
        <time>2013-06-28T15:23:09Z</time>
      </trkpt>
      <trkpt lat="47.30144" lon="-0.14371">
        <ele>34.26416015625</ele>
        <time>2013-06-28T15:23:16Z</time>
      </trkpt>
      <trkpt lat="47.30204" lon="-0.14427">
        <ele>34.744873046875</ele>
        <time>2013-06-28T15:23:28Z</time>
      </trkpt>
      <trkpt lat="47.30219" lon="-0.14443">
        <ele>34.744873046875</ele>
        <time>2013-06-28T15:23:31Z</time>
      </trkpt>
      <trkpt lat="47.30278" lon="-0.14496">
        <ele>32.822265625</ele>
        <time>2013-06-28T15:23:40Z</time>
      </trkpt>
      <trkpt lat="47.30386" lon="-0.14607">
        <ele>33.302856445312</ele>
        <time>2013-06-28T15:23:57Z</time>
      </trkpt>
      <trkpt lat="47.30457" lon="-0.14698">
        <ele>34.26416015625</ele>
        <time>2013-06-28T15:24:10Z</time>
      </trkpt>
      <trkpt lat="47.30499" lon="-0.1477">
        <ele>32.822265625</ele>
        <time>2013-06-28T15:24:19Z</time>
      </trkpt>
      <trkpt lat="47.30567" lon="-0.14892">
        <ele>32.822265625</ele>
        <time>2013-06-28T15:24:34Z</time>
      </trkpt>
      <trkpt lat="47.30626" lon="-0.14984">
        <ele>32.822265625</ele>
        <time>2013-06-28T15:24:46Z</time>
      </trkpt>
      <trkpt lat="47.30698" lon="-0.15101">
        <ele>32.341552734375</ele>
        <time>2013-06-28T15:25:01Z</time>
      </trkpt>
      <trkpt lat="47.30735" lon="-0.15177">
        <ele>33.302856445312</ele>
        <time>2013-06-28T15:25:10Z</time>
      </trkpt>
      <trkpt lat="47.30755" lon="-0.15232">
        <ele>33.302856445312</ele>
        <time>2013-06-28T15:25:16Z</time>
      </trkpt>
      <trkpt lat="47.30861" lon="-0.15343">
        <ele>32.822265625</ele>
        <time>2013-06-28T15:25:35Z</time>
      </trkpt>
      <trkpt lat="47.31061" lon="-0.1566">
        <ele>32.822265625</ele>
        <time>2013-06-28T15:26:17Z</time>
      </trkpt>
      <trkpt lat="47.31103" lon="-0.15727">
        <ele>32.341552734375</ele>
        <time>2013-06-28T15:26:25Z</time>
      </trkpt>
      <trkpt lat="47.31163" lon="-0.15869">
        <ele>32.822265625</ele>
        <time>2013-06-28T15:26:40Z</time>
      </trkpt>
      <trkpt lat="47.31211" lon="-0.15965">
        <ele>32.822265625</ele>
        <time>2013-06-28T15:26:50Z</time>
      </trkpt>
      <trkpt lat="47.31302" lon="-0.16074">
        <ele>31.860717773438</ele>
        <time>2013-06-28T15:27:05Z</time>
      </trkpt>
      <trkpt lat="47.3134" lon="-0.16128">
        <ele>31.860717773438</ele>
        <time>2013-06-28T15:27:12Z</time>
      </trkpt>
      <trkpt lat="47.3137" lon="-0.16211">
        <ele>31.860717773438</ele>
        <time>2013-06-28T15:27:21Z</time>
      </trkpt>
      <trkpt lat="47.31376" lon="-0.16231">
        <ele>32.341552734375</ele>
        <time>2013-06-28T15:27:23Z</time>
      </trkpt>
      <trkpt lat="47.31379" lon="-0.16308">
        <ele>31.860717773438</ele>
        <time>2013-06-28T15:27:30Z</time>
      </trkpt>
      <trkpt lat="47.31387" lon="-0.16418">
        <ele>31.860717773438</ele>
        <time>2013-06-28T15:27:40Z</time>
      </trkpt>
      <trkpt lat="47.31397" lon="-0.16538">
        <ele>31.860717773438</ele>
        <time>2013-06-28T15:27:51Z</time>
      </trkpt>
      <trkpt lat="47.314" lon="-0.16571">
        <ele>32.341552734375</ele>
        <time>2013-06-28T15:27:54Z</time>
      </trkpt>
      <trkpt lat="47.31437" lon="-0.16721">
        <ele>32.341552734375</ele>
        <time>2013-06-28T15:28:08Z</time>
      </trkpt>
      <trkpt lat="47.31472" lon="-0.1686">
        <ele>31.380126953125</ele>
        <time>2013-06-28T15:28:21Z</time>
      </trkpt>
      <trkpt lat="47.31483" lon="-0.16939">
        <ele>31.860717773438</ele>
        <time>2013-06-28T15:28:28Z</time>
      </trkpt>
      <trkpt lat="47.31491" lon="-0.17007">
        <ele>31.380126953125</ele>
        <time>2013-06-28T15:28:34Z</time>
      </trkpt>
      <trkpt lat="47.31587" lon="-0.17206">
        <ele>29.938110351562</ele>
        <time>2013-06-28T15:28:55Z</time>
      </trkpt>
      <trkpt lat="47.31706" lon="-0.17377">
        <ele>31.380126953125</ele>
        <time>2013-06-28T15:29:16Z</time>
      </trkpt>
      <trkpt lat="47.31748" lon="-0.175">
        <ele>31.860717773438</ele>
        <time>2013-06-28T15:29:29Z</time>
      </trkpt>
      <trkpt lat="47.31762" lon="-0.17579">
        <ele>31.380126953125</ele>
        <time>2013-06-28T15:29:36Z</time>
      </trkpt>
      <trkpt lat="47.31791" lon="-0.17713">
        <ele>32.341552734375</ele>
        <time>2013-06-28T15:29:48Z</time>
      </trkpt>
      <trkpt lat="47.31827" lon="-0.17817">
        <ele>32.341552734375</ele>
        <time>2013-06-28T15:29:58Z</time>
      </trkpt>
      <trkpt lat="47.31879" lon="-0.17956">
        <ele>31.860717773438</ele>
        <time>2013-06-28T15:30:12Z</time>
      </trkpt>
      <trkpt lat="47.31923" lon="-0.18078">
        <ele>31.380126953125</ele>
        <time>2013-06-28T15:30:24Z</time>
      </trkpt>
      <trkpt lat="47.31973" lon="-0.18192">
        <ele>32.341552734375</ele>
        <time>2013-06-28T15:30:36Z</time>
      </trkpt>
      <trkpt lat="47.32" lon="-0.18264">
        <ele>32.341552734375</ele>
        <time>2013-06-28T15:30:43Z</time>
      </trkpt>
      <trkpt lat="47.32039" lon="-0.18356">
        <ele>31.860717773438</ele>
        <time>2013-06-28T15:30:52Z</time>
      </trkpt>
      <trkpt lat="47.32085" lon="-0.18422">
        <ele>32.341552734375</ele>
        <time>2013-06-28T15:31:00Z</time>
      </trkpt>
      <trkpt lat="47.32157" lon="-0.1853">
        <ele>31.860717773438</ele>
        <time>2013-06-28T15:31:13Z</time>
      </trkpt>
      <trkpt lat="47.32219" lon="-0.18629">
        <ele>31.380126953125</ele>
        <time>2013-06-28T15:31:25Z</time>
      </trkpt>
      <trkpt lat="47.32274" lon="-0.18736">
        <ele>30.899536132812</ele>
        <time>2013-06-28T15:31:37Z</time>
      </trkpt>
      <trkpt lat="47.32425" lon="-0.19056">
        <ele>29.938110351562</ele>
        <time>2013-06-28T15:32:11Z</time>
      </trkpt>
      <trkpt lat="47.3243" lon="-0.19064">
        <ele>29.938110351562</ele>
        <time>2013-06-28T15:32:12Z</time>
      </trkpt>
      <trkpt lat="47.32471" lon="-0.19138">
        <ele>29.938110351562</ele>
        <time>2013-06-28T15:32:22Z</time>
      </trkpt>
      <trkpt lat="47.32518" lon="-0.1921">
        <ele>31.380126953125</ele>
        <time>2013-06-28T15:32:31Z</time>
      </trkpt>
      <trkpt lat="47.32575" lon="-0.19315">
        <ele>31.860717773438</ele>
        <time>2013-06-28T15:32:43Z</time>
      </trkpt>
      <trkpt lat="47.3266" lon="-0.19496">
        <ele>31.860717773438</ele>
        <time>2013-06-28T15:33:03Z</time>
      </trkpt>
      <trkpt lat="47.32718" lon="-0.19584">
        <ele>31.380126953125</ele>
        <time>2013-06-28T15:33:14Z</time>
      </trkpt>
      <trkpt lat="47.32761" lon="-0.19656">
        <ele>31.860717773438</ele>
        <time>2013-06-28T15:33:23Z</time>
      </trkpt>
      <trkpt lat="47.32814" lon="-0.19746">
        <ele>32.341552734375</ele>
        <time>2013-06-28T15:33:34Z</time>
      </trkpt>
      <trkpt lat="47.32896" lon="-0.19863">
        <ele>32.341552734375</ele>
        <time>2013-06-28T15:33:47Z</time>
      </trkpt>
      <trkpt lat="47.32953" lon="-0.19938">
        <ele>31.860717773438</ele>
        <time>2013-06-28T15:33:58Z</time>
      </trkpt>
      <trkpt lat="47.3302" lon="-0.20016">
        <ele>31.380126953125</ele>
        <time>2013-06-28T15:34:10Z</time>
      </trkpt>
      <trkpt lat="47.33074" lon="-0.2007">
        <ele>30.899536132812</ele>
        <time>2013-06-28T15:34:19Z</time>
      </trkpt>
      <trkpt lat="47.33132" lon="-0.20114">
        <ele>30.899536132812</ele>
        <time>2013-06-28T15:34:28Z</time>
      </trkpt>
      <trkpt lat="47.33143" lon="-0.20127">
        <ele>30.899536132812</ele>
        <time>2013-06-28T15:34:30Z</time>
      </trkpt>
      <trkpt lat="47.33188" lon="-0.20209">
        <ele>30.899536132812</ele>
        <time>2013-06-28T15:34:40Z</time>
      </trkpt>
      <trkpt lat="47.33232" lon="-0.20302">
        <ele>29.938110351562</ele>
        <time>2013-06-28T15:34:51Z</time>
      </trkpt>
      <trkpt lat="47.33275" lon="-0.20394">
        <ele>30.418823242188</ele>
        <time>2013-06-28T15:35:02Z</time>
      </trkpt>
      <trkpt lat="47.33314" lon="-0.20475">
        <ele>30.418823242188</ele>
        <time>2013-06-28T15:35:12Z</time>
      </trkpt>
      <trkpt lat="47.33362" lon="-0.20577">
        <ele>30.418823242188</ele>
        <time>2013-06-28T15:35:24Z</time>
      </trkpt>
      <trkpt lat="47.33411" lon="-0.20702">
        <ele>30.418823242188</ele>
        <time>2013-06-28T15:35:38Z</time>
      </trkpt>
      <trkpt lat="47.33429" lon="-0.20809">
        <ele>31.860717773438</ele>
        <time>2013-06-28T15:35:49Z</time>
      </trkpt>
      <trkpt lat="47.33445" lon="-0.20889">
        <ele>31.860717773438</ele>
        <time>2013-06-28T15:35:58Z</time>
      </trkpt>
      <trkpt lat="47.33464" lon="-0.20974">
        <ele>31.860717773438</ele>
        <time>2013-06-28T15:36:08Z</time>
      </trkpt>
      <trkpt lat="47.33486" lon="-0.21053">
        <ele>32.341552734375</ele>
        <time>2013-06-28T15:36:17Z</time>
      </trkpt>
      <trkpt lat="47.33526" lon="-0.21156">
        <ele>31.860717773438</ele>
        <time>2013-06-28T15:36:29Z</time>
      </trkpt>
      <trkpt lat="47.33556" lon="-0.21242">
        <ele>31.860717773438</ele>
        <time>2013-06-28T15:36:39Z</time>
      </trkpt>
      <trkpt lat="47.33591" lon="-0.21314">
        <ele>31.860717773438</ele>
        <time>2013-06-28T15:36:48Z</time>
      </trkpt>
      <trkpt lat="47.33647" lon="-0.21417">
        <ele>31.860717773438</ele>
        <time>2013-06-28T15:37:02Z</time>
      </trkpt>
      <trkpt lat="47.33672" lon="-0.21473">
        <ele>31.860717773438</ele>
        <time>2013-06-28T15:37:09Z</time>
      </trkpt>
      <trkpt lat="47.33685" lon="-0.21563">
        <ele>31.860717773438</ele>
        <time>2013-06-28T15:37:18Z</time>
      </trkpt>
      <trkpt lat="47.33705" lon="-0.21675">
        <ele>31.860717773438</ele>
        <time>2013-06-28T15:37:29Z</time>
      </trkpt>
      <trkpt lat="47.33858" lon="-0.22108">
        <ele>32.341552734375</ele>
        <time>2013-06-28T15:38:14Z</time>
      </trkpt>
      <trkpt lat="47.33899" lon="-0.22274">
        <ele>33.302856445312</ele>
        <time>2013-06-28T15:38:30Z</time>
      </trkpt>
      <trkpt lat="47.3393" lon="-0.224">
        <ele>32.822265625</ele>
        <time>2013-06-28T15:38:42Z</time>
      </trkpt>
      <trkpt lat="47.33963" lon="-0.22533">
        <ele>32.822265625</ele>
        <time>2013-06-28T15:38:55Z</time>
      </trkpt>
      <trkpt lat="47.33989" lon="-0.22635">
        <ele>32.822265625</ele>
        <time>2013-06-28T15:39:05Z</time>
      </trkpt>
      <trkpt lat="47.34008" lon="-0.22713">
        <ele>32.341552734375</ele>
        <time>2013-06-28T15:39:13Z</time>
      </trkpt>
      <trkpt lat="47.34033" lon="-0.22813">
        <ele>32.822265625</ele>
        <time>2013-06-28T15:39:23Z</time>
      </trkpt>
      <trkpt lat="47.34071" lon="-0.22971">
        <ele>32.822265625</ele>
        <time>2013-06-28T15:39:39Z</time>
      </trkpt>
      <trkpt lat="47.34099" lon="-0.23087">
        <ele>32.341552734375</ele>
        <time>2013-06-28T15:39:51Z</time>
      </trkpt>
      <trkpt lat="47.34112" lon="-0.23141">
        <ele>31.380126953125</ele>
        <time>2013-06-28T15:39:58Z</time>
      </trkpt>
      <trkpt lat="47.34118" lon="-0.23176">
        <ele>29.938110351562</ele>
        <time>2013-06-28T15:40:04Z</time>
      </trkpt>
      <trkpt lat="47.34125" lon="-0.23183">
        <ele>29.938110351562</ele>
        <time>2013-06-28T15:40:06Z</time>
      </trkpt>
      <trkpt lat="47.34199" lon="-0.23184">
        <ele>30.418823242188</ele>
        <time>2013-06-28T15:40:18Z</time>
      </trkpt>
      <trkpt lat="47.34335" lon="-0.23207">
        <ele>30.899536132812</ele>
        <time>2013-06-28T15:40:44Z</time>
      </trkpt>
      <trkpt lat="47.3437" lon="-0.23197">
        <ele>30.899536132812</ele>
        <time>2013-06-28T15:40:52Z</time>
      </trkpt>
      <trkpt lat="47.34408" lon="-0.23162">
        <ele>31.860717773438</ele>
        <time>2013-06-28T15:41:02Z</time>
      </trkpt>
      <trkpt lat="47.34456" lon="-0.23121">
        <ele>32.341552734375</ele>
        <time>2013-06-28T15:41:12Z</time>
      </trkpt>
      <trkpt lat="47.34481" lon="-0.231">
        <ele>33.302856445312</ele>
        <time>2013-06-28T15:41:19Z</time>
      </trkpt>
      <trkpt lat="47.3452" lon="-0.23067">
        <ele>34.744873046875</ele>
        <time>2013-06-28T15:41:29Z</time>
      </trkpt>
      <trkpt lat="47.34579" lon="-0.23017">
        <ele>36.186767578125</ele>
        <time>2013-06-28T15:41:41Z</time>
      </trkpt>
      <trkpt lat="47.3464" lon="-0.22964">
        <ele>34.744873046875</ele>
        <time>2013-06-28T15:41:52Z</time>
      </trkpt>
      <trkpt lat="47.34706" lon="-0.22908">
        <ele>34.744873046875</ele>
        <time>2013-06-28T15:42:03Z</time>
      </trkpt>
      <trkpt lat="47.34775" lon="-0.2285">
        <ele>34.26416015625</ele>
        <time>2013-06-28T15:42:15Z</time>
      </trkpt>
      <trkpt lat="47.34853" lon="-0.22772">
        <ele>35.225463867188</ele>
        <time>2013-06-28T15:42:30Z</time>
      </trkpt>
      <trkpt lat="47.34916" lon="-0.2272">
        <ele>35.225463867188</ele>
        <time>2013-06-28T15:42:42Z</time>
      </trkpt>
      <trkpt lat="47.34943" lon="-0.22699">
        <ele>35.7060546875</ele>
        <time>2013-06-28T15:42:49Z</time>
      </trkpt>
      <trkpt lat="47.34947" lon="-0.22696">
        <ele>35.7060546875</ele>
        <time>2013-06-28T15:42:51Z</time>
      </trkpt>
      <trkpt lat="47.34955" lon="-0.22697">
        <ele>35.7060546875</ele>
        <time>2013-06-28T15:42:55Z</time>
      </trkpt>
      <trkpt lat="47.34968" lon="-0.22687">
        <ele>34.744873046875</ele>
        <time>2013-06-28T15:43:04Z</time>
      </trkpt>
      <trkpt lat="47.34975" lon="-0.22684">
        <ele>34.744873046875</ele>
        <time>2013-06-28T15:43:07Z</time>
      </trkpt>
      <trkpt lat="47.34988" lon="-0.22705">
        <ele>33.783447265625</ele>
        <time>2013-06-28T15:43:15Z</time>
      </trkpt>
      <trkpt lat="47.35002" lon="-0.22736">
        <ele>33.783447265625</ele>
        <time>2013-06-28T15:43:23Z</time>
      </trkpt>
      <trkpt lat="47.35012" lon="-0.22755">
        <ele>33.783447265625</ele>
        <time>2013-06-28T15:43:30Z</time>
      </trkpt>
      <trkpt lat="47.35015" lon="-0.2276">
        <ele>33.783447265625</ele>
        <time>2013-06-28T15:43:36Z</time>
      </trkpt>
      <trkpt lat="47.35024" lon="-0.22779">
        <ele>33.783447265625</ele>
        <time>2013-06-28T15:43:42Z</time>
      </trkpt>
      <trkpt lat="47.35044" lon="-0.22817">
        <ele>34.26416015625</ele>
        <time>2013-06-28T15:43:50Z</time>
      </trkpt>
      <trkpt lat="47.35091" lon="-0.22842">
        <ele>34.26416015625</ele>
        <time>2013-06-28T15:43:57Z</time>
      </trkpt>
      <trkpt lat="47.35108" lon="-0.22896">
        <ele>34.744873046875</ele>
        <time>2013-06-28T15:44:07Z</time>
      </trkpt>
      <trkpt lat="47.35115" lon="-0.22928">
        <ele>35.225463867188</ele>
        <time>2013-06-28T15:44:14Z</time>
      </trkpt>
      <trkpt lat="47.35123" lon="-0.22982">
        <ele>35.225463867188</ele>
        <time>2013-06-28T15:44:22Z</time>
      </trkpt>
      <trkpt lat="47.3513" lon="-0.23019">
        <ele>34.744873046875</ele>
        <time>2013-06-28T15:44:27Z</time>
      </trkpt>
      <trkpt lat="47.35142" lon="-0.2304">
        <ele>34.26416015625</ele>
        <time>2013-06-28T15:44:31Z</time>
      </trkpt>
      <trkpt lat="47.35154" lon="-0.23083">
        <ele>33.302856445312</ele>
        <time>2013-06-28T15:44:37Z</time>
      </trkpt>
      <trkpt lat="47.35155" lon="-0.23108">
        <ele>33.302856445312</ele>
        <time>2013-06-28T15:44:40Z</time>
      </trkpt>
      <trkpt lat="47.35177" lon="-0.23189">
        <ele>33.302856445312</ele>
        <time>2013-06-28T15:44:50Z</time>
      </trkpt>
      <trkpt lat="47.35206" lon="-0.23246">
        <ele>32.341552734375</ele>
        <time>2013-06-28T15:44:58Z</time>
      </trkpt>
      <trkpt lat="47.35249" lon="-0.23329">
        <ele>30.899536132812</ele>
        <time>2013-06-28T15:45:10Z</time>
      </trkpt>
      <trkpt lat="47.35286" lon="-0.23422">
        <ele>30.899536132812</ele>
        <time>2013-06-28T15:45:22Z</time>
      </trkpt>
      <trkpt lat="47.35316" lon="-0.23513">
        <ele>31.860717773438</ele>
        <time>2013-06-28T15:45:33Z</time>
      </trkpt>
      <trkpt lat="47.35347" lon="-0.23611">
        <ele>31.860717773438</ele>
        <time>2013-06-28T15:45:45Z</time>
      </trkpt>
      <trkpt lat="47.35387" lon="-0.23728">
        <ele>31.860717773438</ele>
        <time>2013-06-28T15:45:59Z</time>
      </trkpt>
      <trkpt lat="47.35424" lon="-0.23819">
        <ele>31.380126953125</ele>
        <time>2013-06-28T15:46:11Z</time>
      </trkpt>
      <trkpt lat="47.3544" lon="-0.23849">
        <ele>31.380126953125</ele>
        <time>2013-06-28T15:46:18Z</time>
      </trkpt>
      <trkpt lat="47.3544" lon="-0.23849">
        <ele>32.341552734375</ele>
        <time>2013-06-28T15:46:27Z</time>
      </trkpt>
      <trkpt lat="47.35442" lon="-0.23852">
        <ele>32.822265625</ele>
        <time>2013-06-28T15:46:38Z</time>
      </trkpt>
      <trkpt lat="47.35442" lon="-0.23853">
        <ele>33.783447265625</ele>
        <time>2013-06-28T15:46:44Z</time>
      </trkpt>
      <trkpt lat="47.35443" lon="-0.23853">
        <ele>34.26416015625</ele>
        <time>2013-06-28T15:47:27Z</time>
      </trkpt>
      <trkpt lat="47.35443" lon="-0.23854">
        <ele>34.26416015625</ele>
        <time>2013-06-28T15:47:50Z</time>
      </trkpt>
      <trkpt lat="47.35443" lon="-0.23854">
        <ele>34.26416015625</ele>
        <time>2013-06-28T15:47:58Z</time>
      </trkpt>
      <trkpt lat="47.35447" lon="-0.23868">
        <ele>34.26416015625</ele>
        <time>2013-06-28T15:48:04Z</time>
      </trkpt>
      <trkpt lat="47.35465" lon="-0.23911">
        <ele>33.783447265625</ele>
        <time>2013-06-28T15:48:12Z</time>
      </trkpt>
      <trkpt lat="47.35494" lon="-0.23961">
        <ele>33.302856445312</ele>
        <time>2013-06-28T15:48:20Z</time>
      </trkpt>
      <trkpt lat="47.35535" lon="-0.24017">
        <ele>33.783447265625</ele>
        <time>2013-06-28T15:48:29Z</time>
      </trkpt>
      <trkpt lat="47.35586" lon="-0.24086">
        <ele>32.822265625</ele>
        <time>2013-06-28T15:48:39Z</time>
      </trkpt>
      <trkpt lat="47.35648" lon="-0.24166">
        <ele>32.822265625</ele>
        <time>2013-06-28T15:48:51Z</time>
      </trkpt>
      <trkpt lat="47.35709" lon="-0.24228">
        <ele>32.822265625</ele>
        <time>2013-06-28T15:49:02Z</time>
      </trkpt>
      <trkpt lat="47.3572" lon="-0.2424">
        <ele>32.822265625</ele>
        <time>2013-06-28T15:49:04Z</time>
      </trkpt>
      <trkpt lat="47.35782" lon="-0.24335">
        <ele>33.302856445312</ele>
        <time>2013-06-28T15:49:17Z</time>
      </trkpt>
      <trkpt lat="47.35837" lon="-0.24415">
        <ele>32.822265625</ele>
        <time>2013-06-28T15:49:28Z</time>
      </trkpt>
      <trkpt lat="47.35892" lon="-0.24483">
        <ele>32.822265625</ele>
        <time>2013-06-28T15:49:38Z</time>
      </trkpt>
      <trkpt lat="47.35978" lon="-0.24575">
        <ele>33.302856445312</ele>
        <time>2013-06-28T15:49:53Z</time>
      </trkpt>
      <trkpt lat="47.36043" lon="-0.24645">
        <ele>33.302856445312</ele>
        <time>2013-06-28T15:50:04Z</time>
      </trkpt>
      <trkpt lat="47.36112" lon="-0.24717">
        <ele>32.822265625</ele>
        <time>2013-06-28T15:50:16Z</time>
      </trkpt>
      <trkpt lat="47.36184" lon="-0.24795">
        <ele>32.822265625</ele>
        <time>2013-06-28T15:50:28Z</time>
      </trkpt>
      <trkpt lat="47.36263" lon="-0.24877">
        <ele>32.822265625</ele>
        <time>2013-06-28T15:50:41Z</time>
      </trkpt>
      <trkpt lat="47.36337" lon="-0.24955">
        <ele>32.822265625</ele>
        <time>2013-06-28T15:50:53Z</time>
      </trkpt>
      <trkpt lat="47.36422" lon="-0.25043">
        <ele>32.822265625</ele>
        <time>2013-06-28T15:51:07Z</time>
      </trkpt>
      <trkpt lat="47.36483" lon="-0.25106">
        <ele>32.341552734375</ele>
        <time>2013-06-28T15:51:17Z</time>
      </trkpt>
      <trkpt lat="47.36574" lon="-0.25198">
        <ele>31.380126953125</ele>
        <time>2013-06-28T15:51:32Z</time>
      </trkpt>
      <trkpt lat="47.36615" lon="-0.25222">
        <ele>31.380126953125</ele>
        <time>2013-06-28T15:51:38Z</time>
      </trkpt>
      <trkpt lat="47.36696" lon="-0.25255">
        <ele>31.380126953125</ele>
        <time>2013-06-28T15:51:49Z</time>
      </trkpt>
      <trkpt lat="47.36758" lon="-0.25294">
        <ele>32.341552734375</ele>
        <time>2013-06-28T15:51:58Z</time>
      </trkpt>
      <trkpt lat="47.36834" lon="-0.2535">
        <ele>31.860717773438</ele>
        <time>2013-06-28T15:52:09Z</time>
      </trkpt>
      <trkpt lat="47.369" lon="-0.25397">
        <ele>31.860717773438</ele>
        <time>2013-06-28T15:52:18Z</time>
      </trkpt>
      <trkpt lat="47.36983" lon="-0.25449">
        <ele>31.860717773438</ele>
        <time>2013-06-28T15:52:29Z</time>
      </trkpt>
      <trkpt lat="47.3706" lon="-0.25494">
        <ele>32.341552734375</ele>
        <time>2013-06-28T15:52:40Z</time>
      </trkpt>
      <trkpt lat="47.37125" lon="-0.25544">
        <ele>32.822265625</ele>
        <time>2013-06-28T15:52:50Z</time>
      </trkpt>
      <trkpt lat="47.37194" lon="-0.25612">
        <ele>32.341552734375</ele>
        <time>2013-06-28T15:53:01Z</time>
      </trkpt>
      <trkpt lat="47.37259" lon="-0.25667">
        <ele>32.341552734375</ele>
        <time>2013-06-28T15:53:11Z</time>
      </trkpt>
      <trkpt lat="47.3735" lon="-0.25743">
        <ele>31.860717773438</ele>
        <time>2013-06-28T15:53:25Z</time>
      </trkpt>
      <trkpt lat="47.37421" lon="-0.2581">
        <ele>32.341552734375</ele>
        <time>2013-06-28T15:53:36Z</time>
      </trkpt>
      <trkpt lat="47.37502" lon="-0.25881">
        <ele>32.822265625</ele>
        <time>2013-06-28T15:53:48Z</time>
      </trkpt>
      <trkpt lat="47.37573" lon="-0.25951">
        <ele>33.302856445312</ele>
        <time>2013-06-28T15:53:59Z</time>
      </trkpt>
      <trkpt lat="47.37642" lon="-0.26023">
        <ele>33.302856445312</ele>
        <time>2013-06-28T15:54:09Z</time>
      </trkpt>
      <trkpt lat="47.37697" lon="-0.26077">
        <ele>33.302856445312</ele>
        <time>2013-06-28T15:54:17Z</time>
      </trkpt>
      <trkpt lat="47.37778" lon="-0.26157">
        <ele>33.302856445312</ele>
        <time>2013-06-28T15:54:29Z</time>
      </trkpt>
      <trkpt lat="47.37877" lon="-0.26252">
        <ele>32.822265625</ele>
        <time>2013-06-28T15:54:44Z</time>
      </trkpt>
      <trkpt lat="47.37988" lon="-0.26359">
        <ele>32.822265625</ele>
        <time>2013-06-28T15:55:01Z</time>
      </trkpt>
      <trkpt lat="47.38064" lon="-0.26425">
        <ele>32.822265625</ele>
        <time>2013-06-28T15:55:13Z</time>
      </trkpt>
      <trkpt lat="47.38144" lon="-0.26482">
        <ele>32.822265625</ele>
        <time>2013-06-28T15:55:26Z</time>
      </trkpt>
      <trkpt lat="47.38238" lon="-0.26533">
        <ele>32.822265625</ele>
        <time>2013-06-28T15:55:40Z</time>
      </trkpt>
      <trkpt lat="47.38294" lon="-0.26578">
        <ele>32.822265625</ele>
        <time>2013-06-28T15:55:49Z</time>
      </trkpt>
      <trkpt lat="47.38351" lon="-0.26643">
        <ele>32.341552734375</ele>
        <time>2013-06-28T15:55:59Z</time>
      </trkpt>
      <trkpt lat="47.38438" lon="-0.26756">
        <ele>32.341552734375</ele>
        <time>2013-06-28T15:56:15Z</time>
      </trkpt>
      <trkpt lat="47.38508" lon="-0.26831">
        <ele>31.860717773438</ele>
        <time>2013-06-28T15:56:27Z</time>
      </trkpt>
      <trkpt lat="47.38584" lon="-0.26893">
        <ele>31.860717773438</ele>
        <time>2013-06-28T15:56:39Z</time>
      </trkpt>
      <trkpt lat="47.38664" lon="-0.2696">
        <ele>32.341552734375</ele>
        <time>2013-06-28T15:56:52Z</time>
      </trkpt>
      <trkpt lat="47.3875" lon="-0.2704">
        <ele>32.341552734375</ele>
        <time>2013-06-28T15:57:06Z</time>
      </trkpt>
      <trkpt lat="47.3885" lon="-0.27134">
        <ele>31.860717773438</ele>
        <time>2013-06-28T15:57:22Z</time>
      </trkpt>
      <trkpt lat="47.38918" lon="-0.27179">
        <ele>32.341552734375</ele>
        <time>2013-06-28T15:57:32Z</time>
      </trkpt>
      <trkpt lat="47.38992" lon="-0.27206">
        <ele>32.341552734375</ele>
        <time>2013-06-28T15:57:43Z</time>
      </trkpt>
      <trkpt lat="47.39054" lon="-0.27237">
        <ele>31.860717773438</ele>
        <time>2013-06-28T15:57:54Z</time>
      </trkpt>
      <trkpt lat="47.39108" lon="-0.27267">
        <ele>31.860717773438</ele>
        <time>2013-06-28T15:58:04Z</time>
      </trkpt>
      <trkpt lat="47.39161" lon="-0.27295">
        <ele>32.341552734375</ele>
        <time>2013-06-28T15:58:14Z</time>
      </trkpt>
      <trkpt lat="47.39185" lon="-0.2731">
        <ele>31.860717773438</ele>
        <time>2013-06-28T15:58:21Z</time>
      </trkpt>
      <trkpt lat="47.39187" lon="-0.27311">
        <ele>32.822265625</ele>
        <time>2013-06-28T15:58:25Z</time>
      </trkpt>
      <trkpt lat="47.39187" lon="-0.27313">
        <ele>32.822265625</ele>
        <time>2013-06-28T15:58:29Z</time>
      </trkpt>
      <trkpt lat="47.39193" lon="-0.27319">
        <ele>32.822265625</ele>
        <time>2013-06-28T15:58:34Z</time>
      </trkpt>
      <trkpt lat="47.39193" lon="-0.27332">
        <ele>32.822265625</ele>
        <time>2013-06-28T15:58:39Z</time>
      </trkpt>
      <trkpt lat="47.39196" lon="-0.27334">
        <ele>32.822265625</ele>
        <time>2013-06-28T15:58:41Z</time>
      </trkpt>
      <trkpt lat="47.39212" lon="-0.27349">
        <ele>30.899536132812</ele>
        <time>2013-06-28T15:58:49Z</time>
      </trkpt>
      <trkpt lat="47.39232" lon="-0.27374">
        <ele>28.976928710938</ele>
        <time>2013-06-28T15:58:54Z</time>
      </trkpt>
      <trkpt lat="47.39255" lon="-0.27402">
        <ele>29.45751953125</ele>
        <time>2013-06-28T15:59:00Z</time>
      </trkpt>
      <trkpt lat="47.39297" lon="-0.27454">
        <ele>30.418823242188</ele>
        <time>2013-06-28T15:59:20Z</time>
      </trkpt>
      <trkpt lat="47.39316" lon="-0.27468">
        <ele>30.418823242188</ele>
        <time>2013-06-28T15:59:27Z</time>
      </trkpt>
      <trkpt lat="47.39325" lon="-0.27457">
        <ele>29.938110351562</ele>
        <time>2013-06-28T15:59:32Z</time>
      </trkpt>
      <trkpt lat="47.39327" lon="-0.27429">
        <ele>29.45751953125</ele>
        <time>2013-06-28T15:59:39Z</time>
      </trkpt>
      <trkpt lat="47.39336" lon="-0.27427">
        <ele>29.45751953125</ele>
        <time>2013-06-28T15:59:43Z</time>
      </trkpt>
      <trkpt lat="47.39359" lon="-0.27437">
        <ele>28.976928710938</ele>
        <time>2013-06-28T15:59:52Z</time>
      </trkpt>
      <trkpt lat="47.39363" lon="-0.27439">
        <ele>28.496215820312</ele>
        <time>2013-06-28T15:59:54Z</time>
      </trkpt>
      <trkpt lat="47.39365" lon="-0.27441">
        <ele>29.45751953125</ele>
        <time>2013-06-28T16:00:02Z</time>
      </trkpt>
      <trkpt lat="47.39363" lon="-0.27441">
        <ele>32.341552734375</ele>
        <time>2013-06-28T16:00:30Z</time>
      </trkpt>
      <trkpt lat="47.39363" lon="-0.27441">
        <ele>35.7060546875</ele>
        <time>2013-06-28T16:00:45Z</time>
      </trkpt>
      <trkpt lat="47.39363" lon="-0.2744">
        <ele>36.186767578125</ele>
        <time>2013-06-28T16:01:05Z</time>
      </trkpt>
      <trkpt lat="47.39363" lon="-0.27439">
        <ele>34.26416015625</ele>
        <time>2013-06-28T16:01:21Z</time>
      </trkpt>
      <trkpt lat="47.39364" lon="-0.27437">
        <ele>34.26416015625</ele>
        <time>2013-06-28T16:01:34Z</time>
      </trkpt>
    </trkseg>
  </trk>
</gpx>